# Wetter Temperatur Luftdruck Luftfeuchtigkeit Sichtweite Windgeschwindigkeit Windrichtung Zeit
1 Rain 12 1012 93 10000 4.6 60 09:42 14.07.2020
2 Rain 12 1012 93 10000 5.1 60 09:23 14.07.2020
3 Clouds 11 1012 100 10000 4.6 60 08:58 14.07.2020
4 Clouds 11 1012 100 10000 4.6 60 08:58 14.07.2020
5 Clouds 11 1012 100 10000 4.6 60 08:40 14.07.2020
6 Rain 11 1012 93 10000 5.1 60 08:20 14.07.2020
7 Rain 11 1012 93 10000 4.6 50 07:45 14.07.2020
8 Rain 11 1012 93 10000 5.1 50 07:19 14.07.2020
9 Rain 11 1012 100 10000 4.6 60 06:58 14.07.2020
10 Rain 11 1012 100 10000 5.1 60 06:27 14.07.2020
11 Rain 11 1012 100 10000 3.6 70 05:50 14.07.2020
12 Rain 11 1013 100 5000 3.1 70 04:52 14.07.2020
13 Rain 11 1013 100 5000 3.1 70 04:33 14.07.2020
14 Rain 11 1013 93 3300 3.6 60 03:29 14.07.2020
15 Rain 11 1013 93 10000 4.1 50 02:27 14.07.2020
16 Rain 11 1013 93 10000 3.1 60 01:41 14.07.2020
17 Rain 11 1013 93 10000 4.1 60 01:22 14.07.2020
18 Rain 11 1013 100 10000 4.1 50 00:42 14.07.2020
19 Rain 11 1013 93 10000 3.6 50 00:22 14.07.2020
20 Rain 11 1013 93 10000 3.6 50 23:39 13.07.2020
21 Rain 11 1013 100 10000 3.1 50 23:19 13.07.2020
22 Rain 11 1013 93 10000 2.1 70 22:57 13.07.2020
23 Rain 11 1013 93 10000 2.1 70 22:39 13.07.2020
24 Rain 11 1013 93 10000 3.1 50 22:19 13.07.2020
25 Rain 11 1013 93 9000 3.1 80 21:54 13.07.2020
26 Rain 11 1013 93 9000 3.1 80 21:36 13.07.2020
27 Rain 12 1013 93 10000 4.1 60 21:18 13.07.2020
28 Rain 12 1013 93 10000 4.1 60 21:18 13.07.2020
29 Clouds 11 1013 93 10000 4.1 40 20:42 13.07.2020
30 Rain 11 1013 87 10000 3.6 30 20:23 13.07.2020
31 Rain 11 1013 87 10000 3.1 30 19:59 13.07.2020
32 Rain 11 1013 87 10000 3.1 30 19:41 13.07.2020
33 Rain 11 1013 87 10000 3.1 30 19:22 13.07.2020
34 Thunderstorm 12 1014 93 10000 3.6 40 18:56 13.07.2020
35 Thunderstorm 12 1014 93 10000 3.6 40 18:38 13.07.2020
36 Thunderstorm 12 1014 93 10000 3.6 40 18:38 13.07.2020
37 Thunderstorm 14 1013 76 10000 3.1 340 18:19 13.07.2020
38 Rain 14 1013 76 10000 2.1 250 17:43 13.07.2020
39 Rain 13 1013 76 10000 2.6 130 17:22 13.07.2020
40 Thunderstorm 13 1013 76 10000 5.7 160 16:59 13.07.2020
41 Thunderstorm 13 1013 76 10000 5.7 160 16:41 13.07.2020
42 Thunderstorm 17 1013 59 10000 4.6 110 16:20 13.07.2020
43 Rain 16 1013 63 10000 5.1 100 15:58 13.07.2020
44 Rain 16 1013 63 10000 5.1 100 15:38 13.07.2020
45 Rain 16 1013 67 10000 4.6 90 15:20 13.07.2020
46 Clouds 16 1013 63 10000 6.2 70 14:57 13.07.2020
47 Clouds 16 1013 63 10000 6.2 70 14:39 13.07.2020
48 Clouds 16 1013 67 10000 5.7 60 14:20 13.07.2020
49 Rain 15 1013 72 10000 5.7 60 13:43 13.07.2020
50 Rain 15 1013 72 10000 6.2 80 13:22 13.07.2020
51 Clouds 15 1014 72 10000 5.7 80 12:57 13.07.2020
52 Rain 14 1014 82 10000 5.7 80 12:39 13.07.2020
53 Rain 14 1014 82 10000 5.7 80 12:21 13.07.2020
54 Rain 13 1014 87 10000 6.7 90 11:43 13.07.2020
55 Rain 13 1014 87 10000 4.6 80 11:24 13.07.2020
56 Rain 13 1014 87 10000 4.6 80 11:24 13.07.2020
57 Rain 13 1014 87 10000 5.1 90 10:54 13.07.2020
58 Rain 13 1014 87 10000 5.1 90 10:36 13.07.2020
59 Rain 12 1014 93 10000 4.1 70 10:18 13.07.2020
60 Rain 12 1014 93 7000 4.6 70 09:41 13.07.2020
61 Rain 12 1014 93 6000 4.1 60 09:22 13.07.2020
62 Rain 11 1014 100 3000 3.6 90 08:50 13.07.2020
63 Rain 12 1014 87 10000 4.6 70 08:32 13.07.2020
64 Rain 12 1014 87 10000 4.1 70 07:34 13.07.2020
65 Clouds 12 1014 87 10000 4.6 70 06:55 13.07.2020
66 Clouds 12 1014 87 10000 4.6 70 06:36 13.07.2020
67 Clouds 11 1014 93 10000 4.1 70 05:59 13.07.2020
68 Clouds 11 1014 87 10000 4.1 70 04:30 13.07.2020
69 Clouds 12 1014 81 10000 3.1 70 01:49 13.07.2020
70 Rain 12 1014 81 10000 2.1 60 01:25 13.07.2020
71 Rain 12 1014 81 10000 3.1 70 00:46 13.07.2020
72 Rain 11 1014 93 10000 1 0 00:25 13.07.2020
73 Rain 12 1014 81 10000 1.5 190 23:56 12.07.2020
74 Rain 12 1014 81 10000 1.5 190 23:38 12.07.2020
75 Rain 13 1014 71 10000 3.1 200 23:19 12.07.2020
76 Rain 14 1014 71 10000 3.6 180 22:37 12.07.2020
77 Rain 14 1014 67 10000 2.6 100 22:19 12.07.2020
78 Rain 14 1014 67 10000 2.6 110 21:57 12.07.2020
79 Rain 14 1014 67 10000 2.6 110 21:57 12.07.2020
80 Rain 14 1014 67 10000 2.6 110 21:39 12.07.2020
81 Rain 15 1014 62 10000 2.1 130 21:20 12.07.2020
82 Rain 16 1014 59 10000 2.1 120 20:58 12.07.2020
83 Rain 16 1014 59 10000 2.1 120 20:38 12.07.2020
84 Rain 16 1013 51 10000 3.1 120 20:19 12.07.2020
85 Rain 16 1013 55 10000 2.6 90 19:40 12.07.2020
86 Rain 16 1013 59 10000 2.1 100 19:22 12.07.2020
87 Rain 16 1013 59 10000 2.1 130 18:59 12.07.2020
88 Rain 16 1013 59 10000 2.1 130 18:40 12.07.2020
89 Rain 16 1013 63 10000 2.1 100 18:19 12.07.2020
90 Rain 16 1013 63 10000 1.5 170 17:40 12.07.2020
91 Rain 16 1013 55 10000 2.1 230 17:21 12.07.2020
92 Rain 16 1013 59 10000 2.6 230 16:58 12.07.2020
93 Rain 16 1013 59 10000 2.6 230 16:40 12.07.2020
94 Rain 17 1013 51 10000 2.6 190 16:18 12.07.2020
95 Rain 16 1013 51 10000 1 0 15:43 12.07.2020
96 Clouds 17 1013 48 10000 2.1 40 15:23 12.07.2020
97 Clouds 16 1013 55 10000 1.5 0 14:43 12.07.2020
98 Clouds 16 1012 55 10000 4.6 70 14:23 12.07.2020
99 Clouds 16 1012 55 10000 3.1 40 13:41 12.07.2020
100 Clouds 17 1012 45 10000 3.1 70 13:22 12.07.2020
101 Clouds 17 1012 48 10000 2.6 0 12:58 12.07.2020
102 Clouds 17 1012 48 10000 2.6 0 12:40 12.07.2020
103 Clouds 16 1012 51 10000 2.6 330 12:19 12.07.2020
104 Clouds 16 1012 51 10000 2.6 0 11:55 12.07.2020
105 Clouds 16 1012 51 10000 2.6 0 11:36 12.07.2020
106 Clouds 15 1012 51 10000 3.1 300 11:18 12.07.2020
107 Clouds 15 1012 54 10000 2.1 360 10:41 12.07.2020
108 Clouds 14 1011 58 10000 2.1 0 10:19 12.07.2020
109 Clouds 14 1011 62 10000 2.6 0 09:43 12.07.2020
110 Clouds 14 1011 58 10000 2.6 320 09:22 12.07.2020
111 Clouds 13 1011 66 10000 2.1 0 08:57 12.07.2020
112 Clouds 13 1011 66 10000 2.1 0 08:38 12.07.2020
113 Clouds 13 1011 66 10000 1.5 0 08:19 12.07.2020
114 Clouds 13 1010 66 10000 2.1 340 07:47 12.07.2020
115 Clouds 12 1010 71 10000 2.1 20 07:28 12.07.2020
116 Clouds 12 1010 71 10000 2.6 30 06:53 12.07.2020
117 Clouds 11 1010 71 10000 3.1 40 06:22 12.07.2020
118 Clouds 11 1010 76 10000 2.1 30 05:59 12.07.2020
119 Clear 10 1009 81 10000 2.1 360 04:58 12.07.2020
120 Clear 10 1009 81 10000 3.1 340 04:29 12.07.2020
121 Clear 10 1009 81 10000 2.6 360 03:45 12.07.2020
122 Clouds 9 1009 81 10000 2.6 360 03:24 12.07.2020
123 Clear 10 1008 76 10000 3.1 350 01:54 12.07.2020
124 Clear 10 1008 76 10000 3.1 350 00:59 12.07.2020
125 Clear 10 1008 76 10000 3.1 350 00:39 12.07.2020
126 Clear 11 1008 71 10000 3.1 360 00:20 12.07.2020
127 Clear 11 1008 71 10000 2.6 360 23:40 11.07.2020
128 Clear 11 1008 71 10000 2.6 10 23:20 11.07.2020
129 Clear 12 1007 66 10000 2.1 10 22:56 11.07.2020
130 Clear 12 1007 66 10000 2.1 10 22:37 11.07.2020
131 Clear 13 1007 62 10000 2.1 360 22:19 11.07.2020
132 Clear 13 1007 66 10000 2.1 30 21:43 11.07.2020
133 Clear 14 1007 58 10000 3.1 20 21:24 11.07.2020
134 Clear 14 1007 58 10000 2.6 350 20:59 11.07.2020
135 Clear 14 1007 58 10000 2.6 350 20:40 11.07.2020
136 Clouds 14 1007 58 10000 2.6 350 20:21 11.07.2020
137 Clouds 14 1007 58 10000 2.6 350 20:21 11.07.2020
138 Clouds 14 1007 58 10000 1.5 330 19:58 11.07.2020
139 Clouds 14 1007 58 10000 1.5 330 19:40 11.07.2020
140 Rain 15 1007 54 10000 2.1 350 19:22 11.07.2020
141 Rain 14 1007 58 10000 3.1 10 18:56 11.07.2020
142 Rain 14 1007 58 10000 3.1 10 18:38 11.07.2020
143 Clouds 15 1007 54 10000 4.6 30 18:19 11.07.2020
144 Clouds 16 1007 51 10000 5.1 40 17:49 11.07.2020
145 Clouds 15 1007 54 10000 3.6 40 17:22 11.07.2020
146 Clouds 15 1007 54 10000 3.6 40 16:59 11.07.2020
147 Clouds 16 1007 51 10000 5.1 30 16:40 11.07.2020
148 Clouds 15 1007 54 10000 4.6 350 16:21 11.07.2020
149 Clouds 15 1007 51 10000 3.6 10 15:57 11.07.2020
150 Clouds 15 1007 51 10000 3.6 10 15:38 11.07.2020
151 Clouds 15 1007 54 10000 2.6 70 15:20 11.07.2020
152 Clouds 15 1007 54 10000 3.1 360 14:55 11.07.2020
153 Clouds 15 1007 54 10000 3.1 360 14:36 11.07.2020
154 Clouds 15 1007 54 10000 3.6 20 14:18 11.07.2020
155 Clouds 14 1007 54 10000 3.1 360 13:41 11.07.2020
156 Clouds 14 1007 54 10000 1 0 13:21 11.07.2020
157 Clouds 14 1007 58 10000 2.1 50 12:45 11.07.2020
158 Clouds 15 1007 58 10000 2.6 0 12:24 11.07.2020
159 Clouds 14 1007 58 10000 3.1 350 11:59 11.07.2020
160 Clouds 14 1007 58 10000 3.1 350 11:41 11.07.2020
161 Clouds 14 1007 62 10000 2.1 20 11:20 11.07.2020
162 Clouds 12 1007 66 10000 3.6 360 10:55 11.07.2020
163 Clouds 12 1007 66 10000 3.6 360 10:36 11.07.2020
164 Clouds 12 1007 71 10000 2.6 20 10:18 11.07.2020
165 Clouds 12 1007 71 10000 2.6 340 09:39 11.07.2020
166 Clouds 11 1007 81 10000 2.6 330 09:19 11.07.2020
167 Clouds 11 1008 81 10000 2.6 330 08:46 11.07.2020
168 Clouds 10 1008 87 10000 2.1 350 08:27 11.07.2020
169 Clouds 10 1008 87 10000 3.6 350 07:55 11.07.2020
170 Clouds 10 1007 87 10000 3.1 360 07:36 11.07.2020
171 Clouds 10 1007 87 10000 3.1 360 07:18 11.07.2020
172 Clouds 8 1007 100 10000 3.6 330 06:26 11.07.2020
173 Clouds 8 1007 100 10000 2.6 330 05:54 11.07.2020
174 Clouds 8 1007 100 10000 2.6 320 05:19 11.07.2020
175 Clouds 8 1006 100 10000 3.1 320 04:44 11.07.2020
176 Clouds 8 1006 100 10000 3.6 320 04:19 11.07.2020
177 Rain 9 1006 93 10000 3.1 330 02:53 11.07.2020
178 Clouds 9 1005 100 10000 3.6 320 01:57 11.07.2020
179 Clouds 9 1005 100 10000 3.6 320 01:22 11.07.2020
180 Clouds 9 1005 100 10000 3.6 320 00:55 11.07.2020
181 Clouds 9 1005 100 10000 3.6 320 00:36 11.07.2020
182 Clouds 9 1004 100 10000 3.6 320 00:18 11.07.2020
183 Drizzle 10 1004 93 10000 3.6 310 23:44 10.07.2020
184 Clouds 10 1004 93 10000 2.6 310 23:26 10.07.2020
185 Clouds 10 1004 100 10000 1 0 22:55 10.07.2020
186 Clouds 10 1004 100 10000 1 0 22:36 10.07.2020
187 Rain 10 1004 100 10000 1.5 300 22:18 10.07.2020
188 Rain 10 1003 100 10000 1.5 260 21:38 10.07.2020
189 Rain 11 1003 93 3200 2.1 250 21:20 10.07.2020
190 Clouds 11 1003 93 10000 1 220 20:54 10.07.2020
191 Clouds 11 1003 93 10000 1 220 20:54 10.07.2020
192 Clouds 11 1003 93 10000 1 220 20:36 10.07.2020
193 Rain 11 1003 87 10000 1 0 20:36 10.07.2020
194 Rain 11 1003 87 10000 1 0 20:18 10.07.2020
195 Clouds 11 1003 93 10000 1 0 19:42 10.07.2020
196 Rain 11 1003 93 10000 1.5 240 19:22 10.07.2020
197 Rain 11 1003 93 10000 2.1 190 18:55 10.07.2020
198 Rain 11 1003 93 10000 2.1 160 18:37 10.07.2020
199 Rain 11 1003 93 10000 2.1 160 18:18 10.07.2020
200 Rain 11 1003 93 10000 3.6 160 17:42 10.07.2020
201 Rain 11 1003 87 10000 3.1 150 17:23 10.07.2020
202 Rain 11 1003 93 10000 3.6 150 16:57 10.07.2020
203 Rain 11 1003 93 10000 3.6 150 16:39 10.07.2020
204 Rain 11 1003 93 10000 3.1 160 16:18 10.07.2020
205 Rain 11 1002 93 10000 3.6 160 15:43 10.07.2020
206 Rain 11 1003 93 10000 3.6 170 15:21 10.07.2020
207 Rain 11 1002 93 10000 4.6 150 14:44 10.07.2020
208 Rain 11 1003 93 10000 4.6 160 14:24 10.07.2020
209 Rain 11 1003 93 10000 4.1 180 13:59 10.07.2020
210 Rain 11 1003 93 10000 4.1 180 13:40 10.07.2020
211 Rain 11 1003 87 10000 4.6 180 13:22 10.07.2020
212 Rain 11 1003 93 10000 3.1 160 12:59 10.07.2020
213 Rain 11 1003 93 10000 3.1 160 12:41 10.07.2020
214 Rain 10 1003 93 10000 3.1 170 12:22 10.07.2020
215 Rain 11 1003 87 10000 3.1 170 11:57 10.07.2020
216 Clouds 11 1003 87 10000 3.1 170 11:38 10.07.2020
217 Rain 11 1002 93 10000 3.1 160 11:18 10.07.2020
218 Rain 10 1002 93 10000 2.6 180 10:41 10.07.2020
219 Rain 10 1002 93 10000 2.6 180 10:21 10.07.2020
220 Rain 10 1002 93 10000 3.1 170 09:55 10.07.2020
221 Rain 10 1002 93 10000 3.1 170 09:36 10.07.2020
222 Rain 10 1002 93 10000 3.1 220 09:18 10.07.2020
223 Rain 10 1002 93 10000 3.6 210 08:46 10.07.2020
224 Rain 9 1002 100 10000 3.6 210 08:28 10.07.2020
225 Rain 9 1002 100 10000 3.1 210 07:59 10.07.2020
226 Rain 9 1002 100 10000 3.1 210 07:41 10.07.2020
227 Rain 9 1002 100 10000 4.1 200 07:20 10.07.2020
228 Rain 10 1002 93 10000 3.6 210 06:45 10.07.2020
229 Rain 10 1002 93 7000 3.1 220 05:53 10.07.2020
230 Rain 10 1003 100 6000 3.6 200 04:31 10.07.2020
231 Rain 11 1003 93 4000 2.6 190 03:22 10.07.2020
232 Rain 11 1003 93 10000 2.1 190 02:41 10.07.2020
233 Rain 11 1003 93 10000 1 0 01:33 10.07.2020
234 Clouds 11 1003 87 10000 0.5 0 00:40 10.07.2020
235 Rain 11 1003 87 10000 2.1 260 00:18 10.07.2020
236 Rain 11 1003 93 10000 2.6 230 23:39 09.07.2020
237 Rain 11 1003 93 10000 4.1 220 23:19 09.07.2020
238 Rain 11 1003 93 10000 5.1 220 22:57 09.07.2020
239 Rain 11 1003 93 10000 5.1 220 22:39 09.07.2020
240 Rain 11 1003 93 9000 4.6 240 22:20 09.07.2020
241 Rain 11 1004 87 4300 3.6 200 21:55 09.07.2020
242 Rain 11 1004 87 4300 3.6 200 21:36 09.07.2020
243 Thunderstorm 12 1004 87 4400 3.6 120 21:18 09.07.2020
244 Thunderstorm 14 1004 71 3200 6.2 60 20:41 09.07.2020
245 Rain 15 1004 67 10000 4.6 220 20:23 09.07.2020
246 Thunderstorm 18 1003 52 10000 2.1 270 19:55 09.07.2020
247 Thunderstorm 18 1003 52 10000 2.1 270 19:37 09.07.2020
248 Rain 17 1003 51 10000 1 0 19:18 09.07.2020
249 Thunderstorm 18 1004 52 10000 1.5 300 18:41 09.07.2020
250 Rain 18 1004 48 10000 2.1 300 18:19 09.07.2020
251 Rain 18 1004 48 10000 2.1 240 17:43 09.07.2020
252 Rain 17 1004 55 10000 4.6 210 17:25 09.07.2020
253 Rain 18 1004 52 10000 2.1 30 16:59 09.07.2020
254 Rain 18 1004 52 10000 2.1 30 16:41 09.07.2020
255 Rain 18 1004 48 10000 2.1 0 16:19 09.07.2020
256 Rain 18 1004 48 10000 2.1 0 16:19 09.07.2020
257 Clouds 18 1004 48 10000 2.1 0 15:59 09.07.2020
258 Clouds 18 1004 48 10000 2.1 0 15:38 09.07.2020
259 Clouds 18 1004 48 10000 2.1 0 15:38 09.07.2020
260 Rain 18 1004 52 10000 1.5 0 15:20 09.07.2020
261 Clouds 18 1005 52 10000 2.6 230 14:58 09.07.2020
262 Clouds 18 1005 52 10000 2.6 230 14:40 09.07.2020
263 Clouds 18 1005 48 10000 2.1 0 14:21 09.07.2020
264 Clouds 18 1005 48 10000 2.1 0 13:56 09.07.2020
265 Clouds 18 1005 48 10000 2.1 0 13:38 09.07.2020
266 Clouds 17 1005 55 10000 2.6 250 13:19 09.07.2020
267 Clouds 18 1005 52 10000 3.1 260 12:42 09.07.2020
268 Clouds 17 1005 55 10000 4.6 200 12:24 09.07.2020
269 Clouds 17 1005 55 10000 4.6 200 12:24 09.07.2020
270 Clouds 18 1005 52 10000 4.6 220 11:58 09.07.2020
271 Clouds 18 1005 52 10000 4.6 220 11:40 09.07.2020
272 Clouds 16 1005 63 10000 3.6 210 11:21 09.07.2020
273 Clouds 16 1005 67 10000 3.6 200 10:56 09.07.2020
274 Clouds 16 1005 67 10000 3.6 200 10:38 09.07.2020
275 Clouds 15 1005 72 10000 3.6 210 10:19 09.07.2020
276 Clouds 15 1005 72 10000 3.6 210 09:43 09.07.2020
277 Clear 15 1005 72 10000 2.1 220 09:23 09.07.2020
278 Clouds 14 1005 71 10000 2.6 230 08:52 09.07.2020
279 Clouds 14 1005 76 10000 3.1 180 08:27 09.07.2020
280 Clouds 13 1005 82 10000 2.1 210 07:56 09.07.2020
281 Clouds 13 1005 82 10000 2.1 210 07:38 09.07.2020
282 Clouds 12 1005 87 10000 1.5 190 07:20 09.07.2020
283 Clouds 11 1005 87 10000 2.1 220 06:21 09.07.2020
284 Clouds 11 1005 87 10000 1 0 05:53 09.07.2020
285 Clouds 11 1004 87 10000 2.1 240 04:29 09.07.2020
286 Clouds 10 1004 100 10000 1.5 230 03:19 09.07.2020
287 Clouds 10 1004 100 10000 1.5 230 03:19 09.07.2020
288 Clouds 10 1004 100 10000 3.6 230 01:55 09.07.2020
289 Clouds 10 1003 100 10000 3.1 230 00:59 09.07.2020
290 Clouds 11 1003 93 10000 2.6 230 00:40 09.07.2020
291 Clouds 11 1003 93 10000 2.6 230 00:21 09.07.2020
292 Clouds 11 1003 87 10000 3.1 220 23:43 08.07.2020
293 Clouds 12 1003 81 10000 3.6 210 23:25 08.07.2020
294 Rain 12 1003 81 10000 3.1 220 22:55 08.07.2020
295 Rain 12 1003 81 10000 3.1 220 22:36 08.07.2020
296 Rain 13 1003 76 10000 2.1 230 22:18 08.07.2020
297 Rain 14 1002 76 10000 2.6 230 21:40 08.07.2020
298 Rain 14 1002 82 10000 2.6 200 21:22 08.07.2020
299 Rain 14 1002 82 10000 2.1 180 20:59 08.07.2020
300 Rain 14 1002 82 10000 2.1 180 20:41 08.07.2020
301 Rain 14 1002 87 10000 2.6 160 20:23 08.07.2020
302 Rain 14 1002 82 4100 3.6 190 19:54 08.07.2020
303 Rain 14 1002 82 4100 3.6 190 19:36 08.07.2020
304 Rain 16 1002 63 10000 3.1 230 19:18 08.07.2020
305 Rain 16 1002 67 10000 2.6 200 18:40 08.07.2020
306 Rain 16 1002 72 10000 3.1 180 18:21 08.07.2020
307 Rain 16 1002 67 10000 3.1 170 17:57 08.07.2020
308 Rain 16 1002 67 10000 3.1 170 17:38 08.07.2020
309 Rain 16 1002 67 10000 3.1 170 17:38 08.07.2020
310 Rain 16 1002 67 10000 4.1 170 17:20 08.07.2020
311 Rain 16 1002 67 10000 4.1 170 17:20 08.07.2020
312 Rain 16 1002 67 10000 3.6 180 16:56 08.07.2020
313 Rain 16 1002 67 10000 3.6 180 16:37 08.07.2020
314 Rain 16 1002 67 10000 3.6 170 16:18 08.07.2020
315 Rain 16 1002 67 10000 3.1 180 15:56 08.07.2020
316 Rain 16 1002 67 10000 3.1 180 15:37 08.07.2020
317 Rain 15 1002 77 10000 4.1 190 15:18 08.07.2020
318 Rain 15 1002 77 10000 5.1 200 14:42 08.07.2020
319 Rain 15 1002 72 10000 5.1 180 14:20 08.07.2020
320 Rain 16 1002 67 10000 4.6 190 13:45 08.07.2020
321 Rain 16 1002 67 10000 4.1 210 13:27 08.07.2020
322 Rain 17 1002 59 10000 3.1 190 12:58 08.07.2020
323 Rain 17 1002 59 10000 3.1 190 12:38 08.07.2020
324 Clouds 16 1002 63 10000 3.6 190 12:19 08.07.2020
325 Clouds 16 1002 63 10000 2.6 140 11:39 08.07.2020
326 Clouds 14 1002 71 10000 3.1 200 11:20 08.07.2020
327 Clouds 14 1002 71 10000 3.1 230 10:55 08.07.2020
328 Clouds 14 1002 71 10000 3.1 230 10:36 08.07.2020
329 Clouds 14 1001 76 10000 2.6 230 10:18 08.07.2020
330 Clouds 14 1001 76 10000 2.6 220 09:41 08.07.2020
331 Clouds 13 1001 82 10000 2.6 210 09:21 08.07.2020
332 Clouds 12 1001 87 10000 2.6 170 08:43 08.07.2020
333 Clouds 12 1001 87 10000 3.1 160 08:24 08.07.2020
334 Clouds 12 1001 93 10000 2.6 150 07:47 08.07.2020
335 Clouds 12 1001 93 10000 2.6 150 07:47 08.07.2020
336 Clouds 11 1001 93 10000 2.6 150 07:23 08.07.2020
337 Clouds 11 1001 93 10000 3.1 160 06:55 08.07.2020
338 Clouds 11 1001 93 10000 3.1 160 06:35 08.07.2020
339 Clouds 11 1001 93 10000 2.6 200 05:55 08.07.2020
340 Clouds 11 1000 93 10000 2.1 190 05:20 08.07.2020
341 Clouds 11 1000 93 10000 2.6 170 04:32 08.07.2020
342 Clouds 11 1000 93 10000 2.1 160 02:22 08.07.2020
343 Clouds 11 1000 93 10000 2.1 140 01:45 08.07.2020
344 Rain 11 1000 93 10000 2.6 120 01:19 08.07.2020
345 Rain 12 999 87 10000 2.6 120 00:25 08.07.2020
346 Rain 12 999 87 10000 1.5 130 23:45 07.07.2020
347 Clouds 12 999 93 10000 1.5 150 23:24 07.07.2020
348 Rain 12 999 93 10000 0.5 0 22:59 07.07.2020
349 Rain 12 999 93 10000 0.5 0 22:41 07.07.2020
350 Rain 13 999 87 10000 1.5 190 22:21 07.07.2020
351 Rain 13 999 93 10000 1.5 180 21:58 07.07.2020
352 Rain 13 999 93 10000 1.5 180 21:38 07.07.2020
353 Rain 14 999 82 4700 3.6 130 21:19 07.07.2020
354 Rain 15 999 72 10000 2.6 120 20:56 07.07.2020
355 Rain 15 999 72 10000 2.6 120 20:37 07.07.2020
356 Rain 15 999 72 10000 2.1 110 20:19 07.07.2020
357 Rain 15 999 72 10000 1 0 19:39 07.07.2020
358 Rain 14 999 82 10000 2.1 180 19:20 07.07.2020
359 Rain 15 999 72 10000 3.6 160 18:55 07.07.2020
360 Rain 15 999 72 10000 3.6 160 18:37 07.07.2020
361 Rain 15 998 72 10000 2.1 120 18:19 07.07.2020
362 Rain 15 999 77 10000 2.1 130 17:56 07.07.2020
363 Rain 15 999 77 10000 2.1 130 17:37 07.07.2020
364 Rain 15 999 77 10000 2.6 190 17:18 07.07.2020
365 Rain 14 999 82 10000 3.1 200 16:42 07.07.2020
366 Rain 14 999 87 10000 2.6 210 16:22 07.07.2020
367 Rain 14 998 82 10000 2.1 180 15:55 07.07.2020
368 Rain 14 998 82 10000 2.1 180 15:37 07.07.2020
369 Rain 13 998 87 5000 4.1 140 15:18 07.07.2020
370 Rain 16 998 77 10000 1.5 220 14:42 07.07.2020
371 Rain 15 998 72 10000 1 0 14:24 07.07.2020
372 Rain 14 998 82 10000 2.1 250 13:43 07.07.2020
373 Rain 14 998 76 10000 2.1 220 13:20 07.07.2020
374 Rain 14 997 71 10000 4.1 170 12:56 07.07.2020
375 Rain 14 997 71 10000 4.1 170 12:37 07.07.2020
376 Clouds 14 997 71 10000 4.6 160 12:18 07.07.2020
377 Clouds 15 997 67 10000 4.1 160 11:43 07.07.2020
378 Clouds 14 997 71 10000 3.6 180 11:22 07.07.2020
379 Clouds 14 997 76 10000 5.1 160 10:58 07.07.2020
380 Clouds 14 997 76 10000 5.1 160 10:39 07.07.2020
381 Clouds 14 996 76 10000 5.1 180 10:20 07.07.2020
382 Clouds 14 996 76 10000 5.1 150 09:42 07.07.2020
383 Clouds 14 995 71 10000 5.1 200 09:21 07.07.2020
384 Clouds 13 995 76 10000 4.6 200 08:54 07.07.2020
385 Clouds 13 995 76 10000 4.6 200 08:36 07.07.2020
386 Clouds 12 995 81 10000 5.7 190 08:18 07.07.2020
387 Clouds 12 995 87 10000 3.6 200 07:38 07.07.2020
388 Clouds 11 995 93 10000 3.6 190 07:19 07.07.2020
389 Clouds 11 994 93 10000 3.1 180 06:41 07.07.2020
390 Clouds 10 994 100 10000 4.1 170 06:22 07.07.2020
391 Clouds 10 994 100 10000 3.6 160 05:28 07.07.2020
392 Clouds 10 993 93 10000 4.1 190 04:44 07.07.2020
393 Rain 10 993 100 10000 3.6 180 03:42 07.07.2020
394 Drizzle 10 992 100 10000 3.6 190 02:57 07.07.2020
395 Rain 10 992 100 10000 3.6 190 01:34 07.07.2020
396 Rain 11 991 93 10000 4.6 190 00:58 07.07.2020
397 Rain 11 991 93 10000 4.6 190 00:39 07.07.2020
398 Rain 11 991 93 10000 4.6 200 00:19 07.07.2020
399 Clouds 11 991 93 10000 5.1 200 23:42 06.07.2020
400 Rain 11 991 93 10000 3.1 180 23:24 06.07.2020
401 Clouds 11 990 93 10000 3.1 150 22:56 06.07.2020
402 Clouds 11 990 93 10000 3.1 150 22:38 06.07.2020
403 Clouds 11 990 93 10000 3.1 120 22:18 06.07.2020
404 Rain 11 990 93 10000 2.6 120 21:56 06.07.2020
405 Rain 11 990 93 10000 2.6 120 21:36 06.07.2020
406 Rain 11 990 93 7000 2.1 130 21:18 06.07.2020
407 Rain 11 990 93 8000 2.1 120 20:40 06.07.2020
408 Rain 11 990 93 9000 1.5 110 20:20 06.07.2020
409 Rain 11 990 93 10000 2.1 160 19:58 06.07.2020
410 Rain 11 990 93 10000 2.1 160 19:39 06.07.2020
411 Rain 11 989 93 10000 1.5 80 19:21 06.07.2020
412 Rain 11 989 93 10000 3.1 100 18:57 06.07.2020
413 Rain 11 989 93 10000 3.1 100 18:39 06.07.2020
414 Rain 13 989 76 10000 2.1 80 18:21 06.07.2020
415 Clouds 13 989 71 10000 2.1 60 17:44 06.07.2020
416 Clouds 13 989 71 10000 2.1 70 17:24 06.07.2020
417 Clouds 13 989 71 10000 2.1 90 16:59 06.07.2020
418 Clouds 13 989 71 10000 2.1 90 16:41 06.07.2020
419 Clouds 14 988 67 10000 1.5 0 16:21 06.07.2020
420 Clouds 14 988 62 10000 1.5 70 15:43 06.07.2020
421 Clouds 13 988 66 10000 0.5 0 15:25 06.07.2020
422 Clouds 13 988 71 10000 1.5 10 14:57 06.07.2020
423 Clouds 13 988 71 10000 1.5 10 14:38 06.07.2020
424 Clouds 13 988 71 10000 1.5 0 14:19 06.07.2020
425 Clouds 12 988 71 10000 1.5 0 13:51 06.07.2020
426 Clouds 12 988 71 10000 2.1 350 13:28 06.07.2020
427 Clouds 12 988 71 10000 3.1 320 12:59 06.07.2020
428 Clouds 12 988 71 10000 3.1 320 12:41 06.07.2020
429 Clouds 11 988 76 10000 3.1 350 12:18 06.07.2020
430 Clouds 11 988 76 10000 3.1 340 11:57 06.07.2020
431 Clouds 11 988 76 10000 3.1 340 11:37 06.07.2020
432 Clouds 11 989 76 10000 1 0 11:19 06.07.2020
433 Clouds 11 989 76 10000 2.1 0 10:42 06.07.2020
434 Clouds 10 989 81 10000 2.1 20 10:22 06.07.2020
435 Clouds 10 989 76 10000 2.6 50 09:57 06.07.2020
436 Clouds 10 989 76 10000 2.6 50 09:39 06.07.2020
437 Clouds 10 989 76 10000 2.6 30 09:21 06.07.2020
438 Clouds 10 989 76 10000 2.6 10 08:45 06.07.2020
439 Clouds 10 989 76 10000 2.6 30 08:24 06.07.2020
440 Clouds 9 989 81 10000 3.1 30 07:58 06.07.2020
441 Clouds 9 989 81 10000 3.1 30 07:40 06.07.2020
442 Clouds 9 989 76 10000 3.1 30 07:21 06.07.2020
443 Clouds 9 990 81 10000 3.1 30 06:39 06.07.2020
444 Clouds 9 990 81 10000 2.1 20 06:19 06.07.2020
445 Clouds 9 991 81 10000 2.6 20 05:29 06.07.2020
446 Clouds 8 991 87 10000 2.1 50 04:48 06.07.2020
447 Clouds 7 992 93 10000 1.5 340 02:58 06.07.2020
448 Clouds 8 993 87 10000 2.1 340 02:19 06.07.2020
449 Clouds 8 993 87 10000 1 0 00:59 06.07.2020
450 Clouds 9 994 81 10000 0.5 0 00:32 06.07.2020
451 Clouds 9 994 87 10000 1.5 320 23:58 05.07.2020
452 Clouds 9 994 87 10000 1.5 320 23:40 05.07.2020
453 Clouds 9 994 87 10000 2.1 340 23:21 05.07.2020
454 Clouds 10 994 81 10000 2.1 300 22:58 05.07.2020
455 Clouds 10 994 81 10000 2.1 300 22:37 05.07.2020
456 Clouds 10 994 81 10000 2.1 290 22:19 05.07.2020
457 Clouds 10 994 81 10000 2.6 280 21:56 05.07.2020
458 Clouds 10 994 81 10000 2.6 280 21:37 05.07.2020
459 Clouds 10 994 81 10000 2.6 280 21:37 05.07.2020
460 Clouds 10 994 81 10000 2.6 280 21:18 05.07.2020
461 Clouds 11 994 76 10000 3.1 280 20:41 05.07.2020
462 Clouds 11 994 76 10000 4.6 280 20:23 05.07.2020
463 Clouds 11 994 76 10000 3.6 280 19:58 05.07.2020
464 Clouds 11 994 76 10000 3.6 280 19:40 05.07.2020
465 Clouds 11 994 76 10000 4.1 280 19:19 05.07.2020
466 Clouds 11 994 76 10000 4.1 280 18:42 05.07.2020
467 Clouds 11 994 81 10000 4.6 270 18:23 05.07.2020
468 Clouds 10 994 81 10000 5.7 260 17:59 05.07.2020
469 Clouds 10 994 81 10000 5.7 260 17:41 05.07.2020
470 Clouds 11 994 81 10000 5.1 270 17:19 05.07.2020
471 Clouds 11 994 81 10000 5.1 270 17:19 05.07.2020
472 Clouds 11 994 81 10000 4.6 270 16:44 05.07.2020
473 Clouds 11 994 87 10000 4.1 270 16:25 05.07.2020
474 Rain 11 993 93 10000 4.1 260 15:58 05.07.2020
475 Rain 11 993 93 10000 4.1 260 15:38 05.07.2020
476 Rain 11 993 87 10000 3.6 260 15:19 05.07.2020
477 Rain 12 993 81 10000 5.1 220 14:42 05.07.2020
478 Rain 11 993 87 5000 4.1 240 14:23 05.07.2020
479 Rain 11 993 87 5000 4.1 240 14:23 05.07.2020
480 Rain 14 993 62 10000 6.7 220 13:55 05.07.2020
481 Rain 14 993 62 10000 6.7 220 13:37 05.07.2020
482 Clouds 13 993 66 10000 6.2 220 13:19 05.07.2020
483 Rain 13 992 62 10000 5.7 220 12:39 05.07.2020
484 Rain 13 993 62 10000 6.2 220 12:20 05.07.2020
485 Rain 12 993 76 10000 5.1 200 11:55 05.07.2020
486 Rain 12 993 76 10000 5.1 200 11:55 05.07.2020
487 Rain 12 993 76 10000 5.1 200 11:36 05.07.2020
488 Rain 11 993 81 10000 3.6 210 11:18 05.07.2020
489 Rain 10 993 93 10000 3.6 210 10:42 05.07.2020
490 Rain 11 993 81 10000 4.1 170 10:20 05.07.2020
491 Rain 10 993 87 10000 4.1 180 09:58 05.07.2020
492 Rain 10 993 87 10000 4.1 180 09:40 05.07.2020
493 Rain 10 993 87 10000 4.6 170 09:20 05.07.2020
494 Clouds 10 993 87 10000 5.1 170 08:47 05.07.2020
495 Clouds 10 993 87 10000 4.6 160 08:29 05.07.2020
496 Clouds 10 993 87 10000 3.6 170 07:48 05.07.2020
497 Clouds 9 993 93 10000 4.6 170 07:29 05.07.2020
498 Clouds 10 993 87 10000 3.1 200 06:52 05.07.2020
499 Clouds 9 993 93 10000 4.1 200 05:42 05.07.2020
500 Rain 9 993 93 10000 1.5 290 03:32 05.07.2020
501 Rain 10 994 93 10000 5.1 220 02:43 05.07.2020
502 Rain 10 994 100 5000 4.1 70 02:25 05.07.2020
503 Rain 10 995 100 10000 4.1 90 01:33 05.07.2020
504 Rain 10 995 100 10000 4.6 100 00:59 05.07.2020
505 Rain 10 995 100 10000 4.6 100 00:40 05.07.2020
506 Rain 10 996 100 10000 4.1 100 00:20 05.07.2020
507 Rain 11 996 93 10000 5.1 100 23:47 04.07.2020
508 Rain 11 997 93 10000 5.1 100 23:28 04.07.2020
509 Rain 11 997 93 10000 4.1 80 22:57 04.07.2020
510 Rain 11 997 93 10000 4.1 80 22:37 04.07.2020
511 Rain 11 997 93 10000 4.1 80 22:37 04.07.2020
512 Rain 11 997 93 10000 4.1 80 22:19 04.07.2020
513 Rain 11 998 93 9000 3.6 90 21:42 04.07.2020
514 Rain 12 998 87 10000 2.6 80 21:23 04.07.2020
515 Rain 12 998 87 10000 3.1 70 20:58 04.07.2020
516 Rain 12 998 87 10000 3.1 70 20:39 04.07.2020
517 Rain 12 999 87 10000 3.6 90 20:19 04.07.2020
518 Rain 12 999 87 10000 3.6 80 19:45 04.07.2020
519 Rain 12 999 87 10000 3.1 70 19:22 04.07.2020
520 Rain 12 1000 81 10000 2.1 100 18:55 04.07.2020
521 Rain 12 1000 81 10000 2.1 100 18:55 04.07.2020
522 Rain 12 1000 81 10000 1.5 140 18:37 04.07.2020
523 Rain 12 1000 81 10000 1.5 140 18:19 04.07.2020
524 Rain 11 1001 93 10000 2.6 170 17:42 04.07.2020
525 Rain 12 1001 76 10000 4.6 160 17:23 04.07.2020
526 Rain 15 1000 54 10000 4.1 190 16:57 04.07.2020
527 Rain 15 1000 54 10000 4.1 190 16:57 04.07.2020
528 Rain 15 1000 54 10000 4.1 190 16:38 04.07.2020
529 Clouds 16 1000 48 10000 3.6 210 16:19 04.07.2020
530 Clouds 16 1000 48 10000 3.6 210 16:19 04.07.2020
531 Clouds 16 1001 48 10000 3.6 210 15:46 04.07.2020
532 Clouds 17 1001 48 10000 4.1 230 15:27 04.07.2020
533 Clouds 17 1001 48 10000 4.1 230 14:59 04.07.2020
534 Clouds 16 1001 51 10000 5.1 210 14:38 04.07.2020
535 Clouds 16 1001 55 10000 4.6 220 14:19 04.07.2020
536 Clouds 15 1001 54 10000 6.2 220 13:57 04.07.2020
537 Clouds 15 1001 54 10000 6.2 220 13:39 04.07.2020
538 Clouds 15 1001 58 10000 6.2 220 13:18 04.07.2020
539 Clouds 14 1001 62 10000 4.6 260 12:42 04.07.2020
540 Clouds 13 1001 71 10000 4.6 250 12:20 04.07.2020
541 Clouds 13 1001 66 10000 4.6 220 11:46 04.07.2020
542 Clouds 12 1001 71 10000 6.2 220 11:25 04.07.2020
543 Clouds 11 1001 76 10000 6.2 230 11:00 04.07.2020
544 Clouds 11 1001 76 10000 6.2 230 10:41 04.07.2020
545 Clouds 11 1001 76 10000 7.7 220 10:21 04.07.2020
546 Clouds 11 1001 76 10000 7.2 210 09:56 04.07.2020
547 Clouds 11 1001 76 10000 7.2 210 09:36 04.07.2020
548 Clouds 10 1001 81 10000 7.2 210 09:18 04.07.2020
549 Clouds 10 1001 81 10000 7.7 200 08:46 04.07.2020
550 Clouds 10 1000 81 10000 7.7 210 08:27 04.07.2020
551 Clouds 10 1000 87 10000 6.7 220 07:44 04.07.2020
552 Rain 9 1000 93 10000 8.2 210 07:26 04.07.2020
553 Clouds 9 1000 87 6000 7.2 210 06:51 04.07.2020
554 Clouds 9 1000 81 10000 7.2 190 06:20 04.07.2020
555 Clouds 9 1000 81 10000 6.2 190 05:34 04.07.2020
556 Clouds 9 999 76 10000 6.2 190 04:31 04.07.2020
557 Clouds 9 1000 81 10000 6.2 170 02:49 04.07.2020
558 Clouds 9 1000 81 10000 5.1 170 02:18 04.07.2020
559 Clouds 9 1000 76 10000 8.7 200 01:24 04.07.2020
560 Clouds 9 1000 87 10000 5.1 160 00:40 04.07.2020
561 Clouds 9 1000 87 10000 5.1 160 00:40 04.07.2020
562 Rain 9 1000 93 10000 4.6 150 00:21 04.07.2020
563 Clouds 9 1000 87 10000 5.1 160 23:39 03.07.2020
564 Clouds 9 1000 87 10000 4.6 160 23:19 03.07.2020
565 Clouds 9 1000 87 10000 4.6 160 23:19 03.07.2020
566 Clouds 9 1000 87 10000 4.1 160 22:55 03.07.2020
567 Clouds 9 1000 87 10000 4.1 160 22:36 03.07.2020
568 Clouds 9 1001 87 10000 4.6 170 22:18 03.07.2020
569 Clouds 10 1001 81 10000 6.7 190 21:39 03.07.2020
570 Clouds 10 1000 87 10000 5.7 190 21:20 03.07.2020
571 Clouds 10 1000 87 10000 5.7 170 20:55 03.07.2020
572 Clouds 10 1000 87 10000 5.7 170 20:36 03.07.2020
573 Clouds 11 1000 81 10000 5.1 180 20:18 03.07.2020
574 Clouds 11 1000 93 10000 5.7 170 19:40 03.07.2020
575 Clouds 11 1000 93 10000 5.7 170 19:19 03.07.2020
576 Rain 10 1000 93 10000 3.6 150 18:54 03.07.2020
577 Rain 10 1000 93 10000 3.6 150 18:36 03.07.2020
578 Rain 10 1000 93 10000 3.6 150 18:18 03.07.2020
579 Rain 10 1000 93 10000 5.7 150 17:41 03.07.2020
580 Rain 12 1000 87 10000 3.1 110 17:21 03.07.2020
581 Rain 12 1000 81 10000 4.1 90 16:41 03.07.2020
582 Rain 12 1000 81 10000 4.1 90 16:41 03.07.2020
583 Clouds 12 1000 81 10000 4.6 90 16:23 03.07.2020
584 Clouds 12 1000 81 10000 5.1 90 15:47 03.07.2020
585 Rain 11 1000 87 10000 4.6 70 15:24 03.07.2020
586 Rain 11 1001 81 10000 2.6 90 14:57 03.07.2020
587 Rain 11 1001 81 10000 2.6 90 14:39 03.07.2020
588 Rain 12 1001 71 10000 4.6 90 14:20 03.07.2020
589 Rain 12 1001 76 10000 3.6 70 13:47 03.07.2020
590 Rain 12 1001 71 10000 5.7 50 13:29 03.07.2020
591 Rain 12 1001 71 10000 5.1 50 12:54 03.07.2020
592 Rain 12 1001 71 10000 5.1 50 12:36 03.07.2020
593 Rain 12 1002 66 10000 4.1 70 12:18 03.07.2020
594 Rain 13 1002 58 10000 4.6 70 11:42 03.07.2020
595 Rain 12 1002 62 10000 4.1 80 11:23 03.07.2020
596 Rain 12 1002 62 10000 3.1 90 10:56 03.07.2020
597 Rain 12 1002 62 10000 3.1 90 10:37 03.07.2020
598 Rain 12 1002 62 10000 4.1 100 10:19 03.07.2020
599 Rain 12 1003 58 10000 6.2 110 09:54 03.07.2020
600 Rain 12 1003 58 10000 6.2 110 09:36 03.07.2020
601 Rain 13 1003 50 10000 4.6 110 09:18 03.07.2020
602 Rain 13 1003 54 10000 4.1 70 08:39 03.07.2020
603 Clouds 12 1003 71 10000 2.1 80 08:18 03.07.2020
604 Clouds 10 1003 76 10000 2.1 40 07:48 03.07.2020
605 Clouds 10 1003 81 10000 2.6 120 07:26 03.07.2020
606 Clouds 9 1003 81 10000 3.6 130 06:47 03.07.2020
607 Clouds 9 1003 87 10000 1.5 90 05:59 03.07.2020
608 Clouds 9 1003 87 10000 2.1 90 04:40 03.07.2020
609 Clear 9 1003 81 10000 1.5 190 02:58 03.07.2020
610 Clouds 9 1003 81 10000 1.5 190 02:39 03.07.2020
611 Clouds 8 1003 87 10000 2.6 200 02:18 03.07.2020
612 Clear 9 1003 81 10000 2.6 220 01:27 03.07.2020
613 Clear 9 1003 81 10000 3.6 220 00:44 03.07.2020
614 Clear 10 1003 76 10000 4.1 210 00:21 03.07.2020
615 Clear 10 1003 81 10000 3.6 210 23:43 02.07.2020
616 Clear 11 1002 76 10000 4.1 210 23:20 02.07.2020
617 Clear 11 1002 71 10000 4.1 210 22:57 02.07.2020
618 Clear 11 1002 71 10000 4.1 210 22:39 02.07.2020
619 Clear 12 1002 66 10000 4.1 210 22:20 02.07.2020
620 Clear 12 1002 66 10000 4.1 210 22:20 02.07.2020
621 Clear 12 1002 66 10000 4.1 220 21:54 02.07.2020
622 Clear 12 1002 66 10000 4.1 220 21:36 02.07.2020
623 Clear 13 1002 58 10000 5.7 220 21:18 02.07.2020
624 Clear 13 1001 54 10000 4.1 230 20:42 02.07.2020
625 Clouds 14 1001 50 10000 5.7 220 20:21 02.07.2020
626 Clouds 14 1001 50 10000 5.7 220 20:21 02.07.2020
627 Clouds 15 1001 44 10000 4.1 220 19:57 02.07.2020
628 Clouds 14 1001 47 10000 5.1 230 19:38 02.07.2020
629 Clouds 14 1001 47 10000 5.1 230 19:20 02.07.2020
630 Clouds 15 1000 47 10000 4.6 220 18:57 02.07.2020
631 Clouds 15 1000 47 10000 4.6 220 18:38 02.07.2020
632 Clouds 14 1000 47 10000 4.6 220 18:20 02.07.2020
633 Clouds 14 1000 54 10000 3.6 210 17:39 02.07.2020
634 Clouds 15 1000 47 10000 3.6 230 17:20 02.07.2020
635 Clouds 14 1000 47 10000 4.6 250 16:56 02.07.2020
636 Clouds 14 1000 47 10000 4.6 250 16:38 02.07.2020
637 Clouds 14 999 47 10000 4.1 240 16:19 02.07.2020
638 Clouds 15 999 47 10000 4.1 260 15:54 02.07.2020
639 Clouds 15 999 47 10000 4.1 260 15:36 02.07.2020
640 Clouds 15 999 44 10000 4.6 240 15:18 02.07.2020
641 Clouds 15 998 44 10000 3.6 260 14:42 02.07.2020
642 Rain 13 998 58 10000 3.6 290 14:19 02.07.2020
643 Clouds 15 998 51 10000 5.7 220 13:40 02.07.2020
644 Clouds 14 997 50 10000 6.7 220 13:21 02.07.2020
645 Clouds 14 997 54 10000 4.1 240 12:59 02.07.2020
646 Clouds 14 997 54 10000 4.1 240 12:39 02.07.2020
647 Clouds 13 997 58 10000 4.6 240 12:21 02.07.2020
648 Clouds 12 997 66 10000 4.1 230 11:44 02.07.2020
649 Clouds 12 996 66 10000 4.1 220 11:26 02.07.2020
650 Rain 11 996 81 10000 3.6 240 10:55 02.07.2020
651 Rain 11 996 81 10000 3.6 240 10:37 02.07.2020
652 Rain 11 996 81 10000 3.6 240 10:19 02.07.2020
653 Rain 11 995 76 10000 4.6 220 09:42 02.07.2020
654 Clouds 11 995 81 10000 3.6 210 09:21 02.07.2020
655 Clouds 10 994 87 10000 4.6 220 08:57 02.07.2020
656 Clouds 10 994 87 10000 4.6 220 08:38 02.07.2020
657 Clouds 10 994 93 10000 4.1 230 08:18 02.07.2020
658 Rain 9 993 93 10000 2.6 230 07:41 02.07.2020
659 Clouds 9 993 87 10000 3.6 230 07:20 02.07.2020
660 Clouds 9 993 81 10000 5.1 220 06:41 02.07.2020
661 Clouds 9 993 87 10000 5.1 230 06:20 02.07.2020
662 Clouds 9 992 87 10000 4.6 230 05:45 02.07.2020
663 Clouds 10 991 100 10000 2.1 220 04:21 02.07.2020
664 Clouds 10 991 93 10000 1 190 03:32 02.07.2020
665 Rain 10 990 93 10000 2.1 50 01:23 02.07.2020
666 Clouds 10 990 87 10000 2.1 180 00:25 02.07.2020
667 Clouds 10 990 93 10000 2.1 200 23:51 01.07.2020
668 Clouds 10 990 93 10000 2.1 210 23:30 01.07.2020
669 Clouds 10 990 87 10000 2.1 220 22:57 01.07.2020
670 Clouds 10 990 87 10000 2.1 220 22:38 01.07.2020
671 Clouds 10 990 87 10000 2.1 220 22:38 01.07.2020
672 Clouds 10 990 93 10000 2.6 230 22:19 01.07.2020
673 Clouds 10 989 87 10000 3.6 220 21:59 01.07.2020
674 Clouds 10 989 87 10000 3.6 220 21:40 01.07.2020
675 Clouds 10 989 93 10000 3.6 220 21:22 01.07.2020
676 Clouds 10 989 93 10000 3.6 220 20:58 01.07.2020
677 Clouds 10 989 93 10000 3.6 220 20:40 01.07.2020
678 Clouds 9 989 100 10000 4.1 230 20:21 01.07.2020
679 Clouds 9 988 93 10000 3.6 230 19:54 01.07.2020
680 Rain 9 988 93 10000 3.1 230 19:36 01.07.2020
681 Rain 9 988 93 10000 3.1 230 19:18 01.07.2020
682 Clouds 9 988 93 10000 3.1 230 18:42 01.07.2020
683 Clouds 9 988 93 10000 3.6 230 18:21 01.07.2020
684 Rain 9 987 93 10000 4.1 230 17:57 01.07.2020
685 Rain 9 987 93 10000 4.1 230 17:38 01.07.2020
686 Drizzle 9 987 93 7000 4.1 240 17:19 01.07.2020
687 Drizzle 9 986 93 2300 5.1 230 16:46 01.07.2020
688 Rain 9 986 93 1900 5.1 240 16:26 01.07.2020
689 Rain 9 985 100 7000 4.6 240 15:55 01.07.2020
690 Rain 9 985 100 7000 4.6 240 15:37 01.07.2020
691 Rain 9 985 93 10000 4.6 240 15:18 01.07.2020
692 Rain 9 984 100 10000 4.1 250 14:42 01.07.2020
693 Rain 9 984 100 10000 4.6 250 14:21 01.07.2020
694 Rain 9 984 100 10000 5.7 250 13:57 01.07.2020
695 Rain 9 984 100 10000 5.7 250 13:38 01.07.2020
696 Rain 9 983 93 10000 5.1 240 13:20 01.07.2020
697 Rain 9 983 93 10000 5.7 250 12:56 01.07.2020
698 Rain 9 983 93 10000 5.7 250 12:38 01.07.2020
699 Rain 9 982 93 10000 5.1 250 12:19 01.07.2020
700 Clouds 9 982 93 10000 5.7 270 11:40 01.07.2020
701 Clouds 9 981 93 10000 5.1 260 11:21 01.07.2020
702 Rain 10 980 93 10000 5.1 270 10:57 01.07.2020
703 Rain 10 980 93 10000 5.1 270 10:39 01.07.2020
704 Rain 10 980 93 10000 4.6 280 10:20 01.07.2020
705 Rain 9 979 100 4400 4.6 280 09:39 01.07.2020
706 Rain 9 979 100 6000 5.1 290 09:20 01.07.2020
707 Rain 9 979 100 6000 5.1 290 08:59 01.07.2020
708 Rain 9 978 100 6000 5.1 300 08:40 01.07.2020
709 Rain 10 978 93 10000 5.7 300 08:20 01.07.2020
710 Rain 10 978 93 7000 5.1 310 07:43 01.07.2020
711 Rain 10 977 100 4000 6.2 320 07:25 01.07.2020
712 Rain 11 977 93 2700 4.6 310 06:57 01.07.2020
713 Rain 11 977 93 2700 4.6 310 06:38 01.07.2020
714 Drizzle 11 977 100 3700 4.6 320 06:20 01.07.2020
715 Rain 12 978 93 6000 4.6 340 04:30 01.07.2020
716 Rain 12 978 93 4400 4.6 350 03:42 01.07.2020
717 Rain 12 979 93 10000 5.1 360 03:22 01.07.2020
718 Rain 12 980 100 10000 3.6 350 02:19 01.07.2020
719 Rain 12 982 100 10000 4.1 10 00:49 01.07.2020
720 Rain 13 982 93 10000 4.1 20 00:29 01.07.2020
721 Rain 13 983 93 10000 4.6 30 00:00 01.07.2020
722 Rain 13 983 93 10000 4.6 30 23:39 30.06.2020
723 Rain 13 983 93 10000 4.1 60 23:19 30.06.2020
724 Rain 14 984 87 10000 4.1 80 22:42 30.06.2020
725 Rain 14 985 87 10000 3.1 80 22:19 30.06.2020
726 Clouds 15 985 82 10000 2.6 80 21:43 30.06.2020
727 Clouds 15 986 82 10000 2.6 90 21:20 30.06.2020
728 Clouds 15 986 82 10000 3.1 100 20:59 30.06.2020
729 Clouds 15 986 82 10000 3.1 100 20:41 30.06.2020
730 Clouds 15 987 82 10000 3.1 110 20:20 30.06.2020
731 Clouds 16 987 77 10000 3.6 110 19:44 30.06.2020
732 Clouds 16 987 77 10000 4.6 130 19:21 30.06.2020
733 Clouds 16 987 77 10000 4.6 130 19:21 30.06.2020
734 Clouds 16 987 77 10000 4.6 130 19:21 30.06.2020
735 Clouds 16 988 77 10000 3.1 150 18:57 30.06.2020
736 Clouds 16 988 77 10000 3.1 150 18:38 30.06.2020
737 Clouds 17 988 72 10000 5.1 140 18:20 30.06.2020
738 Clouds 17 988 72 10000 5.7 160 17:39 30.06.2020
739 Rain 17 989 72 10000 5.7 150 17:20 30.06.2020
740 Clouds 17 989 72 10000 4.6 150 16:57 30.06.2020
741 Clouds 17 989 72 10000 4.6 150 16:38 30.06.2020
742 Clouds 17 989 72 10000 5.1 140 16:19 30.06.2020
743 Clouds 18 990 68 10000 4.1 150 15:54 30.06.2020
744 Clouds 18 990 68 10000 4.1 150 15:36 30.06.2020
745 Clouds 17 990 72 10000 4.6 150 15:18 30.06.2020
746 Clouds 17 990 72 10000 4.1 170 14:42 30.06.2020
747 Clouds 17 990 72 10000 4.6 160 14:21 30.06.2020
748 Clouds 17 991 67 10000 6.2 200 13:42 30.06.2020
749 Clouds 16 991 72 10000 5.7 190 13:21 30.06.2020
750 Clouds 16 991 72 10000 5.7 190 13:21 30.06.2020
751 Clouds 16 991 77 10000 7.2 190 12:59 30.06.2020
752 Clouds 16 991 77 10000 7.2 190 12:41 30.06.2020
753 Clouds 15 991 82 10000 6.2 180 12:23 30.06.2020
754 Clouds 15 992 82 10000 5.7 190 11:59 30.06.2020
755 Clouds 15 992 82 10000 5.7 190 11:39 30.06.2020
756 Clouds 15 992 82 10000 6.2 200 11:20 30.06.2020
757 Clouds 15 992 82 10000 6.2 200 11:20 30.06.2020
758 Clouds 14 992 93 10000 5.1 200 10:59 30.06.2020
759 Clouds 19 1015 37 10000 2.1 0 16:44 28.06.2020
760 Clouds 19 1016 39 10000 1.5 0 16:26 28.06.2020
761 Clouds 19 1016 37 10000 1.5 0 15:58 28.06.2020
762 Clouds 19 1016 37 10000 1.5 0 15:39 28.06.2020
763 Clouds 18 1016 39 10000 2.1 120 15:19 28.06.2020
764 Clouds 18 1016 39 10000 2.6 200 14:46 28.06.2020
765 Clear 19 1016 37 10000 2.1 0 14:28 28.06.2020
766 Clouds 18 1017 39 10000 1.5 0 13:58 28.06.2020
767 Clouds 18 1017 39 10000 1.5 0 13:38 28.06.2020
768 Clear 17 1017 42 10000 2.1 0 13:19 28.06.2020
769 Clouds 17 1017 42 10000 2.1 0 12:56 28.06.2020
770 Clouds 17 1017 42 10000 2.1 0 12:37 28.06.2020
771 Clear 16 1017 41 10000 1 0 12:18 28.06.2020
772 Clear 16 1018 41 10000 2.6 40 11:56 28.06.2020
773 Clear 16 1018 41 10000 2.6 40 11:37 28.06.2020
774 Clouds 16 1018 44 10000 2.1 0 11:19 28.06.2020
775 Clear 15 1018 47 10000 1.5 0 10:42 28.06.2020
776 Clear 15 1018 47 10000 1.5 0 10:42 28.06.2020
777 Clouds 14 1018 50 10000 1.5 0 10:23 28.06.2020
778 Clouds 14 1018 50 10000 1.5 0 09:59 28.06.2020
779 Clear 15 1018 47 10000 2.1 0 09:39 28.06.2020
780 Clouds 14 1018 50 10000 2.6 0 09:20 28.06.2020
781 Clouds 13 1018 54 10000 2.6 60 08:44 28.06.2020
782 Clear 13 1019 54 10000 1.5 50 08:24 28.06.2020
783 Clear 13 1019 54 10000 1.5 0 07:45 28.06.2020
784 Clear 12 1019 58 10000 2.1 90 07:27 28.06.2020
785 Clear 11 1019 62 10000 3.1 130 06:34 28.06.2020
786 Clear 11 1019 62 10000 2.6 130 05:55 28.06.2020
787 Clear 11 1019 66 10000 1.5 110 05:25 28.06.2020
788 Clear 9 1019 70 10000 2.1 90 03:23 28.06.2020
789 Clear 9 1019 70 10000 2.6 40 02:36 28.06.2020
790 Clear 9 1019 70 10000 2.1 20 01:48 28.06.2020
791 Clear 9 1019 70 10000 2.1 50 01:25 28.06.2020
792 Clear 10 1019 66 10000 1.5 60 00:43 28.06.2020
793 Clear 9 1019 70 10000 3.6 40 00:22 28.06.2020
794 Clear 10 1019 66 10000 2.6 50 23:40 27.06.2020
795 Clouds 11 1019 62 10000 3.6 50 23:22 27.06.2020
796 Clouds 12 1019 54 10000 2.6 70 22:56 27.06.2020
797 Clouds 12 1019 54 10000 2.6 70 22:38 27.06.2020
798 Clouds 12 1019 54 10000 3.1 70 22:19 27.06.2020
799 Clear 13 1019 50 10000 3.1 50 21:42 27.06.2020
800 Clouds 13 1019 50 10000 3.6 60 21:20 27.06.2020
801 Clouds 13 1019 50 10000 4.6 40 20:56 27.06.2020
802 Clouds 13 1019 50 10000 4.6 40 20:37 27.06.2020
803 Clouds 14 1019 47 10000 5.1 50 20:18 27.06.2020
804 Clouds 13 1019 50 10000 3.1 40 19:38 27.06.2020
805 Clouds 14 1019 47 10000 4.6 50 19:19 27.06.2020
806 Clouds 14 1019 47 10000 4.6 50 18:59 27.06.2020
807 Clouds 14 1019 47 10000 4.6 50 18:40 27.06.2020
808 Clouds 14 1019 47 10000 4.6 20 18:20 27.06.2020
809 Clouds 14 1019 47 10000 4.1 20 17:41 27.06.2020
810 Clouds 15 1019 47 10000 3.6 30 17:21 27.06.2020
811 Clouds 15 1019 44 10000 3.6 10 16:57 27.06.2020
812 Clouds 15 1019 44 10000 3.6 10 16:39 27.06.2020
813 Clouds 15 1019 44 10000 3.6 10 16:39 27.06.2020
814 Clouds 14 1019 47 10000 5.7 30 16:20 27.06.2020
815 Clouds 15 1019 44 10000 4.6 10 15:45 27.06.2020
816 Clouds 15 1019 47 10000 4.6 10 15:24 27.06.2020
817 Clouds 15 1019 44 10000 4.1 20 14:58 27.06.2020
818 Clouds 15 1019 44 10000 4.1 20 14:39 27.06.2020
819 Clouds 14 1019 47 10000 3.1 0 14:20 27.06.2020
820 Clouds 13 1019 50 10000 4.6 10 13:54 27.06.2020
821 Clouds 13 1019 50 10000 4.6 10 13:36 27.06.2020
822 Clouds 14 1019 47 10000 5.7 10 13:18 27.06.2020
823 Clouds 13 1019 50 10000 4.1 10 12:40 27.06.2020
824 Clouds 14 1019 50 10000 5.7 330 12:22 27.06.2020
825 Clouds 13 1019 50 10000 4.1 350 11:58 27.06.2020
826 Clouds 13 1019 50 10000 4.1 350 11:38 27.06.2020
827 Clouds 12 1019 50 10000 4.6 350 11:19 27.06.2020
828 Clouds 12 1019 54 10000 5.7 340 10:41 27.06.2020
829 Clouds 12 1019 50 10000 4.1 0 10:19 27.06.2020
830 Clouds 12 1019 54 10000 5.7 360 09:57 27.06.2020
831 Clouds 12 1019 54 10000 5.7 360 09:38 27.06.2020
832 Clouds 12 1019 50 10000 6.7 10 09:20 27.06.2020
833 Clouds 12 1019 54 10000 5.1 330 08:41 27.06.2020
834 Clear 12 1019 54 10000 6.7 20 08:22 27.06.2020
835 Clear 12 1019 54 10000 6.7 20 08:22 27.06.2020
836 Clouds 11 1018 57 10000 5.1 360 07:46 27.06.2020
837 Clear 12 1018 58 10000 5.7 350 07:25 27.06.2020
838 Clouds 11 1018 57 10000 6.7 10 06:50 27.06.2020
839 Clear 11 1018 57 10000 5.1 10 06:31 27.06.2020
840 Clear 10 1018 66 10000 3.6 340 04:24 27.06.2020
841 Clear 10 1017 66 10000 3.6 340 03:54 27.06.2020
842 Clear 10 1017 66 10000 3.6 340 03:30 27.06.2020
843 Clear 11 1017 62 10000 3.6 340 02:36 27.06.2020
844 Clouds 12 1017 54 10000 3.6 350 01:49 27.06.2020
845 Clouds 13 1016 50 10000 4.6 350 01:24 27.06.2020
846 Clouds 13 1016 54 10000 3.6 350 00:38 27.06.2020
847 Clouds 15 1016 47 10000 4.6 350 23:46 26.06.2020
848 Clouds 15 1016 47 10000 3.6 350 23:26 26.06.2020
849 Clouds 16 1015 44 10000 3.6 360 22:57 26.06.2020
850 Clouds 16 1015 44 10000 3.6 360 22:38 26.06.2020
851 Clouds 17 1015 42 10000 4.6 350 22:19 26.06.2020
852 Clouds 17 1015 45 10000 4.1 350 21:57 26.06.2020
853 Clouds 17 1015 45 10000 4.1 350 21:38 26.06.2020
854 Clouds 18 1015 42 10000 2.6 310 21:20 26.06.2020
855 Clouds 18 1015 39 10000 2.1 290 20:43 26.06.2020
856 Clouds 19 1015 37 10000 4.1 290 20:23 26.06.2020
857 Clouds 19 1015 34 10000 4.6 300 19:47 26.06.2020
858 Clouds 19 1015 34 10000 4.6 300 19:47 26.06.2020
859 Clouds 20 1015 34 10000 5.1 290 19:24 26.06.2020
860 Clouds 20 1015 37 10000 5.1 300 18:58 26.06.2020
861 Clouds 20 1015 37 10000 5.1 300 18:38 26.06.2020
862 Clouds 20 1015 37 10000 5.1 310 18:19 26.06.2020
863 Clouds 20 1016 37 10000 4.1 270 17:44 26.06.2020
864 Clouds 20 1016 37 10000 3.6 290 17:25 26.06.2020
865 Clouds 20 1016 37 10000 4.6 280 16:49 26.06.2020
866 Clouds 20 1016 37 10000 5.1 290 16:27 26.06.2020
867 Clouds 20 1016 37 10000 5.7 300 15:55 26.06.2020
868 Clouds 20 1016 37 10000 5.7 300 15:37 26.06.2020
869 Clouds 20 1016 37 10000 3.6 270 15:19 26.06.2020
870 Clouds 20 1017 37 10000 4.6 300 14:57 26.06.2020
871 Clouds 20 1017 37 10000 4.6 300 14:38 26.06.2020
872 Clouds 19 1017 37 10000 6.7 270 14:19 26.06.2020
873 Clouds 19 1017 37 10000 5.7 280 13:44 26.06.2020
874 Clouds 19 1017 37 10000 4.1 270 13:22 26.06.2020
875 Clouds 19 1017 34 10000 4.6 280 12:43 26.06.2020
876 Clouds 19 1017 37 10000 5.1 250 12:24 26.06.2020
877 Clouds 19 1017 39 10000 5.1 270 11:59 26.06.2020
878 Clouds 19 1017 39 10000 5.1 270 11:41 26.06.2020
879 Clouds 18 1017 39 10000 4.6 260 11:23 26.06.2020
880 Clouds 19 1017 37 10000 4.6 280 10:59 26.06.2020
881 Clouds 19 1017 37 10000 4.6 280 10:40 26.06.2020
882 Clouds 18 1017 42 10000 4.1 290 10:19 26.06.2020
883 Clouds 18 1017 39 10000 4.6 300 09:54 26.06.2020
884 Clouds 18 1017 39 10000 4.6 300 09:36 26.06.2020
885 Clear 17 1018 48 10000 3.6 260 09:18 26.06.2020
886 Clear 18 1018 45 10000 3.1 280 08:43 26.06.2020
887 Clouds 17 1018 45 10000 3.6 320 08:25 26.06.2020
888 Clouds 17 1018 45 10000 3.6 290 07:45 26.06.2020
889 Clouds 17 1018 42 10000 3.1 300 07:23 26.06.2020
890 Clouds 16 1018 44 10000 3.1 300 06:48 26.06.2020
891 -273 0 0 0 0 0 06:29 26.06.2020
892 Clouds 16 1018 51 10000 2.6 290 05:51 26.06.2020
893 Clouds 15 1018 62 10000 2.6 290 04:44 26.06.2020
894 Clouds 16 1018 59 10000 2.1 300 02:27 26.06.2020
895 Clouds 18 1018 48 10000 3.1 280 01:25 26.06.2020
896 Clouds 18 1019 48 10000 2.6 280 00:42 26.06.2020
897 Clouds 19 1019 45 10000 3.6 270 00:20 26.06.2020
898 Clouds 19 1019 45 10000 3.1 270 23:46 25.06.2020
899 Clouds 20 1019 45 10000 2.6 260 23:20 25.06.2020
900 Clouds 20 1019 45 10000 2.6 260 23:20 25.06.2020
901 Clouds 20 1019 52 10000 2.1 260 22:57 25.06.2020
902 Clouds 20 1019 52 10000 2.1 260 22:38 25.06.2020
903 Clouds 21 1019 64 10000 3.6 250 22:19 25.06.2020
904 Clouds 21 1018 64 10000 4.6 230 21:56 25.06.2020
905 Clouds 21 1018 64 10000 4.6 230 21:38 25.06.2020
906 Clouds 22 1019 60 10000 4.6 220 21:19 25.06.2020
907 Clouds 23 1019 56 10000 4.1 220 20:45 25.06.2020
908 Clouds 23 1019 53 10000 5.7 220 20:24 25.06.2020
909 Clouds 23 1019 53 10000 5.7 220 19:58 25.06.2020
910 Clouds 23 1019 53 10000 5.7 220 19:40 25.06.2020
911 Clouds 23 1020 49 10000 4.1 220 19:19 25.06.2020
912 Clouds 23 1020 49 10000 4.1 220 18:57 25.06.2020
913 Clouds 23 1020 49 10000 4.1 220 18:37 25.06.2020
914 Rain 23 1020 53 10000 3.6 240 18:19 25.06.2020
915 Rain 23 1020 53 10000 3.6 240 18:19 25.06.2020
916 Clouds 23 1020 49 10000 6.2 230 17:41 25.06.2020
917 Rain 23 1021 46 10000 5.7 220 17:19 25.06.2020
918 Rain 22 1021 53 10000 6.2 220 16:57 25.06.2020
919 Rain 22 1021 53 10000 6.2 220 16:57 25.06.2020
920 Rain 22 1021 53 10000 6.2 220 16:57 25.06.2020
921 Rain 22 1021 53 10000 6.2 220 16:37 25.06.2020
922 Rain 22 1021 53 10000 6.2 230 16:18 25.06.2020
923 Rain 21 1022 60 10000 5.1 240 15:41 25.06.2020
924 Clouds 21 1022 64 10000 5.1 210 15:21 25.06.2020
925 Clouds 21 1022 60 10000 5.1 230 14:44 25.06.2020
926 Clouds 21 1022 56 10000 5.7 230 14:25 25.06.2020
927 Clouds 23 1022 49 10000 6.2 230 13:56 25.06.2020
928 Clouds 23 1022 49 10000 6.2 230 13:38 25.06.2020
929 Clouds 23 1022 43 10000 5.7 230 13:19 25.06.2020
930 Clouds 24 1022 41 10000 5.1 230 12:45 25.06.2020
931 Clouds 24 1022 41 10000 4.1 0 12:21 25.06.2020
932 Clouds 24 1023 44 10000 3.1 210 11:58 25.06.2020
933 Clouds 24 1023 44 10000 3.1 210 11:38 25.06.2020
934 Clouds 23 1023 40 10000 3.1 230 11:20 25.06.2020
935 Clouds 22 1023 46 10000 3.1 240 10:42 25.06.2020
936 Clouds 21 1023 52 10000 2.6 240 10:23 25.06.2020
937 Clouds 20 1024 60 10000 3.1 210 09:41 25.06.2020
938 Clouds 19 1023 63 10000 2.1 160 09:23 25.06.2020
939 Clouds 18 1024 68 10000 2.1 200 08:49 25.06.2020
940 Clouds 18 1024 68 10000 2.1 180 08:21 25.06.2020
941 Clouds 17 1024 67 10000 1.5 140 07:57 25.06.2020
942 Clouds 17 1024 67 10000 1.5 140 07:38 25.06.2020
943 Clouds 17 1024 67 10000 1.5 140 07:38 25.06.2020
944 Clouds 17 1024 67 10000 1.5 100 07:20 25.06.2020
945 Clouds 15 1024 67 10000 2.6 100 06:30 25.06.2020
946 Clouds 15 1024 67 10000 3.1 90 05:55 25.06.2020
947 Clouds 15 1024 67 10000 4.1 80 05:25 25.06.2020
948 Clouds 14 1024 67 10000 3.6 60 03:36 25.06.2020
949 Clouds 15 1024 67 10000 4.1 50 02:44 25.06.2020
950 Clouds 15 1024 67 10000 4.1 60 02:19 25.06.2020
951 Clouds 16 1024 67 10000 4.6 50 01:34 25.06.2020
952 Clouds 17 1024 63 10000 4.1 50 00:47 25.06.2020
953 Clouds 16 1023 72 10000 4.6 40 00:22 25.06.2020
954 Clouds 17 1023 67 10000 3.6 30 23:58 24.06.2020
955 Clouds 17 1023 67 10000 3.6 30 23:37 24.06.2020
956 Clouds 18 1023 63 10000 3.1 20 23:18 24.06.2020
957 Clouds 20 1023 52 10000 2.1 350 22:41 24.06.2020
958 Clouds 20 1023 52 10000 2.1 350 22:20 24.06.2020
959 Clouds 21 1022 49 10000 2.6 330 21:56 24.06.2020
960 Clouds 21 1022 49 10000 2.6 330 21:37 24.06.2020
961 Clouds 21 1022 49 10000 2.6 340 21:19 24.06.2020
962 Clouds 22 1022 46 10000 3.1 350 20:58 24.06.2020
963 Clouds 22 1022 46 10000 3.1 350 20:39 24.06.2020
964 Clouds 22 1022 46 10000 3.1 340 20:20 24.06.2020
965 Clouds 23 1022 40 10000 4.1 340 19:57 24.06.2020
966 Clouds 23 1022 40 10000 4.1 340 19:38 24.06.2020
967 Clouds 24 1021 41 10000 4.1 340 19:18 24.06.2020
968 Clouds 24 1021 41 10000 4.6 340 18:58 24.06.2020
969 Clouds 24 1021 41 10000 4.6 340 18:39 24.06.2020
970 Clouds 24 1021 41 10000 4.1 310 18:20 24.06.2020
971 Clouds 24 1021 44 10000 6.2 340 17:44 24.06.2020
972 Clouds 25 1021 41 10000 6.2 310 17:21 24.06.2020
973 Clouds 25 1020 41 10000 6.2 330 17:00 24.06.2020
974 Clouds 25 1020 41 10000 6.2 330 16:41 24.06.2020
975 Clouds 25 1020 38 10000 5.7 310 16:23 24.06.2020
976 Clouds 26 1020 39 10000 5.7 300 15:59 24.06.2020
977 Clouds 26 1020 39 10000 5.7 300 15:39 24.06.2020
978 Clouds 25 1020 44 10000 5.1 290 15:20 24.06.2020
979 Clouds 25 1020 44 10000 4.1 310 14:58 24.06.2020
980 Clouds 25 1020 44 10000 4.1 310 14:40 24.06.2020
981 Clouds 25 1020 44 10000 4.1 310 14:40 24.06.2020
982 Clouds 25 1020 41 10000 5.1 250 14:20 24.06.2020
983 Clouds 25 1019 47 10000 4.1 290 13:42 24.06.2020
984 Clouds 25 1019 47 10000 4.1 260 13:21 24.06.2020
985 Clouds 24 1019 50 10000 3.1 0 12:43 24.06.2020
986 Clouds 24 1020 53 10000 3.6 270 12:21 24.06.2020
987 Clouds 23 1020 56 10000 2.6 270 11:57 24.06.2020
988 Clouds 23 1020 56 10000 2.6 270 11:39 24.06.2020
989 Clouds 23 1020 64 10000 2.6 230 11:21 24.06.2020
990 Clouds 22 1020 64 10000 3.1 250 10:45 24.06.2020
991 Clouds 21 1019 64 10000 3.1 240 10:19 24.06.2020
992 Clouds 21 1019 68 10000 3.6 220 09:46 24.06.2020
993 Clouds 20 1020 68 10000 3.1 230 09:24 24.06.2020
994 Clouds 19 1019 72 10000 2.6 220 08:59 24.06.2020
995 Clouds 19 1019 72 10000 2.6 220 08:39 24.06.2020
996 Clouds 18 1020 72 10000 2.6 230 08:18 24.06.2020
997 Clouds 19 1020 68 10000 1.5 220 07:44 24.06.2020
998 Clouds 18 1020 68 10000 2.6 210 07:24 24.06.2020
999 Clouds 18 1020 68 10000 2.1 160 06:44 24.06.2020
1000 Clouds 17 1020 67 10000 1 0 06:24 24.06.2020
1001 Clouds 17 1020 63 10000 2.6 150 05:38 24.06.2020
1002 Clouds 16 1020 59 10000 2.1 140 04:38 24.06.2020
1003 Rain 16 1021 59 10000 4.1 40 03:38 24.06.2020
1004 Clouds 18 1020 48 10000 1.5 190 02:53 24.06.2020
1005 Clouds 18 1020 48 10000 3.6 160 02:21 24.06.2020
1006 Clouds 19 1020 42 10000 3.6 160 00:52 24.06.2020
1007 Clouds 20 1020 40 10000 3.6 150 00:33 24.06.2020
1008 Clouds 19 1020 39 10000 4.1 130 23:48 23.06.2020
1009 Clouds 20 1020 37 10000 3.6 130 23:21 23.06.2020
1010 Clouds 21 1020 35 10000 3.6 120 22:58 23.06.2020
1011 Clouds 21 1020 35 10000 3.6 120 22:40 23.06.2020
1012 Clear 22 1020 33 10000 2.6 130 22:18 23.06.2020
1013 Clear 22 1020 33 10000 2.1 100 21:43 23.06.2020
1014 Clear 22 1020 35 10000 2.1 110 21:20 23.06.2020
1015 Clear 23 1020 31 10000 2.6 140 20:57 23.06.2020
1016 Clear 23 1020 31 10000 2.6 140 20:39 23.06.2020
1017 Clouds 24 1019 29 10000 2.6 130 20:19 23.06.2020
1018 Clouds 24 1019 29 10000 2.6 130 20:19 23.06.2020
1019 Clouds 24 1019 29 10000 1.5 0 19:59 23.06.2020
1020 Clouds 24 1019 29 10000 1 0 19:40 23.06.2020
1021 Clouds 24 1019 29 10000 1 0 19:22 23.06.2020
1022 Clouds 24 1019 27 10000 1.5 190 18:38 23.06.2020
1023 Clouds 24 1019 27 10000 1.5 190 18:18 23.06.2020
1024 Clouds 24 1019 27 10000 1.5 190 18:18 23.06.2020
1025 Clouds 24 1019 27 10000 2.6 0 17:42 23.06.2020
1026 Clouds 24 1019 27 10000 1 0 17:23 23.06.2020
1027 Clouds 24 1019 27 10000 2.1 0 16:57 23.06.2020
1028 Clouds 24 1019 27 10000 2.1 0 16:38 23.06.2020
1029 Clouds 24 1019 25 10000 2.1 0 16:20 23.06.2020
1030 Clouds 24 1019 27 10000 2.1 70 15:57 23.06.2020
1031 Clouds 24 1019 27 10000 2.1 70 15:38 23.06.2020
1032 Clouds 24 1019 25 10000 2.6 30 15:18 23.06.2020
1033 Clouds 23 1019 28 10000 3.1 20 14:42 23.06.2020
1034 Clouds 23 1019 25 10000 3.1 30 14:19 23.06.2020
1035 Clouds 23 1019 27 10000 2.1 0 13:56 23.06.2020
1036 Clouds 23 1019 27 10000 3.1 30 13:38 23.06.2020
1037 Clouds 23 1019 27 10000 3.1 30 13:20 23.06.2020
1038 Clouds 22 1019 28 10000 2.1 0 12:41 23.06.2020
1039 Clouds 21 1019 32 10000 3.1 60 12:22 23.06.2020
1040 Clouds 21 1019 35 10000 2.1 60 11:55 23.06.2020
1041 Clouds 21 1019 35 10000 2.1 60 11:37 23.06.2020
1042 Clouds 21 1019 35 10000 2.6 30 11:19 23.06.2020
1043 Clouds 20 1019 34 10000 3.6 50 10:55 23.06.2020
1044 Clouds 20 1019 34 10000 3.6 50 10:37 23.06.2020
1045 Clouds 19 1019 37 10000 4.1 70 10:19 23.06.2020
1046 Clouds 19 1018 37 10000 4.6 50 09:41 23.06.2020
1047 Clouds 19 1018 39 10000 4.1 60 09:20 23.06.2020
1048 Clouds 19 1018 37 10000 4.6 50 08:47 23.06.2020
1049 Clouds 18 1018 45 10000 5.1 50 08:28 23.06.2020
1050 Clouds 18 1018 45 10000 5.1 60 07:59 23.06.2020
1051 Clouds 18 1018 45 10000 5.1 60 07:39 23.06.2020
1052 Clouds 17 1017 45 10000 5.1 60 07:21 23.06.2020
1053 Clouds 17 1017 45 10000 5.1 60 06:48 23.06.2020
1054 Clouds 16 1017 44 10000 4.1 50 06:30 23.06.2020
1055 Clouds 16 1017 44 10000 4.6 50 05:39 23.06.2020
1056 Clouds 17 1015 42 10000 5.1 50 03:29 23.06.2020
1057 Clouds 17 1015 48 10000 4.6 50 02:55 23.06.2020
1058 Clouds 17 1015 48 10000 4.6 50 02:36 23.06.2020
1059 Clouds 18 1014 72 10000 3.1 40 01:47 23.06.2020
1060 Clouds 18 1014 77 10000 1.5 20 01:29 23.06.2020
1061 Clouds 18 1014 77 10000 2.1 300 00:56 23.06.2020
1062 Clouds 19 1014 72 10000 2.6 250 00:24 23.06.2020
1063 Clouds 19 1014 72 10000 2.6 260 23:55 22.06.2020
1064 Clouds 19 1014 72 10000 2.6 260 23:55 22.06.2020
1065 Clouds 19 1014 72 10000 2.6 260 23:55 22.06.2020
1066 Clouds 19 1014 72 10000 2.6 260 23:37 22.06.2020
1067 Clouds 19 1014 72 10000 2.1 240 23:19 22.06.2020
1068 Clouds 20 1013 68 10000 2.6 230 22:55 22.06.2020
1069 Clouds 20 1013 68 10000 2.6 230 22:37 22.06.2020
1070 Clouds 21 1013 64 10000 3.1 220 22:19 22.06.2020
1071 Clouds 21 1013 68 10000 3.6 220 21:54 22.06.2020
1072 Clouds 21 1013 68 10000 3.6 220 21:36 22.06.2020
1073 Clouds 22 1013 64 10000 2.6 220 21:18 22.06.2020
1074 Clouds 23 1013 60 10000 3.6 220 20:41 22.06.2020
1075 Clouds 24 1013 53 10000 3.6 230 20:22 22.06.2020
1076 Clouds 25 1013 47 10000 3.6 320 19:45 22.06.2020
1077 Clouds 25 1013 47 10000 3.6 320 19:20 22.06.2020
1078 -273 0 0 0 0 0 18:59 22.06.2020
1079 Clouds 25 1013 47 10000 3.6 320 18:59 22.06.2020
1080 Clouds 25 1013 44 10000 3.6 200 18:39 22.06.2020
1081 Clouds 25 1013 44 10000 3.6 200 18:21 22.06.2020
1082 Clouds 25 1013 44 10000 3.6 0 17:56 22.06.2020
1083 Clouds 25 1013 44 10000 2.1 210 17:38 22.06.2020
1084 Clouds 25 1013 44 10000 2.1 210 17:38 22.06.2020
1085 Clouds 25 1013 44 10000 2.1 210 17:19 22.06.2020
1086 Clouds 25 1013 44 10000 2.1 210 17:19 22.06.2020
1087 Clouds 26 1013 41 10000 3.1 230 16:55 22.06.2020
1088 Clouds 26 1013 36 10000 2.1 0 16:37 22.06.2020
1089 Clouds 26 1013 36 10000 2.1 0 16:18 22.06.2020
1090 Clouds 25 1013 44 10000 3.6 220 15:42 22.06.2020
1091 Clouds 25 1013 44 10000 3.6 220 15:23 22.06.2020
1092 Clouds 25 1014 44 10000 4.1 220 14:54 22.06.2020
1093 Clouds 25 1014 41 10000 4.1 220 14:36 22.06.2020
1094 Clouds 25 1014 41 10000 4.1 220 14:18 22.06.2020
1095 Clouds 25 1014 44 10000 2.6 210 13:39 22.06.2020
1096 Clouds 25 1014 44 10000 2.6 210 13:21 22.06.2020
1097 Clouds 24 1014 44 10000 3.6 210 12:55 22.06.2020
1098 Clouds 23 1014 46 10000 4.1 240 12:37 22.06.2020
1099 Clouds 23 1014 46 10000 4.1 240 12:19 22.06.2020
1100 Clouds 23 1014 46 10000 3.6 240 11:37 22.06.2020
1101 Clouds 23 1014 46 10000 3.6 240 11:19 22.06.2020
1102 Clouds 22 1014 49 10000 3.6 260 10:55 22.06.2020
1103 Clouds 22 1015 49 10000 4.1 260 10:37 22.06.2020
1104 Clear 22 1015 49 10000 4.1 260 10:18 22.06.2020
1105 Clear 21 1015 52 10000 3.6 240 09:56 22.06.2020
1106 Clear 20 1015 56 10000 4.1 220 09:37 22.06.2020
1107 Clear 20 1015 56 10000 4.1 220 09:18 22.06.2020
1108 Clear 18 1015 59 10000 4.1 220 08:40 22.06.2020
1109 Clouds 18 1015 59 10000 4.1 220 08:21 22.06.2020
1110 Clouds 18 1015 59 10000 3.6 230 07:54 22.06.2020
1111 Clouds 18 1016 59 10000 4.1 240 07:34 22.06.2020
1112 Clouds 17 1016 63 10000 5.1 230 06:56 22.06.2020
1113 Clouds 16 1016 72 10000 5.7 220 06:37 22.06.2020
1114 Clouds 16 1016 72 10000 5.7 220 06:19 22.06.2020
1115 Clouds 14 1017 76 10000 4.1 220 05:41 22.06.2020
1116 Clouds 13 1018 71 10000 3.6 230 02:59 22.06.2020
1117 Clouds 13 1018 71 10000 3.6 230 02:59 22.06.2020
1118 Clouds 14 1018 67 10000 4.1 230 01:38 22.06.2020
1119 Clouds 15 1018 54 10000 4.6 220 00:41 22.06.2020
1120 Clouds 15 1018 54 10000 4.6 220 00:19 22.06.2020
1121 Clouds 15 1018 51 10000 4.6 220 23:55 21.06.2020
1122 Clouds 16 1018 48 10000 4.1 220 23:36 21.06.2020
1123 Clouds 16 1018 48 10000 4.1 220 23:18 21.06.2020
1124 Clouds 16 1018 48 10000 3.6 220 22:54 21.06.2020
1125 Clouds 17 1019 45 10000 3.6 220 22:36 21.06.2020
1126 Clouds 18 1019 39 10000 4.1 220 22:18 21.06.2020
1127 Clouds 19 1019 37 10000 5.7 220 21:42 21.06.2020
1128 Clouds 19 1019 37 10000 5.7 220 21:21 21.06.2020
1129 Clouds 20 1019 34 10000 6.2 220 20:59 21.06.2020
1130 Clouds 21 1019 32 10000 6.7 220 20:38 21.06.2020
1131 Clear 21 1019 35 10000 6.2 220 20:19 21.06.2020
1132 Clear 21 1019 35 10000 6.2 220 19:57 21.06.2020
1133 Clear 22 1019 33 10000 7.2 210 19:38 21.06.2020
1134 Clear 22 1019 33 10000 7.2 210 19:38 21.06.2020
1135 Clear 22 1019 33 10000 7.2 210 19:19 21.06.2020
1136 Clear 22 1019 33 10000 5.7 0 18:55 21.06.2020
1137 Clear 23 1020 31 10000 4.6 210 18:36 21.06.2020
1138 Clear 23 1020 31 10000 4.6 210 18:36 21.06.2020
1139 Clear 23 1020 31 10000 4.6 210 18:18 21.06.2020
1140 Clear 23 1020 28 10000 4.1 210 17:40 21.06.2020
1141 Clear 23 1020 28 10000 4.1 210 17:20 21.06.2020
1142 Clear 23 1021 27 10000 4.1 230 16:56 21.06.2020
1143 Clear 23 1021 25 10000 3.1 200 16:37 21.06.2020
1144 Clear 23 1021 25 10000 3.1 200 16:19 21.06.2020
1145 Clear 22 1022 23 10000 3.6 230 15:38 21.06.2020
1146 Clear 22 1022 22 10000 3.6 230 15:20 21.06.2020
1147 Clear 22 1022 28 10000 2.6 230 14:39 21.06.2020
1148 Clear 22 1022 28 10000 2.6 230 14:21 21.06.2020
1149 Clear 21 1022 28 10000 3.1 240 13:59 21.06.2020
1150 Clear 21 1023 30 10000 3.1 250 13:41 21.06.2020
1151 Clear 21 1023 30 10000 2.1 0 13:22 21.06.2020
1152 Clear 21 1023 30 10000 2.1 0 12:56 21.06.2020
1153 Clear 20 1023 30 10000 2.6 220 12:37 21.06.2020
1154 Clear 20 1023 30 10000 2.6 220 12:19 21.06.2020
1155 Clear 20 1024 30 10000 1.5 0 11:42 21.06.2020
1156 Clear 20 1024 30 10000 1.5 0 11:42 21.06.2020
1157 Clear 20 1024 30 10000 1.5 0 11:23 21.06.2020
1158 Clear 19 1024 32 10000 1 0 10:58 21.06.2020
1159 Clear 19 1024 32 10000 2.1 200 10:39 21.06.2020
1160 Clear 19 1024 32 10000 2.1 200 10:20 21.06.2020
1161 Clear 18 1024 39 10000 2.1 0 09:44 21.06.2020
1162 Clear 18 1024 39 10000 2.1 0 09:22 21.06.2020
1163 Clear 18 1024 36 10000 2.1 180 08:57 21.06.2020
1164 Clear 17 1024 42 10000 2.1 170 08:39 21.06.2020
1165 Clear 17 1024 42 10000 2.1 170 08:19 21.06.2020
1166 Clear 16 1025 44 10000 0.5 0 07:42 21.06.2020
1167 Clear 16 1025 44 10000 0.5 0 07:23 21.06.2020
1168 Clear 16 1025 41 10000 1.5 100 06:50 21.06.2020
1169 Clear 15 1025 51 10000 2.1 90 06:28 21.06.2020
1170 Clear 15 1025 44 10000 1 0 05:57 21.06.2020
1171 Clear 13 1025 58 10000 1.5 90 04:34 21.06.2020
1172 Clear 12 1025 54 10000 1 80 03:19 21.06.2020
1173 Clear 13 1025 47 10000 2.1 110 02:33 21.06.2020
1174 Clear 13 1025 50 10000 2.6 140 01:37 21.06.2020
1175 Clear 13 1025 50 10000 2.6 140 01:18 21.06.2020
1176 Clear 14 1025 44 10000 2.1 80 00:42 21.06.2020
1177 Clear 14 1025 44 10000 2.1 80 00:23 21.06.2020
1178 Clear 14 1025 44 10000 0.5 170 23:45 20.06.2020
1179 Clear 15 1024 47 10000 1 190 23:22 20.06.2020
1180 Clear 15 1024 47 10000 1 190 22:57 20.06.2020
1181 Clear 15 1024 44 10000 1.5 170 22:39 20.06.2020
1182 Clear 15 1024 44 10000 1.5 170 22:20 20.06.2020
1183 Clear 16 1024 44 10000 1.5 170 21:58 20.06.2020
1184 Clear 17 1024 39 10000 1 0 21:39 20.06.2020
1185 Clear 17 1024 39 10000 1 0 21:20 20.06.2020
1186 Clear 17 1024 39 10000 1 0 21:20 20.06.2020
1187 Clear 17 1024 36 10000 2.1 130 20:58 20.06.2020
1188 Clear 18 1024 31 10000 2.1 80 20:40 20.06.2020
1189 Clear 18 1024 31 10000 2.1 80 20:20 20.06.2020
1190 Clear 18 1024 31 10000 2.6 100 19:55 20.06.2020
1191 Clear 18 1024 34 10000 1.5 110 19:37 20.06.2020
1192 Clear 18 1024 34 10000 1.5 110 19:19 20.06.2020
1193 Clear 18 1024 34 10000 1 0 18:42 20.06.2020
1194 Clear 18 1024 34 10000 1 0 18:20 20.06.2020
1195 Clear 18 1024 34 10000 2.6 150 17:57 20.06.2020
1196 Clear 18 1024 34 10000 1.5 170 17:39 20.06.2020
1197 Clear 18 1024 34 10000 1.5 170 17:20 20.06.2020
1198 Clear 18 1024 34 10000 2.1 0 16:42 20.06.2020
1199 Clear 18 1024 34 10000 2.1 0 16:42 20.06.2020
1200 Clear 18 1024 34 10000 2.1 0 16:19 20.06.2020
1201 Clear 17 1025 36 10000 2.6 0 15:57 20.06.2020
1202 Clear 18 1025 36 10000 3.6 70 15:39 20.06.2020
1203 Clear 18 1025 36 10000 3.6 70 15:18 20.06.2020
1204 Clear 16 1025 38 10000 3.1 0 14:42 20.06.2020
1205 Clear 16 1025 38 10000 3.1 0 14:21 20.06.2020
1206 Clear 16 1025 41 10000 2.6 80 13:42 20.06.2020
1207 Clear 16 1025 41 10000 2.6 80 13:21 20.06.2020
1208 Clear 15 1025 41 10000 2.6 0 12:57 20.06.2020
1209 Clear 16 1025 41 10000 3.1 40 12:38 20.06.2020
1210 Clear 15 1025 41 10000 1.5 0 12:19 20.06.2020
1211 Clear 14 1026 44 10000 3.6 60 11:41 20.06.2020
1212 Clear 14 1026 44 10000 3.6 60 11:21 20.06.2020
1213 Clear 13 1026 47 10000 4.6 90 10:59 20.06.2020
1214 Clear 14 1026 47 10000 3.1 60 10:41 20.06.2020
1215 Clear 14 1026 47 10000 3.1 60 10:20 20.06.2020
1216 Clear 13 1026 47 10000 3.1 60 09:43 20.06.2020
1217 Clear 13 1026 47 10000 3.1 60 09:25 20.06.2020
1218 Clear 12 1026 54 10000 3.6 40 08:58 20.06.2020
1219 Clear 12 1026 54 10000 2.6 60 08:39 20.06.2020
1220 Clear 12 1026 54 10000 2.6 60 08:21 20.06.2020
1221 Clear 11 1026 53 10000 3.6 100 07:50 20.06.2020
1222 Clear 11 1026 53 10000 3.6 100 07:25 20.06.2020
1223 Clear 11 1026 57 10000 3.1 100 06:49 20.06.2020
1224 Clear 10 1026 61 10000 2.6 90 06:21 20.06.2020
1225 Clear 10 1026 61 10000 2.6 90 05:48 20.06.2020
1226 Clear 8 1026 65 10000 3.1 60 03:55 20.06.2020
1227 Clear 8 1025 65 10000 3.6 60 01:55 20.06.2020
1228 Clear 9 1025 61 10000 4.1 60 01:37 20.06.2020
1229 Clear 10 1025 61 10000 4.1 60 00:47 20.06.2020
1230 Clear 10 1025 57 10000 4.1 70 00:20 20.06.2020
1231 Clear 12 1024 54 10000 4.6 60 23:44 19.06.2020
1232 Clear 12 1024 54 10000 4.6 60 23:20 19.06.2020
1233 Clear 12 1024 54 10000 4.6 60 22:56 19.06.2020
1234 Clear 13 1023 50 10000 4.1 60 22:37 19.06.2020
1235 Clear 13 1023 50 10000 4.1 60 22:19 19.06.2020
1236 Clear 13 1023 50 10000 3.1 50 21:55 19.06.2020
1237 Clear 14 1023 47 10000 5.7 40 21:37 19.06.2020
1238 Clear 15 1023 41 10000 5.1 50 21:18 19.06.2020
1239 Clear 15 1023 41 10000 5.1 50 20:56 19.06.2020
1240 Clear 15 1022 41 10000 4.6 50 20:38 19.06.2020
1241 Clear 15 1022 41 10000 4.6 50 20:20 19.06.2020
1242 Clear 15 1022 44 10000 5.7 30 19:54 19.06.2020
1243 Clear 16 1022 41 10000 5.1 40 19:36 19.06.2020
1244 Clear 16 1022 41 10000 5.1 40 19:18 19.06.2020
1245 Clear 16 1022 38 10000 5.7 30 18:40 19.06.2020
1246 Clear 16 1022 38 10000 5.7 30 18:21 19.06.2020
1247 Clear 16 1022 41 10000 5.1 40 17:42 19.06.2020
1248 Clear 16 1022 41 10000 5.1 40 17:23 19.06.2020
1249 Clear 16 1022 41 10000 4.6 40 16:58 19.06.2020
1250 Clear 16 1022 44 10000 4.6 30 16:40 19.06.2020
1251 Clear 16 1022 44 10000 4.6 30 16:22 19.06.2020
1252 Clear 16 1021 44 10000 5.7 30 15:47 19.06.2020
1253 Clear 16 1021 44 10000 5.7 30 15:27 19.06.2020
1254 Clear 16 1021 44 10000 4.6 40 14:58 19.06.2020
1255 Clear 15 1021 47 10000 4.6 40 14:40 19.06.2020
1256 Clear 15 1021 47 10000 4.6 40 14:21 19.06.2020
1257 Clear 15 1021 41 10000 5.1 50 13:58 19.06.2020
1258 Clear 15 1021 44 10000 5.7 40 13:40 19.06.2020
1259 Clear 15 1021 44 10000 5.7 40 13:22 19.06.2020
1260 Clear 15 1020 44 10000 4.6 10 12:45 19.06.2020
1261 Clear 15 1020 44 10000 4.6 10 12:22 19.06.2020
1262 Clear 14 1020 50 10000 5.1 20 11:56 19.06.2020
1263 Clear 14 1020 47 10000 6.7 40 11:36 19.06.2020
1264 Clear 13 1020 50 10000 5.1 10 11:18 19.06.2020
1265 Clear 14 1019 50 10000 5.7 350 10:41 19.06.2020
1266 Clear 14 1019 50 10000 5.7 350 10:21 19.06.2020
1267 Clear 13 1019 58 10000 5.7 30 09:55 19.06.2020
1268 Clear 13 1019 58 10000 6.2 30 09:37 19.06.2020
1269 Clear 13 1019 58 10000 6.2 30 09:18 19.06.2020
1270 Clear 12 1018 58 10000 7.2 20 08:41 19.06.2020
1271 Clouds 12 1018 58 10000 7.2 20 08:23 19.06.2020
1272 Clouds 13 1017 62 10000 6.2 10 07:41 19.06.2020
1273 Clouds 13 1017 62 10000 6.2 10 07:22 19.06.2020
1274 Clouds 13 1017 62 10000 6.7 10 06:50 19.06.2020
1275 Clouds 12 1016 66 10000 6.7 20 06:22 19.06.2020
1276 Clouds 13 1015 71 10000 6.2 10 05:32 19.06.2020
1277 Clouds 14 1014 71 10000 6.2 10 03:50 19.06.2020
1278 Clouds 15 1012 93 10000 3.1 330 02:22 19.06.2020
1279 Clouds 16 1012 87 10000 1.5 350 00:45 19.06.2020
1280 Clouds 16 1012 87 10000 3.1 50 00:22 19.06.2020
1281 Clouds 16 1012 87 10000 3.1 60 23:57 18.06.2020
1282 Clouds 16 1011 93 10000 2.1 60 23:39 18.06.2020
1283 Clouds 16 1011 93 10000 2.6 60 23:20 18.06.2020
1284 Clouds 16 1011 93 10000 3.6 10 22:41 18.06.2020
1285 Clouds 16 1010 93 10000 4.1 50 22:20 18.06.2020
1286 Clouds 16 1010 93 10000 4.1 50 21:56 18.06.2020
1287 Rain 16 1010 93 10000 3.6 40 21:37 18.06.2020
1288 Rain 16 1010 93 10000 3.6 40 21:19 18.06.2020
1289 Clouds 16 1010 93 10000 4.1 80 20:41 18.06.2020
1290 Clouds 16 1010 93 10000 4.1 80 20:21 18.06.2020
1291 Clouds 17 1010 88 10000 5.1 110 19:57 18.06.2020
1292 Clouds 17 1010 88 10000 3.6 100 19:39 18.06.2020
1293 Clouds 17 1010 88 10000 3.6 100 19:19 18.06.2020
1294 Clouds 17 1010 88 10000 3.6 100 19:19 18.06.2020
1295 Rain 17 1011 88 10000 3.6 100 18:41 18.06.2020
1296 Rain 17 1011 88 10000 3.6 100 18:22 18.06.2020
1297 Rain 17 1011 88 10000 3.6 110 17:55 18.06.2020
1298 Clouds 17 1011 88 10000 3.1 120 17:37 18.06.2020
1299 Clouds 17 1011 88 10000 3.1 120 17:18 18.06.2020
1300 Rain 18 1011 77 10000 4.6 140 16:42 18.06.2020
1301 Rain 18 1011 77 10000 4.6 140 16:24 18.06.2020
1302 Rain 19 1011 68 10000 4.6 130 15:58 18.06.2020
1303 Clouds 20 1012 64 10000 5.7 170 15:39 18.06.2020
1304 Clouds 20 1012 64 10000 5.7 170 15:20 18.06.2020
1305 Clouds 21 1012 56 10000 4.1 120 14:56 18.06.2020
1306 Clouds 21 1012 52 10000 3.6 120 14:37 18.06.2020
1307 Clouds 21 1012 52 10000 3.6 120 14:19 18.06.2020
1308 Rain 22 1012 43 10000 5.1 150 13:47 18.06.2020
1309 Clouds 22 1012 43 10000 5.1 150 13:28 18.06.2020
1310 Clouds 22 1013 43 10000 4.6 170 12:57 18.06.2020
1311 Clouds 22 1013 49 10000 3.6 150 12:39 18.06.2020
1312 Rain 22 1013 49 10000 3.6 150 12:19 18.06.2020
1313 Rain 23 1013 46 10000 5.7 170 11:48 18.06.2020
1314 Clouds 23 1013 46 10000 4.6 170 11:21 18.06.2020
1315 Clouds 22 1013 49 10000 3.6 110 10:59 18.06.2020
1316 Rain 22 1013 49 10000 3.1 130 10:39 18.06.2020
1317 Rain 22 1013 49 10000 3.1 130 10:18 18.06.2020
1318 Rain 21 1013 49 10000 3.1 120 09:44 18.06.2020
1319 Clear 21 1013 49 10000 3.1 120 09:26 18.06.2020
1320 Clear 20 1014 45 10000 2.1 130 08:54 18.06.2020
1321 Clear 19 1014 48 10000 3.6 160 08:36 18.06.2020
1322 Clouds 19 1014 48 10000 3.6 160 08:18 18.06.2020
1323 Clouds 18 1015 52 10000 3.1 160 07:43 18.06.2020
1324 Clouds 18 1015 52 10000 3.1 160 07:23 18.06.2020
1325 Clouds 17 1015 51 10000 2.6 130 06:34 18.06.2020
1326 Clear 16 1016 51 10000 3.6 170 04:27 18.06.2020
1327 Clear 16 1016 55 10000 3.1 160 03:30 18.06.2020
1328 Clear 18 1017 42 10000 1.5 150 01:42 18.06.2020
1329 Clear 18 1017 42 10000 1.5 150 01:18 18.06.2020
1330 Clear 17 1017 45 10000 0.5 0 00:49 18.06.2020
1331 Clear 17 1017 45 10000 0.5 0 00:25 18.06.2020
1332 Clear 18 1017 42 10000 0.5 0 23:49 17.06.2020
1333 Clear 18 1017 42 10000 1.5 90 23:23 17.06.2020
1334 Clear 20 1017 37 10000 0.5 40 22:59 17.06.2020
1335 Clear 21 1017 35 10000 0.5 30 22:40 17.06.2020
1336 Clear 21 1017 35 10000 0.5 30 22:21 17.06.2020
1337 Clear 23 1017 31 10000 0.5 290 21:58 17.06.2020
1338 Clear 22 1017 28 10000 1 0 21:39 17.06.2020
1339 Clear 22 1017 28 10000 1 0 21:20 17.06.2020
1340 Clear 22 1017 30 10000 1 220 20:55 17.06.2020
1341 Clear 23 1017 25 10000 2.1 230 20:36 17.06.2020
1342 Clear 23 1017 25 10000 2.1 230 20:18 17.06.2020
1343 Clear 23 1017 28 10000 2.1 160 19:41 17.06.2020
1344 Clear 23 1017 28 10000 2.1 160 19:19 17.06.2020
1345 Clear 23 1017 27 10000 2.1 0 18:46 17.06.2020
1346 Clear 23 1017 27 10000 2.1 0 18:27 17.06.2020
1347 Clear 23 1017 27 10000 1 0 17:47 17.06.2020
1348 Clear 23 1018 27 10000 1.5 0 17:23 17.06.2020
1349 Clear 22 1018 28 10000 1.5 0 16:58 17.06.2020
1350 Clear 22 1018 30 10000 2.1 170 16:40 17.06.2020
1351 Clear 22 1018 30 10000 2.1 170 16:21 17.06.2020
1352 Clear 22 1018 28 10000 2.6 0 15:58 17.06.2020
1353 Clear 21 1018 30 10000 1.5 0 15:39 17.06.2020
1354 Clear 21 1018 30 10000 1.5 0 15:20 17.06.2020
1355 Clear 21 1019 30 10000 2.1 160 14:58 17.06.2020
1356 Clear 21 1019 35 10000 1.5 0 14:39 17.06.2020
1357 Clear 21 1019 35 10000 2.1 140 14:19 17.06.2020
1358 Clear 21 1019 35 10000 2.1 140 13:56 17.06.2020
1359 Clear 21 1019 32 10000 2.1 150 13:37 17.06.2020
1360 Clear 21 1019 32 10000 2.1 150 13:19 17.06.2020
1361 Clear 20 1019 34 10000 3.1 190 12:42 17.06.2020
1362 Clear 20 1019 34 10000 3.1 190 12:42 17.06.2020
1363 Clear 20 1019 34 10000 3.1 190 12:23 17.06.2020
1364 Clear 19 1020 34 10000 2.1 150 11:57 17.06.2020
1365 Clear 19 1020 37 10000 2.6 80 11:37 17.06.2020
1366 Clear 19 1020 37 10000 2.6 80 11:18 17.06.2020
1367 Clear 19 1020 37 10000 2.1 60 10:38 17.06.2020
1368 Clear 19 1020 37 10000 2.1 60 10:19 17.06.2020
1369 Clear 19 1020 37 10000 2.1 60 10:19 17.06.2020
1370 Clear 17 1020 42 10000 2.6 0 09:57 17.06.2020
1371 Clear 17 1020 42 10000 2.1 0 09:39 17.06.2020
1372 Clear 17 1020 42 10000 2.1 0 09:20 17.06.2020
1373 Clear 17 1020 45 10000 1 350 08:45 17.06.2020
1374 Clear 17 1020 45 10000 1 350 08:20 17.06.2020
1375 Clear 16 1020 44 10000 1 0 07:55 17.06.2020
1376 Clear 16 1020 41 10000 0.5 0 07:37 17.06.2020
1377 Clear 15 1020 44 10000 1.5 100 07:18 17.06.2020
1378 Clear 15 1020 44 10000 1 0 06:41 17.06.2020
1379 Clear 15 1020 44 10000 1 0 06:22 17.06.2020
1380 Clear 14 1020 47 10000 1.5 90 05:56 17.06.2020
1381 Clear 13 1020 50 10000 1.5 90 04:39 17.06.2020
1382 Clear 11 1020 53 10000 1.5 80 02:41 17.06.2020
1383 Clear 12 1020 50 10000 1.5 60 00:53 17.06.2020
1384 Clear 12 1020 50 10000 1.5 30 00:30 17.06.2020
1385 Clear 13 1020 50 10000 1 20 00:00 17.06.2020
1386 Clear 14 1020 44 10000 1.5 350 23:41 16.06.2020
1387 Clear 14 1020 44 10000 1.5 350 23:22 16.06.2020
1388 Clear 14 1020 47 10000 1.5 360 22:57 16.06.2020
1389 Clear 15 1020 41 10000 1.5 10 22:38 16.06.2020
1390 Clear 15 1020 41 10000 1.5 10 22:19 16.06.2020
1391 Clear 16 1020 38 10000 1.5 350 21:57 16.06.2020
1392 Clear 16 1020 36 10000 1.5 350 21:39 16.06.2020
1393 Clear 16 1020 36 10000 1.5 350 21:21 16.06.2020
1394 Clear 16 1021 36 10000 2.1 330 20:43 16.06.2020
1395 Clear 16 1021 36 10000 2.1 330 20:22 16.06.2020
1396 Clear 16 1020 36 10000 2.1 360 19:58 16.06.2020
1397 Clear 16 1020 36 10000 3.1 330 19:40 16.06.2020
1398 Clear 16 1020 36 10000 3.1 330 19:22 16.06.2020
1399 Clear 16 1021 36 10000 2.1 330 18:58 16.06.2020
1400 Clear 16 1021 36 10000 2.1 0 18:39 16.06.2020
1401 Clouds 16 1021 36 10000 2.1 0 18:20 16.06.2020
1402 Clouds 17 1021 36 10000 2.6 330 17:56 16.06.2020
1403 Clouds 16 1021 41 10000 2.1 350 17:37 16.06.2020
1404 Clouds 16 1021 36 10000 2.1 320 17:19 16.06.2020
1405 Clouds 16 1021 36 10000 2.1 320 16:55 16.06.2020
1406 Clouds 16 1021 38 10000 2.6 330 16:37 16.06.2020
1407 Clouds 16 1021 38 10000 2.6 330 16:18 16.06.2020
1408 Clouds 16 1021 36 10000 2.1 0 15:55 16.06.2020
1409 Clouds 15 1021 38 10000 1.5 0 15:37 16.06.2020
1410 Clouds 15 1021 38 10000 1.5 0 15:19 16.06.2020
1411 Clouds 15 1021 41 10000 3.1 330 14:42 16.06.2020
1412 Clouds 15 1021 41 10000 3.1 330 14:23 16.06.2020
1413 Clouds 15 1021 44 10000 2.1 330 13:50 16.06.2020
1414 Clouds 15 1021 44 10000 3.6 20 13:27 16.06.2020
1415 Clouds 14 1022 44 10000 2.6 0 12:57 16.06.2020
1416 Clouds 14 1022 44 10000 3.6 320 12:39 16.06.2020
1417 Clouds 14 1022 44 10000 3.6 320 12:21 16.06.2020
1418 Clouds 14 1022 44 10000 3.6 340 11:55 16.06.2020
1419 Clouds 13 1022 47 10000 2.6 320 11:37 16.06.2020
1420 Clouds 13 1022 47 10000 2.6 320 11:19 16.06.2020
1421 Clouds 12 1021 54 10000 3.6 330 10:43 16.06.2020
1422 Clouds 12 1021 54 10000 3.6 330 10:21 16.06.2020
1423 Clouds 12 1021 50 10000 3.6 360 09:58 16.06.2020
1424 Clouds 12 1021 50 10000 3.6 360 09:58 16.06.2020
1425 Clouds 12 1021 58 10000 3.6 20 09:40 16.06.2020
1426 Clouds 12 1021 58 10000 3.6 20 09:21 16.06.2020
1427 Clouds 12 1021 58 10000 3.6 20 09:21 16.06.2020
1428 Clouds 11 1021 53 10000 3.6 20 08:44 16.06.2020
1429 Clouds 11 1021 53 10000 3.6 20 08:25 16.06.2020
1430 Clouds 11 1021 57 10000 4.1 10 07:50 16.06.2020
1431 Clouds 10 1021 57 10000 5.1 30 07:27 16.06.2020
1432 Clouds 10 1020 61 10000 5.1 20 06:48 16.06.2020
1433 Clouds 10 1020 61 10000 4.1 20 06:26 16.06.2020
1434 Clouds 9 1020 66 10000 4.1 10 05:38 16.06.2020
1435 Clouds 9 1019 70 10000 3.6 20 04:31 16.06.2020
1436 Clear 8 1018 87 10000 3.6 340 02:58 16.06.2020
1437 Clouds 8 1018 87 10000 4.1 330 01:58 16.06.2020
1438 Clouds 9 1018 87 10000 3.6 330 01:23 16.06.2020
1439 Clouds 10 1018 87 10000 4.6 330 00:43 16.06.2020
1440 Clouds 10 1018 87 10000 4.6 330 00:19 16.06.2020
1441 Clouds 11 1017 81 10000 2.6 350 23:41 15.06.2020
1442 Clouds 11 1017 81 10000 2.6 350 23:22 15.06.2020
1443 Clouds 11 1017 81 10000 3.6 350 22:55 15.06.2020
1444 Clouds 11 1017 81 10000 4.1 350 22:36 15.06.2020
1445 Clouds 11 1017 81 10000 4.1 350 22:18 15.06.2020
1446 Clouds 12 1016 81 10000 5.1 340 21:55 15.06.2020
1447 Clouds 13 1016 93 10000 3.1 330 21:36 15.06.2020
1448 Clouds 13 1016 93 10000 3.1 330 21:36 15.06.2020
1449 Clouds 13 1016 93 10000 3.1 330 21:18 15.06.2020
1450 Clouds 13 1016 93 10000 3.1 330 21:18 15.06.2020
1451 Clouds 13 1015 87 10000 3.1 360 20:54 15.06.2020
1452 Clouds 13 1015 87 10000 3.1 360 20:36 15.06.2020
1453 Clouds 13 1015 87 10000 3.1 360 20:18 15.06.2020
1454 Rain 13 1015 93 10000 4.1 20 19:41 15.06.2020
1455 Rain 13 1015 93 10000 4.1 20 19:22 15.06.2020
1456 Rain 14 1015 87 10000 3.1 350 18:58 15.06.2020
1457 Rain 14 1015 87 6000 5.7 340 18:40 15.06.2020
1458 Rain 14 1015 87 6000 5.7 340 18:21 15.06.2020
1459 Rain 18 1014 59 10000 5.7 330 17:58 15.06.2020
1460 Clouds 21 1014 46 10000 2.6 280 17:40 15.06.2020
1461 Rain 21 1014 46 10000 2.6 280 17:19 15.06.2020
1462 Rain 21 1014 46 10000 2.1 280 16:54 15.06.2020
1463 Clouds 22 1014 43 10000 1.5 0 16:36 15.06.2020
1464 Clouds 22 1014 43 10000 1.5 0 16:18 15.06.2020
1465 Clouds 21 1015 49 10000 2.1 0 15:40 15.06.2020
1466 Clouds 21 1015 49 10000 2.1 0 15:20 15.06.2020
1467 Clouds 20 1015 52 10000 2.1 340 14:57 15.06.2020
1468 Clouds 20 1015 52 10000 2.1 0 14:39 15.06.2020
1469 Clouds 20 1015 52 10000 2.1 0 14:18 15.06.2020
1470 Clouds 20 1015 49 10000 2.6 300 13:43 15.06.2020
1471 Clouds 20 1015 49 10000 2.6 300 13:24 15.06.2020
1472 Clouds 20 1015 52 10000 1.5 250 12:59 15.06.2020
1473 Clouds 20 1015 52 10000 2.6 230 12:41 15.06.2020
1474 Clouds 20 1015 52 10000 2.6 230 12:21 15.06.2020
1475 Clouds 19 1016 52 10000 3.1 360 11:46 15.06.2020
1476 Clouds 18 1016 55 10000 2.6 330 11:26 15.06.2020
1477 Clouds 18 1016 55 10000 3.1 330 10:57 15.06.2020
1478 Clouds 18 1016 59 10000 3.1 340 10:38 15.06.2020
1479 Clouds 18 1016 59 10000 3.1 340 10:19 15.06.2020
1480 Clouds 17 1015 63 10000 3.6 320 09:42 15.06.2020
1481 Clouds 17 1015 63 10000 3.6 320 09:22 15.06.2020
1482 Clouds 17 1015 63 10000 2.6 320 08:45 15.06.2020
1483 Clouds 17 1015 63 10000 2.6 320 08:26 15.06.2020
1484 Clouds 17 1015 63 10000 2.6 320 07:52 15.06.2020
1485 Clouds 15 1015 72 10000 2.1 290 07:34 15.06.2020
1486 Clouds 14 1015 76 10000 2.6 260 06:57 15.06.2020
1487 Clouds 14 1015 76 10000 2.6 260 06:57 15.06.2020
1488 Clouds 14 1015 76 10000 2.6 260 06:57 15.06.2020
1489 Rain 13 1014 82 10000 3.1 250 06:27 15.06.2020
1490 Clouds 13 1014 76 10000 4.1 240 05:50 15.06.2020
1491 Clouds 13 1014 76 10000 3.6 240 05:28 15.06.2020
1492 Clouds 14 1014 71 10000 3.6 240 04:22 15.06.2020
1493 Clouds 14 1014 67 10000 4.6 240 03:48 15.06.2020
1494 Clouds 14 1014 67 10000 4.6 240 03:48 15.06.2020
1495 Clouds 14 1014 67 10000 4.1 220 02:56 15.06.2020
1496 Clouds 14 1015 67 10000 4.6 220 02:20 15.06.2020
1497 Clouds 15 1015 62 10000 4.6 220 01:40 15.06.2020
1498 Clouds 15 1015 62 10000 4.6 220 01:40 15.06.2020
1499 Clouds 15 1015 62 10000 4.6 220 01:40 15.06.2020
1500 Clouds 15 1015 62 10000 4.6 220 01:22 15.06.2020
1501 Clouds 16 1015 59 10000 4.6 210 00:41 15.06.2020
1502 Clouds 16 1015 59 10000 4.6 210 00:22 15.06.2020
1503 Clouds 16 1015 55 10000 4.6 210 23:55 14.06.2020
1504 Clouds 17 1016 51 10000 4.6 200 23:36 14.06.2020
1505 Clouds 17 1016 51 10000 4.6 200 23:18 14.06.2020
1506 Clouds 18 1016 48 10000 5.1 200 22:55 14.06.2020
1507 Clouds 18 1016 48 10000 5.7 210 22:37 14.06.2020
1508 Clouds 18 1016 48 10000 5.7 210 22:18 14.06.2020
1509 Clouds 19 1016 45 10000 4.6 210 21:55 14.06.2020
1510 Clouds 20 1016 42 10000 5.7 220 21:36 14.06.2020
1511 Clouds 20 1016 42 10000 5.7 220 21:18 14.06.2020
1512 Clouds 21 1016 37 10000 5.7 220 20:40 14.06.2020
1513 Clouds 21 1016 37 10000 5.7 220 20:21 14.06.2020
1514 Clouds 21 1016 35 10000 7.7 210 19:59 14.06.2020
1515 Clouds 21 1016 35 10000 7.7 210 19:59 14.06.2020
1516 Clouds 21 1016 35 10000 7.7 210 19:59 14.06.2020
1517 Clouds 22 1017 35 10000 6.2 220 19:40 14.06.2020
1518 Clouds 23 1017 31 10000 8.2 220 19:20 14.06.2020
1519 Clouds 23 1017 31 10000 8.2 220 18:58 14.06.2020
1520 Clouds 23 1017 31 10000 8.2 220 18:58 14.06.2020
1521 Clouds 23 1017 33 10000 8.2 220 18:40 14.06.2020
1522 Clouds 23 1017 33 10000 8.2 220 18:21 14.06.2020
1523 Clouds 24 1017 33 10000 8.2 220 17:58 14.06.2020
1524 Clouds 24 1017 31 10000 8.7 210 17:39 14.06.2020
1525 Clouds 25 1017 31 10000 9.3 220 17:20 14.06.2020
1526 Clouds 25 1017 31 10000 9.3 220 16:57 14.06.2020
1527 Clouds 25 1017 31 10000 10.3 220 16:38 14.06.2020
1528 Clouds 25 1017 31 10000 10.3 220 16:18 14.06.2020
1529 Clouds 25 1018 31 10000 9.3 210 15:41 14.06.2020
1530 Clouds 25 1018 31 10000 9.3 210 15:41 14.06.2020
1531 Clouds 26 1018 31 10000 8.7 210 15:20 14.06.2020
1532 -273 0 0 0 0 0 14:59 14.06.2020
1533 Clouds 25 1018 33 10000 8.2 210 14:41 14.06.2020
1534 Clouds 25 1018 33 10000 8.2 210 14:22 14.06.2020
1535 Clouds 25 1018 33 10000 7.2 220 13:58 14.06.2020
1536 Clouds 25 1018 31 10000 7.7 220 13:39 14.06.2020
1537 Clouds 25 1018 31 10000 7.7 220 13:21 14.06.2020
1538 Clouds 25 1018 31 10000 7.7 220 13:21 14.06.2020
1539 Clouds 25 1019 33 10000 7.7 210 12:57 14.06.2020
1540 Clouds 24 1019 31 10000 7.2 210 12:38 14.06.2020
1541 Clouds 23 1019 33 10000 7.7 220 12:18 14.06.2020
1542 Clouds 23 1019 33 10000 7.7 220 11:56 14.06.2020
1543 Clouds 23 1019 33 10000 6.7 230 11:37 14.06.2020
1544 Clouds 23 1019 33 10000 6.7 230 11:18 14.06.2020
1545 Clouds 21 1020 43 10000 6.7 220 10:42 14.06.2020
1546 Clouds 21 1020 43 10000 6.7 220 10:19 14.06.2020
1547 Clouds 19 1020 45 10000 7.2 210 09:45 14.06.2020
1548 Clouds 19 1020 45 10000 7.2 210 09:25 14.06.2020
1549 Clouds 19 1020 42 10000 7.7 220 08:56 14.06.2020
1550 Clouds 19 1020 42 10000 7.7 220 08:38 14.06.2020
1551 Clouds 18 1020 42 10000 6.2 220 08:18 14.06.2020
1552 Clouds 18 1020 42 10000 6.2 220 07:48 14.06.2020
1553 Clouds 17 1021 42 10000 6.2 220 07:30 14.06.2020
1554 Clouds 16 1021 44 10000 4.6 220 06:26 14.06.2020
1555 Clouds 14 1021 50 10000 4.1 220 05:40 14.06.2020
1556 Clouds 14 1021 50 10000 3.6 220 04:53 14.06.2020
1557 Clouds 13 1022 54 10000 4.1 220 04:28 14.06.2020
1558 Clouds 13 1022 54 10000 4.6 220 02:56 14.06.2020
1559 Clouds 13 1022 54 10000 4.6 220 02:27 14.06.2020
1560 Clouds 13 1023 54 10000 5.1 220 01:36 14.06.2020
1561 Clouds 15 1023 47 10000 5.1 220 00:55 14.06.2020
1562 Clouds 15 1023 47 10000 4.6 220 00:36 14.06.2020
1563 Clouds 15 1023 47 10000 4.6 220 00:18 14.06.2020
1564 Clouds 16 1023 44 10000 5.1 220 23:41 13.06.2020
1565 Clouds 16 1023 44 10000 5.1 220 23:23 13.06.2020
1566 Clouds 17 1023 39 10000 5.7 220 22:56 13.06.2020
1567 Clouds 18 1023 36 10000 5.1 220 22:36 13.06.2020
1568 Clouds 18 1023 36 10000 5.1 220 22:18 13.06.2020
1569 Clouds 19 1023 37 10000 3.6 220 21:43 13.06.2020
1570 Clear 19 1023 37 10000 3.6 220 21:24 13.06.2020
1571 Clear 20 1023 34 10000 5.1 210 20:59 13.06.2020
1572 Clear 21 1023 35 10000 5.1 220 20:41 13.06.2020
1573 Clear 22 1023 30 10000 5.7 220 20:19 13.06.2020
1574 Clear 22 1023 30 10000 6.7 210 19:41 13.06.2020
1575 Clear 22 1023 30 10000 6.7 210 19:20 13.06.2020
1576 Clear 23 1024 31 10000 7.7 210 18:59 13.06.2020
1577 Clear 23 1024 31 10000 7.7 210 18:40 13.06.2020
1578 Clear 23 1024 31 10000 7.7 210 18:20 13.06.2020
1579 Clear 23 1024 33 10000 6.7 210 17:57 13.06.2020
1580 Clear 23 1024 33 10000 7.2 210 17:39 13.06.2020
1581 Clear 23 1024 33 10000 7.2 210 17:20 13.06.2020
1582 Clear 24 1024 31 10000 5.7 230 16:55 13.06.2020
1583 Clear 24 1024 29 10000 5.1 220 16:37 13.06.2020
1584 Clear 24 1024 29 10000 5.1 220 16:37 13.06.2020
1585 Clear 24 1024 29 10000 5.1 220 16:18 13.06.2020
1586 Clear 24 1025 29 10000 3.6 260 15:42 13.06.2020
1587 Clear 24 1025 29 10000 3.6 260 15:22 13.06.2020
1588 Clear 23 1025 28 10000 3.6 240 14:44 13.06.2020
1589 Clouds 23 1025 28 10000 3.6 240 14:25 13.06.2020
1590 Clouds 23 1025 31 10000 3.6 0 13:58 13.06.2020
1591 Clouds 23 1025 31 10000 3.6 240 13:39 13.06.2020
1592 Clouds 23 1025 31 10000 3.6 240 13:20 13.06.2020
1593 Clouds 22 1026 30 10000 3.1 240 12:43 13.06.2020
1594 Clouds 22 1026 30 10000 3.1 240 12:43 13.06.2020
1595 Clouds 22 1026 30 10000 3.1 240 12:25 13.06.2020
1596 Clouds 22 1026 30 10000 3.1 240 11:57 13.06.2020
1597 Clouds 21 1026 32 10000 2.6 200 11:38 13.06.2020
1598 Clouds 21 1026 32 10000 2.6 200 11:19 13.06.2020
1599 Clouds 21 1027 35 10000 4.6 200 10:55 13.06.2020
1600 Clouds 21 1027 32 10000 3.1 230 10:37 13.06.2020
1601 Clear 20 1027 37 10000 3.6 220 10:18 13.06.2020
1602 Clear 19 1027 39 10000 3.1 220 09:42 13.06.2020
1603 Clear 19 1027 39 10000 3.1 220 09:20 13.06.2020
1604 Clear 17 1027 45 10000 3.1 230 08:47 13.06.2020
1605 Clouds 17 1027 45 10000 3.1 230 08:28 13.06.2020
1606 Clouds 17 1027 45 10000 2.6 220 07:50 13.06.2020
1607 Clouds 16 1027 51 10000 2.6 220 07:27 13.06.2020
1608 Clouds 15 1027 54 10000 2.1 230 06:47 13.06.2020
1609 Clouds 15 1027 51 10000 2.6 240 06:27 13.06.2020
1610 Clouds 14 1027 58 10000 2.1 250 05:36 13.06.2020
1611 Clouds 14 1027 58 10000 1 0 04:59 13.06.2020
1612 Clouds 13 1027 54 10000 1 0 03:46 13.06.2020
1613 Clouds 11 1027 66 10000 1 210 02:53 13.06.2020
1614 Clouds 13 1027 54 10000 2.1 150 02:25 13.06.2020
1615 Clouds 12 1027 58 10000 0.5 110 01:26 13.06.2020
1616 Clouds 15 1027 47 10000 1.5 80 00:58 13.06.2020
1617 Clouds 14 1026 50 10000 1.5 90 00:38 13.06.2020
1618 Clouds 14 1026 50 10000 1.5 90 00:19 13.06.2020
1619 Clouds 16 1026 44 10000 1.5 80 23:40 12.06.2020
1620 Clouds 16 1026 44 10000 1.5 80 23:18 12.06.2020
1621 Clouds 17 1026 42 10000 1.5 60 22:55 12.06.2020
1622 Clouds 17 1026 42 10000 1.5 20 22:37 12.06.2020
1623 Clouds 17 1026 42 10000 1.5 20 22:18 12.06.2020
1624 Clouds 18 1026 39 10000 1 0 21:44 12.06.2020
1625 Clouds 18 1026 39 10000 1 0 21:23 12.06.2020
1626 Clouds 18 1026 36 10000 1.5 330 20:57 12.06.2020
1627 Clouds 18 1026 36 10000 1.5 330 20:57 12.06.2020
1628 Clouds 18 1026 36 10000 2.6 330 20:38 12.06.2020
1629 Clouds 18 1026 36 10000 2.6 330 20:19 12.06.2020
1630 Clouds 19 1026 32 10000 3.1 330 19:44 12.06.2020
1631 Clouds 19 1026 32 10000 3.1 330 19:22 12.06.2020
1632 Clouds 18 1026 34 10000 3.1 330 18:58 12.06.2020
1633 Clouds 19 1026 32 10000 2.6 310 18:37 12.06.2020
1634 Clouds 19 1026 32 10000 3.1 350 18:18 12.06.2020
1635 Clouds 19 1026 32 10000 3.1 350 18:18 12.06.2020
1636 Clouds 19 1026 29 10000 4.6 350 17:43 12.06.2020
1637 Clouds 19 1026 29 10000 4.6 350 17:25 12.06.2020
1638 Clouds 19 1026 32 10000 4.6 10 16:47 12.06.2020
1639 Clouds 19 1026 32 10000 4.6 10 16:22 12.06.2020
1640 Clouds 18 1026 34 10000 3.6 350 15:53 12.06.2020
1641 Clouds 18 1026 31 10000 4.1 360 15:29 12.06.2020
1642 Clouds 18 1026 34 10000 3.6 360 14:59 12.06.2020
1643 Clouds 18 1026 34 10000 3.1 350 14:41 12.06.2020
1644 Clouds 18 1026 34 10000 3.1 350 14:21 12.06.2020
1645 Clouds 17 1026 33 10000 3.1 350 13:44 12.06.2020
1646 Clouds 17 1026 33 10000 3.1 350 13:22 12.06.2020
1647 Clouds 17 1027 36 10000 2.6 0 12:57 12.06.2020
1648 Clouds 17 1027 39 10000 3.1 10 12:39 12.06.2020
1649 Clouds 17 1027 39 10000 3.1 10 12:18 12.06.2020
1650 Clouds 16 1027 38 10000 4.1 360 11:44 12.06.2020
1651 Clouds 16 1027 38 10000 4.1 360 11:23 12.06.2020
1652 Clouds 16 1027 38 10000 2.6 0 10:54 12.06.2020
1653 Clouds 15 1028 38 10000 3.6 360 10:36 12.06.2020
1654 Clouds 15 1028 41 10000 2.6 340 10:18 12.06.2020
1655 Clouds 14 1028 44 10000 2.6 330 09:43 12.06.2020
1656 Clouds 14 1028 44 10000 2.6 330 09:19 12.06.2020
1657 Clouds 14 1028 44 10000 2.1 360 08:41 12.06.2020
1658 Clouds 14 1028 44 10000 2.1 360 08:23 12.06.2020
1659 Clouds 13 1028 50 10000 0.5 30 07:42 12.06.2020
1660 Clouds 13 1028 50 10000 0.5 30 07:24 12.06.2020
1661 Clouds 11 1028 62 10000 1.5 30 06:41 12.06.2020
1662 Clouds 11 1028 62 10000 1.5 30 06:21 12.06.2020
1663 Clouds 11 1028 62 10000 2.1 20 05:49 12.06.2020
1664 Clouds 11 1028 57 10000 2.6 30 05:23 12.06.2020
1665 Clouds 9 1027 61 10000 3.1 30 03:53 12.06.2020
1666 Clouds 9 1027 61 10000 3.1 360 02:43 12.06.2020
1667 Clouds 10 1027 57 10000 3.1 350 01:47 12.06.2020
1668 Clouds 9 1027 61 10000 3.1 350 01:19 12.06.2020
1669 Clouds 10 1027 57 10000 2.6 350 00:39 12.06.2020
1670 Clouds 10 1027 57 10000 2.6 350 00:20 12.06.2020
1671 Clouds 12 1027 50 10000 2.1 20 23:57 11.06.2020
1672 Clouds 11 1027 53 10000 2.1 20 23:38 11.06.2020
1673 Clouds 11 1027 53 10000 2.1 20 23:19 11.06.2020
1674 Clouds 12 1026 50 10000 2.1 10 22:54 11.06.2020
1675 Clouds 13 1026 47 10000 2.1 350 22:36 11.06.2020
1676 Clouds 13 1026 47 10000 2.1 350 22:18 11.06.2020
1677 Clouds 14 1026 41 10000 3.1 350 21:42 11.06.2020
1678 Clouds 14 1026 41 10000 3.1 350 21:20 11.06.2020
1679 Clouds 14 1026 44 10000 4.6 360 20:56 11.06.2020
1680 Clouds 15 1026 41 10000 4.1 360 20:38 11.06.2020
1681 Clouds 15 1026 41 10000 4.1 360 20:20 11.06.2020
1682 Clouds 15 1025 47 10000 6.2 40 19:42 11.06.2020
1683 Clouds 15 1025 47 10000 6.2 40 19:22 11.06.2020
1684 Clouds 15 1025 47 10000 5.7 30 18:44 11.06.2020
1685 Clouds 16 1025 41 10000 5.7 350 18:26 11.06.2020
1686 Clouds 17 1025 42 10000 4.6 360 17:59 11.06.2020
1687 Clouds 17 1025 42 10000 4.6 360 17:39 11.06.2020
1688 Clouds 17 1025 42 10000 5.1 320 17:20 11.06.2020
1689 Clouds 16 1025 41 10000 5.7 20 16:58 11.06.2020
1690 Clouds 16 1025 41 10000 5.7 20 16:40 11.06.2020
1691 Clouds 18 1024 36 10000 5.1 330 16:22 11.06.2020
1692 Clouds 17 1024 36 10000 4.1 310 15:56 11.06.2020
1693 Clouds 17 1024 36 10000 4.1 310 15:38 11.06.2020
1694 Clouds 18 1024 36 10000 3.6 360 15:19 11.06.2020
1695 Clouds 17 1024 33 10000 3.6 10 14:42 11.06.2020
1696 Clouds 18 1024 34 10000 5.1 330 14:21 11.06.2020
1697 Clouds 17 1024 33 10000 3.1 360 13:56 11.06.2020
1698 Clouds 17 1024 33 10000 3.1 360 13:37 11.06.2020
1699 Rain 17 1024 33 10000 2.6 10 13:18 11.06.2020
1700 Rain 16 1024 36 10000 3.1 0 12:55 11.06.2020
1701 Rain 15 1024 38 10000 3.6 30 12:37 11.06.2020
1702 Clouds 15 1024 38 10000 3.6 30 12:18 11.06.2020
1703 Clouds 14 1025 44 10000 4.1 30 11:56 11.06.2020
1704 Clouds 14 1025 44 10000 4.1 30 11:37 11.06.2020
1705 Clouds 14 1025 44 10000 4.6 40 11:18 11.06.2020
1706 Clouds 13 1024 47 10000 5.7 40 10:43 11.06.2020
1707 Clouds 14 1024 44 10000 5.1 20 10:20 11.06.2020
1708 Clouds 13 1024 47 10000 5.7 40 09:56 11.06.2020
1709 Clouds 13 1024 47 10000 5.7 40 09:38 11.06.2020
1710 Clouds 13 1024 47 10000 5.7 40 09:38 11.06.2020
1711 Clouds 13 1024 47 10000 5.1 30 09:20 11.06.2020
1712 Clouds 13 1023 50 10000 4.1 30 08:39 11.06.2020
1713 Clouds 12 1023 54 10000 3.6 20 08:19 11.06.2020
1714 Clouds 12 1023 62 10000 2.6 350 07:42 11.06.2020
1715 Clouds 13 1023 58 10000 2.6 320 07:23 11.06.2020
1716 Clouds 12 1023 62 10000 1.5 240 06:35 11.06.2020
1717 Clouds 12 1023 62 10000 2.1 240 05:57 11.06.2020
1718 Clouds 11 1023 57 10000 3.1 220 04:48 11.06.2020
1719 Clouds 11 1023 57 10000 2.1 230 03:25 11.06.2020
1720 Clouds 11 1023 57 10000 2.1 230 02:49 11.06.2020
1721 Clear 12 1023 54 10000 1.5 220 01:57 11.06.2020
1722 Clear 12 1023 54 10000 1.5 220 01:35 11.06.2020
1723 Clear 14 1023 41 10000 1.5 190 00:57 11.06.2020
1724 Clear 14 1023 41 10000 1.5 180 00:39 11.06.2020
1725 Clear 14 1023 41 10000 1.5 180 00:19 11.06.2020
1726 Clear 13 1022 43 10000 2.1 160 23:41 10.06.2020
1727 Clear 14 1022 41 10000 2.1 140 23:22 10.06.2020
1728 Clear 14 1022 44 10000 1.5 110 22:54 10.06.2020
1729 Clear 15 1022 41 10000 0.5 80 22:36 10.06.2020
1730 Clear 15 1022 41 10000 0.5 80 22:18 10.06.2020
1731 Clear 16 1022 38 10000 1.5 40 21:55 10.06.2020
1732 Clear 16 1022 38 10000 1.5 40 21:37 10.06.2020
1733 Clear 16 1022 54 10000 1.5 360 21:18 10.06.2020
1734 Clear 16 1022 54 10000 1.5 340 20:54 10.06.2020
1735 Clear 17 1022 33 10000 2.1 300 20:36 10.06.2020
1736 Clear 17 1022 33 10000 2.1 300 20:18 10.06.2020
1737 Clear 17 1022 46 10000 2.6 320 19:38 10.06.2020
1738 Clear 17 1022 33 10000 2.6 320 19:18 10.06.2020
1739 Clear 16 1022 39 10000 3.1 350 18:54 10.06.2020
1740 Clear 16 1022 39 10000 3.1 360 18:36 10.06.2020
1741 Clear 16 1022 39 10000 3.1 360 18:36 10.06.2020
1742 Clear 16 1022 36 10000 3.1 360 18:18 10.06.2020
1743 Clear 16 1022 36 10000 2.6 340 17:42 10.06.2020
1744 Clear 16 1022 36 10000 3.1 350 17:21 10.06.2020
1745 Clear 16 1022 36 10000 3.6 350 16:59 10.06.2020
1746 Clear 16 1022 36 10000 3.6 350 16:41 10.06.2020
1747 Clear 15 1022 41 10000 2.6 350 16:22 10.06.2020
1748 Clear 17 1022 39 10000 3.1 0 15:59 10.06.2020
1749 Clear 17 1022 39 10000 3.1 0 15:38 10.06.2020
1750 Clear 16 1022 38 10000 4.6 340 15:19 10.06.2020
1751 Clear 17 1022 39 10000 4.6 340 14:41 10.06.2020
1752 Clear 16 1022 38 10000 3.6 330 14:22 10.06.2020
1753 Clear 15 1022 38 10000 4.6 320 13:57 10.06.2020
1754 Clear 15 1022 41 10000 3.1 360 13:39 10.06.2020
1755 Clear 15 1022 41 10000 3.1 360 13:21 10.06.2020
1756 Clear 16 1022 41 10000 3.1 360 12:41 10.06.2020
1757 Clear 15 1022 41 10000 4.1 330 12:19 10.06.2020
1758 Clear 14 1022 41 10000 3.6 350 11:55 10.06.2020
1759 Clear 14 1022 41 10000 3.6 350 11:37 10.06.2020
1760 Clear 15 1022 44 10000 3.1 360 11:19 10.06.2020
1761 Clouds 14 1022 47 10000 4.1 350 10:41 10.06.2020
1762 Clouds 14 1022 47 10000 3.1 30 10:22 10.06.2020
1763 Clouds 14 1022 47 10000 4.1 10 09:57 10.06.2020
1764 Clouds 13 1022 50 10000 4.6 40 09:37 10.06.2020
1765 Clouds 13 1022 50 10000 4.6 40 09:19 10.06.2020
1766 Clouds 13 1022 54 10000 4.1 30 08:42 10.06.2020
1767 Clouds 12 1022 54 10000 4.1 40 08:23 10.06.2020
1768 Clear 12 1022 62 10000 3.6 30 07:43 10.06.2020
1769 Clear 11 1022 62 10000 3.6 50 07:23 10.06.2020
1770 Clear 11 1022 66 10000 4.1 50 06:55 10.06.2020
1771 Clear 10 1021 66 10000 4.6 50 06:37 10.06.2020
1772 Clear 10 1021 66 10000 4.6 50 06:18 10.06.2020
1773 Clear 10 1021 66 10000 4.6 50 06:18 10.06.2020
1774 Clear 9 1021 76 10000 4.1 40 05:32 10.06.2020
1775 Clear 9 1021 76 10000 4.6 40 04:49 10.06.2020
1776 Clear 8 1021 81 10000 4.6 40 04:28 10.06.2020
1777 Clear 9 1020 70 10000 3.6 20 02:33 10.06.2020
1778 Clear 9 1020 70 10000 4.6 30 01:42 10.06.2020
1779 Clear 10 1020 66 10000 4.6 0 00:55 10.06.2020
1780 Clear 9 1020 70 10000 3.1 20 00:36 10.06.2020
1781 Clear 9 1020 70 10000 3.1 20 00:18 10.06.2020
1782 Clear 11 1020 62 10000 3.6 10 23:41 09.06.2020
1783 Clear 12 1020 58 10000 4.1 30 23:23 09.06.2020
1784 Clear 12 1019 58 10000 3.6 20 22:57 09.06.2020
1785 Clear 12 1019 58 10000 3.6 20 22:39 09.06.2020
1786 Clear 13 1019 54 10000 3.1 20 22:20 09.06.2020
1787 Clear 13 1019 54 10000 4.1 30 21:57 09.06.2020
1788 Clear 13 1019 54 10000 4.1 30 21:39 09.06.2020
1789 Clear 14 1019 47 10000 4.1 20 21:21 09.06.2020
1790 Clear 14 1018 47 10000 3.6 10 20:57 09.06.2020
1791 Clear 14 1018 47 10000 3.6 10 20:39 09.06.2020
1792 Clouds 14 1018 47 10000 3.1 360 20:20 09.06.2020
1793 Clouds 15 1018 44 10000 3.6 20 19:57 09.06.2020
1794 Clouds 15 1018 44 10000 3.6 20 19:39 09.06.2020
1795 Clouds 16 1018 41 10000 3.6 340 19:20 09.06.2020
1796 Clouds 16 1018 41 10000 3.6 340 19:20 09.06.2020
1797 Clouds 15 1018 41 10000 3.1 360 18:57 09.06.2020
1798 Clouds 15 1018 41 10000 3.1 360 18:38 09.06.2020
1799 Clouds 16 1017 41 10000 4.1 330 18:19 09.06.2020
1800 Clouds 16 1017 41 10000 3.1 340 17:55 09.06.2020
1801 Clouds 16 1017 41 10000 3.1 340 17:55 09.06.2020
1802 Clouds 16 1017 41 10000 3.1 340 17:36 09.06.2020
1803 Clouds 16 1017 38 10000 3.1 330 17:18 09.06.2020
1804 Clouds 16 1017 38 10000 2.6 340 16:42 09.06.2020
1805 Clouds 16 1017 41 10000 2.6 340 16:23 09.06.2020
1806 Clouds 16 1017 38 10000 2.1 330 15:55 09.06.2020
1807 Clouds 16 1017 38 10000 2.1 330 15:37 09.06.2020
1808 Clouds 16 1017 38 10000 3.1 10 15:19 09.06.2020
1809 Clouds 15 1017 38 10000 3.6 360 14:41 09.06.2020
1810 Clouds 15 1017 41 10000 3.6 310 14:21 09.06.2020
1811 Clouds 15 1017 41 10000 3.6 360 13:58 09.06.2020
1812 Clouds 15 1017 41 10000 3.6 360 13:40 09.06.2020
1813 Clouds 16 1017 38 10000 3.1 0 13:21 09.06.2020
1814 Clouds 15 1017 41 10000 3.6 300 12:44 09.06.2020
1815 Clear 15 1017 38 10000 2.6 320 12:21 09.06.2020
1816 Clear 14 1016 41 10000 3.1 280 11:59 09.06.2020
1817 Clear 14 1016 37 10000 3.6 270 11:41 09.06.2020
1818 Clear 14 1016 39 10000 3.6 270 11:20 09.06.2020
1819 Clear 13 1016 39 10000 4.1 270 10:58 09.06.2020
1820 Clear 13 1016 39 10000 4.1 270 10:40 09.06.2020
1821 Clear 13 1015 37 10000 3.6 280 10:21 09.06.2020
1822 Clear 14 1015 41 10000 3.1 280 09:43 09.06.2020
1823 Clear 13 1015 47 10000 3.6 280 09:24 09.06.2020
1824 Clear 13 1014 43 10000 2.6 270 08:56 09.06.2020
1825 Clear 13 1014 43 10000 2.6 270 08:37 09.06.2020
1826 Clear 13 1014 47 10000 3.1 300 08:19 09.06.2020
1827 Clear 12 1014 46 10000 3.1 280 07:38 09.06.2020
1828 Clear 12 1014 50 10000 2.6 300 07:19 09.06.2020
1829 Clear 11 1014 50 10000 2.1 330 06:53 09.06.2020
1830 Clear 11 1013 53 10000 3.1 330 06:33 09.06.2020
1831 Clear 10 1013 61 10000 2.6 300 05:34 09.06.2020
1832 Clear 8 1012 87 10000 2.6 240 03:19 09.06.2020
1833 Clouds 10 1012 76 10000 3.1 220 01:42 09.06.2020
1834 Clouds 10 1012 76 10000 3.6 220 01:19 09.06.2020
1835 Clouds 10 1012 76 10000 3.6 220 01:19 09.06.2020
1836 Clouds 10 1012 76 10000 3.1 220 00:45 09.06.2020
1837 Clouds 11 1012 66 10000 3.6 210 00:20 09.06.2020
1838 Clouds 11 1012 66 10000 3.1 210 23:55 08.06.2020
1839 Clouds 11 1012 66 10000 3.1 210 23:37 08.06.2020
1840 Clear 12 1012 62 10000 3.6 200 23:19 08.06.2020
1841 Clear 12 1011 58 10000 3.6 200 22:41 08.06.2020
1842 Clouds 13 1011 54 10000 3.1 210 22:21 08.06.2020
1843 Clouds 13 1011 54 10000 4.1 220 21:58 08.06.2020
1844 Clouds 13 1011 54 10000 4.1 220 21:39 08.06.2020
1845 Clouds 13 1011 54 10000 5.1 220 21:21 08.06.2020
1846 Clouds 14 1011 50 10000 5.1 220 20:56 08.06.2020
1847 Clouds 14 1011 50 10000 5.1 220 20:37 08.06.2020
1848 Clear 14 1011 50 10000 5.1 220 20:19 08.06.2020
1849 Clear 14 1011 50 10000 6.2 220 19:44 08.06.2020
1850 Clear 15 1011 47 10000 6.2 220 19:22 08.06.2020
1851 Clear 15 1011 44 10000 7.2 230 18:58 08.06.2020
1852 Clear 15 1010 47 10000 6.2 230 18:39 08.06.2020
1853 Clear 15 1010 47 10000 6.2 230 18:18 08.06.2020
1854 Clear 15 1010 47 10000 6.7 210 17:54 08.06.2020
1855 Clear 15 1010 47 10000 6.7 210 17:36 08.06.2020
1856 Clear 16 1010 44 10000 7.2 200 17:18 08.06.2020
1857 Clear 16 1010 48 10000 6.7 220 16:42 08.06.2020
1858 Clear 16 1010 51 10000 6.2 230 16:22 08.06.2020
1859 Clear 16 1010 48 10000 6.7 230 15:44 08.06.2020
1860 Clear 15 1010 51 10000 7.7 230 15:22 08.06.2020
1861 Clouds 15 1009 54 10000 7.2 220 14:59 08.06.2020
1862 Clouds 15 1009 54 10000 7.2 220 14:40 08.06.2020
1863 Clouds 16 1009 51 10000 7.7 210 14:20 08.06.2020
1864 Clouds 15 1009 58 10000 8.2 220 13:44 08.06.2020
1865 Clouds 15 1009 62 10000 7.7 220 13:24 08.06.2020
1866 Clouds 14 1008 67 10000 8.7 210 12:44 08.06.2020
1867 Clouds 14 1008 62 10000 9.3 210 12:22 08.06.2020
1868 Clouds 14 1007 58 10000 9.3 220 11:59 08.06.2020
1869 Clouds 13 1007 66 10000 7.7 220 11:41 08.06.2020
1870 Clouds 13 1007 66 10000 7.7 220 11:22 08.06.2020
1871 Clouds 13 1007 71 10000 7.7 220 10:58 08.06.2020
1872 Clouds 13 1007 71 10000 7.7 220 10:38 08.06.2020
1873 Clouds 13 1007 66 10000 8.2 210 10:20 08.06.2020
1874 Clouds 13 1007 66 10000 8.7 210 09:58 08.06.2020
1875 Clouds 13 1007 66 10000 8.7 210 09:39 08.06.2020
1876 Clouds 13 1006 71 10000 6.7 210 09:21 08.06.2020
1877 Clouds 12 1006 76 10000 7.2 210 08:46 08.06.2020
1878 Clouds 11 1005 81 10000 8.7 200 08:22 08.06.2020
1879 Clouds 11 1005 81 10000 8.2 200 07:46 08.06.2020
1880 Clouds 11 1005 76 10000 7.2 200 07:23 08.06.2020
1881 Clouds 10 1005 81 10000 6.2 200 06:50 08.06.2020
1882 Clouds 10 1004 81 10000 7.2 200 06:28 08.06.2020
1883 Clouds 10 1004 81 10000 7.2 210 05:47 08.06.2020
1884 Clouds 10 1003 76 10000 5.7 200 04:29 08.06.2020
1885 Clouds 10 1003 76 10000 5.7 210 02:32 08.06.2020
1886 Clouds 10 1003 76 10000 7.2 220 01:46 08.06.2020
1887 Clouds 10 1003 76 10000 8.2 210 01:26 08.06.2020
1888 Clouds 9 1002 87 10000 7.2 210 00:30 08.06.2020
1889 Rain 9 1002 87 10000 8.2 210 23:42 07.06.2020
1890 Rain 9 1002 87 10000 9.8 210 23:20 07.06.2020
1891 Rain 9 1002 87 10000 9.8 210 22:59 07.06.2020
1892 Rain 9 1002 87 10000 9.8 210 22:39 07.06.2020
1893 Rain 9 1001 87 10000 10.3 210 22:19 07.06.2020
1894 Rain 10 1001 81 10000 11.3 210 21:59 07.06.2020
1895 Rain 10 1001 81 10000 11.3 210 21:38 07.06.2020
1896 Rain 10 1001 81 10000 11.3 210 21:38 07.06.2020
1897 Rain 11 1000 66 10000 11.8 210 21:20 07.06.2020
1898 Clouds 11 1000 66 10000 10.8 210 20:55 07.06.2020
1899 Clouds 11 1000 66 10000 10.8 210 20:37 07.06.2020
1900 Rain 11 1000 66 10000 12.9 210 20:18 07.06.2020
1901 Clouds 11 1000 66 10000 12.9 210 19:55 07.06.2020
1902 Clouds 11 1000 66 10000 12.9 200 19:37 07.06.2020
1903 Clouds 11 1000 66 10000 12.9 200 19:18 07.06.2020
1904 Clouds 11 1000 66 10000 11.8 200 18:40 07.06.2020
1905 Clouds 11 999 66 10000 12.9 210 18:22 07.06.2020
1906 Clouds 11 999 66 10000 12.3 200 17:59 07.06.2020
1907 Clouds 11 999 66 10000 12.3 200 17:40 07.06.2020
1908 Clouds 11 999 71 10000 13.9 200 17:21 07.06.2020
1909 Clouds 11 999 71 10000 17 200 16:44 07.06.2020
1910 Clouds 10 998 76 10000 15.4 210 16:22 07.06.2020
1911 Clouds 10 998 76 10000 14.4 210 15:44 07.06.2020
1912 Clouds 10 998 81 10000 14.4 200 15:23 07.06.2020
1913 Rain 10 997 81 10000 14.4 200 14:59 07.06.2020
1914 Rain 10 997 81 10000 14.4 200 14:36 07.06.2020
1915 Rain 9 997 87 10000 15.4 200 14:18 07.06.2020
1916 Rain 9 997 87 10000 15.4 200 14:18 07.06.2020
1917 Rain 10 997 81 10000 14.4 200 13:44 07.06.2020
1918 Rain 10 997 81 10000 14.4 200 13:44 07.06.2020
1919 Rain 10 997 81 10000 14.4 200 13:44 07.06.2020
1920 Rain 10 996 87 10000 12.9 190 13:19 07.06.2020
1921 Rain 10 996 87 8000 12.3 190 12:44 07.06.2020
1922 Rain 10 996 87 7000 12.3 190 12:25 07.06.2020
1923 Rain 9 995 93 10000 7.7 170 11:55 07.06.2020
1924 Rain 9 995 93 10000 7.7 170 11:37 07.06.2020
1925 Rain 9 996 93 10000 5.7 160 11:19 07.06.2020
1926 Rain 9 996 87 10000 6.7 170 10:54 07.06.2020
1927 Rain 9 996 87 10000 6.7 170 10:36 07.06.2020
1928 Rain 8 996 93 10000 7.7 170 10:18 07.06.2020
1929 Rain 9 995 87 10000 7.2 170 09:41 07.06.2020
1930 Rain 9 995 93 10000 7.2 150 09:22 07.06.2020
1931 Rain 9 995 93 10000 6.2 140 08:59 07.06.2020
1932 Rain 9 995 93 10000 6.2 140 08:41 07.06.2020
1933 Rain 9 995 87 10000 5.7 140 08:22 07.06.2020
1934 Rain 9 996 87 10000 6.2 150 07:43 07.06.2020
1935 Clouds 10 996 76 10000 6.7 160 07:24 07.06.2020
1936 Clouds 10 996 76 10000 8.2 160 06:22 07.06.2020
1937 Clouds 10 997 87 10000 3.6 150 04:49 07.06.2020
1938 Clouds 10 997 87 10000 3.6 190 04:18 07.06.2020
1939 Clouds 13 997 82 10000 4.6 140 02:26 07.06.2020
1940 Rain 13 997 82 10000 5.1 130 01:39 07.06.2020
1941 Clouds 13 997 82 10000 5.7 130 01:21 07.06.2020
1942 Rain 13 997 82 10000 5.7 140 00:39 07.06.2020
1943 Rain 13 998 82 10000 5.7 150 00:18 07.06.2020
1944 Rain 15 998 62 10000 4.1 140 23:38 06.06.2020
1945 Clouds 15 998 62 10000 3.6 120 23:20 06.06.2020
1946 Rain 15 998 62 10000 3.6 130 22:58 06.06.2020
1947 Rain 15 998 62 10000 3.6 130 22:40 06.06.2020
1948 Rain 15 998 67 10000 6.2 170 22:20 06.06.2020
1949 Rain 15 998 72 10000 4.1 160 21:58 06.06.2020
1950 Rain 15 998 72 10000 4.1 160 21:39 06.06.2020
1951 Rain 16 998 67 10000 3.6 150 21:20 06.06.2020
1952 Rain 15 998 77 10000 4.1 130 20:40 06.06.2020
1953 Rain 15 998 77 10000 4.1 130 20:40 06.06.2020
1954 Rain 18 998 63 10000 3.6 90 20:20 06.06.2020
1955 -273 0 0 0 0 0 19:58 06.06.2020
1956 Rain 18 999 63 10000 3.6 90 19:40 06.06.2020
1957 Rain 18 999 63 10000 3.6 90 19:21 06.06.2020
1958 Rain 18 999 59 10000 5.7 120 18:56 06.06.2020
1959 Rain 18 999 59 10000 5.7 120 18:37 06.06.2020
1960 Rain 19 999 55 10000 3.1 120 18:18 06.06.2020
1961 Rain 18 999 59 10000 3.1 120 17:43 06.06.2020
1962 Clouds 19 999 55 10000 3.6 120 17:20 06.06.2020
1963 Clouds 19 1000 55 10000 4.6 140 16:56 06.06.2020
1964 Clouds 19 1000 55 10000 4.6 140 16:38 06.06.2020
1965 Clouds 18 1000 59 10000 3.6 130 16:20 06.06.2020
1966 Clouds 17 1000 67 10000 4.6 140 15:44 06.06.2020
1967 Clouds 16 1001 67 10000 4.6 170 15:20 06.06.2020
1968 Clouds 17 1001 67 10000 4.6 150 14:58 06.06.2020
1969 Clouds 17 1001 67 10000 4.6 150 14:37 06.06.2020
1970 Clouds 16 1001 67 10000 4.6 180 14:19 06.06.2020
1971 Clouds 16 1001 72 10000 5.1 160 13:47 06.06.2020
1972 Clouds 15 1001 77 10000 5.1 150 13:19 06.06.2020
1973 Clouds 15 1001 77 10000 5.1 150 12:56 06.06.2020
1974 Clouds 15 1001 77 10000 4.1 150 12:38 06.06.2020
1975 Clouds 15 1001 77 10000 4.1 150 12:18 06.06.2020
1976 Clouds 15 1001 77 10000 4.6 150 11:40 06.06.2020
1977 Clouds 14 1001 82 10000 4.1 150 11:21 06.06.2020
1978 Clouds 14 1001 82 10000 4.1 150 11:21 06.06.2020
1979 Clouds 14 1001 82 10000 4.1 140 10:59 06.06.2020
1980 Clouds 14 1001 82 10000 4.1 140 10:40 06.06.2020
1981 Clouds 13 1001 87 10000 3.6 130 10:22 06.06.2020
1982 Clouds 13 1001 87 10000 3.6 140 09:59 06.06.2020
1983 Clouds 13 1001 87 10000 3.6 140 09:41 06.06.2020
1984 Clouds 12 1001 93 10000 4.6 140 09:22 06.06.2020
1985 Clouds 13 1001 87 10000 3.6 130 08:45 06.06.2020
1986 Rain 12 1001 93 10000 3.6 120 08:24 06.06.2020
1987 Clouds 12 1001 93 10000 3.1 130 07:55 06.06.2020
1988 Clouds 12 1001 93 10000 3.1 130 07:36 06.06.2020
1989 Clouds 12 1001 93 10000 4.1 130 07:18 06.06.2020
1990 Clouds 12 1001 93 10000 4.1 130 06:42 06.06.2020
1991 Clouds 12 1001 93 10000 3.6 140 06:23 06.06.2020
1992 Clouds 12 1001 93 10000 3.6 130 05:32 06.06.2020
1993 Clouds 12 1001 93 10000 4.1 130 04:47 06.06.2020
1994 Clouds 12 1001 93 10000 3.6 140 03:28 06.06.2020
1995 Rain 11 1001 100 8000 3.6 120 01:58 06.06.2020
1996 Rain 11 1001 100 4700 3.6 110 01:21 06.06.2020
1997 Rain 11 1001 100 9000 3.6 110 00:47 06.06.2020
1998 Rain 11 1001 100 8000 3.1 70 00:27 06.06.2020
1999 Rain 11 1001 100 6000 2.6 80 23:59 05.06.2020
2000 Rain 11 1001 100 6000 2.6 80 23:39 05.06.2020
2001 Rain 11 1001 100 6000 2.6 80 23:39 05.06.2020
2002 Rain 11 1001 100 4600 3.1 80 23:19 05.06.2020
2003 Rain 11 1001 100 10000 3.1 70 22:55 05.06.2020
2004 Rain 11 1001 100 10000 3.1 70 22:37 05.06.2020
2005 Rain 11 1001 100 10000 3.6 70 22:18 05.06.2020
2006 Rain 11 1001 100 10000 2.6 70 21:42 05.06.2020
2007 Rain 11 1001 93 10000 3.1 80 21:22 05.06.2020
2008 Rain 11 1001 93 10000 3.6 80 20:58 05.06.2020
2009 Rain 11 1001 93 10000 3.6 80 20:39 05.06.2020
2010 Rain 11 1001 93 10000 4.1 60 20:20 05.06.2020
2011 Rain 11 1001 93 7000 4.1 80 19:42 05.06.2020
2012 Rain 11 1001 93 10000 6.2 50 19:23 05.06.2020
2013 Drizzle 11 1001 93 10000 6.2 40 18:56 05.06.2020
2014 Rain 11 1001 93 8000 6.2 40 18:38 05.06.2020
2015 Rain 11 1001 93 8000 6.2 40 18:19 05.06.2020
2016 Rain 11 1002 93 10000 5.7 40 17:57 05.06.2020
2017 Rain 11 1002 93 10000 5.7 40 17:38 05.06.2020
2018 Rain 12 1002 87 10000 6.7 50 17:18 05.06.2020
2019 Rain 12 1002 87 10000 7.2 50 16:39 05.06.2020
2020 Rain 11 1003 93 10000 6.7 60 16:20 05.06.2020
2021 Rain 11 1003 93 10000 7.2 50 15:43 05.06.2020
2022 Rain 11 1003 93 10000 7.2 50 15:23 05.06.2020
2023 -273 0 0 0 0 0 14:59 05.06.2020
2024 Rain 11 1003 93 10000 7.2 50 14:40 05.06.2020
2025 Rain 11 1004 93 8000 7.2 50 14:22 05.06.2020
2026 Rain 11 1004 93 7000 7.7 50 13:58 05.06.2020
2027 Rain 11 1004 93 7000 7.7 50 13:58 05.06.2020
2028 Rain 11 1004 93 7000 7.7 50 13:38 05.06.2020
2029 Rain 11 1004 93 7000 9.3 50 13:19 05.06.2020
2030 Rain 11 1004 93 6000 9.3 50 12:42 05.06.2020
2031 Rain 11 1004 87 9000 9.8 50 12:20 05.06.2020
2032 Rain 13 1005 71 10000 8.7 60 11:55 05.06.2020
2033 Rain 13 1005 71 10000 8.7 60 11:37 05.06.2020
2034 Rain 14 1005 62 10000 10.3 60 11:18 05.06.2020
2035 Rain 14 1005 58 10000 7.7 60 10:42 05.06.2020
2036 Rain 14 1005 58 10000 7.7 60 10:21 05.06.2020
2037 Rain 13 1006 71 10000 6.2 40 09:58 05.06.2020
2038 Rain 13 1006 71 10000 6.2 40 09:39 05.06.2020
2039 Rain 12 1006 76 10000 6.2 50 09:21 05.06.2020
2040 Rain 12 1006 76 10000 6.2 50 08:58 05.06.2020
2041 Rain 12 1006 76 10000 6.2 50 08:40 05.06.2020
2042 Rain 12 1006 76 10000 6.2 60 08:19 05.06.2020
2043 Rain 12 1007 76 10000 5.7 70 07:52 05.06.2020
2044 Rain 13 1007 62 10000 5.7 70 07:33 05.06.2020
2045 Clouds 14 1007 54 10000 5.1 70 06:50 05.06.2020
2046 Clouds 13 1007 54 10000 4.1 70 05:23 05.06.2020
2047 Clouds 13 1007 58 10000 5.7 50 04:28 05.06.2020
2048 Clouds 13 1007 58 10000 5.7 60 03:32 05.06.2020
2049 Clouds 14 1008 58 10000 3.6 70 02:30 05.06.2020
2050 Clouds 15 1008 58 10000 4.1 70 01:59 05.06.2020
2051 Clouds 15 1008 58 10000 4.1 70 01:33 05.06.2020
2052 Clouds 15 1008 62 10000 5.1 60 00:46 05.06.2020
2053 Clouds 15 1008 62 10000 5.1 50 00:22 05.06.2020
2054 Clouds 14 1008 67 10000 4.1 30 23:55 04.06.2020
2055 Clouds 14 1008 67 10000 4.1 30 23:36 04.06.2020
2056 Clouds 14 1008 71 10000 4.6 30 23:18 04.06.2020
2057 Clouds 15 1008 67 10000 4.1 30 22:42 04.06.2020
2058 Clouds 17 1008 55 10000 3.6 40 22:21 04.06.2020
2059 Clouds 18 1008 52 10000 4.6 50 21:58 04.06.2020
2060 Clouds 18 1008 52 10000 4.6 50 21:38 04.06.2020
2061 Clear 18 1009 52 10000 3.6 40 21:20 04.06.2020
2062 Clear 18 1008 52 10000 4.1 50 20:56 04.06.2020
2063 Clear 18 1008 52 10000 4.1 50 20:56 04.06.2020
2064 Clear 18 1008 52 10000 4.1 50 20:38 04.06.2020
2065 Clouds 18 1009 48 10000 5.1 60 20:19 04.06.2020
2066 Clouds 18 1009 48 10000 5.1 60 20:19 04.06.2020
2067 Clouds 19 1009 45 10000 7.2 60 19:43 04.06.2020
2068 Clouds 19 1009 45 10000 7.2 60 19:21 04.06.2020
2069 Rain 19 1009 42 10000 2.6 60 18:58 04.06.2020
2070 Clouds 19 1009 42 10000 3.6 70 18:38 04.06.2020
2071 Rain 19 1009 42 10000 2.6 60 18:38 04.06.2020
2072 Clouds 19 1009 42 10000 3.6 70 18:20 04.06.2020
2073 Clouds 19 1009 42 10000 3.6 70 18:20 04.06.2020
2074 Clouds 19 1009 45 10000 5.1 70 17:44 04.06.2020
2075 Clouds 20 1009 40 10000 2.1 30 17:22 04.06.2020
2076 Clouds 19 1009 39 10000 2.6 70 16:58 04.06.2020
2077 Clouds 19 1009 39 10000 2.6 70 16:40 04.06.2020
2078 Rain 20 1010 42 10000 1.5 90 16:20 04.06.2020
2079 Rain 19 1010 42 10000 2.1 0 15:44 04.06.2020
2080 Rain 19 1010 42 10000 1.5 0 15:25 04.06.2020
2081 Rain 18 1010 42 10000 2.1 190 14:42 04.06.2020
2082 Clouds 17 1011 48 10000 2.6 190 14:22 04.06.2020
2083 Clouds 17 1011 51 10000 2.1 200 13:58 04.06.2020
2084 Clouds 17 1011 51 10000 2.1 200 13:40 04.06.2020
2085 Rain 16 1011 63 10000 2.6 180 13:20 04.06.2020
2086 Clouds 17 1011 55 10000 3.1 160 12:58 04.06.2020
2087 Clouds 17 1011 55 10000 3.1 160 12:40 04.06.2020
2088 Clouds 17 1011 51 10000 3.1 210 12:21 04.06.2020
2089 Clouds 18 1011 48 10000 2.6 170 11:54 04.06.2020
2090 Clouds 18 1011 48 10000 2.6 170 11:36 04.06.2020
2091 Clouds 17 1011 51 10000 2.1 240 11:18 04.06.2020
2092 Clouds 17 1011 51 10000 2.1 240 11:18 04.06.2020
2093 Rain 17 1011 48 10000 2.6 260 10:39 04.06.2020
2094 Rain 16 1011 55 10000 3.1 250 10:21 04.06.2020
2095 Rain 15 1011 58 10000 2.6 200 09:56 04.06.2020
2096 Rain 15 1011 58 10000 2.6 200 09:37 04.06.2020
2097 Clouds 15 1011 58 10000 1.5 190 09:18 04.06.2020
2098 Clouds 12 1011 66 10000 1 0 08:38 04.06.2020
2099 Clouds 12 1011 66 10000 1.5 240 08:20 04.06.2020
2100 Clouds 11 1011 76 10000 1.5 210 07:32 04.06.2020
2101 Clouds 11 1011 81 10000 2.1 180 06:57 04.06.2020
2102 Clouds 11 1011 81 10000 2.6 160 06:39 04.06.2020
2103 Clouds 11 1011 81 10000 2.6 160 06:18 04.06.2020
2104 Clouds 10 1011 100 7000 1.5 130 05:32 04.06.2020
2105 Fog 10 1011 100 600 2.6 80 03:37 04.06.2020
2106 Clouds 11 1011 93 10000 2.1 80 02:21 04.06.2020
2107 Clouds 11 1011 93 10000 2.6 80 01:21 04.06.2020
2108 Clouds 11 1011 93 10000 2.6 70 00:59 04.06.2020
2109 Clouds 12 1011 87 10000 3.1 60 00:18 04.06.2020
2110 Clouds 12 1011 87 10000 3.1 60 00:18 04.06.2020
2111 Clouds 12 1012 87 10000 3.1 70 23:37 03.06.2020
2112 Clouds 12 1012 87 10000 3.1 50 23:19 03.06.2020
2113 Clouds 12 1012 87 10000 3.1 50 23:19 03.06.2020
2114 Clouds 12 1012 87 10000 3.6 40 22:40 03.06.2020
2115 Clouds 13 1012 87 10000 3.6 40 22:19 03.06.2020
2116 Clouds 13 1012 87 10000 3.1 40 21:59 03.06.2020
2117 Clouds 13 1012 87 10000 3.1 40 21:41 03.06.2020
2118 Clouds 13 1012 87 10000 3.1 40 21:22 03.06.2020
2119 Clouds 14 1011 82 10000 3.6 40 20:58 03.06.2020
2120 Clouds 14 1011 82 10000 3.6 40 20:40 03.06.2020
2121 Clouds 15 1011 77 10000 3.1 30 20:20 03.06.2020
2122 Clouds 15 1011 77 10000 3.1 20 19:57 03.06.2020
2123 Clouds 15 1011 77 10000 3.1 20 19:38 03.06.2020
2124 Clouds 15 1012 77 10000 2.1 360 19:19 03.06.2020
2125 Clouds 15 1012 77 10000 2.6 340 18:56 03.06.2020
2126 Clouds 15 1012 77 10000 2.6 340 18:38 03.06.2020
2127 Clouds 15 1012 77 10000 2.6 340 18:18 03.06.2020
2128 Rain 15 1012 82 10000 3.1 340 17:42 03.06.2020
2129 Clouds 16 1012 72 10000 3.6 320 17:22 03.06.2020
2130 Clouds 16 1012 72 10000 3.6 320 17:22 03.06.2020
2131 Clouds 16 1012 72 10000 2.1 320 16:56 03.06.2020
2132 Clouds 16 1012 72 10000 2.1 320 16:38 03.06.2020
2133 Clouds 16 1012 72 10000 2.6 330 16:19 03.06.2020
2134 Clouds 16 1012 72 10000 2.6 330 16:19 03.06.2020
2135 Clouds 16 1012 72 10000 2.6 300 15:41 03.06.2020
2136 Clouds 16 1012 72 10000 3.1 250 15:21 03.06.2020
2137 Rain 15 1012 77 10000 2.6 280 14:59 03.06.2020
2138 Rain 15 1012 77 10000 2.6 280 14:40 03.06.2020
2139 Rain 14 1012 82 10000 2.6 290 14:21 03.06.2020
2140 Rain 14 1013 82 10000 2.1 290 13:39 03.06.2020
2141 Clouds 15 1013 72 10000 3.6 290 13:20 03.06.2020
2142 Clouds 16 1013 72 10000 3.6 290 12:43 03.06.2020
2143 Clouds 16 1013 63 10000 4.1 270 12:23 03.06.2020
2144 Clouds 17 1012 59 10000 4.1 240 11:57 03.06.2020
2145 Clouds 17 1012 59 10000 4.1 240 11:39 03.06.2020
2146 Clouds 16 1013 59 10000 4.1 220 11:21 03.06.2020
2147 Clouds 16 1013 59 10000 3.1 190 10:42 03.06.2020
2148 Clouds 16 1013 59 10000 3.1 170 10:24 03.06.2020
2149 Clouds 16 1013 59 10000 2.6 220 09:45 03.06.2020
2150 Clouds 15 1013 62 10000 2.1 180 09:21 03.06.2020
2151 Clouds 14 1013 67 10000 2.6 180 08:59 03.06.2020
2152 Clouds 14 1013 67 10000 2.6 180 08:40 03.06.2020
2153 Clouds 13 1013 71 10000 2.1 170 08:19 03.06.2020
2154 Clouds 13 1013 71 10000 2.1 170 07:43 03.06.2020
2155 Clouds 12 1013 76 10000 3.6 200 07:20 03.06.2020
2156 Clouds 12 1013 76 10000 3.6 200 06:54 03.06.2020
2157 Clouds 11 1013 81 10000 3.1 190 06:32 03.06.2020
2158 Clouds 10 1013 87 10000 3.1 190 05:47 03.06.2020
2159 Clouds 11 1013 81 10000 2.6 80 04:57 03.06.2020
2160 Clouds 10 1014 87 10000 2.1 220 03:51 03.06.2020
2161 Clouds 10 1014 81 10000 3.6 220 03:20 03.06.2020
2162 Clouds 12 1014 76 10000 4.6 220 01:53 03.06.2020
2163 Clouds 14 1014 67 10000 3.1 230 00:44 03.06.2020
2164 Clouds 14 1014 67 10000 2.1 250 00:25 03.06.2020
2165 Clouds 14 1014 67 10000 2.1 230 23:52 02.06.2020
2166 Clouds 15 1014 62 10000 3.6 230 23:28 02.06.2020
2167 Clouds 15 1014 62 10000 3.6 220 22:57 02.06.2020
2168 Clouds 16 1014 63 10000 3.1 220 22:38 02.06.2020
2169 Clouds 16 1014 63 10000 3.1 220 22:19 02.06.2020
2170 Clouds 16 1014 63 10000 4.1 220 21:56 02.06.2020
2171 Clouds 16 1014 63 10000 4.1 220 21:37 02.06.2020
2172 Clouds 16 1014 63 10000 4.6 210 21:19 02.06.2020
2173 Clouds 17 1014 59 10000 4.6 220 20:55 02.06.2020
2174 Clouds 17 1014 59 10000 4.6 220 20:37 02.06.2020
2175 Clear 18 1014 52 10000 5.7 220 20:18 02.06.2020
2176 Clear 19 1014 48 10000 7.2 220 19:42 02.06.2020
2177 Clear 20 1014 45 10000 6.7 230 19:24 02.06.2020
2178 Clear 20 1015 45 10000 7.2 230 18:57 02.06.2020
2179 Clear 20 1015 45 10000 7.2 230 18:39 02.06.2020
2180 Clear 21 1015 43 10000 6.2 230 18:20 02.06.2020
2181 Clear 21 1015 43 10000 8.2 220 17:55 02.06.2020
2182 Clear 21 1015 43 10000 8.2 220 17:37 02.06.2020
2183 Clear 21 1015 40 10000 6.2 230 17:18 02.06.2020
2184 Clear 22 1015 37 10000 6.2 230 16:40 02.06.2020
2185 Clear 22 1015 37 10000 7.2 230 16:21 02.06.2020
2186 Clear 22 1015 37 10000 7.2 230 16:21 02.06.2020
2187 Clear 22 1016 37 10000 6.7 220 15:57 02.06.2020
2188 Clear 22 1016 37 10000 6.7 220 15:37 02.06.2020
2189 Clear 21 1016 40 10000 7.2 220 15:19 02.06.2020
2190 Clear 21 1016 43 10000 6.2 210 14:45 02.06.2020
2191 Clouds 20 1017 45 10000 5.1 230 14:26 02.06.2020
2192 Clear 21 1017 43 10000 7.2 220 13:54 02.06.2020
2193 Clear 21 1017 43 10000 7.2 220 13:36 02.06.2020
2194 Clear 21 1017 46 10000 6.2 220 13:18 02.06.2020
2195 Clear 20 1017 45 10000 6.2 220 12:40 02.06.2020
2196 Clear 21 1018 46 10000 6.7 220 12:21 02.06.2020
2197 Clouds 20 1018 49 10000 6.7 230 11:59 02.06.2020
2198 Clouds 20 1018 49 10000 6.7 230 11:39 02.06.2020
2199 Clear 19 1018 52 10000 7.2 220 11:20 02.06.2020
2200 Clear 20 1019 49 10000 6.7 210 10:48 02.06.2020
2201 Clear 19 1019 52 10000 6.7 210 10:28 02.06.2020
2202 Clear 19 1019 52 10000 5.7 220 09:58 02.06.2020
2203 Clear 19 1019 52 10000 5.7 220 09:39 02.06.2020
2204 Clear 18 1019 55 10000 5.1 230 09:20 02.06.2020
2205 Clear 18 1019 55 10000 4.6 210 08:48 02.06.2020
2206 Clear 17 1020 59 10000 5.7 220 08:22 02.06.2020
2207 Clear 16 1020 63 10000 6.2 210 07:53 02.06.2020
2208 Clear 15 1020 67 10000 6.2 210 07:28 02.06.2020
2209 Clear 15 1020 67 10000 5.1 210 06:47 02.06.2020
2210 Clear 14 1020 71 10000 4.6 190 06:18 02.06.2020
2211 Clear 13 1021 71 10000 4.6 200 05:21 02.06.2020
2212 Clear 13 1021 62 10000 3.1 180 03:25 02.06.2020
2213 Clouds 14 1022 58 10000 3.6 180 02:26 02.06.2020
2214 Clouds 15 1022 54 10000 3.1 210 01:22 02.06.2020
2215 Clouds 16 1022 55 10000 3.6 220 00:25 02.06.2020
2216 Clouds 16 1022 55 10000 4.1 220 23:56 01.06.2020
2217 Clouds 16 1022 55 10000 4.1 220 23:37 01.06.2020
2218 Clouds 17 1022 51 10000 3.6 210 23:18 01.06.2020
2219 Clouds 19 1022 39 10000 2.6 150 22:41 01.06.2020
2220 Clouds 20 1022 37 10000 2.6 140 22:21 01.06.2020
2221 Clouds 21 1022 35 10000 2.1 160 21:58 01.06.2020
2222 Clouds 21 1022 35 10000 2.1 160 21:40 01.06.2020
2223 Clouds 21 1022 35 10000 2.6 160 21:19 01.06.2020
2224 Clouds 22 1022 33 10000 2.1 130 20:56 01.06.2020
2225 Clouds 22 1022 33 10000 2.1 130 20:38 01.06.2020
2226 Clouds 22 1022 33 10000 3.1 140 20:19 01.06.2020
2227 Clouds 22 1022 33 10000 3.1 140 19:43 01.06.2020
2228 Clear 22 1022 33 10000 2.1 130 19:21 01.06.2020
2229 Clear 23 1023 28 10000 2.1 30 18:59 01.06.2020
2230 Clear 23 1023 28 10000 2.1 30 18:39 01.06.2020
2231 Clear 22 1023 30 10000 1.5 0 18:20 01.06.2020
2232 Clear 23 1023 28 10000 2.1 0 17:58 01.06.2020
2233 Clear 23 1023 28 10000 2.1 50 17:40 01.06.2020
2234 Clear 23 1023 28 10000 2.1 50 17:19 01.06.2020
2235 Clear 22 1023 30 10000 2.1 0 16:42 01.06.2020
2236 Clear 22 1024 30 10000 2.6 80 16:22 01.06.2020
2237 Clear 21 1024 30 10000 2.6 0 15:56 01.06.2020
2238 Clear 21 1024 30 10000 2.6 0 15:37 01.06.2020
2239 Clear 21 1024 32 10000 2.6 0 15:19 01.06.2020
2240 Clear 21 1025 32 10000 2.6 0 14:57 01.06.2020
2241 Clear 21 1025 32 10000 2.6 0 14:38 01.06.2020
2242 Clear 21 1025 32 10000 2.6 0 14:20 01.06.2020
2243 Clear 20 1025 34 10000 1.5 30 13:43 01.06.2020
2244 Clear 20 1025 34 10000 1.5 30 13:22 01.06.2020
2245 Clear 20 1026 37 10000 3.1 10 12:59 01.06.2020
2246 Clear 19 1026 37 10000 2.6 0 12:40 01.06.2020
2247 Clear 19 1026 37 10000 2.6 0 12:40 01.06.2020
2248 Clear 19 1026 37 10000 2.6 0 12:40 01.06.2020
2249 Clear 19 1026 37 10000 2.6 0 12:21 01.06.2020
2250 Clear 18 1026 39 10000 2.1 0 11:58 01.06.2020
2251 Clear 18 1026 42 10000 1.5 0 11:37 01.06.2020
2252 Clear 18 1026 42 10000 1.5 0 11:18 01.06.2020
2253 Clear 17 1026 45 10000 2.1 50 10:55 01.06.2020
2254 Clear 17 1027 42 10000 2.1 360 10:36 01.06.2020
2255 Clouds 17 1027 42 10000 2.1 360 10:18 01.06.2020
2256 Clouds 16 1027 44 10000 1.5 30 09:44 01.06.2020
2257 Clouds 16 1027 44 10000 1.5 30 09:25 01.06.2020
2258 Clear 15 1027 47 10000 1.5 0 08:55 01.06.2020
2259 Clear 15 1027 51 10000 2.1 330 08:33 01.06.2020
2260 Clouds 15 1027 47 10000 1 0 07:58 01.06.2020
2261 Clouds 14 1027 50 10000 0.5 60 07:39 01.06.2020
2262 Clouds 14 1027 50 10000 0.5 60 07:21 01.06.2020
2263 Clouds 13 1027 54 10000 1 0 06:49 01.06.2020
2264 Clouds 12 1027 71 10000 1 0 05:56 01.06.2020
2265 Clear 12 1027 76 10000 2.1 340 04:56 01.06.2020
2266 Clouds 10 1027 81 10000 1 0 03:55 01.06.2020
2267 Clouds 9 1028 81 10000 1 250 03:35 01.06.2020
2268 Clouds 10 1027 76 10000 0.5 0 02:34 01.06.2020
2269 Clouds 10 1028 76 10000 0.5 0 01:35 01.06.2020
2270 Clouds 12 1028 71 10000 1.5 180 00:59 01.06.2020
2271 Clouds 12 1028 66 10000 1.5 60 00:40 01.06.2020
2272 Clouds 12 1028 66 10000 1.5 60 00:21 01.06.2020
2273 Clouds 13 1028 66 10000 2.1 60 23:58 31.05.2020
2274 Clouds 13 1028 66 10000 2.1 100 23:39 31.05.2020
2275 Clouds 13 1028 66 10000 2.1 100 23:39 31.05.2020
2276 Clouds 13 1028 66 10000 2.1 100 23:21 31.05.2020
2277 Clouds 13 1028 62 10000 3.1 140 22:57 31.05.2020
2278 Clouds 14 1028 62 10000 3.1 120 22:38 31.05.2020
2279 Clouds 14 1028 62 10000 3.1 120 22:20 31.05.2020
2280 Rain 15 1028 58 10000 2.1 130 21:42 31.05.2020
2281 Rain 15 1028 58 10000 2.1 130 21:24 31.05.2020
2282 Rain 15 1028 54 10000 1.5 150 20:59 31.05.2020
2283 Rain 15 1028 54 10000 1.5 150 20:58 31.05.2020
2284 Clouds 16 1028 51 10000 1.5 140 20:40 31.05.2020
2285 Clouds 16 1028 51 10000 1.5 140 20:40 31.05.2020
2286 Clouds 16 1028 51 10000 1.5 140 20:21 31.05.2020
2287 Clouds 16 1028 51 10000 2.1 120 19:56 31.05.2020
2288 Clouds 16 1028 51 10000 3.1 110 19:37 31.05.2020
2289 Clouds 16 1028 51 10000 3.1 110 19:19 31.05.2020
2290 Clouds 17 1028 48 10000 4.1 90 18:44 31.05.2020
2291 Clouds 17 1028 48 10000 4.1 90 18:25 31.05.2020
2292 Clouds 17 1028 45 10000 2.6 110 17:46 31.05.2020
2293 Clouds 17 1028 45 10000 2.6 110 17:26 31.05.2020
2294 Clouds 16 1029 48 10000 2.6 110 17:00 31.05.2020
2295 Clouds 16 1029 48 10000 3.1 110 16:40 31.05.2020
2296 Clouds 16 1029 48 10000 3.1 110 16:21 31.05.2020
2297 Clouds 16 1029 51 10000 4.6 70 15:40 31.05.2020
2298 Clouds 16 1029 51 10000 4.6 70 15:40 31.05.2020
2299 Clouds 16 1029 51 10000 4.6 70 15:21 31.05.2020
2300 Clouds 16 1029 51 10000 4.6 70 15:21 31.05.2020
2301 Clouds 16 1030 44 10000 1 0 14:47 31.05.2020
2302 Clouds 16 1030 44 10000 1 0 14:23 31.05.2020
2303 Clouds 16 1030 41 10000 2.1 360 13:57 31.05.2020
2304 Clouds 16 1030 41 10000 1.5 0 13:38 31.05.2020
2305 Clouds 16 1030 41 10000 1.5 0 13:20 31.05.2020
2306 Clouds 15 1030 44 10000 1.5 0 12:58 31.05.2020
2307 Clouds 14 1031 44 10000 1.5 0 12:39 31.05.2020
2308 Clouds 14 1031 44 10000 1.5 0 12:21 31.05.2020
2309 Clouds 14 1031 44 10000 3.1 250 11:49 31.05.2020
2310 Clouds 12 1031 50 10000 1.5 0 11:24 31.05.2020
2311 Clouds 12 1031 46 10000 2.1 250 10:57 31.05.2020
2312 Clouds 12 1031 46 10000 3.1 220 10:39 31.05.2020
2313 Clouds 12 1031 46 10000 3.1 220 10:21 31.05.2020
2314 Clouds 10 1032 57 10000 1.5 200 09:42 31.05.2020
2315 Clouds 10 1032 57 10000 1.5 200 09:23 31.05.2020
2316 Clouds 10 1032 72 10000 1 0 08:59 31.05.2020
2317 Clouds 9 1032 49 10000 1 0 08:40 31.05.2020
2318 Clouds 9 1032 49 10000 1 0 08:21 31.05.2020
2319 Clouds 9 1032 57 10000 1.5 180 07:46 31.05.2020
2320 Clouds 9 1032 57 10000 1.5 130 07:21 31.05.2020
2321 Clouds 9 1032 68 10000 1 0 06:54 31.05.2020
2322 Clouds 8 1032 61 10000 1 0 06:32 31.05.2020
2323 Clouds 8 1033 61 10000 1.5 60 05:44 31.05.2020
2324 Clouds 8 1033 61 10000 1.5 30 04:32 31.05.2020
2325 Clouds 8 1033 61 10000 2.1 20 03:51 31.05.2020
2326 Clouds 8 1033 61 10000 2.6 20 02:59 31.05.2020
2327 Clouds 9 1033 57 10000 2.6 10 01:50 31.05.2020
2328 Clouds 10 1033 53 10000 3.6 10 01:28 31.05.2020
2329 Clouds 10 1032 57 10000 3.6 30 00:31 31.05.2020
2330 Clouds 10 1032 61 10000 2.6 30 23:59 30.05.2020
2331 Clouds 10 1032 57 10000 3.1 30 23:41 30.05.2020
2332 Clouds 10 1032 57 10000 3.1 30 23:22 30.05.2020
2333 Clouds 11 1032 50 10000 3.6 50 22:41 30.05.2020
2334 Clouds 11 1032 50 10000 3.6 50 22:23 30.05.2020
2335 Clouds 11 1032 53 10000 3.1 40 21:56 30.05.2020
2336 Clouds 12 1032 50 10000 4.6 40 21:38 30.05.2020
2337 Clouds 12 1032 50 10000 4.6 40 21:20 30.05.2020
2338 Clouds 13 1031 43 10000 4.1 40 20:57 30.05.2020
2339 Clouds 13 1031 43 10000 3.1 50 20:38 30.05.2020
2340 Clouds 13 1031 43 10000 3.1 50 20:20 30.05.2020
2341 Clouds 14 1031 41 10000 3.1 30 19:43 30.05.2020
2342 Clouds 14 1031 41 10000 3.1 30 19:22 30.05.2020
2343 Clouds 14 1031 41 10000 3.1 350 18:54 30.05.2020
2344 Clouds 14 1031 41 10000 4.1 10 18:36 30.05.2020
2345 Clouds 14 1031 41 10000 4.1 10 18:18 30.05.2020
2346 Clouds 14 1031 41 10000 4.1 350 17:38 30.05.2020
2347 Clouds 14 1031 44 10000 4.1 350 17:19 30.05.2020
2348 Clouds 14 1031 44 10000 4.1 340 16:43 30.05.2020
2349 Clouds 14 1031 43 10000 4.1 340 16:23 30.05.2020
2350 Clouds 14 1031 41 10000 3.6 340 15:56 30.05.2020
2351 Clouds 13 1031 43 10000 3.6 340 15:38 30.05.2020
2352 Clouds 13 1031 43 10000 3.6 340 15:19 30.05.2020
2353 Clouds 13 1031 43 10000 4.1 360 14:42 30.05.2020
2354 Clouds 13 1031 43 10000 4.1 360 14:21 30.05.2020
2355 Clouds 13 1031 43 10000 3.6 350 13:42 30.05.2020
2356 Clouds 13 1031 43 10000 3.6 350 13:20 30.05.2020
2357 Clouds 13 1031 43 10000 4.1 360 12:40 30.05.2020
2358 Clouds 13 1031 43 10000 4.1 360 12:20 30.05.2020
2359 Clouds 12 1031 46 10000 4.1 330 11:56 30.05.2020
2360 Clouds 12 1031 46 10000 4.6 350 11:38 30.05.2020
2361 Clouds 12 1031 46 10000 4.6 350 11:20 30.05.2020
2362 Clouds 11 1031 46 10000 3.6 340 10:39 30.05.2020
2363 Clouds 11 1031 46 10000 3.6 340 10:39 30.05.2020
2364 Clouds 11 1031 47 10000 3.6 340 10:21 30.05.2020
2365 Clouds 11 1031 50 10000 4.1 10 09:47 30.05.2020
2366 Clouds 10 1030 53 10000 4.1 360 09:29 30.05.2020
2367 Clear 10 1030 53 10000 3.6 350 08:46 30.05.2020
2368 Clouds 9 1030 61 10000 3.6 330 08:28 30.05.2020
2369 Clouds 9 1030 57 10000 3.1 330 07:44 30.05.2020
2370 Clouds 9 1030 57 10000 3.1 10 07:20 30.05.2020
2371 Clouds 7 1029 70 10000 3.1 340 06:33 30.05.2020
2372 Clouds 6 1029 75 10000 3.1 350 05:52 30.05.2020
2373 Clouds 6 1028 75 10000 3.6 350 05:30 30.05.2020
2374 Clouds 5 1027 75 10000 3.6 330 03:38 30.05.2020
2375 Clear 6 1027 70 10000 3.6 350 02:29 30.05.2020
2376 Clear 6 1026 70 10000 3.1 330 01:40 30.05.2020
2377 Clear 7 1025 65 10000 3.1 340 00:37 30.05.2020
2378 Clouds 7 1025 65 10000 3.1 330 00:18 30.05.2020
2379 Clouds 8 1025 61 10000 2.6 330 23:42 29.05.2020
2380 Clouds 8 1025 61 10000 2.6 330 23:21 29.05.2020
2381 Clouds 9 1024 57 10000 2.6 340 22:58 29.05.2020
2382 Clouds 9 1024 61 10000 3.1 330 22:39 29.05.2020
2383 Clouds 9 1024 61 10000 3.1 330 22:19 29.05.2020
2384 Clouds 10 1023 57 10000 3.6 320 21:41 29.05.2020
2385 Clear 10 1023 57 10000 3.6 320 21:21 29.05.2020
2386 Clear 10 1023 66 10000 1.5 330 20:59 29.05.2020
2387 Clouds 11 1022 62 10000 2.1 350 20:40 29.05.2020
2388 Clouds 11 1022 62 10000 2.1 350 20:19 29.05.2020
2389 Rain 11 1022 62 10000 3.1 360 19:44 29.05.2020
2390 Rain 11 1022 62 10000 3.1 360 19:26 29.05.2020
2391 Clouds 11 1022 57 10000 1.5 330 18:49 29.05.2020
2392 Rain 12 1021 62 10000 2.6 350 18:24 29.05.2020
2393 Clouds 11 1021 62 10000 1.5 330 17:59 29.05.2020
2394 Rain 10 1021 76 10000 2.6 340 17:39 29.05.2020
2395 Rain 10 1021 76 10000 2.6 340 17:21 29.05.2020
2396 Clouds 12 1021 50 10000 3.6 270 16:55 29.05.2020
2397 Clouds 11 1021 53 10000 3.6 290 16:37 29.05.2020
2398 Clouds 11 1021 53 10000 3.6 290 16:19 29.05.2020
2399 Clouds 10 1021 61 10000 3.6 280 15:42 29.05.2020
2400 Clouds 10 1021 61 10000 3.6 280 15:21 29.05.2020
2401 Clouds 10 1021 61 10000 4.1 280 14:58 29.05.2020
2402 Clouds 10 1021 61 10000 4.6 270 14:39 29.05.2020
2403 Clouds 10 1021 61 10000 4.6 270 14:19 29.05.2020
2404 Rain 9 1021 66 10000 3.6 260 13:43 29.05.2020
2405 Rain 9 1021 66 10000 3.6 260 13:23 29.05.2020
2406 Rain 9 1021 66 10000 4.1 280 12:57 29.05.2020
2407 Rain 9 1021 66 10000 4.6 270 12:39 29.05.2020
2408 Rain 9 1021 66 10000 4.6 270 12:19 29.05.2020
2409 Rain 10 1021 53 10000 4.6 280 11:42 29.05.2020
2410 Rain 10 1021 53 10000 4.6 280 11:24 29.05.2020
2411 Clouds 10 1020 38 10000 4.6 290 10:46 29.05.2020
2412 Clouds 11 1020 43 10000 4.6 270 10:25 29.05.2020
2413 Clouds 10 1020 40 10000 3.6 280 09:59 29.05.2020
2414 Clouds 11 1020 40 10000 3.1 280 09:40 29.05.2020
2415 Clouds 11 1020 42 10000 3.1 280 09:19 29.05.2020
2416 Clouds 11 1020 42 10000 3.1 270 08:47 29.05.2020
2417 Clouds 10 1020 53 10000 3.1 260 08:24 29.05.2020
2418 Clouds 10 1020 53 10000 3.1 280 07:48 29.05.2020
2419 Clouds 9 1020 57 10000 2.1 250 07:30 29.05.2020
2420 Clouds 8 1020 61 10000 1.5 260 06:58 29.05.2020
2421 Clouds 9 1020 52 10000 1 0 06:39 29.05.2020
2422 Clouds 9 1020 57 10000 1 0 06:21 29.05.2020
2423 Clouds 7 1020 57 10000 1 260 05:40 29.05.2020
2424 Clouds 9 1020 49 10000 2.6 340 01:53 29.05.2020
2425 Clouds 8 1020 52 10000 2.1 320 01:27 29.05.2020
2426 Clouds 9 1020 49 10000 2.1 320 00:51 29.05.2020
2427 Clouds 9 1020 49 10000 2.1 320 00:29 29.05.2020
2428 Clouds 9 1020 71 10000 2.6 310 23:56 28.05.2020
2429 Clouds 9 1020 49 10000 2.1 300 23:38 28.05.2020
2430 Clouds 9 1020 49 10000 2.1 300 23:18 28.05.2020
2431 Clouds 10 1020 46 10000 1.5 270 22:41 28.05.2020
2432 Clouds 10 1020 46 10000 1.5 270 22:41 28.05.2020
2433 Clouds 10 1020 46 10000 1.5 270 22:21 28.05.2020
2434 Clouds 11 1020 43 10000 2.1 260 21:55 28.05.2020
2435 Clouds 11 1020 43 10000 2.1 260 21:37 28.05.2020
2436 Clouds 11 1020 43 10000 2.1 260 21:18 28.05.2020
2437 Clouds 12 1019 40 10000 2.6 270 20:55 28.05.2020
2438 Clouds 12 1019 40 10000 2.6 270 20:55 28.05.2020
2439 Clouds 12 1019 37 10000 2.6 300 20:36 28.05.2020
2440 Clouds 12 1019 37 10000 2.6 300 20:18 28.05.2020
2441 Clouds 12 1019 37 10000 3.6 290 19:43 28.05.2020
2442 Clouds 12 1019 37 10000 3.6 290 19:20 28.05.2020
2443 Clouds 13 1019 32 10000 3.1 270 18:57 28.05.2020
2444 Clouds 13 1019 32 10000 3.1 290 18:39 28.05.2020
2445 Clouds 13 1019 32 10000 3.1 290 18:39 28.05.2020
2446 Clouds 13 1019 32 10000 3.1 290 18:20 28.05.2020
2447 Clouds 12 1019 34 10000 3.6 270 17:40 28.05.2020
2448 Clouds 12 1019 34 10000 3.6 270 17:22 28.05.2020
2449 Clouds 13 1019 32 10000 4.6 270 16:55 28.05.2020
2450 Clouds 13 1019 32 10000 4.6 300 16:36 28.05.2020
2451 Clouds 13 1019 32 10000 4.6 300 16:18 28.05.2020
2452 Clouds 13 1019 30 10000 4.6 270 15:40 28.05.2020
2453 Clouds 13 1019 30 10000 4.6 270 15:22 28.05.2020
2454 Clouds 13 1019 28 10000 4.6 290 14:43 28.05.2020
2455 Clouds 13 1019 28 10000 4.6 290 14:24 28.05.2020
2456 Clouds 13 1018 30 10000 5.1 310 13:48 28.05.2020
2457 Clouds 12 1018 34 10000 5.1 310 13:30 28.05.2020
2458 Clouds 13 1018 32 10000 5.1 320 12:59 28.05.2020
2459 Clouds 13 1018 35 10000 4.6 310 12:38 28.05.2020
2460 Clouds 13 1018 35 10000 4.6 310 12:18 28.05.2020
2461 Clouds 12 1018 34 10000 4.6 290 11:41 28.05.2020
2462 Clear 12 1018 34 10000 4.6 290 11:23 28.05.2020
2463 Clear 12 1018 37 10000 5.7 280 10:56 28.05.2020
2464 Clear 11 1018 40 10000 4.1 300 10:37 28.05.2020
2465 Clear 11 1018 40 10000 4.1 300 10:18 28.05.2020
2466 Clouds 10 1018 39 10000 5.7 330 09:39 28.05.2020
2467 Clouds 10 1018 39 10000 5.7 330 09:19 28.05.2020
2468 Clear 10 1018 46 10000 4.1 310 08:45 28.05.2020
2469 Clouds 9 1018 49 10000 4.1 300 08:26 28.05.2020
2470 Clouds 9 1018 49 10000 4.1 300 07:45 28.05.2020
2471 Clouds 8 1018 58 10000 3.6 310 07:25 28.05.2020
2472 Clouds 8 1018 58 10000 4.1 320 06:55 28.05.2020
2473 Clouds 7 1017 58 10000 3.6 320 06:36 28.05.2020
2474 Clouds 6 1017 64 10000 3.6 330 05:40 28.05.2020
2475 Clouds 5 1017 71 10000 3.1 320 04:46 28.05.2020
2476 Clouds 5 1017 78 10000 3.1 320 04:25 28.05.2020
2477 Clouds 6 1017 70 10000 3.6 310 03:45 28.05.2020
2478 Clouds 6 1017 81 10000 2.6 310 02:45 28.05.2020
2479 Clouds 8 1017 75 10000 2.1 290 01:49 28.05.2020
2480 Clouds 7 1017 100 10000 2.1 260 00:54 28.05.2020
2481 Clouds 8 1017 93 10000 1.5 240 00:22 28.05.2020
2482 Rain 7 1017 100 10000 1.5 240 23:57 27.05.2020
2483 Rain 8 1016 87 10000 3.1 100 23:38 27.05.2020
2484 Rain 8 1016 87 10000 3.1 100 23:20 27.05.2020
2485 Rain 9 1017 93 5000 3.1 360 22:43 27.05.2020
2486 Rain 9 1017 93 5000 3.1 360 22:43 27.05.2020
2487 Rain 9 1017 93 5000 3.1 360 22:43 27.05.2020
2488 Rain 9 1017 93 5000 3.1 360 22:24 27.05.2020
2489 Rain 9 1017 87 10000 2.6 130 21:58 27.05.2020
2490 Rain 9 1016 93 10000 3.6 100 21:40 27.05.2020
2491 Rain 9 1016 93 10000 3.6 100 21:21 27.05.2020
2492 Rain 10 1016 87 10000 2.1 110 20:58 27.05.2020
2493 Rain 10 1016 81 10000 1.5 70 20:40 27.05.2020
2494 Rain 10 1016 81 10000 1.5 70 20:39 27.05.2020
2495 Rain 10 1016 81 10000 1.5 70 20:20 27.05.2020
2496 Rain 10 1016 87 10000 2.6 160 19:46 27.05.2020
2497 Rain 11 1016 76 10000 3.1 150 19:21 27.05.2020
2498 Rain 11 1017 81 10000 3.1 120 18:56 27.05.2020
2499 Rain 10 1017 87 10000 3.1 140 18:37 27.05.2020
2500 Rain 10 1017 87 10000 3.1 140 18:18 27.05.2020
2501 Rain 10 1017 81 10000 2.6 110 17:42 27.05.2020
2502 Rain 10 1017 81 10000 2.6 110 17:24 27.05.2020
2503 Rain 10 1017 81 10000 2.6 120 16:57 27.05.2020
2504 Rain 10 1018 81 5000 3.6 340 16:38 27.05.2020
2505 Rain 10 1018 81 5000 3.6 340 16:20 27.05.2020
2506 Rain 14 1018 62 10000 5.1 210 15:49 27.05.2020
2507 Rain 14 1018 62 10000 3.6 210 15:23 27.05.2020
2508 Rain 14 1018 62 10000 4.1 180 14:57 27.05.2020
2509 Clouds 14 1018 62 10000 3.6 210 14:39 27.05.2020
2510 Clouds 14 1018 62 10000 3.6 210 14:19 27.05.2020
2511 Clouds 13 1018 66 10000 4.1 210 13:42 27.05.2020
2512 Clouds 13 1018 66 10000 4.1 210 13:23 27.05.2020
2513 Clouds 13 1019 66 10000 4.1 210 12:42 27.05.2020
2514 Clouds 13 1019 66 10000 4.1 210 12:24 27.05.2020
2515 Clouds 11 1019 76 10000 3.6 210 11:58 27.05.2020
2516 Clouds 11 1019 76 10000 3.6 210 11:37 27.05.2020
2517 Clouds 11 1019 76 10000 3.6 210 11:19 27.05.2020
2518 Rain 10 1019 81 10000 3.1 230 10:43 27.05.2020
2519 Rain 10 1019 81 10000 3.1 230 10:24 27.05.2020
2520 Rain 10 1019 76 10000 3.6 240 09:57 27.05.2020
2521 Clouds 11 1019 71 10000 5.1 250 09:39 27.05.2020
2522 Clouds 11 1019 71 10000 5.1 250 09:20 27.05.2020
2523 Clouds 12 1019 62 10000 4.6 210 08:42 27.05.2020
2524 Clouds 12 1019 62 10000 4.6 210 08:42 27.05.2020
2525 Clouds 12 1019 62 10000 4.6 210 08:24 27.05.2020
2526 Clouds 11 1019 66 10000 5.1 220 07:53 27.05.2020
2527 Clouds 11 1019 66 10000 6.2 210 07:34 27.05.2020
2528 Clouds 11 1020 66 10000 5.1 190 06:56 27.05.2020
2529 Clouds 11 1020 66 10000 4.1 190 06:30 27.05.2020
2530 Clouds 9 1020 70 10000 3.6 180 05:50 27.05.2020
2531 Clouds 9 1021 66 10000 3.6 180 05:28 27.05.2020
2532 Clouds 9 1021 66 10000 3.6 160 04:18 27.05.2020
2533 Clouds 10 1023 61 10000 3.1 170 02:30 27.05.2020
2534 Clouds 11 1023 57 10000 3.1 170 01:34 27.05.2020
2535 Clouds 11 1024 57 10000 3.1 180 00:58 27.05.2020
2536 Clouds 11 1024 53 10000 2.6 210 00:40 27.05.2020
2537 Clouds 11 1024 53 10000 2.6 210 00:18 27.05.2020
2538 Clouds 12 1024 50 10000 3.1 210 23:41 26.05.2020
2539 Clouds 12 1024 50 10000 3.1 210 23:23 26.05.2020
2540 Clouds 13 1025 47 10000 3.6 210 22:58 26.05.2020
2541 Clouds 14 1025 44 10000 4.1 220 22:38 26.05.2020
2542 Clouds 14 1025 44 10000 4.1 220 22:19 26.05.2020
2543 Clouds 15 1025 41 10000 4.1 220 21:56 26.05.2020
2544 Clouds 15 1025 41 10000 4.1 220 21:38 26.05.2020
2545 Clouds 16 1025 38 10000 4.6 210 21:19 26.05.2020
2546 Clouds 17 1025 29 10000 3.6 170 20:42 26.05.2020
2547 Clouds 17 1025 29 10000 3.6 170 20:20 26.05.2020
2548 Clouds 17 1026 29 10000 4.6 190 19:55 26.05.2020
2549 Clouds 17 1026 29 10000 4.6 190 19:55 26.05.2020
2550 Clouds 17 1026 29 10000 4.1 200 19:36 26.05.2020
2551 Clouds 17 1026 29 10000 4.1 200 19:18 26.05.2020
2552 Clouds 17 1026 29 10000 4.1 200 19:18 26.05.2020
2553 Clouds 17 1026 27 10000 5.1 220 18:40 26.05.2020
2554 Clouds 17 1026 27 10000 5.1 220 18:21 26.05.2020
2555 Clouds 18 1027 25 10000 6.2 220 17:42 26.05.2020
2556 Clouds 18 1027 25 10000 6.2 220 17:24 26.05.2020
2557 Clouds 19 1027 24 10000 6.2 220 16:57 26.05.2020
2558 Clouds 19 1027 25 10000 6.7 220 16:39 26.05.2020
2559 Clear 19 1027 25 10000 6.7 220 16:18 26.05.2020
2560 Clear 19 1027 28 10000 6.7 210 15:42 26.05.2020
2561 Clear 19 1027 27 10000 6.7 210 15:20 26.05.2020
2562 Clear 20 1027 27 10000 5.7 260 14:56 26.05.2020
2563 Clear 20 1028 24 10000 5.1 190 14:37 26.05.2020
2564 Clouds 20 1028 24 10000 5.1 190 14:18 26.05.2020
2565 Clouds 18 1028 28 10000 5.7 220 13:41 26.05.2020
2566 Clouds 18 1028 28 10000 5.7 220 13:41 26.05.2020
2567 Clouds 18 1028 30 10000 5.7 220 13:23 26.05.2020
2568 Clouds 20 1028 30 10000 4.1 220 12:44 26.05.2020
2569 Clouds 20 1028 32 10000 4.1 220 12:23 26.05.2020
2570 Clouds 19 1029 24 10000 4.1 200 11:59 26.05.2020
2571 Clouds 18 1029 32 10000 4.1 220 11:41 26.05.2020
2572 Clouds 18 1029 33 10000 4.1 220 11:20 26.05.2020
2573 Clouds 18 1029 27 10000 3.6 190 10:47 26.05.2020
2574 Clouds 18 1029 31 10000 4.1 200 10:19 26.05.2020
2575 Clouds 17 1029 33 10000 3.1 200 09:57 26.05.2020
2576 Clouds 17 1029 33 10000 3.1 200 09:57 26.05.2020
2577 Clear 17 1029 36 10000 2.6 210 09:37 26.05.2020
2578 Clear 17 1029 36 10000 2.6 210 09:18 26.05.2020
2579 Clear 15 1029 44 10000 2.1 200 08:40 26.05.2020
2580 Clouds 15 1029 44 10000 2.1 200 08:21 26.05.2020
2581 Clouds 13 1029 50 10000 1 0 07:42 26.05.2020
2582 Clear 13 1029 50 10000 1 0 07:23 26.05.2020
2583 Clear 13 1029 50 10000 1.5 250 06:52 26.05.2020
2584 Clear 12 1029 50 10000 1.5 240 06:28 26.05.2020
2585 Clear 11 1029 50 10000 1 100 05:41 26.05.2020
2586 Clear 11 1029 50 10000 1 100 05:18 26.05.2020
2587 Clear 10 1029 53 10000 1.5 110 04:47 26.05.2020
2588 Clear 9 1029 73 10000 1 180 04:28 26.05.2020
2589 Clear 8 1029 52 10000 1 0 03:34 26.05.2020
2590 Clear 9 1028 45 10000 3.1 120 02:34 26.05.2020
2591 Clouds 11 1028 40 10000 3.1 150 01:42 26.05.2020
2592 Clouds 11 1028 40 10000 2.6 130 00:39 26.05.2020
2593 Clouds 11 1028 40 10000 2.6 130 00:20 26.05.2020
2594 Clouds 13 1028 35 10000 3.6 170 23:58 25.05.2020
2595 Clouds 13 1028 35 10000 2.6 130 23:38 25.05.2020
2596 Clouds 13 1028 35 10000 2.6 130 23:19 25.05.2020
2597 Clouds 13 1028 37 10000 2.6 160 22:56 25.05.2020
2598 Clouds 15 1027 30 10000 2.6 140 22:37 25.05.2020
2599 Clouds 15 1027 30 10000 2.6 140 22:19 25.05.2020
2600 Clouds 15 1027 33 10000 3.1 130 21:58 25.05.2020
2601 Clouds 16 1027 31 10000 3.1 120 21:37 25.05.2020
2602 Clouds 16 1027 31 10000 3.1 120 21:18 25.05.2020
2603 Clouds 16 1027 31 10000 3.1 120 21:18 25.05.2020
2604 Clouds 17 1027 27 10000 3.6 100 20:57 25.05.2020
2605 Clouds 17 1026 27 10000 3.1 30 20:38 25.05.2020
2606 Clouds 18 1026 23 10000 1.5 10 20:19 25.05.2020
2607 Clouds 18 1026 23 10000 2.1 360 19:41 25.05.2020
2608 Clouds 18 1026 23 10000 2.1 360 19:19 25.05.2020
2609 Clouds 18 1026 23 10000 1 0 18:58 25.05.2020
2610 Clouds 18 1025 23 10000 1.5 320 18:40 25.05.2020
2611 Clouds 18 1025 23 10000 1.5 320 18:20 25.05.2020
2612 Clouds 18 1025 23 10000 2.1 70 17:44 25.05.2020
2613 Clouds 18 1025 23 10000 2.1 70 17:25 25.05.2020
2614 Clouds 18 1025 27 10000 2.6 60 16:58 25.05.2020
2615 Clouds 18 1025 23 10000 3.6 100 16:40 25.05.2020
2616 Clouds 18 1025 23 10000 3.6 100 16:21 25.05.2020
2617 Clouds 18 1025 23 10000 2.1 10 15:45 25.05.2020
2618 Clouds 18 1025 23 10000 2.1 10 15:20 25.05.2020
2619 Clouds 18 1025 23 10000 2.1 30 14:59 25.05.2020
2620 Clouds 18 1025 23 10000 2.1 30 14:59 25.05.2020
2621 Clouds 18 1024 23 10000 3.1 70 14:40 25.05.2020
2622 Clouds 18 1024 23 10000 3.1 70 14:22 25.05.2020
2623 Clouds 18 1024 25 10000 2.1 120 13:55 25.05.2020
2624 Clouds 17 1024 23 10000 2.1 180 13:37 25.05.2020
2625 Clouds 18 1024 23 10000 3.6 0 13:18 25.05.2020
2626 Clouds 18 1024 23 10000 1.5 280 12:39 25.05.2020
2627 Clouds 18 1024 23 10000 1.5 280 12:20 25.05.2020
2628 Clouds 17 1023 25 10000 3.6 150 11:40 25.05.2020
2629 Clouds 17 1023 25 10000 3.6 150 11:21 25.05.2020
2630 Clouds 17 1023 25 10000 4.1 140 10:59 25.05.2020
2631 Clouds 16 1023 29 10000 3.6 150 10:41 25.05.2020
2632 Clear 16 1023 29 10000 3.6 120 10:20 25.05.2020
2633 Clear 16 1023 29 10000 3.6 120 09:55 25.05.2020
2634 Clear 14 1023 35 10000 3.1 110 09:36 25.05.2020
2635 Clear 14 1023 35 10000 3.1 110 09:18 25.05.2020
2636 Clear 14 1023 35 10000 3.1 110 09:18 25.05.2020
2637 Clouds 13 1022 37 10000 2.6 110 08:40 25.05.2020
2638 Clouds 13 1022 37 10000 2.6 110 08:21 25.05.2020
2639 Clouds 12 1022 40 10000 3.1 110 07:56 25.05.2020
2640 Clouds 11 1022 40 10000 2.6 110 07:38 25.05.2020
2641 Clouds 11 1022 40 10000 2.6 110 07:38 25.05.2020
2642 Clouds 9 1022 45 10000 2.6 120 07:18 25.05.2020
2643 Clouds 9 1021 45 10000 3.1 120 06:38 25.05.2020
2644 Clouds 8 1021 49 10000 4.6 120 05:27 25.05.2020
2645 Clouds 9 1020 45 10000 3.6 80 03:30 25.05.2020
2646 Clouds 9 1020 45 10000 3.6 80 02:51 25.05.2020
2647 Clouds 10 1020 43 10000 3.6 90 02:32 25.05.2020
2648 Clouds 10 1020 43 10000 4.1 80 01:42 25.05.2020
2649 Clouds 10 1019 46 10000 3.1 90 00:47 25.05.2020
2650 Clouds 10 1019 46 10000 3.1 70 00:26 25.05.2020
2651 Clouds 11 1019 43 10000 2.6 90 23:58 24.05.2020
2652 Clouds 12 1019 40 10000 2.6 130 23:39 24.05.2020
2653 Clouds 12 1019 40 10000 2.6 130 23:39 24.05.2020
2654 Clouds 12 1019 40 10000 2.6 130 23:20 24.05.2020
2655 Clouds 12 1019 40 10000 2.6 130 23:20 24.05.2020
2656 Clouds 12 1019 40 10000 3.6 120 22:55 24.05.2020
2657 Clouds 12 1019 40 10000 3.6 120 22:55 24.05.2020
2658 Clouds 12 1019 40 10000 2.6 110 22:37 24.05.2020
2659 Clouds 13 1018 37 10000 3.1 120 22:18 24.05.2020
2660 Clouds 12 1019 40 10000 2.6 110 22:18 24.05.2020
2661 Clouds 13 1018 37 10000 3.1 120 21:54 24.05.2020
2662 Clouds 14 1018 69 10000 2.6 120 21:36 24.05.2020
2663 Clouds 14 1018 65 10000 2.6 120 21:18 24.05.2020
2664 Clouds 16 1018 65 10000 2.1 160 20:42 24.05.2020
2665 Clouds 16 1018 61 10000 2.1 160 20:21 24.05.2020
2666 Clouds 16 1018 61 10000 2.1 160 19:56 24.05.2020
2667 Clouds 16 1018 31 10000 2.1 140 19:37 24.05.2020
2668 Clouds 16 1018 31 10000 2.1 140 19:18 24.05.2020
2669 Clouds 17 1017 56 10000 3.6 170 18:42 24.05.2020
2670 Clouds 17 1017 45 10000 3.6 170 18:23 24.05.2020
2671 Clouds 17 1017 29 10000 3.1 170 17:57 24.05.2020
2672 Clouds 17 1017 29 10000 2.1 190 17:38 24.05.2020
2673 Clouds 17 1017 29 10000 2.1 190 17:19 24.05.2020
2674 Clouds 17 1017 29 10000 3.1 180 16:54 24.05.2020
2675 Clouds 17 1017 29 10000 4.6 200 16:36 24.05.2020
2676 Clouds 17 1017 29 10000 4.6 200 16:18 24.05.2020
2677 Clouds 18 1017 27 10000 4.1 190 15:40 24.05.2020
2678 Clouds 18 1017 27 10000 4.1 190 15:40 24.05.2020
2679 Clouds 18 1017 27 10000 4.1 190 15:20 24.05.2020
2680 Clouds 17 1017 27 10000 4.1 190 14:59 24.05.2020
2681 Clouds 17 1017 29 10000 5.1 210 14:40 24.05.2020
2682 Clouds 17 1017 29 10000 5.1 210 14:21 24.05.2020
2683 Clouds 17 1017 29 10000 5.1 210 14:21 24.05.2020
2684 Clouds 17 1017 27 10000 5.1 220 13:55 24.05.2020
2685 Clouds 17 1017 29 10000 3.6 160 13:37 24.05.2020
2686 Clouds 17 1017 29 10000 3.6 160 13:18 24.05.2020
2687 Clouds 17 1017 29 10000 4.1 190 12:55 24.05.2020
2688 Clouds 18 1017 40 10000 4.1 140 12:37 24.05.2020
2689 Clouds 18 1017 42 10000 4.1 140 12:18 24.05.2020
2690 Clouds 17 1017 42 10000 4.6 170 11:45 24.05.2020
2691 Clouds 15 1017 46 10000 5.1 180 11:26 24.05.2020
2692 Clouds 14 1017 46 10000 4.6 120 10:59 24.05.2020
2693 Clouds 14 1017 46 10000 4.6 120 10:59 24.05.2020
2694 Clouds 14 1017 35 10000 3.6 110 10:41 24.05.2020
2695 Clouds 14 1017 35 10000 3.6 110 10:23 24.05.2020
2696 Clouds 14 1018 35 10000 2.6 110 09:55 24.05.2020
2697 Clouds 13 1017 37 10000 2.1 120 09:37 24.05.2020
2698 Clear 13 1017 37 10000 2.1 120 09:18 24.05.2020
2699 Clear 11 1017 43 10000 2.6 110 08:41 24.05.2020
2700 Clear 11 1017 43 10000 2.6 110 08:41 24.05.2020
2701 Clear 11 1017 43 10000 2.6 110 08:22 24.05.2020
2702 Clear 10 1017 46 10000 1.5 130 07:57 24.05.2020
2703 Clear 10 1017 46 10000 2.6 110 07:39 24.05.2020
2704 Clear 10 1017 46 10000 2.6 110 07:19 24.05.2020
2705 Clear 9 1017 42 10000 2.6 100 06:38 24.05.2020
2706 Clear 8 1017 45 10000 2.1 110 05:49 24.05.2020
2707 Clouds 6 1017 56 10000 2.6 60 03:49 24.05.2020
2708 Clouds 5 1017 56 10000 2.1 70 03:26 24.05.2020
2709 Clouds 8 1017 45 10000 1.5 230 02:23 24.05.2020
2710 Clouds 9 1017 42 10000 3.1 150 00:49 24.05.2020
2711 Clear 9 1017 42 10000 3.1 160 00:28 24.05.2020
2712 Clear 10 1017 39 10000 3.1 160 23:59 23.05.2020
2713 Clear 10 1017 37 10000 3.1 160 23:37 23.05.2020
2714 Clear 10 1017 37 10000 3.1 160 23:19 23.05.2020
2715 Clear 11 1017 34 10000 2.6 170 22:55 23.05.2020
2716 Clear 11 1017 34 10000 2.1 170 22:37 23.05.2020
2717 Clear 11 1017 34 10000 2.1 170 22:18 23.05.2020
2718 Clear 12 1017 32 10000 2.1 190 21:56 23.05.2020
2719 Clear 12 1017 32 10000 3.6 200 21:36 23.05.2020
2720 Clear 12 1017 32 10000 3.6 200 21:18 23.05.2020
2721 Clear 13 1017 30 10000 3.6 220 20:39 23.05.2020
2722 Clear 13 1017 30 10000 3.6 220 20:20 23.05.2020
2723 Clear 14 1017 26 10000 5.1 220 19:59 23.05.2020
2724 Clear 14 1017 26 10000 5.1 220 19:59 23.05.2020
2725 Clear 14 1017 28 10000 6.2 220 19:40 23.05.2020
2726 Clear 14 1017 28 10000 6.7 220 19:19 23.05.2020
2727 Clear 15 1017 26 10000 5.7 220 18:41 23.05.2020
2728 Clear 15 1017 26 10000 5.7 220 18:22 23.05.2020
2729 Clear 14 1017 26 10000 7.2 220 17:58 23.05.2020
2730 Clear 14 1017 26 10000 7.2 220 17:58 23.05.2020
2731 Clear 15 1017 22 10000 6.2 230 17:40 23.05.2020
2732 Clear 15 1017 22 10000 6.2 230 17:20 23.05.2020
2733 Clear 15 1017 19 10000 6.7 210 16:59 23.05.2020
2734 Clear 15 1017 19 10000 7.7 210 16:40 23.05.2020
2735 Clear 15 1017 19 10000 7.7 210 16:20 23.05.2020
2736 Clear 15 1017 26 10000 7.2 210 15:56 23.05.2020
2737 Clear 15 1017 26 10000 7.2 190 15:38 23.05.2020
2738 Clear 15 1017 26 10000 7.2 190 15:19 23.05.2020
2739 Clear 15 1018 24 10000 7.2 200 14:41 23.05.2020
2740 Clear 15 1018 24 10000 7.2 200 14:23 23.05.2020
2741 Clear 15 1018 26 10000 6.2 210 13:42 23.05.2020
2742 Clear 15 1018 26 10000 6.2 210 13:19 23.05.2020
2743 Clear 15 1018 26 10000 8.2 200 12:58 23.05.2020
2744 Clear 14 1018 28 10000 7.2 200 12:40 23.05.2020
2745 Clear 14 1018 28 10000 7.2 200 12:19 23.05.2020
2746 Clear 14 1018 28 10000 6.7 200 11:43 23.05.2020
2747 Clear 14 1018 28 10000 6.7 200 11:22 23.05.2020
2748 Clear 13 1018 30 10000 7.2 200 10:58 23.05.2020
2749 Clear 12 1018 30 10000 4.6 190 10:40 23.05.2020
2750 Clear 12 1018 30 10000 4.6 190 10:20 23.05.2020
2751 Clear 12 1019 27 10000 5.7 210 09:59 23.05.2020
2752 Clear 11 1019 29 10000 4.6 200 09:41 23.05.2020
2753 Clear 11 1019 29 10000 4.6 200 09:22 23.05.2020
2754 Clear 9 1019 34 10000 3.6 210 08:44 23.05.2020
2755 Clear 9 1019 34 10000 3.6 210 08:20 23.05.2020
2756 Clear 8 1019 36 10000 4.1 210 07:59 23.05.2020
2757 Clear 8 1019 36 10000 3.6 200 07:39 23.05.2020
2758 Clear 8 1019 36 10000 3.6 200 07:21 23.05.2020
2759 Clear 6 1020 45 10000 3.1 150 06:39 23.05.2020
2760 Clear 5 1020 48 10000 2.1 130 05:34 23.05.2020
2761 Clear 5 1020 44 10000 2.6 190 03:43 23.05.2020
2762 Clear 5 1020 44 10000 2.6 190 02:59 23.05.2020
2763 Clear 6 1020 45 10000 3.6 160 01:58 23.05.2020
2764 Clear 6 1021 41 10000 3.1 160 01:26 23.05.2020
2765 Clear 7 1021 42 10000 3.1 190 00:47 23.05.2020
2766 Clear 7 1021 42 10000 3.1 190 00:29 23.05.2020
2767 Clear 7 1021 42 10000 3.1 180 23:58 22.05.2020
2768 Clear 8 1021 39 10000 3.1 200 23:39 22.05.2020
2769 Clear 8 1021 39 10000 3.1 200 23:39 22.05.2020
2770 Clear 8 1021 39 10000 3.1 200 23:19 22.05.2020
2771 Clear 9 1021 34 10000 3.1 200 22:55 22.05.2020
2772 Clear 9 1021 34 10000 3.1 200 22:36 22.05.2020
2773 Clear 9 1021 34 10000 3.1 200 22:18 22.05.2020
2774 Clear 9 1021 34 10000 3.1 200 22:18 22.05.2020
2775 Clear 9 1021 34 10000 3.1 200 22:18 22.05.2020
2776 Clear 10 1021 31 10000 3.6 220 21:42 22.05.2020
2777 Clear 10 1021 31 10000 3.6 220 21:21 22.05.2020
2778 Clear 11 1021 29 10000 4.1 220 20:46 22.05.2020
2779 Clouds 11 1021 29 10000 4.1 220 20:21 22.05.2020
2780 Clouds 12 1021 27 10000 4.6 220 19:59 22.05.2020
2781 Clouds 12 1021 25 10000 4.6 220 19:37 22.05.2020
2782 Clouds 13 1022 24 10000 4.1 220 19:18 22.05.2020
2783 Clouds 13 1022 26 10000 5.1 210 18:39 22.05.2020
2784 Clouds 13 1022 26 10000 5.1 210 18:20 22.05.2020
2785 Clouds 13 1022 26 10000 5.7 190 17:56 22.05.2020
2786 Clouds 13 1022 26 10000 4.1 200 17:36 22.05.2020
2787 Clouds 13 1022 26 10000 4.1 200 17:18 22.05.2020
2788 Clouds 13 1023 26 10000 5.1 220 16:43 22.05.2020
2789 Clouds 13 1023 26 10000 5.1 220 16:20 22.05.2020
2790 Clouds 13 1023 24 10000 2.6 220 15:57 22.05.2020
2791 Clouds 13 1023 24 10000 2.6 220 15:57 22.05.2020
2792 Clouds 13 1023 24 10000 4.1 190 15:39 22.05.2020
2793 Clouds 13 1023 24 10000 4.1 190 15:19 22.05.2020
2794 Clouds 13 1024 24 10000 3.1 200 14:43 22.05.2020
2795 Clouds 13 1024 24 10000 3.1 200 14:43 22.05.2020
2796 Clouds 13 1024 24 10000 3.1 200 14:24 22.05.2020
2797 Clouds 12 1024 25 10000 3.1 190 13:45 22.05.2020
2798 Clouds 12 1024 25 10000 3.1 190 13:20 22.05.2020
2799 Clouds 12 1025 27 10000 2.6 0 12:45 22.05.2020
2800 Clouds 12 1025 27 10000 2.6 0 12:26 22.05.2020
2801 Clouds 11 1025 29 10000 3.6 0 11:59 22.05.2020
2802 Clouds 10 1025 31 10000 4.1 200 11:40 22.05.2020
2803 Clear 10 1025 31 10000 4.1 200 11:20 22.05.2020
2804 Clear 10 1025 31 10000 3.1 190 10:55 22.05.2020
2805 Clear 10 1025 31 10000 3.6 220 10:36 22.05.2020
2806 Clear 10 1025 31 10000 3.6 220 10:18 22.05.2020
2807 Clear 9 1026 34 10000 2.6 220 09:41 22.05.2020
2808 Clear 9 1026 34 10000 2.6 220 09:19 22.05.2020
2809 Clear 9 1026 34 10000 2.6 220 09:19 22.05.2020
2810 Clear 8 1026 39 10000 2.1 210 08:43 22.05.2020
2811 Clear 8 1026 39 10000 2.1 210 08:21 22.05.2020
2812 Clear 7 1026 42 10000 2.1 200 07:56 22.05.2020
2813 Clear 7 1026 42 10000 2.1 150 07:27 22.05.2020
2814 Clear 6 1026 41 10000 3.1 150 06:57 22.05.2020
2815 Clear 6 1026 45 10000 1.5 110 06:36 22.05.2020
2816 Clouds 4 1026 55 10000 1 80 05:39 22.05.2020
2817 Clouds 4 1026 55 10000 1 80 05:39 22.05.2020
2818 Clouds 4 1026 51 10000 1.5 70 04:51 22.05.2020
2819 Clouds 3 1026 59 10000 1.5 60 04:24 22.05.2020
2820 Clouds 2 1026 59 10000 1.5 70 03:47 22.05.2020
2821 Clear 3 1026 55 10000 2.1 70 02:59 22.05.2020
2822 Clear 4 1026 51 10000 2.1 60 01:56 22.05.2020
2823 Clear 4 1026 51 10000 2.6 50 01:28 22.05.2020
2824 Clear 4 1026 48 10000 2.6 40 00:46 22.05.2020
2825 Clear 5 1026 44 10000 2.6 30 00:27 22.05.2020
2826 Clear 5 1025 44 10000 2.1 10 23:42 21.05.2020
2827 Clear 5 1025 44 10000 2.1 10 23:24 21.05.2020
2828 Clear 5 1025 48 10000 2.1 10 22:58 21.05.2020
2829 Clear 6 1025 45 10000 2.1 10 22:38 21.05.2020
2830 Clear 6 1025 45 10000 2.1 10 22:20 21.05.2020
2831 Clear 7 1025 39 10000 1.5 10 21:56 21.05.2020
2832 Clear 8 1025 36 10000 2.1 360 21:38 21.05.2020
2833 Clear 8 1025 36 10000 2.1 360 21:18 21.05.2020
2834 Clear 8 1025 36 10000 3.1 10 20:42 21.05.2020
2835 Clouds 8 1025 36 10000 3.1 10 20:22 21.05.2020
2836 Clouds 9 1025 34 10000 3.1 20 19:41 21.05.2020
2837 Clouds 9 1025 34 10000 3.1 20 19:20 21.05.2020
2838 Clouds 9 1025 34 10000 3.1 10 18:59 21.05.2020
2839 Clouds 9 1025 34 10000 4.1 360 18:37 21.05.2020
2840 Clouds 9 1025 34 10000 3.1 30 18:19 21.05.2020
2841 Clouds 9 1025 34 10000 3.1 30 17:56 21.05.2020
2842 Clouds 10 1025 31 10000 3.6 20 17:37 21.05.2020
2843 Clouds 10 1025 31 10000 3.6 20 17:19 21.05.2020
2844 Clouds 9 1025 34 10000 1.5 0 16:44 21.05.2020
2845 Clouds 9 1025 34 10000 1.5 0 16:22 21.05.2020
2846 Clouds 10 1024 34 10000 4.6 30 15:44 21.05.2020
2847 Clouds 10 1024 34 10000 4.6 30 15:23 21.05.2020
2848 Clouds 9 1025 34 10000 4.1 320 14:43 21.05.2020
2849 Clouds 9 1025 34 10000 4.1 320 14:23 21.05.2020
2850 Clouds 9 1024 34 10000 2.6 0 13:58 21.05.2020
2851 Clouds 8 1024 33 10000 3.6 20 13:38 21.05.2020
2852 Clouds 8 1024 33 10000 3.6 20 13:19 21.05.2020
2853 Clouds 8 1024 33 10000 4.6 360 12:40 21.05.2020
2854 Clouds 8 1024 33 10000 4.6 360 12:22 21.05.2020
2855 Clouds 7 1024 36 10000 3.6 340 11:58 21.05.2020
2856 Clouds 8 1024 36 10000 4.1 350 11:39 21.05.2020
2857 Clouds 8 1024 33 10000 5.1 10 11:21 21.05.2020
2858 Clouds 8 1024 36 10000 4.6 10 10:45 21.05.2020
2859 Clouds 8 1024 36 10000 4.6 10 10:23 21.05.2020
2860 Clouds 7 1024 36 10000 3.6 10 09:59 21.05.2020
2861 Clouds 6 1024 41 10000 3.1 350 09:40 21.05.2020
2862 Clouds 6 1024 41 10000 3.1 350 09:40 21.05.2020
2863 Clear 6 1024 41 10000 3.1 350 09:22 21.05.2020
2864 Clear 7 1024 39 10000 3.6 340 08:56 21.05.2020
2865 Clear 7 1024 39 10000 3.1 340 08:37 21.05.2020
2866 Clear 7 1024 39 10000 3.1 340 08:19 21.05.2020
2867 Clear 6 1024 45 10000 2.1 330 07:41 21.05.2020
2868 Clear 6 1024 45 10000 2.1 330 07:22 21.05.2020
2869 Clear 4 1024 51 10000 3.1 350 06:37 21.05.2020
2870 Clear 3 1024 59 10000 2.6 360 05:50 21.05.2020
2871 Clear 1 1024 64 10000 3.1 350 03:49 21.05.2020
2872 Clear 1 1023 64 10000 3.1 350 03:21 21.05.2020
2873 Clear 1 1023 64 10000 3.1 350 03:21 21.05.2020
2874 Clear 1 1023 64 10000 3.1 350 03:21 21.05.2020
2875 Clouds 2 1023 59 10000 3.1 20 02:31 21.05.2020
2876 Clouds 1 1023 64 10000 3.1 10 01:51 21.05.2020
2877 Clouds 3 1023 55 10000 3.1 20 01:24 21.05.2020
2878 Clouds 2 1023 64 10000 2.6 20 00:54 21.05.2020
2879 Clouds 3 1023 55 10000 2.6 20 00:27 21.05.2020
2880 Clouds 3 1023 59 10000 2.6 10 23:59 20.05.2020
2881 Clouds 4 1022 55 10000 2.6 40 23:38 20.05.2020
2882 Clouds 4 1022 55 10000 2.6 40 23:18 20.05.2020
2883 Clouds 4 1022 55 10000 2.6 20 22:42 20.05.2020
2884 Clouds 4 1022 55 10000 2.6 20 22:24 20.05.2020
2885 Clouds 4 1022 55 10000 2.6 20 22:24 20.05.2020
2886 Clouds 5 1022 52 10000 2.6 360 21:56 20.05.2020
2887 Clouds 5 1022 52 10000 2.6 360 21:56 20.05.2020
2888 Clouds 6 1022 52 10000 2.6 350 21:37 20.05.2020
2889 Clear 6 1022 52 10000 2.6 350 21:19 20.05.2020
2890 Clear 6 1022 52 10000 2.1 340 20:41 20.05.2020
2891 Clouds 6 1022 52 10000 2.1 340 20:23 20.05.2020
2892 Clouds 6 1022 52 10000 2.1 340 20:23 20.05.2020
2893 Clouds 7 1022 48 10000 2.1 340 19:42 20.05.2020
2894 Clouds 7 1022 48 10000 2.1 340 19:24 20.05.2020
2895 Clouds 7 1022 48 10000 3.6 350 18:58 20.05.2020
2896 Clouds 8 1021 45 10000 3.1 20 18:39 20.05.2020
2897 Clouds 8 1021 45 10000 3.1 20 18:20 20.05.2020
2898 Clouds 8 1021 45 10000 2.6 0 17:40 20.05.2020
2899 Clouds 8 1021 45 10000 2.6 0 17:21 20.05.2020
2900 Rain 8 1021 45 10000 1.5 350 16:55 20.05.2020
2901 Rain 7 1021 52 10000 2.1 360 16:36 20.05.2020
2902 Clouds 7 1021 52 10000 2.1 360 16:18 20.05.2020
2903 Clouds 7 1021 65 10000 3.1 30 15:42 20.05.2020
2904 Clouds 7 1021 65 10000 3.1 30 15:23 20.05.2020
2905 Clouds 5 1021 75 10000 5.7 40 14:43 20.05.2020
2906 Clouds 5 1021 75 10000 5.7 40 14:21 20.05.2020
2907 Clouds 6 1021 60 10000 2.1 30 13:43 20.05.2020
2908 Clouds 6 1021 60 10000 2.1 30 13:21 20.05.2020
2909 Clouds 6 1021 70 10000 1 0 12:59 20.05.2020
2910 Clouds 6 1021 70 10000 1 0 12:39 20.05.2020
2911 Clouds 6 1021 74 10000 1 0 12:20 20.05.2020
2912 Clouds 4 1020 80 10000 1.5 80 11:37 20.05.2020
2913 Clouds 4 1020 80 10000 1.5 80 11:18 20.05.2020
2914 Clouds 3 1020 93 10000 2.6 50 10:43 20.05.2020
2915 Clouds 3 1020 93 10000 2.6 50 10:21 20.05.2020
2916 Clouds 3 1020 93 10000 2.6 60 09:46 20.05.2020
2917 Clouds 2 1020 100 10000 2.6 70 09:22 20.05.2020
2918 Rain 2 1019 93 10000 3.1 60 08:59 20.05.2020
2919 Snow 1 1019 100 7000 3.6 60 08:41 20.05.2020
2920 Snow 1 1019 100 7000 3.6 60 08:19 20.05.2020
2921 Snow 1 1019 94 5000 4.1 60 07:49 20.05.2020
2922 Snow 1 1018 94 5000 3.6 70 07:22 20.05.2020
2923 Rain 1 1018 100 10000 4.6 70 06:45 20.05.2020
2924 Rain 1 1017 94 10000 4.1 40 05:25 20.05.2020
2925 Snow 1 1017 94 10000 3.6 30 04:34 20.05.2020
2926 Snow 0 1017 94 3900 4.1 40 03:53 20.05.2020
2927 Snow 1 1016 95 8000 4.6 30 02:32 20.05.2020
2928 Rain 2 1016 93 10000 4.1 60 01:31 20.05.2020
2929 Clouds 1 1016 95 10000 4.1 70 00:45 20.05.2020
2930 Clouds 2 1016 96 10000 3.6 60 00:24 20.05.2020
2931 Clouds 2 1015 96 10000 3.6 60 23:43 19.05.2020
2932 Clouds 2 1015 94 10000 3.6 60 23:20 19.05.2020
2933 Clouds 2 1015 94 10000 3.1 60 22:56 19.05.2020
2934 Clouds 2 1015 94 10000 4.1 60 22:38 19.05.2020
2935 Clouds 2 1015 94 10000 4.1 60 22:19 19.05.2020
2936 Clouds 3 1014 94 10000 3.6 70 21:58 19.05.2020
2937 Rain 3 1014 86 10000 3.1 40 21:38 19.05.2020
2938 Rain 3 1014 86 10000 3.1 40 21:20 19.05.2020
2939 Rain 4 1014 92 10000 4.1 60 20:57 19.05.2020
2940 Rain 4 1014 69 10000 5.7 70 20:39 19.05.2020
2941 Rain 4 1014 69 10000 5.7 70 20:21 19.05.2020
2942 Rain 4 1014 69 10000 5.7 70 20:21 19.05.2020
2943 Clouds 5 1013 65 10000 4.1 90 19:55 19.05.2020
2944 Clouds 5 1013 60 10000 4.6 50 19:37 19.05.2020
2945 Clouds 5 1013 60 10000 4.6 50 19:18 19.05.2020
2946 Clouds 6 1012 56 10000 4.6 50 18:42 19.05.2020
2947 Clouds 6 1012 56 10000 4.6 50 18:20 19.05.2020
2948 Clouds 5 1012 65 10000 5.1 90 17:43 19.05.2020
2949 Clouds 5 1012 65 10000 5.1 90 17:21 19.05.2020
2950 Clouds 7 1012 45 10000 5.1 40 16:59 19.05.2020
2951 Clouds 8 1011 45 10000 5.7 40 16:38 19.05.2020
2952 Clouds 8 1011 45 10000 5.7 40 16:20 19.05.2020
2953 Rain 7 1011 42 10000 5.1 40 15:47 19.05.2020
2954 Rain 7 1011 42 10000 5.1 40 15:23 19.05.2020
2955 Rain 7 1011 45 10000 5.1 20 14:58 19.05.2020
2956 Clouds 7 1010 42 10000 5.1 30 14:39 19.05.2020
2957 Clouds 7 1010 42 10000 5.1 30 14:20 19.05.2020
2958 Clouds 7 1010 42 10000 5.7 30 13:58 19.05.2020
2959 Rain 8 1010 39 10000 5.7 40 13:39 19.05.2020
2960 Rain 8 1010 39 10000 5.7 40 13:20 19.05.2020
2961 Rain 7 1010 42 10000 5.7 20 12:56 19.05.2020
2962 Rain 6 1010 41 10000 5.1 20 12:37 19.05.2020
2963 Rain 6 1010 41 10000 5.1 20 12:19 19.05.2020
2964 Clouds 6 1009 45 10000 5.1 40 11:43 19.05.2020
2965 Clouds 6 1009 45 10000 5.1 40 11:23 19.05.2020
2966 Clouds 6 1009 45 10000 4.1 10 10:59 19.05.2020
2967 Clouds 6 1009 45 10000 4.1 50 10:40 19.05.2020
2968 Clouds 6 1009 45 10000 4.1 50 10:22 19.05.2020
2969 Clouds 5 1009 52 10000 3.6 10 09:47 19.05.2020
2970 Clouds 5 1009 52 10000 3.6 10 09:25 19.05.2020
2971 Clouds 5 1009 56 10000 2.6 40 08:49 19.05.2020
2972 Clouds 4 1008 64 10000 3.1 40 08:26 19.05.2020
2973 Clouds 4 1008 64 10000 3.1 40 07:59 19.05.2020
2974 Clouds 3 1008 69 10000 3.6 60 07:41 19.05.2020
2975 Clouds 3 1008 69 10000 3.6 60 07:23 19.05.2020
2976 Clouds 2 1008 69 10000 4.1 70 06:41 19.05.2020
2977 Clouds 2 1008 69 10000 4.1 70 06:41 19.05.2020
2978 Clouds 2 1008 69 10000 4.1 70 06:19 19.05.2020
2979 Clouds 1 1008 74 10000 3.1 40 05:39 19.05.2020
2980 Clouds 1 1008 80 10000 3.1 40 04:54 19.05.2020
2981 Clouds 1 1007 80 10000 3.1 30 02:59 19.05.2020
2982 Clouds 0 1007 97 10000 3.1 10 01:21 19.05.2020
2983 Clouds 1 1007 80 10000 3.1 10 00:40 19.05.2020
2984 Clouds 1 1007 80 10000 3.1 10 00:18 19.05.2020
2985 Clouds 2 1007 74 10000 3.1 360 23:40 18.05.2020
2986 Clouds 2 1007 74 10000 3.1 360 23:20 18.05.2020
2987 Clouds 3 1007 74 10000 3.1 340 22:57 18.05.2020
2988 Clouds 3 1007 74 10000 2.1 10 22:39 18.05.2020
2989 Clouds 3 1007 74 10000 2.1 10 22:20 18.05.2020
2990 Clouds 4 1007 69 10000 2.1 90 21:42 18.05.2020
2991 Rain 4 1007 69 10000 2.1 90 21:22 18.05.2020
2992 Rain 5 1007 60 10000 3.1 60 20:57 18.05.2020
2993 Rain 5 1007 60 10000 3.1 60 20:38 18.05.2020
2994 Rain 6 1006 52 10000 2.6 360 20:20 18.05.2020
2995 Rain 6 1006 52 10000 2.6 360 19:55 18.05.2020
2996 Rain 6 1006 52 10000 2.1 320 19:37 18.05.2020
2997 Rain 6 1006 52 10000 2.1 320 19:18 18.05.2020
2998 Rain 7 1006 45 10000 1 0 18:43 18.05.2020
2999 Rain 7 1006 45 10000 1 0 18:21 18.05.2020
3000 Clouds 7 1006 48 10000 3.1 70 17:39 18.05.2020
3001 Clouds 7 1006 48 10000 3.1 70 17:18 18.05.2020
3002 Rain 7 1006 48 10000 4.1 70 16:56 18.05.2020
3003 Clouds 7 1006 45 10000 3.1 360 16:37 18.05.2020
3004 Clouds 7 1006 45 10000 3.1 360 16:18 18.05.2020
3005 Rain 6 1006 56 10000 4.6 330 15:54 18.05.2020
3006 Rain 7 1006 48 10000 5.1 320 15:36 18.05.2020
3007 Clouds 8 1005 39 10000 3.6 320 15:18 18.05.2020
3008 Rain 8 1005 39 10000 1.5 0 14:41 18.05.2020
3009 Rain 7 1005 42 10000 2.6 20 14:23 18.05.2020
3010 Rain 7 1005 42 10000 2.6 20 13:54 18.05.2020
3011 Rain 6 1005 52 10000 1 260 13:36 18.05.2020
3012 Rain 5 1005 60 10000 2.6 300 13:18 18.05.2020
3013 Rain 5 1005 60 10000 2.6 300 12:55 18.05.2020
3014 Snow 5 1005 60 10000 3.6 320 12:36 18.05.2020
3015 Snow 5 1005 60 10000 3.6 320 12:18 18.05.2020
3016 Rain 6 1005 48 10000 2.1 70 11:44 18.05.2020
3017 Rain 6 1005 48 10000 2.1 70 11:25 18.05.2020
3018 Rain 5 1004 56 10000 5.1 30 10:47 18.05.2020
3019 Rain 7 1004 48 10000 2.1 0 10:27 18.05.2020
3020 Rain 6 1004 52 10000 2.1 360 09:54 18.05.2020
3021 Rain 6 1004 52 10000 2.6 340 09:36 18.05.2020
3022 Rain 6 1004 52 10000 2.6 340 09:18 18.05.2020
3023 Clouds 4 1004 64 10000 1.5 310 08:42 18.05.2020
3024 Clouds 4 1004 64 10000 1.5 310 08:42 18.05.2020
3025 Clouds 4 1004 64 10000 1.5 310 08:23 18.05.2020
3026 Clouds 3 1004 69 10000 2.1 310 07:48 18.05.2020
3027 Clouds 3 1004 69 10000 1.5 310 07:26 18.05.2020
3028 Clouds 2 1004 74 10000 2.1 340 06:48 18.05.2020
3029 Clear 2 1003 74 10000 2.1 360 06:24 18.05.2020
3030 Clear 2 1003 74 10000 2.6 350 05:45 18.05.2020
3031 Clear 1 1003 74 10000 3.1 360 03:58 18.05.2020
3032 Clear 0 1003 98 10000 3.6 360 03:28 18.05.2020
3033 Clear 1 1003 74 10000 3.1 350 01:56 18.05.2020
3034 Clouds 2 1003 69 10000 3.6 360 00:49 18.05.2020
3035 Clear 2 1003 74 10000 2.6 360 00:19 18.05.2020
3036 Clear 3 1003 69 10000 3.1 10 23:56 17.05.2020
3037 Clear 3 1003 64 10000 2.6 350 23:38 17.05.2020
3038 Clear 3 1003 64 10000 2.6 350 23:19 17.05.2020
3039 Clouds 3 1003 64 10000 3.1 10 22:54 17.05.2020
3040 Clouds 4 1003 60 10000 2.6 360 22:36 17.05.2020
3041 Clouds 4 1003 60 10000 2.6 360 22:18 17.05.2020
3042 Clear 6 1002 52 10000 2.6 10 21:41 17.05.2020
3043 Clear 6 1002 52 10000 2.6 10 21:20 17.05.2020
3044 Clouds 6 1002 52 10000 3.1 30 20:56 17.05.2020
3045 Clear 7 1002 45 10000 3.6 20 20:38 17.05.2020
3046 Clouds 7 1002 45 10000 3.6 20 20:19 17.05.2020
3047 Clouds 7 1002 45 10000 3.6 30 19:47 17.05.2020
3048 Clouds 6 1002 48 10000 3.1 330 19:28 17.05.2020
3049 Clouds 7 1002 45 10000 1.5 0 18:57 17.05.2020
3050 Clouds 7 1002 45 10000 3.1 40 18:38 17.05.2020
3051 Clouds 7 1002 45 10000 3.1 40 18:20 17.05.2020
3052 Clouds 7 1002 48 10000 2.1 350 17:41 17.05.2020
3053 Clouds 7 1002 48 10000 2.1 350 17:23 17.05.2020
3054 Clouds 6 1002 52 10000 4.1 40 16:57 17.05.2020
3055 Clouds 6 1002 52 10000 5.1 30 16:39 17.05.2020
3056 Clouds 6 1002 52 10000 5.1 30 16:20 17.05.2020
3057 Clouds 7 1002 52 10000 6.2 30 15:46 17.05.2020
3058 Rain 8 1002 42 10000 2.1 10 15:25 17.05.2020
3059 Rain 6 1002 48 10000 3.6 350 14:58 17.05.2020
3060 Clouds 7 1002 48 10000 3.1 20 14:40 17.05.2020
3061 Clouds 7 1002 48 10000 3.1 20 14:21 17.05.2020
3062 Rain 7 1002 52 10000 5.7 20 13:43 17.05.2020
3063 Rain 7 1002 52 10000 5.7 20 13:21 17.05.2020
3064 Rain 6 1001 52 10000 2.6 30 10:35 17.05.2020
3065 Clouds 0 1001 97 10000 3.1 10 03:53 17.05.2020
3066 Clouds 0 1001 97 10000 3.1 20 02:27 17.05.2020
3067 Clouds 0 1001 97 10000 3.6 30 01:55 17.05.2020
3068 Clouds 1 1001 80 10000 3.6 40 00:53 17.05.2020
3069 Clouds 1 1001 80 10000 4.1 40 00:31 17.05.2020
3070 Clouds 1 1001 80 10000 3.6 40 23:57 16.05.2020
3071 Clouds 1 1001 86 10000 3.6 40 23:38 16.05.2020
3072 Clouds 1 1001 86 10000 3.6 40 23:19 16.05.2020
3073 Clouds 1 1001 95 10000 3.6 30 22:42 16.05.2020
3074 Clouds 1 1001 91 10000 3.6 30 22:23 16.05.2020
3075 Clouds 1 1001 91 10000 3.6 30 22:23 16.05.2020
3076 Clouds 2 1001 91 10000 2.6 10 21:59 16.05.2020
3077 Clouds 2 1001 91 10000 3.1 40 21:41 16.05.2020
3078 Clouds 2 1001 84 10000 3.1 40 21:21 16.05.2020
3079 Clouds 2 1001 85 10000 3.1 50 20:57 16.05.2020
3080 Clouds 3 1001 74 10000 3.6 80 20:38 16.05.2020
3081 Clouds 3 1001 69 10000 4.6 70 20:19 16.05.2020
3082 Clouds 3 1001 74 10000 4.1 40 19:43 16.05.2020
3083 Snow 3 1001 74 10000 4.1 40 19:23 16.05.2020
3084 Snow 3 1001 74 10000 4.6 30 18:59 16.05.2020
3085 Snow 3 1001 74 10000 4.6 30 18:59 16.05.2020
3086 Snow 4 1001 64 10000 6.7 60 18:41 16.05.2020
3087 Snow 4 1001 64 10000 6.7 60 18:22 16.05.2020
3088 Clouds 4 1001 60 10000 4.6 90 17:42 16.05.2020
3089 Clouds 4 1001 60 10000 4.6 90 17:42 16.05.2020
3090 Clouds 4 1001 60 10000 4.6 90 17:21 16.05.2020
3091 Clouds 6 1001 56 10000 5.1 90 16:56 16.05.2020
3092 Clouds 6 1001 45 10000 4.6 90 16:37 16.05.2020
3093 Clouds 6 1001 45 10000 4.6 90 16:18 16.05.2020
3094 Snow 6 1001 45 10000 3.6 90 15:42 16.05.2020
3095 Clouds 6 1001 45 10000 3.6 90 15:21 16.05.2020
3096 Clouds 5 1001 52 10000 4.6 70 14:58 16.05.2020
3097 Clouds 5 1001 48 10000 5.7 80 14:38 16.05.2020
3098 Clouds 5 1001 48 10000 5.7 80 14:19 16.05.2020
3099 Clouds 5 1001 48 10000 4.6 90 13:42 16.05.2020
3100 Clouds 5 1001 48 10000 4.6 90 13:24 16.05.2020
3101 Clouds 6 1001 41 10000 2.6 70 12:59 16.05.2020
3102 Clouds 6 1001 38 10000 2.6 100 12:40 16.05.2020
3103 Clouds 6 1001 38 10000 2.6 100 12:19 16.05.2020
3104 Clouds 5 1001 38 10000 3.6 60 11:42 16.05.2020
3105 Clouds 5 1001 38 10000 3.6 60 11:23 16.05.2020
3106 Clouds 5 1001 38 10000 2.6 90 10:58 16.05.2020
3107 Clouds 4 1001 41 10000 2.6 130 10:39 16.05.2020
3108 Clouds 4 1001 44 10000 2.1 60 10:20 16.05.2020
3109 Clouds 4 1001 44 10000 2.1 60 09:47 16.05.2020
3110 Clouds 4 1001 44 10000 4.1 80 09:28 16.05.2020
3111 Clouds 4 1001 44 10000 3.6 90 08:55 16.05.2020
3112 Clouds 3 1001 47 10000 3.6 110 08:36 16.05.2020
3113 Clouds 3 1001 47 10000 3.6 110 08:18 16.05.2020
3114 Clouds 3 1001 47 10000 3.6 110 08:18 16.05.2020
3115 Clouds 1 1001 55 10000 3.1 100 07:42 16.05.2020
3116 Clouds 1 1001 55 10000 3.1 100 07:21 16.05.2020
3117 Clouds 1 1001 55 10000 2.6 90 06:47 16.05.2020
3118 Clouds 0 1001 87 10000 3.1 110 06:20 16.05.2020
3119 Clouds -1 1001 63 10000 3.1 110 05:42 16.05.2020
3120 Clouds -1 1001 63 10000 3.1 110 05:22 16.05.2020
3121 Clouds -2 1000 68 10000 3.1 130 03:28 16.05.2020
3122 Clouds -1 1000 63 10000 3.6 140 02:45 16.05.2020
3123 Clouds -2 1000 68 10000 3.6 130 02:19 16.05.2020
3124 Clouds -1 1000 63 10000 3.6 130 01:40 16.05.2020
3125 Clouds -1 1000 63 10000 3.6 130 00:57 16.05.2020
3126 Clouds 0 1000 95 10000 3.6 130 00:39 16.05.2020
3127 Clouds 0 1000 95 10000 3.6 130 00:19 16.05.2020
3128 Clouds 0 1000 95 10000 3.1 140 23:39 15.05.2020
3129 Clouds 0 1000 95 10000 3.1 140 23:19 15.05.2020
3130 Clouds 1 1000 55 10000 3.6 170 22:42 15.05.2020
3131 Clouds 1 1000 55 10000 3.6 170 22:20 15.05.2020
3132 Clouds 2 1000 51 10000 3.1 180 21:57 15.05.2020
3133 Clouds 2 999 51 10000 4.1 210 21:39 15.05.2020
3134 Clouds 2 999 51 10000 4.1 210 21:20 15.05.2020
3135 Clouds 3 999 44 10000 5.7 210 20:55 15.05.2020
3136 Clouds 4 999 41 10000 5.1 210 20:37 15.05.2020
3137 Clouds 3 999 51 10000 3.6 190 20:18 15.05.2020
3138 Clouds 3 999 55 10000 2.6 220 19:43 15.05.2020
3139 Clouds 3 999 55 10000 2.6 220 19:23 15.05.2020
3140 Clouds 3 999 59 10000 2.6 290 18:50 15.05.2020
3141 Clouds 3 999 55 10000 5.7 260 18:29 15.05.2020
3142 Clouds 4 998 44 10000 3.1 250 17:59 15.05.2020
3143 Clouds 4 998 41 10000 4.6 220 17:37 15.05.2020
3144 Clouds 4 998 41 10000 4.6 220 17:19 15.05.2020
3145 Clouds 5 998 38 10000 6.2 210 16:56 15.05.2020
3146 Clouds 5 998 32 10000 5.1 190 16:37 15.05.2020
3147 Clouds 5 998 32 10000 5.1 190 16:18 15.05.2020
3148 Clouds 5 997 35 10000 6.2 210 15:41 15.05.2020
3149 Clouds 5 997 35 10000 6.2 210 15:20 15.05.2020
3150 Clouds 5 997 35 10000 7.7 220 14:57 15.05.2020
3151 Clouds 6 997 33 10000 7.7 220 14:38 15.05.2020
3152 Clouds 6 997 33 10000 7.7 220 14:20 15.05.2020
3153 Clouds 5 996 32 10000 8.7 200 13:42 15.05.2020
3154 Clouds 5 996 32 10000 8.7 200 13:22 15.05.2020
3155 Rain 5 996 38 10000 6.2 230 12:56 15.05.2020
3156 Rain 4 996 41 10000 7.2 210 12:36 15.05.2020
3157 Clouds 5 996 35 10000 6.2 240 12:18 15.05.2020
3158 Clouds 5 996 35 10000 6.2 240 11:56 15.05.2020
3159 Clouds 5 996 38 10000 6.7 210 11:37 15.05.2020
3160 Clouds 5 996 38 10000 6.7 210 11:18 15.05.2020
3161 Clouds 5 996 41 10000 5.1 230 10:54 15.05.2020
3162 Clouds 4 996 41 10000 7.2 210 10:36 15.05.2020
3163 Clouds 4 996 41 10000 7.2 210 10:18 15.05.2020
3164 Clouds 4 996 41 10000 5.1 230 09:38 15.05.2020
3165 Clouds 4 996 41 10000 5.1 230 09:19 15.05.2020
3166 Clouds 3 996 44 10000 6.2 220 08:58 15.05.2020
3167 Clouds 3 996 44 10000 4.6 220 08:37 15.05.2020
3168 Clouds 3 996 44 10000 4.6 220 08:18 15.05.2020
3169 Clouds 1 996 55 10000 3.6 220 07:44 15.05.2020
3170 Clouds 1 996 55 10000 3.6 220 07:24 15.05.2020
3171 Clouds 0 996 81 10000 3.1 210 06:47 15.05.2020
3172 Clouds -1 996 58 10000 2.6 210 05:49 15.05.2020
3173 Clouds -2 996 63 10000 2.1 240 04:27 15.05.2020
3174 Clouds -1 997 54 10000 2.1 230 03:46 15.05.2020
3175 Clouds -1 997 54 10000 2.1 220 02:30 15.05.2020
3176 Clouds 0 997 95 10000 1.5 260 01:20 15.05.2020
3177 Clouds 1 997 43 10000 1 0 00:48 15.05.2020
3178 Clouds 1 997 43 10000 2.1 300 00:29 15.05.2020
3179 Clouds 1 998 43 10000 1.5 310 23:44 14.05.2020
3180 Clouds 1 998 43 10000 1.5 310 23:22 14.05.2020
3181 Clouds 1 998 43 10000 2.1 320 22:59 14.05.2020
3182 Clouds 2 998 37 10000 1.5 320 22:40 14.05.2020
3183 Clouds 2 998 37 10000 1.5 320 22:19 14.05.2020
3184 Clouds 2 998 37 10000 2.6 330 21:56 14.05.2020
3185 Clouds 3 998 37 10000 2.1 310 21:37 14.05.2020
3186 Clouds 4 998 35 10000 2.1 300 21:19 14.05.2020
3187 Clouds 4 998 35 10000 3.6 310 20:43 14.05.2020
3188 Clouds 4 998 35 10000 3.6 310 20:21 14.05.2020
3189 Clouds 5 998 27 10000 5.1 290 19:59 14.05.2020
3190 Clouds 6 998 28 10000 5.1 290 19:39 14.05.2020
3191 Clouds 6 998 28 10000 5.1 290 19:20 14.05.2020
3192 Clouds 5 998 27 10000 5.1 270 18:58 14.05.2020
3193 Clouds 5 998 27 10000 5.1 270 18:58 14.05.2020
3194 Clouds 6 998 28 10000 5.1 280 18:38 14.05.2020
3195 Clouds 6 998 28 10000 5.1 280 18:20 14.05.2020
3196 Clouds 6 998 28 10000 4.6 280 17:58 14.05.2020
3197 Clouds 5 999 30 10000 5.1 280 17:37 14.05.2020
3198 Clouds 5 999 30 10000 5.1 280 17:19 14.05.2020
3199 Clouds 6 999 26 10000 6.7 260 16:57 14.05.2020
3200 Clouds 6 999 26 10000 5.7 280 16:37 14.05.2020
3201 Clouds 6 999 26 10000 5.7 280 16:18 14.05.2020
3202 Clouds 6 999 30 10000 5.1 270 15:41 14.05.2020
3203 Clouds 6 999 30 10000 5.1 270 15:21 14.05.2020
3204 Clouds 6 999 33 10000 4.1 270 14:57 14.05.2020
3205 Rain 5 1000 38 10000 3.6 260 14:39 14.05.2020
3206 Rain 5 1000 38 10000 3.6 260 14:20 14.05.2020
3207 Rain 5 1000 35 10000 5.7 280 13:57 14.05.2020
3208 Clouds 4 1000 38 10000 5.1 270 13:38 14.05.2020
3209 Clouds 4 1000 38 10000 5.1 270 13:38 14.05.2020
3210 Clouds 4 1000 38 10000 5.1 270 13:19 14.05.2020
3211 Rain 5 1000 35 10000 5.7 270 12:57 14.05.2020
3212 Rain 6 1000 35 10000 4.6 270 12:38 14.05.2020
3213 Rain 6 1000 35 10000 4.6 270 12:38 14.05.2020
3214 Rain 6 1000 35 10000 4.6 270 12:18 14.05.2020
3215 Rain 5 1000 35 10000 5.1 260 11:57 14.05.2020
3216 Rain 4 1000 38 10000 4.6 270 11:38 14.05.2020
3217 Rain 4 1000 38 10000 4.6 270 11:19 14.05.2020
3218 Clear 5 1000 38 10000 3.1 300 10:44 14.05.2020
3219 Clear 5 1000 38 10000 3.1 300 10:26 14.05.2020
3220 Clouds 4 1001 41 10000 3.6 300 09:56 14.05.2020
3221 Clouds 4 1001 48 10000 4.6 320 09:37 14.05.2020
3222 Clouds 4 1001 48 10000 4.6 320 09:18 14.05.2020
3223 Clouds 3 1001 55 10000 3.1 310 08:39 14.05.2020
3224 Clouds 3 1001 55 10000 3.1 310 08:19 14.05.2020
3225 Clear 1 1001 69 10000 2.6 300 07:45 14.05.2020
3226 Clear 1 1001 69 10000 2.6 300 07:45 14.05.2020
3227 Clear 1 1001 69 10000 2.6 300 07:22 14.05.2020
3228 Clear 0 1001 85 10000 2.1 310 06:44 14.05.2020
3229 Clear 0 1001 93 10000 2.1 310 06:25 14.05.2020
3230 Clear -1 1002 86 10000 2.1 320 05:42 14.05.2020
3231 Clear -1 1002 86 10000 2.1 320 05:42 14.05.2020
3232 Clear -1 1002 86 10000 3.6 340 04:46 14.05.2020
3233 Clear -1 1002 86 10000 2.6 330 03:43 14.05.2020
3234 Clear -1 1002 86 10000 2.6 330 03:20 14.05.2020
3235 Clear 0 1002 98 10000 2.6 320 02:35 14.05.2020
3236 Clouds 0 1002 97 10000 2.1 330 01:49 14.05.2020
3237 Clouds 0 1003 97 10000 2.1 340 00:53 14.05.2020
3238 Clouds 0 1003 97 10000 2.1 330 00:27 14.05.2020
3239 Clouds 0 1003 97 10000 1 320 23:45 13.05.2020
3240 Clouds 1 1003 74 10000 1 320 23:24 13.05.2020
3241 Clouds 2 1003 69 10000 1.5 330 22:59 13.05.2020
3242 Clouds 2 1003 69 10000 2.1 330 22:41 13.05.2020
3243 Clouds 2 1003 69 10000 2.1 330 22:21 13.05.2020
3244 Clouds 3 1003 64 10000 0.5 320 21:58 13.05.2020
3245 Clouds 3 1003 64 10000 1 70 21:39 13.05.2020
3246 Clouds 3 1003 64 10000 1 70 21:39 13.05.2020
3247 Clouds 3 1003 64 10000 1 100 21:19 13.05.2020
3248 Clouds 3 1003 69 10000 1 0 20:42 13.05.2020
3249 Clouds 3 1003 69 10000 1 0 20:23 13.05.2020
3250 Clouds 3 1003 69 10000 2.6 340 19:59 13.05.2020
3251 Clouds 3 1003 69 10000 5.1 320 19:40 13.05.2020
3252 Clouds 3 1003 69 10000 5.1 320 19:22 13.05.2020
3253 Snow 4 1003 60 10000 5.1 330 18:43 13.05.2020
3254 Snow 4 1003 60 10000 5.1 330 18:22 13.05.2020
3255 Snow 4 1003 60 10000 5.1 330 18:21 13.05.2020
3256 Snow 5 1003 41 10000 2.6 200 17:39 13.05.2020
3257 Snow 5 1003 41 10000 2.6 200 17:20 13.05.2020
3258 Snow 5 1003 48 10000 4.6 210 16:56 13.05.2020
3259 Clouds 5 1003 44 10000 5.1 210 16:38 13.05.2020
3260 Snow 6 1003 41 10000 3.1 280 16:18 13.05.2020
3261 Snow 6 1003 35 10000 1.5 270 15:42 13.05.2020
3262 Snow 6 1003 35 10000 1.5 270 15:20 13.05.2020
3263 Snow 6 1003 30 10000 2.1 230 14:57 13.05.2020
3264 Snow 7 1003 30 10000 3.1 220 14:39 13.05.2020
3265 Snow 7 1003 30 10000 3.1 220 14:21 13.05.2020
3266 Snow 6 1003 35 10000 2.6 190 13:57 13.05.2020
3267 Snow 6 1003 35 10000 2.6 190 13:57 13.05.2020
3268 Snow 6 1003 35 10000 3.1 190 13:39 13.05.2020
3269 Snow 6 1002 38 10000 1 240 13:20 13.05.2020
3270 Snow 5 1002 41 10000 3.6 220 12:43 13.05.2020
3271 Clear 5 1002 41 10000 3.6 220 12:23 13.05.2020
3272 Clear 5 1002 38 10000 2.6 190 11:58 13.05.2020
3273 Clear 4 1003 44 10000 2.6 210 11:40 13.05.2020
3274 Clear 4 1003 44 10000 2.6 210 11:21 13.05.2020
3275 Clear 5 1003 38 10000 3.1 210 10:59 13.05.2020
3276 Clouds 4 1003 41 10000 2.6 150 10:39 13.05.2020
3277 Clouds 4 1003 41 10000 2.6 150 10:20 13.05.2020
3278 Clouds 4 1003 44 10000 2.6 0 09:59 13.05.2020
3279 Clouds 4 1003 44 10000 3.6 180 09:40 13.05.2020
3280 Clouds 4 1003 44 10000 3.6 180 09:22 13.05.2020
3281 Clear 2 1003 55 10000 2.1 140 08:42 13.05.2020
3282 Clear 2 1003 55 10000 1.5 160 08:22 13.05.2020
3283 Clear 2 1003 55 10000 1.5 160 07:59 13.05.2020
3284 Clear 2 1003 55 10000 1.5 160 07:59 13.05.2020
3285 Clear 1 1003 59 10000 1.5 180 07:36 13.05.2020
3286 Clear 1 1003 59 10000 1.5 180 07:36 13.05.2020
3287 Clear 0 1003 89 10000 2.1 180 06:59 13.05.2020
3288 Clear 0 1003 89 10000 2.1 160 06:41 13.05.2020
3289 Clear -1 1002 63 10000 1.5 140 05:50 13.05.2020
3290 Clear -3 1002 79 10000 1.5 140 04:22 13.05.2020
3291 Clear -1 1002 68 10000 3.6 200 02:59 13.05.2020
3292 Clouds -1 1002 68 10000 1.5 190 02:20 13.05.2020
3293 Clouds -1 1001 68 10000 2.1 200 01:21 13.05.2020
3294 Clouds 0 1001 96 10000 3.1 210 00:39 13.05.2020
3295 Clouds 0 1001 96 10000 3.1 210 00:18 13.05.2020
3296 Clouds 1 1001 59 10000 3.1 200 23:39 12.05.2020
3297 Clouds 1 1001 59 10000 3.1 200 23:20 12.05.2020
3298 Clouds 1 1000 64 10000 2.6 210 22:55 12.05.2020
3299 Clouds 2 1000 59 10000 2.6 220 22:36 12.05.2020
3300 Clouds 2 1000 59 10000 2.6 220 22:18 12.05.2020
3301 Clouds 2 1000 59 10000 3.1 220 21:54 12.05.2020
3302 Clouds 2 1000 59 10000 3.6 210 21:36 12.05.2020
3303 Clouds 2 1000 59 10000 3.6 210 21:18 12.05.2020
3304 Clouds 3 999 55 10000 3.1 230 20:42 12.05.2020
3305 Snow 3 999 55 10000 3.1 230 20:23 12.05.2020
3306 Snow 2 999 64 10000 3.1 230 19:59 12.05.2020
3307 Snow 3 999 59 10000 4.6 230 19:41 12.05.2020
3308 Snow 3 999 59 10000 4.6 230 19:22 12.05.2020
3309 Clouds 4 999 55 10000 6.7 220 18:58 12.05.2020
3310 Snow 3 998 59 10000 6.7 210 18:39 12.05.2020
3311 Snow 3 998 59 10000 6.7 210 18:21 12.05.2020
3312 Snow 5 998 30 10000 3.1 0 17:43 12.05.2020
3313 Snow 5 998 30 10000 3.1 0 17:24 12.05.2020
3314 Snow 5 997 27 10000 2.6 220 16:47 12.05.2020
3315 Snow 5 997 27 10000 2.6 220 16:26 12.05.2020
3316 Snow 5 997 30 10000 3.6 220 15:57 12.05.2020
3317 Snow 5 997 32 10000 3.1 0 15:39 12.05.2020
3318 Snow 5 997 32 10000 2.6 320 15:20 12.05.2020
3319 Snow 5 997 32 10000 2.6 320 14:58 12.05.2020
3320 Snow 5 996 32 10000 1.5 0 14:39 12.05.2020
3321 Snow 5 996 32 10000 1.5 0 14:20 12.05.2020
3322 Snow 4 996 38 10000 2.6 260 13:59 12.05.2020
3323 Snow 3 996 40 10000 3.6 250 13:41 12.05.2020
3324 Snow 3 995 40 10000 2.6 300 13:20 12.05.2020
3325 Snow 3 995 40 10000 2.6 300 12:58 12.05.2020
3326 Snow 3 995 44 10000 3.1 0 12:39 12.05.2020
3327 Snow 3 995 44 10000 3.1 0 12:21 12.05.2020
3328 Clouds 3 995 44 10000 2.6 290 11:58 12.05.2020
3329 Clouds 3 995 44 10000 1.5 290 11:39 12.05.2020
3330 Clouds 3 995 44 10000 1.5 290 11:21 12.05.2020
3331 Clouds 3 994 47 10000 2.6 270 10:58 12.05.2020
3332 Clouds 2 994 51 10000 3.1 310 10:40 12.05.2020
3333 Clouds 2 994 51 10000 3.1 310 10:21 12.05.2020
3334 Clouds 2 993 55 10000 3.1 280 09:59 12.05.2020
3335 Clouds 1 993 55 10000 3.1 280 09:39 12.05.2020
3336 Clouds 1 993 55 10000 3.1 280 09:20 12.05.2020
3337 Clouds 1 992 59 10000 3.6 290 08:54 12.05.2020
3338 Clouds 1 992 59 10000 3.6 290 08:36 12.05.2020
3339 Clouds 1 992 59 10000 3.6 290 08:18 12.05.2020
3340 Clouds -1 991 63 10000 3.1 290 07:41 12.05.2020
3341 Clouds -1 991 63 10000 3.1 290 07:21 12.05.2020
3342 Clouds -3 991 68 10000 1.5 260 06:41 12.05.2020
3343 Clouds -3 991 68 10000 1.5 260 06:22 12.05.2020
3344 Clouds -3 991 68 10000 2.1 240 05:50 12.05.2020
3345 Clear -3 990 68 10000 2.1 220 04:54 12.05.2020
3346 Clear -3 990 68 10000 2.1 290 03:26 12.05.2020
3347 Clear -2 990 63 10000 2.6 310 02:28 12.05.2020
3348 Clear -2 990 63 10000 2.6 290 01:56 12.05.2020
3349 Clear -1 990 58 10000 2.6 290 01:20 12.05.2020
3350 Clear -1 991 58 10000 2.6 300 00:25 12.05.2020
3351 Clear 0 991 97 10000 2.6 310 23:58 11.05.2020
3352 Clear 0 991 97 10000 2.6 310 23:40 11.05.2020
3353 Clear 0 991 97 10000 2.6 310 23:20 11.05.2020
3354 Clear 1 991 50 10000 3.6 310 22:58 11.05.2020
3355 Clear 1 991 50 10000 2.6 300 22:40 11.05.2020
3356 Clear 1 991 50 10000 2.6 300 22:19 11.05.2020
3357 Clear 2 992 47 10000 1.5 310 21:55 11.05.2020
3358 Clear 3 992 40 10000 2.1 310 21:37 11.05.2020
3359 Clear 3 992 40 10000 2.1 310 21:18 11.05.2020
3360 Clear 4 992 38 10000 3.1 320 20:57 11.05.2020
3361 Clear 4 992 38 10000 3.6 320 20:38 11.05.2020
3362 Clouds 4 992 38 10000 3.6 320 20:18 11.05.2020
3363 Clouds 4 992 38 10000 2.6 340 19:41 11.05.2020
3364 Clouds 4 992 38 10000 2.6 340 19:22 11.05.2020
3365 Clouds 4 992 38 10000 3.1 340 18:58 11.05.2020
3366 Clouds 4 992 38 10000 3.6 350 18:39 11.05.2020
3367 Clouds 4 992 38 10000 3.6 350 18:20 11.05.2020
3368 Clouds 5 993 35 10000 4.1 300 17:57 11.05.2020
3369 Clouds 5 993 32 10000 4.6 290 17:39 11.05.2020
3370 Snow 5 993 32 10000 4.6 290 17:21 11.05.2020
3371 Snow 4 993 38 10000 4.1 300 16:56 11.05.2020
3372 Snow 4 993 38 10000 4.6 330 16:37 11.05.2020
3373 Snow 4 994 41 10000 3.6 300 16:19 11.05.2020
3374 Snow 4 994 44 10000 3.1 320 15:42 11.05.2020
3375 Snow 4 994 44 10000 3.1 320 15:20 11.05.2020
3376 Clouds 3 994 47 10000 3.1 320 14:59 11.05.2020
3377 Clouds 3 994 55 10000 2.6 320 14:41 11.05.2020
3378 Clouds 3 994 55 10000 2.6 320 14:22 11.05.2020
3379 Clouds 4 994 51 10000 2.1 280 13:55 11.05.2020
3380 Clouds 3 994 64 10000 2.6 280 13:36 11.05.2020
3381 Clouds 2 994 64 10000 3.6 320 13:18 11.05.2020
3382 Clouds 2 994 64 10000 3.6 320 12:54 11.05.2020
3383 Clouds 2 994 64 10000 3.6 320 12:54 11.05.2020
3384 Clouds 1 995 74 10000 3.1 320 12:36 11.05.2020
3385 Clouds 1 995 74 10000 3.1 320 12:18 11.05.2020
3386 Clouds 0 994 86 10000 2.6 290 11:41 11.05.2020
3387 Clouds 0 994 88 10000 2.6 290 11:22 11.05.2020
3388 Clouds 0 994 88 10000 3.1 330 10:58 11.05.2020
3389 Clouds 0 994 88 10000 3.6 330 10:40 11.05.2020
3390 Clouds 0 994 91 10000 3.6 330 10:21 11.05.2020
3391 Clouds 0 994 91 10000 3.6 330 10:21 11.05.2020
3392 Clouds 0 995 91 10000 3.6 310 09:58 11.05.2020
3393 Clouds 0 995 91 10000 3.6 310 09:39 11.05.2020
3394 Clouds 0 995 93 10000 3.6 310 09:19 11.05.2020
3395 Clouds 0 995 93 10000 3.6 310 09:19 11.05.2020
3396 Clouds 0 995 93 10000 3.6 320 08:55 11.05.2020
3397 Snow -1 995 92 1600 4.6 320 08:36 11.05.2020
3398 Snow -1 995 92 1600 4.6 320 08:18 11.05.2020
3399 Clouds -1 995 100 10000 4.1 320 07:41 11.05.2020
3400 Clouds -1 995 100 10000 4.1 320 07:23 11.05.2020
3401 Snow 0 995 95 10000 3.1 300 06:40 11.05.2020
3402 Snow -1 995 100 4400 2.1 300 05:55 11.05.2020
3403 Snow -1 995 92 10000 2.1 320 05:23 11.05.2020
3404 Snow -1 995 100 3500 3.1 320 04:19 11.05.2020
3405 Clouds -1 996 100 10000 3.1 330 02:37 11.05.2020
3406 Clouds -1 996 100 10000 3.1 330 02:19 11.05.2020
3407 Clouds -1 997 100 10000 2.6 300 01:23 11.05.2020
3408 Clouds -1 997 100 7000 2.1 300 00:42 11.05.2020
3409 Clouds -1 997 100 7000 2.1 300 00:19 11.05.2020
3410 Snow -1 998 100 1200 2.1 300 23:42 10.05.2020
3411 Snow -1 998 100 1200 2.1 300 23:20 10.05.2020
3412 Snow 0 998 98 1300 1.5 310 22:55 10.05.2020
3413 Snow 0 998 98 6000 1.5 320 22:37 10.05.2020
3414 Snow 0 998 97 6000 1.5 320 22:18 10.05.2020
3415 Clouds 0 999 97 1600 0.5 0 21:43 10.05.2020
3416 Clouds 0 999 98 1300 1 30 21:19 10.05.2020
3417 Clouds 0 1000 98 1100 1 100 20:43 10.05.2020
3418 Clouds 0 1000 97 1100 1 100 20:25 10.05.2020
3419 Clouds 0 1000 97 1100 1 100 20:25 10.05.2020
3420 Clouds 0 1000 97 1100 1 100 20:25 10.05.2020
3421 Clouds 0 1000 97 1100 1.5 100 19:59 10.05.2020
3422 Snow 0 1000 97 1200 1.5 120 19:39 10.05.2020
3423 Snow 0 1000 97 1200 1.5 120 19:21 10.05.2020
3424 Clouds 0 1001 97 1100 2.1 120 18:56 10.05.2020
3425 Snow 0 1001 97 1600 2.1 160 18:37 10.05.2020
3426 Snow 0 1001 97 1600 2.1 160 18:18 10.05.2020
3427 Snow 0 1001 97 2100 2.6 150 17:58 10.05.2020
3428 Snow 0 1002 97 3400 2.6 160 17:39 10.05.2020
3429 Snow 0 1002 97 3400 2.6 160 17:20 10.05.2020
3430 Snow 0 1002 97 3400 2.6 160 17:20 10.05.2020
3431 Snow 0 1002 97 5000 3.1 160 16:54 10.05.2020
3432 Snow 0 1002 97 2600 3.1 150 16:36 10.05.2020
3433 Snow 0 1002 97 2600 3.1 150 16:18 10.05.2020
3434 Snow 0 1003 97 1700 3.1 140 15:41 10.05.2020
3435 Snow 0 1003 96 1700 3.1 140 15:22 10.05.2020
3436 Snow 0 1003 96 1900 4.1 130 14:56 10.05.2020
3437 Snow 0 1004 96 1900 4.6 140 14:38 10.05.2020
3438 Snow 0 1004 94 1900 4.6 140 14:19 10.05.2020
3439 Snow 0 1004 95 1200 5.7 140 13:58 10.05.2020
3440 Snow 0 1004 95 1300 5.1 120 13:37 10.05.2020
3441 Snow 0 1004 94 1300 5.1 120 13:18 10.05.2020
3442 Clouds 0 1005 94 800 5.7 120 12:42 10.05.2020
3443 Clouds 0 1005 94 800 5.7 120 12:23 10.05.2020
3444 Snow 0 1005 94 1200 6.2 120 11:59 10.05.2020
3445 Snow 0 1006 94 3900 5.1 130 11:40 10.05.2020
3446 Snow 0 1006 93 3900 5.1 130 11:21 10.05.2020
3447 Clouds 0 1006 93 4400 5.7 160 10:58 10.05.2020
3448 Rain 2 1007 55 10000 6.2 160 10:40 10.05.2020
3449 Rain 2 1007 55 10000 6.2 160 10:22 10.05.2020
3450 Snow 3 1007 51 10000 5.1 160 09:42 10.05.2020
3451 Snow 3 1007 51 10000 5.1 160 09:23 10.05.2020
3452 Snow 2 1007 59 10000 3.1 130 08:57 10.05.2020
3453 Snow 2 1008 59 10000 3.1 120 08:39 10.05.2020
3454 Clouds 2 1008 59 10000 3.1 120 08:20 10.05.2020
3455 Clouds 1 1008 59 10000 3.1 140 07:40 10.05.2020
3456 Clouds 1 1008 59 10000 3.1 140 07:19 10.05.2020
3457 Clouds 0 1008 89 10000 3.1 130 06:50 10.05.2020
3458 Clouds -1 1009 63 10000 3.1 140 06:24 10.05.2020
3459 Clouds -1 1009 58 10000 4.1 130 05:45 10.05.2020
3460 Clouds -1 1009 58 10000 3.1 110 04:45 10.05.2020
3461 Clouds -1 1009 58 10000 2.6 120 04:25 10.05.2020
3462 Clouds -1 1009 54 10000 1 0 03:44 10.05.2020
3463 Clouds -2 1009 58 10000 1 100 02:59 10.05.2020
3464 Clouds 0 1009 96 10000 2.1 350 02:24 10.05.2020
3465 Clouds -1 1009 54 10000 2.1 320 01:57 10.05.2020
3466 Clouds -1 1009 54 10000 2.1 320 01:57 10.05.2020
3467 Clouds -1 1009 54 10000 1 220 01:39 10.05.2020
3468 Clear -1 1009 54 10000 1 220 01:18 10.05.2020
3469 Clear 0 1009 96 10000 0.5 210 00:42 10.05.2020
3470 Clear 0 1009 96 10000 0.5 210 00:20 10.05.2020
3471 Clear 0 1009 96 10000 0.5 0 23:40 09.05.2020
3472 Clear 0 1009 96 10000 0.5 0 23:21 09.05.2020
3473 Clear 0 1009 96 10000 1 0 22:57 09.05.2020
3474 Clear 1 1009 50 10000 0.5 240 22:38 09.05.2020
3475 Clear 1 1009 50 10000 0.5 240 22:20 09.05.2020
3476 Clear 3 1009 44 10000 1 320 21:55 09.05.2020
3477 Clear 4 1009 38 10000 1.5 330 21:37 09.05.2020
3478 Clear 4 1009 38 10000 1.5 330 21:18 09.05.2020
3479 Clear 4 1009 41 10000 2.6 320 20:54 09.05.2020
3480 Clear 4 1009 41 10000 2.6 300 20:36 09.05.2020
3481 Clear 4 1009 41 10000 2.6 300 20:36 09.05.2020
3482 Clouds 4 1009 41 10000 2.6 300 20:18 09.05.2020
3483 Clouds 4 1008 44 10000 3.6 310 19:39 09.05.2020
3484 Clouds 4 1008 44 10000 3.6 310 19:20 09.05.2020
3485 Clouds 4 1008 44 10000 3.1 330 18:55 09.05.2020
3486 Clouds 4 1008 44 10000 3.1 340 18:37 09.05.2020
3487 Clouds 4 1008 44 10000 3.1 340 18:37 09.05.2020
3488 Snow 4 1008 44 10000 3.1 340 18:18 09.05.2020
3489 Snow 5 1008 38 10000 3.1 320 17:41 09.05.2020
3490 Snow 5 1008 38 10000 3.1 320 17:22 09.05.2020
3491 Snow 5 1007 38 10000 3.6 320 16:41 09.05.2020
3492 Snow 5 1007 38 10000 3.6 320 16:20 09.05.2020
3493 Snow 5 1007 38 10000 3.6 320 15:46 09.05.2020
3494 Snow 5 1007 38 10000 3.6 320 15:28 09.05.2020
3495 Snow 5 1006 41 10000 5.1 330 14:59 09.05.2020
3496 Clouds 5 1006 38 10000 3.1 340 14:41 09.05.2020
3497 Clouds 5 1006 38 10000 3.1 340 14:20 09.05.2020
3498 Snow 5 1006 41 10000 3.6 350 13:58 09.05.2020
3499 Snow 5 1006 41 10000 3.6 330 13:40 09.05.2020
3500 Snow 5 1006 41 10000 3.6 330 13:40 09.05.2020
3501 Clouds 5 1006 41 10000 3.6 330 13:20 09.05.2020
3502 Clouds 5 1006 38 10000 3.1 10 12:43 09.05.2020
3503 Clouds 5 1005 38 10000 3.1 360 12:22 09.05.2020
3504 Clouds 5 1005 38 10000 3.1 360 11:56 09.05.2020
3505 Clouds 5 1005 35 10000 4.6 310 11:37 09.05.2020
3506 Clouds 5 1005 35 10000 3.6 360 11:18 09.05.2020
3507 Clouds 4 1005 41 10000 4.1 20 10:43 09.05.2020
3508 Clouds 4 1005 41 10000 4.1 20 10:43 09.05.2020
3509 Clouds 4 1005 41 10000 4.1 20 10:25 09.05.2020
3510 Clouds 4 1005 38 10000 5.1 50 09:57 09.05.2020
3511 Clouds 4 1005 38 10000 3.6 30 09:38 09.05.2020
3512 Clouds 4 1005 38 10000 3.6 30 09:19 09.05.2020
3513 Clouds 4 1005 38 10000 4.1 40 08:51 09.05.2020
3514 Clouds 4 1005 44 10000 2.6 20 08:32 09.05.2020
3515 Clouds 3 1005 51 10000 2.1 10 07:50 09.05.2020
3516 Clouds 2 1005 55 10000 2.1 20 07:31 09.05.2020
3517 Clouds 1 1005 59 10000 2.1 40 06:49 09.05.2020
3518 Clouds 1 1005 59 10000 2.6 30 06:24 09.05.2020
3519 Clouds 0 1005 94 10000 2.1 60 05:45 09.05.2020
3520 Clouds -1 1005 63 10000 2.6 60 03:55 09.05.2020
3521 Clouds -1 1005 63 10000 2.6 30 03:36 09.05.2020
3522 Clouds 0 1005 95 10000 2.1 20 02:32 09.05.2020
3523 Clouds 1 1005 55 10000 3.1 340 01:52 09.05.2020
3524 Clouds 0 1005 96 10000 2.1 320 01:24 09.05.2020
3525 Clouds 0 1005 96 10000 2.1 290 00:50 09.05.2020
3526 Clouds 1 1005 55 10000 2.1 280 00:31 09.05.2020
3527 Clouds 1 1005 55 10000 2.1 270 23:49 08.05.2020
3528 Clouds 1 1005 55 10000 2.1 250 23:29 08.05.2020
3529 Clouds 1 1005 59 10000 2.1 230 22:59 08.05.2020
3530 Clouds 2 1005 55 10000 2.1 210 22:40 08.05.2020
3531 Clouds 2 1005 55 10000 2.1 210 22:19 08.05.2020
3532 Clouds 2 1005 55 10000 2.6 230 21:58 08.05.2020
3533 Clouds 3 1005 51 10000 4.1 230 21:39 08.05.2020
3534 Clouds 3 1005 51 10000 4.1 230 21:18 08.05.2020
3535 Clouds 4 1005 44 10000 2.1 190 20:56 08.05.2020
3536 Clouds 4 1005 44 10000 2.6 210 20:38 08.05.2020
3537 Clouds 4 1005 44 10000 2.6 210 20:20 08.05.2020
3538 Clouds 4 1005 41 10000 1.5 300 19:44 08.05.2020
3539 Clouds 4 1005 41 10000 1.5 300 19:23 08.05.2020
3540 Clouds 4 1005 41 10000 0.5 0 18:50 08.05.2020
3541 Clouds 4 1005 41 10000 0.5 0 18:32 08.05.2020
3542 Clouds 4 1005 41 10000 1 0 17:59 08.05.2020
3543 Clouds 4 1005 41 10000 1.5 0 17:40 08.05.2020
3544 Clouds 5 1005 38 10000 2.1 310 17:18 08.05.2020
3545 Clouds 4 1005 41 10000 2.1 270 16:42 08.05.2020
3546 Clouds 4 1005 38 10000 2.6 280 16:24 08.05.2020
3547 Clouds 4 1005 38 10000 2.6 280 15:55 08.05.2020
3548 Clouds 4 1005 38 10000 3.1 290 15:37 08.05.2020
3549 Clouds 4 1005 38 10000 3.1 290 15:18 08.05.2020
3550 Clouds 4 1005 41 10000 3.1 250 14:41 08.05.2020
3551 Clouds 4 1005 41 10000 3.1 250 14:20 08.05.2020
3552 Clouds 4 1005 41 10000 3.1 230 13:58 08.05.2020
3553 Clouds 4 1005 41 10000 3.6 260 13:39 08.05.2020
3554 Clouds 4 1005 41 10000 3.6 260 13:19 08.05.2020
3555 Clouds 4 1005 38 10000 3.6 250 12:45 08.05.2020
3556 Clouds 4 1005 41 10000 3.1 290 12:25 08.05.2020
3557 Clouds 3 1005 40 10000 3.1 270 11:55 08.05.2020
3558 Clouds 4 1005 38 10000 3.6 260 11:37 08.05.2020
3559 Clouds 4 1005 38 10000 3.6 260 11:37 08.05.2020
3560 Clouds 4 1005 38 10000 3.6 260 11:18 08.05.2020
3561 Clouds 3 1005 44 10000 4.6 240 10:45 08.05.2020
3562 Clouds 3 1005 47 10000 4.6 240 10:22 08.05.2020
3563 Clouds 3 1005 47 10000 4.6 270 10:00 08.05.2020
3564 Clouds 2 1005 51 10000 4.6 230 09:40 08.05.2020
3565 Clouds 2 1005 51 10000 4.6 230 09:19 08.05.2020
3566 Clouds 2 1005 51 10000 4.6 230 09:19 08.05.2020
3567 Clouds 2 1005 55 10000 3.1 240 08:50 08.05.2020
3568 Clouds 1 1005 59 10000 2.6 240 08:24 08.05.2020
3569 Clouds 1 1005 59 10000 2.6 270 07:46 08.05.2020
3570 Clouds 0 1005 87 10000 2.1 260 07:26 08.05.2020
3571 Clouds 0 1005 87 10000 2.1 270 06:53 08.05.2020
3572 Clouds 0 1005 95 10000 2.1 270 06:25 08.05.2020
3573 Clouds -1 1005 63 10000 2.1 290 05:59 08.05.2020
3574 Clouds -1 1005 63 10000 2.1 250 04:56 08.05.2020
3575 Clouds -1 1005 63 10000 2.1 310 02:57 08.05.2020
3576 Clouds -1 1005 63 10000 2.6 300 02:22 08.05.2020
3577 Clouds -1 1005 63 10000 2.1 300 01:37 08.05.2020
3578 Clouds -1 1005 63 10000 2.1 300 01:18 08.05.2020
3579 Clouds 0 1005 96 10000 2.1 300 00:45 08.05.2020
3580 Clouds 1 1005 59 10000 2.1 300 00:22 08.05.2020
3581 Clouds 2 1005 55 10000 2.6 300 23:44 07.05.2020
3582 Clouds 2 1005 55 10000 2.6 300 23:23 07.05.2020
3583 Clouds 2 1005 55 10000 2.1 300 22:57 07.05.2020
3584 Clouds 2 1005 55 10000 2.1 280 22:39 07.05.2020
3585 Clouds 2 1005 55 10000 2.1 280 22:20 07.05.2020
3586 Clouds 4 1005 44 10000 2.1 290 21:56 07.05.2020
3587 Clouds 4 1005 44 10000 2.1 290 21:37 07.05.2020
3588 Clouds 4 1005 44 10000 2.1 290 21:19 07.05.2020
3589 Clear 4 1005 44 10000 2.6 300 20:43 07.05.2020
3590 Clouds 4 1005 44 10000 2.6 300 20:23 07.05.2020
3591 Clouds 4 1005 41 10000 2.6 300 19:58 07.05.2020
3592 Clouds 5 1005 35 10000 4.1 280 19:40 07.05.2020
3593 Clouds 5 1005 35 10000 4.1 280 19:21 07.05.2020
3594 Clouds 6 1004 35 10000 2.6 290 18:45 07.05.2020
3595 Clouds 6 1004 35 10000 4.1 300 18:27 07.05.2020
3596 Clouds 6 1004 35 10000 4.6 310 17:57 07.05.2020
3597 Clouds 6 1004 35 10000 4.6 310 17:57 07.05.2020
3598 Clouds 6 1004 38 10000 4.6 310 17:37 07.05.2020
3599 Clouds 6 1004 38 10000 4.6 310 17:18 07.05.2020
3600 Clouds 6 1004 38 10000 4.6 310 16:40 07.05.2020
3601 Clouds 6 1004 38 10000 4.6 310 16:18 07.05.2020
3602 Clouds 6 1004 38 10000 4.6 290 15:56 07.05.2020
3603 Clouds 6 1004 38 10000 5.1 280 15:37 07.05.2020
3604 Clouds 6 1004 38 10000 5.1 280 15:18 07.05.2020
3605 Clouds 6 1003 41 10000 4.1 300 14:44 07.05.2020
3606 Clouds 6 1003 41 10000 4.1 300 14:21 07.05.2020
3607 Clouds 6 1003 41 10000 5.7 330 13:45 07.05.2020
3608 Clouds 6 1003 41 10000 5.1 310 13:26 07.05.2020
3609 Clouds 6 1003 41 10000 5.7 310 12:55 07.05.2020
3610 Clouds 5 1003 44 10000 4.1 310 12:37 07.05.2020
3611 Clouds 5 1003 44 10000 4.1 310 12:18 07.05.2020
3612 Clouds 5 1002 48 10000 6.2 320 11:39 07.05.2020
3613 Clouds 5 1002 48 10000 6.2 320 11:21 07.05.2020
3614 Clouds 5 1002 52 10000 5.1 300 10:44 07.05.2020
3615 Clouds 5 1002 52 10000 5.1 300 10:25 07.05.2020
3616 Clouds 5 1002 52 10000 5.7 290 09:56 07.05.2020
3617 Clouds 5 1001 52 10000 5.1 300 09:38 07.05.2020
3618 Clouds 5 1001 52 10000 5.1 300 09:18 07.05.2020
3619 Clouds 5 1001 52 10000 5.1 300 09:18 07.05.2020
3620 Clouds 4 1001 55 10000 4.6 300 08:42 07.05.2020
3621 Clouds 4 1001 55 10000 4.6 300 08:22 07.05.2020
3622 Clouds 4 1001 60 10000 4.1 300 07:57 07.05.2020
3623 Clouds 4 1001 60 10000 4.1 300 07:57 07.05.2020
3624 Clouds 2 1001 64 10000 2.6 250 07:39 07.05.2020
3625 Clouds 2 1001 64 10000 2.6 250 07:18 07.05.2020
3626 Clouds 0 1001 76 10000 2.6 240 06:37 07.05.2020
3627 Clouds 0 1001 91 10000 2.1 220 05:47 07.05.2020
3628 Clouds 0 1000 97 10000 3.1 240 04:27 07.05.2020
3629 Clouds -1 1000 68 10000 2.6 230 03:29 07.05.2020
3630 Clear 0 1000 98 10000 2.1 240 02:59 07.05.2020
3631 Clear 0 1000 97 10000 2.6 230 02:24 07.05.2020
3632 Clear 1 1000 59 10000 2.6 230 01:25 07.05.2020
3633 Clear 1 1000 59 10000 3.1 230 00:51 07.05.2020
3634 Clear 1 1000 59 10000 2.6 220 00:29 07.05.2020
3635 Clear 2 1000 51 10000 2.6 230 23:57 06.05.2020
3636 Clear 2 1000 55 10000 2.6 230 23:38 06.05.2020
3637 Clear 2 1000 55 10000 2.6 230 23:19 06.05.2020
3638 Clear 3 1000 51 10000 3.6 220 22:54 06.05.2020
3639 Clear 3 1000 51 10000 3.1 220 22:36 06.05.2020
3640 Clear 3 1000 51 10000 3.1 220 22:18 06.05.2020
3641 Clear 5 1000 41 10000 2.1 240 21:42 06.05.2020
3642 Clear 5 1000 41 10000 2.1 240 21:21 06.05.2020
3643 Clear 6 1000 38 10000 3.1 250 20:54 06.05.2020
3644 Clear 6 1000 41 10000 3.6 230 20:36 06.05.2020
3645 Clouds 6 1000 41 10000 3.6 230 20:18 06.05.2020
3646 Clouds 6 1000 41 10000 2.6 280 19:55 06.05.2020
3647 Clouds 6 1000 41 10000 2.6 280 19:55 06.05.2020
3648 Clouds 6 1000 41 10000 2.6 250 19:36 06.05.2020
3649 Clouds 6 1000 41 10000 2.6 250 19:18 06.05.2020
3650 Clouds 6 1000 45 10000 3.1 290 18:54 06.05.2020
3651 Clouds 6 1000 41 10000 2.6 270 18:36 06.05.2020
3652 Clouds 6 1000 41 10000 2.6 270 18:18 06.05.2020
3653 Rain 7 1000 42 10000 4.1 260 17:40 06.05.2020
3654 Rain 7 1000 42 10000 4.1 260 17:22 06.05.2020
3655 Clouds 6 1000 48 10000 5.1 240 16:59 06.05.2020
3656 Clouds 6 1000 48 10000 4.6 240 16:41 06.05.2020
3657 Clouds 6 1000 48 10000 4.6 240 16:22 06.05.2020
3658 Rain 5 1000 65 10000 4.6 220 15:59 06.05.2020
3659 Clouds 5 1000 68 10000 4.6 220 15:41 06.05.2020
3660 Clouds 5 1000 67 10000 4.6 220 15:22 06.05.2020
3661 Rain 4 1000 80 10000 2.1 260 14:56 06.05.2020
3662 Rain 4 1000 80 10000 2.1 260 14:56 06.05.2020
3663 Rain 3 1000 86 10000 5.7 270 14:37 06.05.2020
3664 Clouds 5 1000 60 10000 5.7 230 14:18 06.05.2020
3665 Rain 3 1000 86 10000 5.7 270 14:18 06.05.2020
3666 Clouds 6 1000 56 10000 5.7 210 13:43 06.05.2020
3667 Clouds 6 1000 56 10000 5.7 210 13:24 06.05.2020
3668 Clouds 5 1000 60 10000 5.7 210 12:58 06.05.2020
3669 Clouds 5 1000 60 10000 6.2 210 12:39 06.05.2020
3670 Clouds 5 1000 60 10000 6.2 210 12:21 06.05.2020
3671 Clouds 5 1000 60 10000 5.1 230 11:41 06.05.2020
3672 Clouds 5 1000 60 10000 5.1 230 11:21 06.05.2020
3673 Clouds 4 1000 69 10000 5.7 210 10:58 06.05.2020
3674 Clouds 4 1000 83 10000 4.6 200 10:38 06.05.2020
3675 Clouds 4 1000 87 10000 4.6 200 10:19 06.05.2020
3676 Clouds 3 1001 74 10000 6.7 200 09:44 06.05.2020
3677 Clouds 3 1001 74 10000 6.7 200 09:23 06.05.2020
3678 Clouds 3 1001 74 10000 5.7 210 08:49 06.05.2020
3679 Clouds 3 1001 74 10000 5.1 190 08:24 06.05.2020
3680 Clouds 2 1001 80 10000 4.6 210 07:59 06.05.2020
3681 Rain 3 1002 69 10000 5.1 200 07:39 06.05.2020
3682 Rain 3 1002 69 10000 5.1 200 07:20 06.05.2020
3683 Clouds 2 1002 74 10000 4.1 200 06:53 06.05.2020
3684 Clouds 2 1002 74 10000 4.6 200 06:22 06.05.2020
3685 Clouds 2 1002 74 10000 4.6 200 05:55 06.05.2020
3686 Clouds 2 1003 74 10000 4.6 200 05:37 06.05.2020
3687 Clouds 2 1003 74 10000 4.6 200 05:37 06.05.2020
3688 Clouds 2 1003 69 10000 4.6 200 04:38 06.05.2020
3689 Clouds 2 1004 69 10000 5.1 200 03:40 06.05.2020
3690 Clouds 2 1004 69 10000 5.1 200 03:20 06.05.2020
3691 Clouds 2 1005 69 10000 5.7 200 02:30 06.05.2020
3692 Clouds 2 1005 69 10000 5.1 210 01:54 06.05.2020
3693 Clouds 2 1005 69 10000 5.1 210 01:31 06.05.2020
3694 Clouds 2 1006 69 10000 6.2 190 00:53 06.05.2020
3695 Clouds 2 1006 69 10000 6.2 200 00:26 06.05.2020
3696 Clouds 2 1007 69 10000 5.7 200 23:56 05.05.2020
3697 Clouds 2 1007 69 10000 5.1 210 23:37 05.05.2020
3698 Clouds 2 1007 69 10000 5.1 210 23:18 05.05.2020
3699 Clouds 3 1008 59 10000 5.7 200 22:41 05.05.2020
3700 Clouds 3 1008 59 10000 5.7 200 22:19 05.05.2020
3701 Clouds 3 1008 59 10000 5.7 190 21:56 05.05.2020
3702 Clouds 3 1008 59 10000 6.7 200 21:38 05.05.2020
3703 Clouds 3 1008 59 10000 6.7 200 21:19 05.05.2020
3704 Clouds 4 1009 55 10000 6.7 200 20:56 05.05.2020
3705 Clouds 4 1009 55 10000 6.7 210 20:38 05.05.2020
3706 Clouds 4 1010 55 10000 7.7 200 20:18 05.05.2020
3707 Clouds 4 1010 55 10000 6.7 210 19:42 05.05.2020
3708 Clouds 4 1010 55 10000 6.7 210 19:23 05.05.2020
3709 Clouds 4 1011 55 10000 8.2 200 18:57 05.05.2020
3710 Clouds 5 1011 52 10000 7.2 210 18:39 05.05.2020
3711 Clouds 5 1011 52 10000 7.2 210 18:20 05.05.2020
3712 Clouds 5 1011 52 10000 8.2 210 17:57 05.05.2020
3713 Clouds 5 1011 52 10000 8.2 210 17:57 05.05.2020
3714 Clouds 5 1011 52 10000 8.2 210 17:57 05.05.2020
3715 Clouds 5 1011 52 10000 9.8 210 17:38 05.05.2020
3716 Clouds 5 1011 52 10000 9.8 210 17:20 05.05.2020
3717 Clouds 5 1011 56 10000 8.2 220 16:40 05.05.2020
3718 Clouds 5 1011 56 10000 8.2 220 16:21 05.05.2020
3719 Clouds 6 1011 52 10000 8.7 220 15:59 05.05.2020
3720 Clouds 6 1012 52 10000 8.2 210 15:39 05.05.2020
3721 Clouds 6 1012 52 10000 8.2 210 15:21 05.05.2020
3722 Clouds 6 1012 52 10000 8.2 200 14:55 05.05.2020
3723 Clouds 6 1012 52 10000 8.2 200 14:55 05.05.2020
3724 Clouds 6 1012 52 10000 8.7 200 14:37 05.05.2020
3725 Clouds 6 1012 52 10000 8.7 200 14:19 05.05.2020
3726 Clouds 7 1012 48 10000 8.7 210 13:56 05.05.2020
3727 Clouds 7 1012 48 10000 8.7 210 13:37 05.05.2020
3728 Clouds 7 1012 48 10000 8.7 210 13:18 05.05.2020
3729 Clouds 7 1012 52 10000 7.2 210 12:55 05.05.2020
3730 Clouds 7 1012 52 10000 7.7 210 12:37 05.05.2020
3731 Clouds 6 1012 60 10000 7.7 220 12:19 05.05.2020
3732 Clouds 7 1013 56 10000 7.2 210 11:40 05.05.2020
3733 Clouds 7 1013 56 10000 7.2 210 11:20 05.05.2020
3734 Clouds 6 1013 60 10000 5.7 220 10:55 05.05.2020
3735 Clouds 6 1013 60 10000 6.7 210 10:37 05.05.2020
3736 Clouds 6 1013 60 10000 6.7 210 10:18 05.05.2020
3737 Clouds 5 1013 56 10000 3.1 130 09:44 05.05.2020
3738 Clouds 5 1013 56 10000 3.1 130 09:26 05.05.2020
3739 Clouds 4 1014 55 10000 2.6 110 08:58 05.05.2020
3740 Clouds 3 1014 64 10000 1.5 170 08:39 05.05.2020
3741 Clouds 3 1014 64 10000 1.5 170 08:18 05.05.2020
3742 Clouds 2 1014 74 10000 1.5 190 07:43 05.05.2020
3743 Clouds 2 1014 74 10000 1.5 190 07:21 05.05.2020
3744 Clouds 2 1014 80 10000 1 190 06:57 05.05.2020
3745 Clouds 2 1014 80 10000 2.1 200 06:39 05.05.2020
3746 Clouds 2 1014 69 10000 0.5 0 05:53 05.05.2020
3747 Clouds 2 1014 69 10000 2.1 300 04:59 05.05.2020
3748 Clouds 2 1013 80 10000 2.1 240 02:39 05.05.2020
3749 Clouds 3 1012 74 10000 1.5 300 00:56 05.05.2020
3750 Clouds 3 1012 74 10000 2.1 290 00:33 05.05.2020
3751 Clouds 3 1012 97 10000 1.5 290 23:55 04.05.2020
3752 Clouds 4 1012 97 10000 1.5 250 23:36 04.05.2020
3753 Clouds 4 1012 97 10000 1.5 250 23:18 04.05.2020
3754 Clouds 4 1011 97 10000 2.1 240 22:42 04.05.2020
3755 Clouds 4 1011 96 10000 2.1 240 22:22 04.05.2020
3756 Clouds 4 1011 96 10000 1.5 240 21:57 04.05.2020
3757 Clouds 5 1010 96 10000 1.5 240 21:37 04.05.2020
3758 Clouds 5 1010 96 10000 1.5 240 21:37 04.05.2020
3759 Clouds 5 1010 93 10000 1.5 240 21:19 04.05.2020
3760 Clouds 5 1010 75 10000 1 290 20:41 04.05.2020
3761 Clouds 5 1010 75 10000 1 290 20:41 04.05.2020
3762 Clouds 5 1010 75 10000 1 290 20:41 04.05.2020
3763 Clouds 5 1010 75 10000 1 290 20:41 04.05.2020
3764 Clouds 5 1010 75 10000 1 290 20:41 04.05.2020
3765 Clouds 5 1010 75 10000 1 290 20:20 04.05.2020
3766 Clouds 5 1010 75 10000 1.5 270 19:55 04.05.2020
3767 Clouds 5 1009 75 10000 2.1 280 19:37 04.05.2020
3768 Clouds 5 1009 75 10000 2.1 280 19:18 04.05.2020
3769 Clouds 5 1009 75 10000 2.6 260 18:39 04.05.2020
3770 Clouds 5 1009 75 10000 2.6 260 18:39 04.05.2020
3771 Clouds 5 1009 75 10000 2.6 260 18:20 04.05.2020
3772 Clouds 5 1008 95 10000 4.6 280 17:56 04.05.2020
3773 Clouds 5 1008 75 10000 4.6 270 17:37 04.05.2020
3774 Clouds 5 1008 75 10000 4.6 270 17:19 04.05.2020
3775 Clouds 5 1007 98 10000 5.1 260 16:43 04.05.2020
3776 Clouds 5 1007 95 10000 5.1 260 16:23 04.05.2020
3777 Clouds 5 1007 95 10000 5.7 270 15:58 04.05.2020
3778 Clouds 5 1006 75 10000 5.1 260 15:39 04.05.2020
3779 Clouds 5 1006 75 10000 5.1 260 15:20 04.05.2020
3780 Rain 3 1006 86 10000 4.6 220 14:48 04.05.2020
3781 Rain 3 1006 86 10000 4.6 220 14:48 04.05.2020
3782 Rain 3 1006 86 10000 5.1 220 14:48 04.05.2020
3783 Rain 3 1006 86 10000 4.6 220 14:48 04.05.2020
3784 Rain 3 1006 86 10000 5.1 220 14:20 04.05.2020
3785 Clouds 2 1005 93 10000 4.1 210 13:20 04.05.2020
3786 Clouds 2 1005 93 10000 4.1 210 13:20 04.05.2020
3787 Clouds 2 1005 93 10000 4.1 210 13:20 04.05.2020
3788 Clouds 2 1005 93 10000 4.1 210 13:20 04.05.2020
3789 Clouds 2 1005 93 10000 4.1 230 13:20 04.05.2020
3790 Clouds 2 1005 93 10000 4.1 240 12:43 04.05.2020
3791 Clouds 2 1005 93 10000 4.1 240 12:43 04.05.2020
3792 Clouds 2 1005 93 10000 4.1 240 12:43 04.05.2020
3793 Clouds 2 1005 93 10000 4.1 240 12:43 04.05.2020
3794 Clouds 2 1005 93 10000 4.1 240 12:43 04.05.2020
3795 Clouds 3 1004 93 10000 3.6 220 10:42 04.05.2020
3796 Clouds 3 1004 93 10000 3.6 220 10:42 04.05.2020
3797 Clouds 3 1004 93 10000 3.6 220 10:42 04.05.2020
3798 Clouds 3 1004 93 10000 3.6 220 10:42 04.05.2020
3799 Clouds 3 1004 93 10000 3.6 220 10:42 04.05.2020
3800 Clouds 2 1003 93 10000 3.1 220 09:26 04.05.2020
3801 Clouds 2 1003 93 10000 3.1 220 09:26 04.05.2020
3802 Clouds 2 1003 93 10000 3.1 220 09:26 04.05.2020
3803 Clouds 2 1003 93 10000 3.1 220 09:26 04.05.2020
3804 Clouds 1 1003 100 600 3.1 180 07:53 04.05.2020
3805 Fog 1 1003 100 600 3.1 170 07:33 04.05.2020
3806 Fog 1 1003 100 600 3.1 170 07:33 04.05.2020
3807 Fog 1 1003 100 600 3.1 170 07:33 04.05.2020
3808 Fog 1 1003 100 600 3.1 170 07:33 04.05.2020
3809 Fog 1 1003 100 600 3.1 170 07:33 04.05.2020
3810 Fog 1 1003 100 750 3.1 190 05:24 04.05.2020
3811 Fog 1 1003 100 600 3.1 180 04:48 04.05.2020
3812 Fog 1 1003 100 2400 3.1 240 02:38 04.05.2020
3813 Fog 2 1002 100 400 5.1 230 01:20 04.05.2020
3814 Fog 2 1002 100 350 3.6 230 23:58 03.05.2020
3815 Fog 2 1002 100 400 3.1 240 23:40 03.05.2020
3816 Fog 2 1002 100 400 3.1 240 23:22 03.05.2020
3817 Fog 2 1002 100 1000 2.1 190 22:43 03.05.2020
3818 Fog 2 1002 100 1000 2.1 190 22:43 03.05.2020
3819 Fog 2 1002 100 1000 2.1 190 22:43 03.05.2020
3820 Fog 2 1002 100 1000 2.1 190 22:22 03.05.2020
3821 Fog 3 1002 93 900 1 130 21:42 03.05.2020
3822 Fog 3 1002 93 900 1 130 21:42 03.05.2020
3823 Fog 3 1002 93 900 1 130 21:22 03.05.2020
3824 Rain 3 1002 93 1000 1.5 140 20:54 03.05.2020
3825 Rain 3 1002 93 1000 1.5 140 20:36 03.05.2020
3826 Rain 3 1002 93 1000 1.5 140 20:18 03.05.2020
3827 Clouds 3 1003 93 6000 2.6 120 19:46 03.05.2020
3828 Clouds 3 1003 93 6000 2.6 120 19:46 03.05.2020
3829 Rain 3 1003 93 10000 2.6 120 19:27 03.05.2020
3830 Rain 3 1003 93 10000 2.6 120 19:27 03.05.2020
3831 Drizzle 3 1003 93 10000 2.6 110 18:40 03.05.2020
3832 Drizzle 3 1003 93 10000 2.6 110 18:21 03.05.2020
3833 Clouds 3 1003 86 10000 3.1 90 17:59 03.05.2020
3834 Clouds 4 1003 80 10000 2.6 90 17:40 03.05.2020
3835 Clouds 4 1003 80 10000 2.6 90 17:20 03.05.2020
3836 Clouds 4 1003 80 10000 2.6 90 17:20 03.05.2020
3837 Clouds 4 1003 86 10000 2.1 60 16:44 03.05.2020
3838 Clouds 4 1003 86 10000 2.1 60 16:19 03.05.2020
3839 Clouds 4 1003 86 10000 2.1 70 15:58 03.05.2020
3840 Clouds 3 1003 93 10000 2.1 80 15:39 03.05.2020
3841 Clouds 3 1003 93 10000 2.1 80 15:39 03.05.2020
3842 Clouds 3 1003 93 10000 2.1 80 15:20 03.05.2020
3843 Clouds 3 1003 93 10000 2.6 80 14:57 03.05.2020
3844 Rain 3 1003 93 10000 3.1 80 14:38 03.05.2020
3845 Rain 3 1003 93 10000 3.1 80 14:20 03.05.2020
3846 Rain 3 1003 93 10000 3.6 70 13:41 03.05.2020
3847 Rain 3 1003 93 10000 3.6 70 13:41 03.05.2020
3848 Rain 3 1003 93 10000 3.6 80 12:59 03.05.2020
3849 Rain 3 1003 93 10000 3.6 80 12:59 03.05.2020
3850 Rain 3 1003 93 10000 3.6 80 12:38 03.05.2020
3851 Rain 2 1004 100 10000 3.6 70 11:58 03.05.2020
3852 Rain 2 1004 100 10000 4.1 90 11:40 03.05.2020
3853 Rain 2 1004 100 10000 4.1 80 11:21 03.05.2020
3854 Rain 2 1004 100 10000 4.1 80 10:59 03.05.2020
3855 Rain 2 1004 93 10000 4.1 80 10:35 03.05.2020
3856 Rain 2 1004 93 10000 4.1 80 10:35 03.05.2020
3857 Rain 2 1004 93 10000 4.1 80 10:35 03.05.2020
3858 Rain 2 1004 93 10000 4.1 80 10:35 03.05.2020
3859 Rain 2 1004 93 10000 4.1 80 10:35 03.05.2020
3860 Rain 2 1004 93 10000 3.6 80 09:45 03.05.2020
3861 Rain 2 1004 93 10000 3.6 80 09:26 03.05.2020
3862 Rain 2 1004 93 10000 3.6 80 09:26 03.05.2020
3863 Rain 1 1004 100 10000 3.6 70 08:36 03.05.2020
3864 Rain 1 1004 100 6000 4.1 90 08:00 03.05.2020
3865 Rain 1 1005 100 6000 4.1 90 07:38 03.05.2020
3866 Rain 1 1005 100 6000 4.1 90 07:38 03.05.2020
3867 Rain 1 1005 100 6000 4.1 90 07:38 03.05.2020
3868 Rain 1 1005 94 8000 5.1 90 06:00 03.05.2020
3869 Rain 1 1005 94 8000 5.1 100 05:41 03.05.2020
3870 Rain 1 1005 94 10000 5.1 90 04:29 03.05.2020
3871 Rain 1 1005 94 10000 5.1 90 03:55 03.05.2020
3872 Rain 1 1006 94 10000 4.6 90 02:38 03.05.2020
3873 Rain 1 1006 94 10000 4.6 90 02:19 03.05.2020
3874 Rain 1 1006 94 10000 4.6 90 02:19 03.05.2020
3875 Rain 1 1006 94 10000 4.6 90 01:41 03.05.2020
3876 Rain 1 1006 94 10000 4.6 90 01:22 03.05.2020
3877 Rain 1 1007 100 10000 4.6 90 00:40 03.05.2020
3878 Rain 1 1007 100 10000 4.6 90 00:20 03.05.2020
3879 Rain 1 1007 100 6000 6.2 110 23:49 02.05.2020
3880 Rain 1 1007 100 9000 6.2 110 23:30 02.05.2020
3881 Rain 1 1008 94 7000 5.7 100 22:57 02.05.2020
3882 Rain 1 1008 94 6000 5.7 100 22:39 02.05.2020
3883 Rain 1 1008 94 6000 5.7 100 22:20 02.05.2020
3884 Rain 1 1008 94 7000 5.1 90 21:43 02.05.2020
3885 Rain 1 1008 93 7000 5.1 90 21:20 02.05.2020
3886 Snow 1 1008 93 9000 5.7 90 20:58 02.05.2020
3887 Snow 1 1008 93 10000 5.7 90 20:38 02.05.2020
3888 Snow 1 1008 94 10000 5.7 90 20:20 02.05.2020
3889 Snow 1 1008 94 9000 5.7 90 19:59 02.05.2020
3890 Rain 1 1008 94 3400 5.7 90 19:39 02.05.2020
3891 Rain 1 1008 94 3400 5.7 90 19:20 02.05.2020
3892 Snow 1 1008 94 10000 5.7 90 18:56 02.05.2020
3893 Snow 1 1009 94 9000 5.7 100 18:38 02.05.2020
3894 Snow 1 1009 93 9000 5.7 100 18:19 02.05.2020
3895 Clouds 1 1009 93 6000 5.7 100 17:55 02.05.2020
3896 Snow 1 1009 93 7000 5.7 90 17:37 02.05.2020
3897 Snow 1 1009 93 7000 5.7 90 17:19 02.05.2020
3898 Snow 0 1009 93 1800 5.1 90 16:44 02.05.2020
3899 Snow 0 1009 93 1800 5.1 90 16:25 02.05.2020
3900 Snow 1 1009 93 3500 5.7 100 15:55 02.05.2020
3901 Snow 1 1010 93 8000 5.7 100 15:36 02.05.2020
3902 Snow 1 1010 92 8000 5.7 100 15:18 02.05.2020
3903 Snow 2 1010 92 10000 5.7 100 14:41 02.05.2020
3904 Snow 2 1010 92 10000 5.7 100 14:22 02.05.2020
3905 Rain 1 1010 92 10000 7.2 110 13:55 02.05.2020
3906 Rain 2 1011 92 10000 6.7 120 13:37 02.05.2020
3907 Rain 2 1011 92 10000 6.7 120 13:18 02.05.2020
3908 Rain 2 1011 92 10000 6.7 120 13:18 02.05.2020
3909 Rain 2 1011 80 10000 6.7 130 12:40 02.05.2020
3910 Rain 2 1011 80 10000 6.7 130 12:20 02.05.2020
3911 Rain 3 1011 74 10000 6.2 140 11:55 02.05.2020
3912 Rain 3 1011 69 10000 6.7 130 11:37 02.05.2020
3913 Rain 3 1011 69 10000 6.7 130 11:18 02.05.2020
3914 Clouds 4 1011 60 10000 5.1 140 10:39 02.05.2020
3915 Clouds 4 1011 60 10000 5.1 140 10:21 02.05.2020
3916 Clouds 3 1011 64 10000 4.1 160 09:58 02.05.2020
3917 Snow 3 1011 55 10000 5.1 150 09:39 02.05.2020
3918 Clouds 3 1011 55 10000 5.1 150 09:21 02.05.2020
3919 Clouds 4 1011 51 10000 4.1 140 08:51 02.05.2020
3920 Clouds 3 1011 51 10000 4.1 130 08:31 02.05.2020
3921 Clouds 2 1012 55 10000 4.6 120 07:49 02.05.2020
3922 Clouds 2 1012 55 10000 4.1 120 07:30 02.05.2020
3923 Clouds 1 1012 59 10000 4.1 120 06:53 02.05.2020
3924 Clouds 1 1012 59 10000 3.6 120 06:23 02.05.2020
3925 Clouds 1 1012 55 10000 4.1 120 05:27 02.05.2020
3926 Clouds 1 1012 59 10000 3.6 110 04:26 02.05.2020
3927 Clouds 1 1012 64 10000 3.1 90 03:34 02.05.2020
3928 Clouds 1 1012 59 10000 3.1 100 02:39 02.05.2020
3929 Clouds 1 1012 64 10000 3.1 110 01:51 02.05.2020
3930 Clouds 2 1012 55 10000 1.5 90 00:58 02.05.2020
3931 Clouds 2 1013 55 10000 1.5 130 00:39 02.05.2020
3932 Clouds 2 1013 55 10000 1.5 130 00:18 02.05.2020
3933 Clouds 1 1013 59 10000 1.5 130 00:18 02.05.2020
3934 Clouds 1 1013 64 10000 1 0 23:40 01.05.2020
3935 Clouds 1 1013 64 10000 1 0 23:20 01.05.2020
3936 Clouds 2 1013 55 10000 1 250 22:57 01.05.2020
3937 Clouds 2 1013 59 10000 2.1 220 22:38 01.05.2020
3938 Clouds 2 1013 59 10000 2.1 220 22:18 01.05.2020
3939 Clouds 2 1012 55 10000 3.1 220 21:57 01.05.2020
3940 Clouds 3 1012 51 10000 4.1 210 21:38 01.05.2020
3941 Clouds 3 1012 51 10000 3.1 200 21:18 01.05.2020
3942 Clouds 3 1012 51 10000 4.1 210 21:18 01.05.2020
3943 Clouds 3 1012 51 10000 4.1 210 21:18 01.05.2020
3944 Clouds 3 1012 51 10000 3.1 200 20:56 01.05.2020
3945 Clouds 4 1012 51 10000 4.1 150 20:37 01.05.2020
3946 Clouds 4 1012 51 10000 4.1 150 20:18 01.05.2020
3947 Clouds 4 1012 51 10000 3.1 150 19:42 01.05.2020
3948 Clouds 4 1012 51 10000 3.1 150 19:42 01.05.2020
3949 Clouds 4 1012 51 10000 3.1 150 19:22 01.05.2020
3950 Clouds 3 1012 55 10000 2.6 140 18:58 01.05.2020
3951 Clouds 3 1012 55 10000 5.1 160 18:39 01.05.2020
3952 Clouds 3 1012 55 10000 5.1 160 18:20 01.05.2020
3953 Clouds 4 1012 44 10000 4.1 190 17:56 01.05.2020
3954 Clouds 4 1012 44 10000 2.6 200 17:38 01.05.2020
3955 Clouds 4 1012 44 10000 2.6 200 17:20 01.05.2020
3956 Clouds 4 1012 44 10000 4.6 200 16:55 01.05.2020
3957 Clouds 4 1012 44 10000 3.6 220 16:37 01.05.2020
3958 Snow 4 1012 41 10000 4.1 230 16:18 01.05.2020
3959 Snow 4 1012 38 10000 5.7 210 15:42 01.05.2020
3960 Snow 4 1012 38 10000 5.7 210 15:24 01.05.2020
3961 Snow 4 1012 41 10000 3.6 180 14:58 01.05.2020
3962 Snow 5 1012 35 10000 3.1 210 14:39 01.05.2020
3963 Snow 5 1012 35 10000 3.1 210 14:39 01.05.2020
3964 Snow 5 1012 35 10000 3.1 210 14:20 01.05.2020
3965 Snow 4 1013 38 10000 3.6 230 13:40 01.05.2020
3966 Clear 4 1013 38 10000 3.6 230 13:22 01.05.2020
3967 Clear 3 1013 40 10000 4.1 200 12:57 01.05.2020
3968 Clear 4 1013 38 10000 4.1 200 12:39 01.05.2020
3969 Clear 4 1013 38 10000 4.1 200 12:19 01.05.2020
3970 Clear 3 1013 44 10000 4.1 210 11:56 01.05.2020
3971 Clear 3 1013 44 10000 3.6 190 11:38 01.05.2020
3972 Clear 3 1013 44 10000 3.6 190 11:18 01.05.2020
3973 Clear 2 1013 51 10000 3.6 190 10:40 01.05.2020
3974 Clear 2 1013 51 10000 3.1 180 10:20 01.05.2020
3975 Clear 2 1013 51 10000 1.5 0 09:45 01.05.2020
3976 Clear 2 1013 51 10000 1.5 0 09:21 01.05.2020
3977 Clear 1 1013 55 10000 2.1 130 08:59 01.05.2020
3978 Clear 0 1014 79 10000 2.6 100 08:41 01.05.2020
3979 Clear 0 1014 85 10000 2.6 100 08:22 01.05.2020
3980 Clear -1 1014 63 10000 2.1 150 07:46 01.05.2020
3981 Clear -1 1014 63 10000 2.1 150 07:23 01.05.2020
3982 Clear -2 1014 68 10000 2.6 140 06:51 01.05.2020
3983 Clear -4 1014 79 10000 2.6 130 05:36 01.05.2020
3984 Clear -4 1014 79 10000 3.1 120 04:47 01.05.2020
3985 Clear -3 1014 73 10000 3.1 130 03:25 01.05.2020
3986 Clear -3 1014 73 10000 2.6 150 02:45 01.05.2020
3987 Clouds -3 1014 73 10000 1.5 150 02:24 01.05.2020
3988 Clouds -2 1014 68 10000 3.1 170 01:28 01.05.2020
3989 Clouds -2 1014 68 10000 3.1 160 00:59 01.05.2020
3990 Clouds -2 1014 68 10000 3.1 150 00:37 01.05.2020
3991 Clouds -2 1014 68 10000 3.1 150 00:18 01.05.2020
3992 Clouds -2 1014 68 10000 3.6 150 23:55 30.04.2020
3993 Clouds -2 1014 68 10000 3.1 130 23:37 30.04.2020
3994 Clouds -2 1014 68 10000 3.1 130 23:18 30.04.2020
3995 Clouds -1 1014 63 10000 2.1 120 22:41 30.04.2020
3996 Clouds -1 1014 63 10000 2.1 120 22:20 30.04.2020
3997 Clouds -1 1014 63 10000 3.1 120 21:55 30.04.2020
3998 Clouds 0 1013 96 10000 2.6 110 21:37 30.04.2020
3999 Clouds 0 1013 96 10000 2.6 110 21:18 30.04.2020
4000 Clouds 1 1013 59 10000 3.1 70 20:42 30.04.2020
4001 Clouds 1 1013 64 10000 2.6 30 20:19 30.04.2020
4002 Clouds 1 1013 64 10000 2.6 30 19:58 30.04.2020
4003 Clouds 1 1013 64 10000 3.1 60 19:39 30.04.2020
4004 Snow 1 1013 64 10000 3.1 60 19:20 30.04.2020
4005 Clouds 0 1013 85 10000 3.1 40 18:55 30.04.2020
4006 Snow 2 1013 47 10000 2.6 170 18:36 30.04.2020
4007 Clouds 2 1014 47 10000 1.5 210 18:18 30.04.2020
4008 Clouds 2 1014 51 10000 3.1 180 17:41 30.04.2020
4009 Clouds 2 1014 51 10000 3.1 180 17:22 30.04.2020
4010 Clouds 2 1014 47 10000 3.6 210 16:59 30.04.2020
4011 Clouds 2 1014 47 10000 2.6 220 16:40 30.04.2020
4012 Clouds 2 1014 47 10000 2.6 220 16:20 30.04.2020
4013 Snow 3 1014 44 10000 1 0 15:57 30.04.2020
4014 Snow 2 1014 47 10000 1.5 0 15:39 30.04.2020
4015 Snow 2 1014 47 10000 1.5 0 15:21 30.04.2020
4016 Rain 1 1014 55 10000 3.1 160 14:41 30.04.2020
4017 Rain 1 1014 55 10000 3.1 160 14:20 30.04.2020
4018 Rain 1 1014 55 10000 3.1 160 14:20 30.04.2020
4019 Rain 1 1014 55 10000 3.6 140 13:57 30.04.2020
4020 Clouds 1 1014 50 10000 2.6 170 13:39 30.04.2020
4021 Clouds 1 1014 47 10000 3.1 180 13:20 30.04.2020
4022 Clouds 2 1015 43 10000 2.1 180 12:42 30.04.2020
4023 Clouds 1 1015 59 10000 3.6 160 12:21 30.04.2020
4024 -273 0 0 0 0 0 11:59 30.04.2020
4025 Clouds 1 1015 50 10000 2.6 190 11:38 30.04.2020
4026 Snow 1 1015 43 10000 2.1 200 11:18 30.04.2020
4027 Clouds 1 1015 50 10000 2.6 190 11:18 30.04.2020
4028 Snow 1 1015 43 10000 2.1 200 10:54 30.04.2020
4029 Snow 1 1015 43 10000 2.1 200 10:54 30.04.2020
4030 Clouds 1 1015 50 10000 1.5 240 10:36 30.04.2020
4031 Clouds 1 1015 50 10000 1.5 240 10:18 30.04.2020
4032 Clouds 0 1015 80 10000 1.5 210 09:41 30.04.2020
4033 Clouds 0 1015 88 10000 1.5 210 09:22 30.04.2020
4034 Clouds 0 1015 88 10000 2.1 210 08:49 30.04.2020
4035 Clouds -1 1015 68 10000 2.6 220 08:27 30.04.2020
4036 Clouds -1 1015 68 10000 0.5 0 07:58 30.04.2020
4037 Clouds -1 1015 68 10000 0.5 0 07:58 30.04.2020
4038 Clouds -3 1015 73 10000 1.5 50 07:40 30.04.2020
4039 Clouds -3 1015 73 10000 1.5 50 07:21 30.04.2020
4040 Clouds -4 1015 79 10000 1.5 60 06:38 30.04.2020
4041 Clouds -3 1015 73 10000 2.6 70 05:49 30.04.2020
4042 Clouds -4 1015 79 10000 2.1 70 05:26 30.04.2020
4043 Clouds -4 1015 79 10000 2.1 80 04:25 30.04.2020
4044 Clouds -3 1015 73 10000 2.6 80 02:56 30.04.2020
4045 Clouds -3 1015 73 10000 2.6 80 02:28 30.04.2020
4046 Clouds -3 1015 79 10000 2.6 60 01:38 30.04.2020
4047 Clouds -3 1015 79 10000 2.1 50 00:54 30.04.2020
4048 Clouds -2 1015 74 10000 2.6 60 00:25 30.04.2020
4049 Clouds -2 1015 74 10000 3.1 60 23:59 29.04.2020
4050 Clouds -2 1015 74 10000 3.1 60 23:59 29.04.2020
4051 Clouds -2 1015 74 10000 3.1 60 23:59 29.04.2020
4052 Clouds -2 1015 74 10000 3.1 60 23:59 29.04.2020
4053 Clouds -2 1015 74 10000 2.6 60 23:41 29.04.2020
4054 Clouds -2 1015 74 10000 2.6 60 23:23 29.04.2020
4055 Clouds -1 1014 68 10000 2.1 70 22:58 29.04.2020
4056 Clouds -2 1014 68 10000 3.1 40 22:39 29.04.2020
4057 Clouds -2 1014 68 10000 3.1 40 22:19 29.04.2020
4058 Clouds -1 1014 68 10000 2.1 50 21:38 29.04.2020
4059 Clouds -1 1014 68 10000 2.1 50 21:20 29.04.2020
4060 Clouds -1 1014 68 10000 2.6 40 20:58 29.04.2020
4061 Clouds 0 1014 96 10000 3.1 40 20:39 29.04.2020
4062 Clouds 1 1014 55 10000 2.6 70 20:19 29.04.2020
4063 Clouds 1 1014 55 10000 2.6 70 19:54 29.04.2020
4064 Clouds 1 1014 59 10000 4.6 60 19:36 29.04.2020
4065 Clouds 1 1014 59 10000 4.6 60 19:18 29.04.2020
4066 Clouds 1 1014 59 10000 5.1 70 18:41 29.04.2020
4067 Clouds 1 1014 59 10000 5.1 70 18:20 29.04.2020
4068 Clouds 1 1013 50 10000 2.6 50 17:55 29.04.2020
4069 Clouds 1 1013 50 10000 2.6 50 17:55 29.04.2020
4070 Clouds 2 1013 47 10000 3.1 60 17:37 29.04.2020
4071 Clouds 2 1013 47 10000 3.1 60 17:18 29.04.2020
4072 Clouds 1 1013 55 10000 6.7 50 16:37 29.04.2020
4073 Snow 2 1013 43 10000 3.1 90 16:18 29.04.2020
4074 Snow 2 1013 43 10000 3.1 90 15:56 29.04.2020
4075 Clouds 1 1013 50 10000 5.1 60 15:38 29.04.2020
4076 Clouds 1 1013 50 10000 5.1 60 15:19 29.04.2020
4077 Snow 1 1013 50 10000 4.1 60 14:45 29.04.2020
4078 Snow 1 1013 50 10000 4.1 60 14:26 29.04.2020
4079 Rain 1 1013 55 10000 3.1 80 13:58 29.04.2020
4080 Rain 0 1013 77 10000 5.7 40 13:39 29.04.2020
4081 Rain 0 1013 79 10000 5.7 40 13:19 29.04.2020
4082 Rain 0 1013 79 10000 3.6 40 12:55 29.04.2020
4083 Rain 1 1013 59 10000 3.6 70 12:37 29.04.2020
4084 Rain 1 1013 59 10000 3.6 70 12:37 29.04.2020
4085 Rain 0 1013 81 10000 2.6 20 12:18 29.04.2020
4086 Snow 1 1013 59 10000 4.6 60 11:39 29.04.2020
4087 Snow 1 1013 59 10000 4.6 60 11:20 29.04.2020
4088 Snow 1 1013 59 10000 4.6 60 11:20 29.04.2020
4089 Snow 1 1013 59 10000 4.6 60 11:20 29.04.2020
4090 Snow 0 1013 85 10000 1 0 10:54 29.04.2020
4091 Snow 0 1013 85 10000 4.1 70 10:36 29.04.2020
4092 Clouds 0 1013 88 10000 4.6 60 10:18 29.04.2020
4093 Clouds 0 1013 88 10000 3.1 70 09:41 29.04.2020
4094 Clouds 0 1013 88 10000 3.1 70 09:41 29.04.2020
4095 Clouds 0 1013 92 10000 3.1 70 09:21 29.04.2020
4096 Clouds -1 1013 80 10000 3.6 70 08:44 29.04.2020
4097 Clouds -1 1013 80 10000 3.6 70 08:26 29.04.2020
4098 Clouds -2 1013 79 10000 3.6 70 07:55 29.04.2020
4099 Snow -2 1013 79 10000 3.6 60 07:29 29.04.2020
4100 Snow -3 1012 86 10000 4.1 60 06:53 29.04.2020
4101 Snow -3 1012 86 10000 4.1 60 06:32 29.04.2020
4102 Snow -3 1012 86 10000 3.1 60 05:53 29.04.2020
4103 Clouds -3 1012 86 10000 3.1 60 05:19 29.04.2020
4104 Snow -3 1012 86 10000 3.6 60 04:20 29.04.2020
4105 Snow -3 1012 79 10000 4.1 60 03:53 29.04.2020
4106 Clouds -3 1011 79 10000 4.1 40 01:59 29.04.2020
4107 Clouds -4 1011 79 10000 3.6 40 01:29 29.04.2020
4108 Clouds -4 1011 79 10000 4.1 30 00:59 29.04.2020
4109 Clouds -2 1011 68 10000 4.1 40 00:37 29.04.2020
4110 Clouds -2 1011 68 10000 4.1 40 00:18 29.04.2020
4111 Clouds -2 1011 63 10000 4.1 20 23:43 28.04.2020
4112 Clouds -2 1011 63 10000 4.1 20 23:21 28.04.2020
4113 Clouds -2 1011 63 10000 3.6 30 22:40 28.04.2020
4114 Clouds -2 1011 63 10000 3.6 30 22:22 28.04.2020
4115 Clouds -1 1011 63 10000 4.1 30 21:59 28.04.2020
4116 Clouds -1 1011 58 10000 3.6 40 21:40 28.04.2020
4117 Clouds -1 1011 58 10000 3.6 40 21:22 28.04.2020
4118 Clouds 0 1011 96 10000 2.6 10 20:59 28.04.2020
4119 Clouds 0 1010 96 10000 4.1 20 20:40 28.04.2020
4120 Clouds 0 1010 96 10000 4.1 20 20:40 28.04.2020
4121 Clouds 0 1010 96 10000 4.1 20 20:40 28.04.2020
4122 Clouds 0 1010 93 10000 4.1 20 20:20 28.04.2020
4123 Clouds 0 1010 93 10000 4.6 40 19:56 28.04.2020
4124 Clouds 1 1010 47 10000 5.1 40 19:38 28.04.2020
4125 Clouds 1 1010 47 10000 4.6 40 19:19 28.04.2020
4126 Clouds 1 1010 47 10000 4.6 40 18:55 28.04.2020
4127 Clouds 1 1010 47 10000 3.6 60 18:37 28.04.2020
4128 Clouds 1 1010 50 10000 6.2 30 18:18 28.04.2020
4129 Clouds 2 1010 43 10000 2.6 50 17:37 28.04.2020
4130 Clouds 2 1010 43 10000 2.6 50 17:19 28.04.2020
4131 Clouds 2 1010 43 10000 2.6 50 17:19 28.04.2020
4132 Snow 1 1010 47 10000 6.2 40 16:57 28.04.2020
4133 Clouds 1 1010 50 10000 4.6 40 16:38 28.04.2020
4134 Clouds 1 1010 50 10000 4.6 40 16:20 28.04.2020
4135 Clouds 1 1010 47 10000 5.7 50 15:55 28.04.2020
4136 Clouds 1 1010 50 10000 7.2 40 15:37 28.04.2020
4137 Clouds 1 1010 50 10000 7.2 40 15:18 28.04.2020
4138 Clouds 1 1010 55 10000 5.7 50 14:43 28.04.2020
4139 Clouds 1 1010 55 10000 5.7 50 14:22 28.04.2020
4140 Clouds 1 1010 50 10000 6.2 50 13:59 28.04.2020
4141 Clouds 0 1011 74 10000 6.7 40 13:40 28.04.2020
4142 Clouds 0 1011 77 10000 6.7 40 13:21 28.04.2020
4143 Clouds 1 1011 50 10000 6.7 80 12:58 28.04.2020
4144 Clouds 1 1011 50 10000 6.7 80 12:58 28.04.2020
4145 Clouds 0 1011 77 10000 6.7 60 12:38 28.04.2020
4146 Clouds 0 1011 81 10000 6.7 60 12:20 28.04.2020
4147 Clouds 0 1011 81 10000 6.7 60 11:42 28.04.2020
4148 Clouds 0 1011 84 10000 6.7 60 11:21 28.04.2020
4149 Clouds 0 1011 84 10000 6.7 60 11:21 28.04.2020
4150 Clouds 0 1011 84 10000 6.7 30 10:57 28.04.2020
4151 Clouds -1 1011 68 10000 6.7 40 10:38 28.04.2020
4152 Clouds -1 1011 68 10000 6.7 40 10:18 28.04.2020
4153 Clouds -1 1011 68 10000 6.7 40 10:18 28.04.2020
4154 Clouds -2 1011 74 10000 6.7 40 09:43 28.04.2020
4155 Clouds -2 1011 74 10000 6.7 40 09:24 28.04.2020
4156 Clouds -2 1011 74 10000 6.2 30 08:54 28.04.2020
4157 Clouds -1 1011 68 10000 4.6 30 08:36 28.04.2020
4158 Clouds -1 1011 68 10000 4.6 30 08:18 28.04.2020
4159 Clouds -2 1011 74 10000 4.1 30 07:41 28.04.2020
4160 Clouds -2 1011 74 10000 4.1 30 07:18 28.04.2020
4161 Clouds -3 1011 79 10000 4.6 30 06:39 28.04.2020
4162 Clouds -4 1011 85 10000 4.1 30 05:48 28.04.2020
4163 Clouds -4 1011 85 10000 5.1 30 05:30 28.04.2020
4164 Clouds -3 1011 79 10000 4.6 30 04:33 28.04.2020
4165 Clouds -2 1011 74 10000 4.1 30 02:38 28.04.2020
4166 Snow -2 1012 74 10000 5.1 30 01:27 28.04.2020
4167 Snow -2 1011 68 10000 5.1 30 00:59 28.04.2020
4168 Snow -1 1011 68 10000 4.6 30 00:29 28.04.2020
4169 Clouds -1 1011 68 10000 5.1 30 23:49 27.04.2020
4170 Clouds -1 1011 68 10000 4.1 10 23:26 27.04.2020
4171 Clouds -1 1012 74 10000 3.1 360 22:58 27.04.2020
4172 Clouds -1 1011 80 10000 3.1 350 22:40 27.04.2020
4173 Clouds -1 1011 80 10000 3.1 350 22:22 27.04.2020
4174 Clouds -1 1012 80 10000 3.1 350 21:56 27.04.2020
4175 Clouds -1 1011 80 10000 2.6 360 21:38 27.04.2020
4176 Clouds -1 1011 80 10000 2.6 360 21:18 27.04.2020
4177 Clouds -1 1011 80 10000 2.6 350 20:55 27.04.2020
4178 Clouds 0 1011 96 10000 4.6 20 20:37 27.04.2020
4179 Clouds 0 1011 92 10000 4.6 20 20:18 27.04.2020
4180 Clouds 0 1011 92 10000 5.1 10 19:40 27.04.2020
4181 Clouds 0 1011 86 10000 5.1 10 19:21 27.04.2020
4182 Clouds 1 1011 74 10000 3.6 350 18:59 27.04.2020
4183 Clouds 1 1011 74 10000 3.6 350 18:59 27.04.2020
4184 Clouds 1 1011 69 10000 5.1 340 18:40 27.04.2020
4185 Clouds 1 1011 69 10000 5.1 340 18:19 27.04.2020
4186 Clouds 1 1011 64 10000 3.6 350 17:57 27.04.2020
4187 Clouds 1 1010 64 10000 3.1 350 17:38 27.04.2020
4188 Clouds 1 1011 64 10000 4.1 10 17:18 27.04.2020
4189 Clouds 1 1011 59 10000 4.1 360 16:40 27.04.2020
4190 Clouds 1 1011 59 10000 4.1 360 16:22 27.04.2020
4191 Clouds 1 1011 64 10000 4.6 30 15:57 27.04.2020
4192 Clouds 1 1011 64 10000 4.6 20 15:38 27.04.2020
4193 Clouds 1 1011 64 10000 4.6 20 15:19 27.04.2020
4194 Snow 0 1011 77 10000 4.6 20 14:56 27.04.2020
4195 Snow 1 1011 64 9000 4.6 360 14:38 27.04.2020
4196 Clouds 1 1011 59 10000 4.1 10 14:18 27.04.2020
4197 Clouds 1 1011 55 10000 4.1 10 13:42 27.04.2020
4198 Clouds 1 1011 55 10000 4.1 10 13:21 27.04.2020
4199 Clouds 1 1011 59 10000 4.1 360 12:57 27.04.2020
4200 Clouds 1 1010 59 10000 5.7 10 12:39 27.04.2020
4201 Clouds 1 1010 59 10000 5.7 10 12:20 27.04.2020
4202 Clouds 0 1010 81 10000 4.6 10 11:41 27.04.2020
4203 Clouds 0 1010 81 10000 4.6 10 11:21 27.04.2020
4204 Clouds 1 1010 59 10000 4.6 360 10:57 27.04.2020
4205 Clouds 0 1010 81 10000 4.1 360 10:39 27.04.2020
4206 Clouds -1 1010 80 10000 4.1 340 10:20 27.04.2020
4207 Clouds 0 1010 81 10000 4.1 340 09:44 27.04.2020
4208 Clouds 0 1010 90 10000 4.1 340 09:19 27.04.2020
4209 Snow -2 1010 79 10000 3.6 330 08:58 27.04.2020
4210 Clouds -2 1010 79 10000 3.6 340 08:38 27.04.2020
4211 Clouds -2 1010 79 10000 3.6 340 08:19 27.04.2020
4212 Clouds -2 1009 74 10000 3.1 340 07:44 27.04.2020
4213 Clouds -2 1009 74 10000 3.1 340 07:20 27.04.2020
4214 Clouds -3 1009 79 10000 3.1 340 06:47 27.04.2020
4215 Clear -3 1009 79 10000 3.1 340 06:25 27.04.2020
4216 Clear -3 1009 79 10000 3.1 340 05:50 27.04.2020
4217 Clear -4 1008 79 10000 3.1 340 04:41 27.04.2020
4218 Clear -3 1008 79 10000 3.6 350 03:49 27.04.2020
4219 Clouds -3 1008 79 10000 4.6 340 02:48 27.04.2020
4220 Clouds -2 1007 79 10000 3.6 340 01:35 27.04.2020
4221 Clouds -2 1007 79 10000 3.1 350 00:57 27.04.2020
4222 Clouds -2 1006 79 10000 2.6 350 00:20 27.04.2020
4223 Clouds -2 1006 79 10000 3.1 350 23:56 26.04.2020
4224 Clouds -1 1006 74 10000 3.1 350 23:37 26.04.2020
4225 Clouds -1 1006 74 10000 3.1 350 23:19 26.04.2020
4226 Clouds -1 1006 74 10000 5.1 360 22:58 26.04.2020
4227 Clouds 0 1005 96 10000 4.6 340 22:39 26.04.2020
4228 Clouds 0 1005 96 10000 4.6 340 22:39 26.04.2020
4229 Clouds 0 1005 96 10000 4.6 340 22:19 26.04.2020
4230 Clouds 0 1005 96 10000 3.1 350 21:57 26.04.2020
4231 Clouds 1 1005 59 10000 2.6 340 21:37 26.04.2020
4232 Snow 1 1004 64 10000 3.1 340 21:18 26.04.2020
4233 Snow 1 1004 64 10000 3.1 340 21:18 26.04.2020
4234 Snow 1 1004 64 10000 4.1 350 20:40 26.04.2020
4235 Snow 1 1004 64 10000 4.1 350 20:21 26.04.2020
4236 Rain 1 1004 64 10000 4.6 340 19:59 26.04.2020
4237 Snow 1 1003 64 10000 3.6 360 19:38 26.04.2020
4238 Snow 1 1003 64 10000 3.6 360 19:20 26.04.2020
4239 Clouds 2 1003 51 10000 5.7 360 18:45 26.04.2020
4240 Clouds 2 1003 51 10000 5.7 360 18:25 26.04.2020
4241 Clouds 2 1002 55 10000 5.1 350 17:58 26.04.2020
4242 Clouds 3 1002 47 10000 4.6 360 17:39 26.04.2020
4243 Clouds 3 1002 47 10000 4.6 360 17:21 26.04.2020
4244 Clouds 3 1002 47 10000 6.2 360 16:42 26.04.2020
4245 Clouds 3 1002 47 10000 6.2 360 16:24 26.04.2020
4246 Clouds 3 1001 47 10000 6.7 360 15:59 26.04.2020
4247 Clouds 3 1001 47 10000 6.7 360 15:59 26.04.2020
4248 Clouds 2 1001 55 10000 7.7 360 15:41 26.04.2020
4249 Clouds 2 1001 55 10000 7.7 340 15:22 26.04.2020
4250 Clouds 2 1001 55 10000 7.7 340 14:57 26.04.2020
4251 Clouds 2 1001 51 10000 6.2 350 14:38 26.04.2020
4252 Clouds 3 1001 47 10000 6.2 360 14:18 26.04.2020
4253 Clouds 3 1001 47 10000 6.2 360 13:56 26.04.2020
4254 Clouds 2 1000 55 10000 5.7 340 13:38 26.04.2020
4255 Clouds 2 1000 55 10000 5.7 340 13:19 26.04.2020
4256 Clouds 2 1000 51 10000 5.7 360 12:41 26.04.2020
4257 Clouds 2 1000 51 10000 5.7 360 12:41 26.04.2020
4258 Clouds 2 1000 51 10000 5.7 360 12:22 26.04.2020
4259 Clouds 1 1000 59 10000 6.2 10 11:59 26.04.2020
4260 Snow 1 999 64 10000 6.2 10 11:40 26.04.2020
4261 Snow 1 999 64 10000 6.2 10 11:22 26.04.2020
4262 Clouds 1 999 55 10000 6.2 350 10:56 26.04.2020
4263 Clouds 1 999 55 10000 6.2 350 10:56 26.04.2020
4264 Clouds 1 999 55 10000 6.2 350 10:38 26.04.2020
4265 Clouds 1 999 55 10000 6.2 350 10:20 26.04.2020
4266 Clouds 0 998 80 10000 4.6 350 09:40 26.04.2020
4267 Clouds 0 998 85 10000 4.6 350 09:22 26.04.2020
4268 Clouds 0 998 85 10000 5.7 340 08:58 26.04.2020
4269 Clouds 0 998 85 10000 5.7 340 08:40 26.04.2020
4270 Clouds 0 998 85 10000 5.7 340 08:20 26.04.2020
4271 Clouds 0 997 85 10000 5.1 330 07:46 26.04.2020
4272 Clouds -1 997 80 10000 5.1 330 07:21 26.04.2020
4273 Clouds -1 997 80 10000 4.6 330 06:44 26.04.2020
4274 Clouds -1 997 80 10000 4.1 320 05:58 26.04.2020
4275 Clouds -1 997 74 10000 4.6 320 05:39 26.04.2020
4276 Clouds -1 996 74 10000 3.6 320 04:58 26.04.2020
4277 Clear -1 996 74 10000 4.6 340 04:22 26.04.2020
4278 Clouds -1 996 74 10000 4.1 340 02:51 26.04.2020
4279 Clouds -1 996 74 10000 4.6 330 02:31 26.04.2020
4280 Clouds -1 996 80 10000 4.1 340 01:46 26.04.2020
4281 Clouds -1 996 80 10000 5.1 330 01:26 26.04.2020
4282 Clouds -1 995 80 10000 5.1 330 00:39 26.04.2020
4283 Clouds -1 995 80 10000 5.1 330 00:19 26.04.2020
4284 Clouds -1 995 80 10000 4.1 320 23:39 25.04.2020
4285 Clouds -1 995 80 10000 4.1 320 23:20 25.04.2020
4286 Clouds 0 995 93 10000 5.7 320 22:58 25.04.2020
4287 Clouds -1 995 80 10000 4.6 320 22:39 25.04.2020
4288 Clouds -1 995 80 10000 4.6 320 22:19 25.04.2020
4289 Clouds 0 995 93 10000 6.2 330 21:40 25.04.2020
4290 Clouds 0 994 90 10000 7.7 320 21:21 25.04.2020
4291 Clouds 0 994 90 10000 7.7 320 20:58 25.04.2020
4292 Clouds 1 994 69 10000 6.2 320 20:40 25.04.2020
4293 Clouds 1 994 69 10000 6.2 320 20:22 25.04.2020
4294 Clouds 1 994 69 10000 6.7 320 19:55 25.04.2020
4295 Clouds 1 994 69 10000 6.7 320 19:55 25.04.2020
4296 Clouds 1 994 69 10000 7.2 320 19:37 25.04.2020
4297 Clouds 1 994 69 10000 7.2 320 19:18 25.04.2020
4298 Clouds 1 994 74 10000 7.2 320 18:39 25.04.2020
4299 Clouds 1 994 74 10000 7.2 320 18:21 25.04.2020
4300 Clouds 1 994 74 10000 7.2 320 17:58 25.04.2020
4301 Rain 1 994 80 10000 7.2 320 17:38 25.04.2020
4302 Rain 1 994 80 10000 7.2 320 17:19 25.04.2020
4303 Rain 1 994 80 10000 7.2 320 16:56 25.04.2020
4304 Snow 1 994 80 10000 7.2 330 16:37 25.04.2020
4305 Snow 1 994 80 10000 7.2 330 16:19 25.04.2020
4306 Clouds 0 994 76 2800 6.2 330 15:41 25.04.2020
4307 Clouds 0 994 76 2800 6.2 330 15:41 25.04.2020
4308 Clouds 0 994 77 2800 6.2 330 15:20 25.04.2020
4309 Clouds 0 994 77 2800 6.2 330 15:20 25.04.2020
4310 Snow 1 993 74 10000 7.7 320 14:58 25.04.2020
4311 Snow 1 993 80 5000 7.2 320 14:39 25.04.2020
4312 Snow 1 993 80 5000 7.2 320 14:20 25.04.2020
4313 Snow 0 993 79 6000 5.1 320 13:43 25.04.2020
4314 Snow 0 993 79 6000 5.1 320 13:22 25.04.2020
4315 Snow 0 993 79 3400 5.7 320 12:58 25.04.2020
4316 Snow 0 993 79 2100 6.7 300 12:40 25.04.2020
4317 Snow 0 993 83 2100 6.7 300 12:21 25.04.2020
4318 Snow 1 993 69 10000 6.7 300 11:58 25.04.2020
4319 Snow 0 993 83 10000 7.2 310 11:39 25.04.2020
4320 Snow 0 993 83 10000 7.2 310 11:21 25.04.2020
4321 Snow 0 993 83 5000 5.7 300 10:44 25.04.2020
4322 Snow 0 993 83 5000 5.7 300 10:24 25.04.2020
4323 Snow 0 993 83 10000 6.7 310 09:50 25.04.2020
4324 Clouds 0 993 83 10000 6.7 300 09:30 25.04.2020
4325 Clouds 0 993 86 10000 7.7 310 08:59 25.04.2020
4326 Clouds 0 994 86 10000 7.2 310 08:40 25.04.2020
4327 Clouds 0 994 84 10000 7.2 310 08:21 25.04.2020
4328 Clouds -1 994 58 10000 7.2 310 07:58 25.04.2020
4329 Clouds -2 994 63 10000 5.7 300 07:39 25.04.2020
4330 Clouds -2 994 63 10000 5.1 300 06:48 25.04.2020
4331 Clouds -2 995 63 10000 5.7 300 06:30 25.04.2020
4332 Clouds -2 995 63 10000 4.6 300 05:40 25.04.2020
4333 Clouds -2 995 63 10000 4.6 300 05:19 25.04.2020
4334 Clouds -2 997 68 10000 5.1 300 02:59 25.04.2020
4335 Clouds -2 998 68 10000 5.1 290 02:21 25.04.2020
4336 Clouds -2 998 63 10000 5.1 290 01:53 25.04.2020
4337 Clouds -2 998 63 10000 5.1 300 01:34 25.04.2020
4338 Clouds -2 998 63 10000 5.1 300 01:34 25.04.2020
4339 Clouds -2 999 63 10000 5.7 310 00:56 25.04.2020
4340 Clouds -1 999 63 10000 4.6 310 00:32 25.04.2020
4341 Clouds -1 999 63 10000 5.7 320 23:45 24.04.2020
4342 Clouds -1 999 63 10000 5.7 320 23:24 24.04.2020
4343 Clouds 0 1000 94 10000 5.7 320 22:59 24.04.2020
4344 Clouds 0 1000 94 10000 5.1 320 22:39 24.04.2020
4345 Clouds 0 1000 94 10000 5.1 320 22:19 24.04.2020
4346 Snow -1 1000 74 10000 3.6 320 21:55 24.04.2020
4347 Snow -1 1000 74 10000 5.1 320 21:37 24.04.2020
4348 Snow -1 1000 74 10000 5.1 320 21:19 24.04.2020
4349 Snow -1 1001 68 10000 5.7 330 20:55 24.04.2020
4350 Clouds 0 1001 93 10000 6.2 320 20:37 24.04.2020
4351 Clouds 0 1001 93 10000 5.7 330 20:18 24.04.2020
4352 Clouds 0 1001 93 10000 7.7 320 19:40 24.04.2020
4353 Clouds 0 1001 93 10000 7.7 320 19:21 24.04.2020
4354 Clouds 0 1002 93 10000 6.2 320 18:45 24.04.2020
4355 Clouds 0 1002 80 10000 6.2 320 18:26 24.04.2020
4356 Clouds 1 1002 59 10000 6.7 330 17:57 24.04.2020
4357 Clouds 0 1002 80 10000 6.7 330 17:37 24.04.2020
4358 Clouds 0 1002 80 10000 6.7 330 17:19 24.04.2020
4359 Snow 0 1002 80 10000 6.2 330 16:57 24.04.2020
4360 Clouds 1 1002 55 10000 7.7 330 16:39 24.04.2020
4361 Clouds 1 1002 55 10000 7.7 330 16:20 24.04.2020
4362 Clouds 0 1003 80 10000 7.2 320 15:42 24.04.2020
4363 Clouds 0 1003 78 10000 7.2 320 15:21 24.04.2020
4364 Snow 0 1003 78 10000 6.7 330 14:41 24.04.2020
4365 Snow 0 1003 78 10000 6.7 330 14:23 24.04.2020
4366 Snow 0 1003 80 10000 6.7 330 14:23 24.04.2020
4367 Snow 0 1003 80 10000 6.2 320 13:59 24.04.2020
4368 Snow 0 1003 80 10000 6.7 340 13:41 24.04.2020
4369 Snow 0 1003 80 10000 6.7 340 13:21 24.04.2020
4370 Snow 0 1003 80 10000 6.7 340 13:21 24.04.2020
4371 Snow 0 1003 80 10000 6.7 340 13:21 24.04.2020
4372 Snow -1 1003 50 10000 6.7 330 12:58 24.04.2020
4373 Clouds -1 1003 50 10000 7.2 340 12:40 24.04.2020
4374 Clouds -1 1003 50 10000 7.2 340 12:19 24.04.2020
4375 Clouds -1 1003 50 10000 6.2 330 11:43 24.04.2020
4376 Clouds -1 1003 50 10000 6.2 330 11:22 24.04.2020
4377 Clouds -2 1003 54 10000 6.7 330 10:57 24.04.2020
4378 Clouds -2 1004 54 10000 6.7 330 10:38 24.04.2020
4379 Clouds -2 1004 54 10000 6.7 330 10:20 24.04.2020
4380 Clouds -2 1004 54 10000 6.2 330 09:55 24.04.2020
4381 Clouds -3 1004 58 10000 6.2 330 09:36 24.04.2020
4382 Clouds -3 1004 58 10000 6.2 330 09:18 24.04.2020
4383 Clouds -3 1004 58 10000 5.1 330 08:42 24.04.2020
4384 Clouds -3 1004 58 10000 5.1 330 08:19 24.04.2020
4385 Clouds -4 1005 58 10000 4.1 330 07:47 24.04.2020
4386 Clouds -4 1005 58 10000 3.6 340 07:27 24.04.2020
4387 Clouds -4 1005 62 10000 3.6 340 06:59 24.04.2020
4388 Clouds -5 1005 67 10000 3.1 340 06:41 24.04.2020
4389 Clear -5 1005 67 10000 3.1 350 05:50 24.04.2020
4390 Clouds -5 1005 73 10000 3.6 10 04:48 24.04.2020
4391 Clouds -3 1005 68 10000 3.1 360 03:28 24.04.2020
4392 Clouds -3 1005 79 10000 3.6 360 02:47 24.04.2020
4393 Clouds -3 1005 79 10000 3.6 360 02:20 24.04.2020
4394 Clouds -1 1005 74 10000 3.1 350 01:37 24.04.2020
4395 Clouds -1 1006 86 10000 2.6 340 00:43 24.04.2020
4396 Snow 0 1006 98 10000 2.6 340 00:18 24.04.2020
4397 Snow 0 1006 98 10000 2.6 330 23:45 23.04.2020
4398 Snow 0 1006 98 10000 2.6 330 23:26 23.04.2020
4399 Snow 0 1006 98 10000 3.1 340 22:55 23.04.2020
4400 Clouds 0 1006 98 10000 2.6 320 22:37 23.04.2020
4401 Clouds 0 1006 98 10000 2.6 320 22:19 23.04.2020
4402 Clouds 0 1007 98 10000 2.6 310 21:56 23.04.2020
4403 Clouds 0 1007 98 10000 2.6 310 21:56 23.04.2020
4404 Snow 1 1007 80 10000 2.1 310 21:38 23.04.2020
4405 Snow 1 1007 86 10000 1.5 310 21:20 23.04.2020
4406 Snow 1 1007 86 10000 1.5 310 20:54 23.04.2020
4407 Clouds 1 1008 86 10000 2.6 280 20:36 23.04.2020
4408 Clouds 1 1008 86 10000 2.6 280 20:18 23.04.2020
4409 Clouds 2 1008 80 10000 2.6 290 19:41 23.04.2020
4410 Clouds 2 1008 80 10000 2.6 290 19:22 23.04.2020
4411 Clouds 2 1009 74 10000 3.6 290 18:57 23.04.2020
4412 Clouds 3 1009 69 10000 3.6 280 18:39 23.04.2020
4413 Clouds 3 1009 69 10000 3.6 280 18:21 23.04.2020
4414 Rain 3 1010 69 10000 3.1 280 17:55 23.04.2020
4415 Clouds 2 1010 74 10000 4.1 280 17:37 23.04.2020
4416 Clouds 2 1010 74 10000 4.1 280 17:19 23.04.2020
4417 Clouds 2 1011 74 10000 5.1 250 16:43 23.04.2020
4418 Clouds 2 1011 74 10000 5.1 250 16:20 23.04.2020
4419 Clouds 3 1012 59 10000 3.1 290 15:43 23.04.2020
4420 Clouds 3 1012 59 10000 3.1 290 15:43 23.04.2020
4421 Clouds 3 1012 59 10000 3.1 290 15:23 23.04.2020
4422 Clouds 4 1012 51 10000 3.6 320 14:59 23.04.2020
4423 Clouds 3 1013 55 10000 3.1 300 14:39 23.04.2020
4424 Clouds 3 1013 55 10000 3.1 300 14:21 23.04.2020
4425 Clouds 3 1013 51 10000 4.1 280 13:57 23.04.2020
4426 Clouds 3 1014 47 10000 4.1 300 13:38 23.04.2020
4427 Clouds 3 1014 47 10000 4.1 300 13:19 23.04.2020
4428 Clouds 3 1014 51 10000 5.7 260 12:55 23.04.2020
4429 Clouds 3 1014 47 10000 4.1 300 12:37 23.04.2020
4430 Clouds 3 1014 47 10000 4.1 300 12:18 23.04.2020
4431 Clouds 2 1015 55 10000 3.6 280 11:43 23.04.2020
4432 Clouds 2 1015 55 10000 3.6 280 11:25 23.04.2020
4433 Clouds 2 1015 55 10000 3.6 270 10:56 23.04.2020
4434 Clouds 2 1016 55 10000 3.1 310 10:38 23.04.2020
4435 Clouds 2 1016 55 10000 3.1 310 10:19 23.04.2020
4436 Clouds 1 1017 59 10000 2.6 290 09:37 23.04.2020
4437 Clouds 1 1017 59 10000 2.6 290 09:18 23.04.2020
4438 Clouds 1 1017 64 10000 2.1 310 08:46 23.04.2020
4439 Clouds 1 1017 64 10000 2.1 310 08:27 23.04.2020
4440 Clouds -1 1018 68 10000 2.6 340 07:43 23.04.2020
4441 Clouds -1 1018 68 10000 2.6 340 07:24 23.04.2020
4442 Clouds -2 1018 74 10000 3.1 330 06:49 23.04.2020
4443 Clear -2 1018 68 10000 3.6 320 06:27 23.04.2020
4444 Clear -3 1018 73 10000 3.6 330 05:31 23.04.2020
4445 Clear -3 1019 73 10000 3.6 320 04:53 23.04.2020
4446 Clear -2 1020 68 10000 2.1 300 02:25 23.04.2020
4447 Clear -1 1020 63 10000 2.6 320 01:49 23.04.2020
4448 Clear -1 1020 63 10000 3.1 320 01:28 23.04.2020
4449 Clear 0 1020 96 10000 2.6 330 00:47 23.04.2020
4450 Clear 0 1020 95 10000 2.6 320 00:22 23.04.2020
4451 Clear 0 1020 95 10000 2.6 320 23:49 22.04.2020
4452 Clear 0 1021 95 10000 3.6 340 23:23 22.04.2020
4453 Clear 0 1021 95 10000 3.1 340 22:56 22.04.2020
4454 Clear 1 1021 55 10000 3.1 340 22:37 22.04.2020
4455 Clear 1 1021 55 10000 3.1 340 22:19 22.04.2020
4456 Clear 2 1021 51 10000 3.6 350 21:55 22.04.2020
4457 Clear 2 1022 51 10000 2.6 340 21:37 22.04.2020
4458 Clear 2 1022 51 10000 2.6 340 21:18 22.04.2020
4459 Clear 3 1022 44 10000 4.1 350 20:43 22.04.2020
4460 Clear 3 1022 44 10000 4.1 350 20:19 22.04.2020
4461 Clear 3 1022 47 10000 4.6 360 19:58 22.04.2020
4462 Clear 4 1022 41 10000 4.6 360 19:38 22.04.2020
4463 Clear 4 1022 38 10000 4.6 360 19:19 22.04.2020
4464 Clear 4 1022 38 10000 4.6 360 18:58 22.04.2020
4465 Clear 5 1022 32 10000 4.6 360 18:40 22.04.2020
4466 Clear 5 1022 32 10000 4.6 360 18:22 22.04.2020
4467 Clear 6 1023 24 10000 5.1 350 17:55 22.04.2020
4468 Clear 6 1023 24 10000 5.1 350 17:37 22.04.2020
4469 Clear 6 1023 20 10000 4.6 340 17:18 22.04.2020
4470 Clear 6 1023 22 10000 5.7 350 16:42 22.04.2020
4471 Clear 6 1023 22 10000 5.7 350 16:22 22.04.2020
4472 Clear 6 1023 24 10000 4.1 330 15:43 22.04.2020
4473 Clouds 6 1023 24 10000 4.1 330 15:24 22.04.2020
4474 Clouds 6 1024 24 10000 4.1 290 14:59 22.04.2020
4475 Clouds 6 1024 24 10000 4.1 290 14:59 22.04.2020
4476 Clouds 6 1024 26 10000 2.6 310 14:38 22.04.2020
4477 Clouds 6 1024 26 10000 2.6 310 14:20 22.04.2020
4478 Clouds 6 1024 33 10000 3.1 320 13:56 22.04.2020
4479 Clouds 5 1025 35 10000 3.6 340 13:37 22.04.2020
4480 Clouds 5 1025 35 10000 3.1 290 13:19 22.04.2020
4481 Clouds 5 1025 32 10000 3.1 310 12:40 22.04.2020
4482 Clouds 5 1025 32 10000 3.1 310 12:22 22.04.2020
4483 Clouds 5 1026 30 10000 3.1 310 11:41 22.04.2020
4484 Clouds 5 1026 30 10000 3.1 310 11:22 22.04.2020
4485 Clouds 4 1026 35 10000 3.1 310 10:59 22.04.2020
4486 Clouds 3 1027 44 10000 2.1 320 10:40 22.04.2020
4487 Clouds 3 1027 44 10000 2.1 320 10:20 22.04.2020
4488 Clouds 2 1027 47 10000 2.1 300 09:39 22.04.2020
4489 Clouds 2 1027 47 10000 2.1 300 09:21 22.04.2020
4490 Clouds 0 1028 86 10000 2.6 260 08:58 22.04.2020
4491 Clouds 0 1028 86 10000 2.1 270 08:40 22.04.2020
4492 Clouds 0 1028 86 10000 2.1 270 08:21 22.04.2020
4493 Clouds -1 1028 54 10000 2.1 270 07:53 22.04.2020
4494 Clouds -2 1029 63 10000 2.1 250 07:28 22.04.2020
4495 Clouds -2 1029 63 10000 3.1 250 06:53 22.04.2020
4496 Clouds -2 1029 58 10000 3.1 250 06:18 22.04.2020
4497 Clouds -1 1029 50 10000 2.1 260 05:37 22.04.2020
4498 Clouds -2 1030 54 10000 3.6 300 04:20 22.04.2020
4499 Clear 0 1030 96 10000 3.1 320 02:50 22.04.2020
4500 Clear -1 1031 42 10000 3.1 310 01:52 22.04.2020
4501 Clear -1 1031 46 10000 3.1 310 01:25 22.04.2020
4502 Clear -1 1031 46 10000 2.6 300 00:47 22.04.2020
4503 Clear 0 1031 93 10000 2.1 280 00:22 22.04.2020
4504 Clear 0 1031 93 10000 2.6 320 23:59 21.04.2020
4505 Clear 0 1031 93 10000 2.6 310 23:40 21.04.2020
4506 Clear 0 1031 93 10000 1.5 310 23:18 21.04.2020
4507 Clear 1 1031 43 10000 2.6 340 22:40 21.04.2020
4508 Clear 1 1031 43 10000 2.6 340 22:21 21.04.2020
4509 Clear 2 1031 43 10000 2.6 340 21:59 21.04.2020
4510 Clear 2 1031 47 10000 2.1 330 21:40 21.04.2020
4511 Clouds 2 1031 47 10000 2.1 330 21:22 21.04.2020
4512 Clouds 3 1031 44 10000 1.5 320 20:55 21.04.2020
4513 Clouds 3 1031 47 10000 2.1 360 20:36 21.04.2020
4514 Clouds 3 1031 47 10000 2.1 360 20:18 21.04.2020
4515 Clouds 4 1031 44 10000 4.1 360 19:40 21.04.2020
4516 Clouds 4 1030 44 10000 5.7 360 19:19 21.04.2020
4517 Clouds 4 1030 44 10000 5.7 360 18:56 21.04.2020
4518 Clouds 5 1030 38 10000 5.7 350 18:38 21.04.2020
4519 Clouds 5 1030 38 10000 5.7 350 18:18 21.04.2020
4520 Clouds 6 1029 28 10000 6.2 350 17:41 21.04.2020
4521 Clouds 6 1029 28 10000 6.2 350 17:22 21.04.2020
4522 Clouds 6 1029 30 10000 6.7 350 16:59 21.04.2020
4523 Clouds 6 1029 30 10000 7.7 360 16:38 21.04.2020
4524 Clouds 6 1029 30 10000 7.7 360 16:38 21.04.2020
4525 Clouds 6 1029 30 10000 7.7 360 16:19 21.04.2020
4526 Clouds 6 1029 33 10000 7.7 350 15:56 21.04.2020
4527 Clouds 7 1029 36 10000 6.7 350 15:38 21.04.2020
4528 Clouds 7 1029 36 10000 6.7 350 15:19 21.04.2020
4529 Clouds 6 1028 48 10000 5.1 340 14:45 21.04.2020
4530 Clouds 6 1028 48 10000 5.1 340 14:25 21.04.2020
4531 Clouds 6 1028 60 10000 5.7 340 13:59 21.04.2020
4532 Clouds 6 1027 70 10000 4.1 330 13:38 21.04.2020
4533 Clouds 6 1027 70 10000 4.1 330 13:19 21.04.2020
4534 Clouds 7 1027 63 10000 5.1 330 12:40 21.04.2020
4535 Clouds 7 1027 69 10000 5.1 330 12:20 21.04.2020
4536 Clouds 6 1026 69 10000 3.6 300 11:58 21.04.2020
4537 Clouds 5 1026 75 10000 4.1 270 11:39 21.04.2020
4538 Clouds 4 1026 80 10000 2.6 260 11:20 21.04.2020
4539 -273 0 0 0 0 0 10:59 21.04.2020
4540 Clouds 4 1026 80 10000 3.1 250 10:40 21.04.2020
4541 Clouds 4 1026 80 10000 3.1 250 10:22 21.04.2020
4542 Rain 4 1026 80 10000 4.6 300 09:59 21.04.2020
4543 Rain 4 1026 69 10000 2.6 300 09:37 21.04.2020
4544 Rain 4 1026 69 10000 2.6 300 09:18 21.04.2020
4545 Rain 4 1026 64 10000 3.1 270 08:46 21.04.2020
4546 Rain 4 1026 60 10000 3.6 290 08:27 21.04.2020
4547 Clouds 4 1026 55 10000 3.6 280 07:55 21.04.2020
4548 Clouds 3 1026 59 10000 3.1 260 07:36 21.04.2020
4549 Clouds 3 1026 59 10000 3.1 260 07:18 21.04.2020
4550 Clouds 2 1026 69 10000 3.1 240 06:42 21.04.2020
4551 Clouds 2 1026 69 10000 2.6 240 05:51 21.04.2020
4552 Clouds 2 1026 69 10000 2.1 240 05:32 21.04.2020
4553 Clouds 2 1026 64 10000 2.1 220 03:47 21.04.2020
4554 Clouds 3 1027 59 10000 2.1 280 02:47 21.04.2020
4555 Clouds 3 1026 55 10000 3.6 310 01:32 21.04.2020
4556 Clouds 2 1027 59 10000 2.6 300 00:39 21.04.2020
4557 Clouds 2 1027 59 10000 2.6 300 00:19 21.04.2020
4558 Clouds 2 1026 55 10000 3.1 310 23:43 20.04.2020
4559 Clouds 2 1026 55 10000 3.1 310 23:21 20.04.2020
4560 Clouds 3 1026 51 10000 2.6 320 22:56 20.04.2020
4561 Clouds 4 1026 48 10000 3.1 320 22:36 20.04.2020
4562 Clouds 4 1026 48 10000 2.6 330 22:18 20.04.2020
4563 Clouds 4 1026 48 10000 2.6 330 21:54 20.04.2020
4564 Clouds 4 1026 48 10000 2.6 310 21:36 20.04.2020
4565 Clouds 5 1026 41 10000 2.1 330 21:18 20.04.2020
4566 Clouds 6 1025 38 10000 3.1 320 20:42 20.04.2020
4567 Clouds 6 1025 38 10000 3.1 320 20:20 20.04.2020
4568 Clouds 6 1025 38 10000 2.6 330 19:59 20.04.2020
4569 Clouds 6 1025 35 10000 3.6 340 19:41 20.04.2020
4570 Clouds 6 1025 35 10000 3.6 340 19:22 20.04.2020
4571 Clouds 6 1025 35 10000 4.6 330 18:56 20.04.2020
4572 Clouds 7 1024 33 10000 4.6 330 18:38 20.04.2020
4573 Clouds 7 1024 33 10000 4.6 330 18:38 20.04.2020
4574 Clouds 7 1024 33 10000 4.6 330 18:19 20.04.2020
4575 Clouds 7 1024 36 10000 5.7 310 17:44 20.04.2020
4576 Clouds 7 1024 36 10000 5.7 310 17:23 20.04.2020
4577 Clouds 7 1024 33 10000 6.2 320 16:59 20.04.2020
4578 Clouds 7 1024 33 10000 6.2 320 16:59 20.04.2020
4579 Clouds 8 1023 33 10000 5.7 320 16:41 20.04.2020
4580 Clouds 8 1023 33 10000 5.7 320 16:20 20.04.2020
4581 Clouds 8 1023 39 10000 5.7 310 15:55 20.04.2020
4582 Clouds 8 1023 42 10000 5.1 320 15:37 20.04.2020
4583 Clouds 8 1023 42 10000 5.1 320 15:19 20.04.2020
4584 Clouds 8 1022 42 10000 4.6 340 14:41 20.04.2020
4585 Clouds 8 1022 42 10000 4.6 340 14:19 20.04.2020
4586 Clouds 8 1022 36 10000 5.1 350 13:58 20.04.2020
4587 Clouds 8 1022 49 10000 4.6 330 13:38 20.04.2020
4588 Clouds 8 1022 49 10000 4.6 330 13:20 20.04.2020
4589 Clouds 7 1021 56 10000 5.1 340 12:44 20.04.2020
4590 Clouds 7 1021 56 10000 5.1 340 12:22 20.04.2020
4591 Clouds 7 1021 89 10000 4.1 340 11:54 20.04.2020
4592 Clouds 7 1021 89 10000 5.1 330 11:36 20.04.2020
4593 Clouds 6 1021 89 10000 5.7 330 11:18 20.04.2020
4594 Clouds 6 1021 89 10000 5.7 330 10:54 20.04.2020
4595 Clouds 6 1020 89 10000 4.6 320 10:36 20.04.2020
4596 Clouds 5 1020 89 10000 3.6 330 10:18 20.04.2020
4597 Clouds 3 1020 84 10000 4.1 310 09:40 20.04.2020
4598 Clouds 3 1020 93 10000 4.1 310 09:21 20.04.2020
4599 Clouds 3 1020 86 10000 3.6 320 08:43 20.04.2020
4600 Clouds 3 1020 86 10000 3.6 320 08:23 20.04.2020
4601 Clouds 3 1020 93 10000 4.6 320 07:59 20.04.2020
4602 Clouds 3 1020 93 10000 5.1 320 07:40 20.04.2020
4603 Clouds 3 1020 93 10000 5.1 320 07:19 20.04.2020
4604 Clouds 3 1020 74 10000 4.1 320 06:37 20.04.2020
4605 Clouds 3 1019 74 10000 4.1 320 05:58 20.04.2020
4606 Clouds 3 1019 94 10000 3.6 310 04:49 20.04.2020
4607 Rain 4 1019 92 10000 2.1 310 02:49 20.04.2020
4608 Clouds 4 1019 92 10000 2.1 300 02:27 20.04.2020
4609 Clouds 5 1019 92 10000 2.6 300 01:29 20.04.2020
4610 Clouds 5 1019 92 10000 3.1 320 00:45 20.04.2020
4611 Clouds 5 1019 92 10000 3.1 320 00:21 20.04.2020
4612 Clouds 4 1019 80 10000 2.6 320 23:40 19.04.2020
4613 Clouds 4 1019 80 10000 2.6 320 23:21 19.04.2020
4614 Clouds 4 1019 80 10000 1.5 300 22:56 19.04.2020
4615 Clouds 4 1019 80 10000 2.1 290 22:37 19.04.2020
4616 Clouds 4 1019 80 10000 2.1 290 22:19 19.04.2020
4617 Clouds 4 1018 80 10000 1.5 320 21:42 19.04.2020
4618 Clouds 4 1018 80 10000 1.5 320 21:23 19.04.2020
4619 Clouds 5 1018 75 10000 2.6 320 20:58 19.04.2020
4620 Rain 5 1018 80 10000 3.1 330 20:39 19.04.2020
4621 Rain 5 1018 80 10000 3.1 330 20:20 19.04.2020
4622 Rain 5 1018 75 10000 3.1 320 19:56 19.04.2020
4623 Clouds 5 1018 92 10000 4.1 320 19:38 19.04.2020
4624 Clouds 5 1018 92 10000 4.1 320 19:19 19.04.2020
4625 Clouds 6 1018 92 10000 4.1 320 18:55 19.04.2020
4626 Clouds 6 1018 92 10000 3.6 320 18:36 19.04.2020
4627 Clouds 6 1018 95 10000 3.6 320 18:18 19.04.2020
4628 Clouds 6 1018 60 10000 4.6 340 17:54 19.04.2020
4629 Clouds 6 1017 60 10000 5.7 330 17:36 19.04.2020
4630 Clouds 6 1017 60 10000 5.7 330 17:36 19.04.2020
4631 Clouds 6 1017 60 10000 5.7 330 17:18 19.04.2020
4632 Rain 6 1017 95 10000 4.6 340 16:39 19.04.2020
4633 Rain 6 1017 95 10000 4.6 340 16:21 19.04.2020
4634 Clouds 6 1017 60 10000 3.6 330 15:57 19.04.2020
4635 Clouds 6 1017 60 10000 4.6 320 15:39 19.04.2020
4636 Clouds 6 1017 60 10000 3.1 310 15:18 19.04.2020
4637 Clouds 5 1018 92 10000 3.6 310 14:39 19.04.2020
4638 Clouds 5 1018 92 10000 3.6 310 14:20 19.04.2020
4639 Clouds 5 1017 92 10000 4.6 300 13:56 19.04.2020
4640 Clouds 5 1017 92 10000 4.6 310 13:36 19.04.2020
4641 Clouds 5 1017 92 10000 4.6 310 13:18 19.04.2020
4642 Clouds 4 1017 69 10000 3.6 310 12:43 19.04.2020
4643 Clouds 4 1017 69 10000 3.6 310 12:24 19.04.2020
4644 Clouds 4 1017 69 10000 1.5 0 11:39 19.04.2020
4645 Clouds 4 1017 69 10000 1.5 0 11:20 19.04.2020
4646 Clouds 3 1017 69 10000 2.1 280 10:59 19.04.2020
4647 Clouds 3 1017 69 10000 2.6 290 10:41 19.04.2020
4648 Clouds 3 1017 69 10000 2.6 290 10:20 19.04.2020
4649 Clouds 3 1017 64 10000 2.1 270 09:55 19.04.2020
4650 Clouds 2 1017 69 10000 2.6 270 09:36 19.04.2020
4651 Clouds 2 1017 69 10000 2.6 270 09:18 19.04.2020
4652 Clouds 0 1017 88 10000 2.1 260 08:39 19.04.2020
4653 Clouds 0 1017 88 10000 2.1 260 08:20 19.04.2020
4654 Clouds 0 1017 88 10000 2.1 330 07:45 19.04.2020
4655 Clouds 0 1017 90 10000 2.1 330 07:25 19.04.2020
4656 Clouds -1 1017 80 10000 3.6 330 06:37 19.04.2020
4657 Clouds -1 1017 80 10000 3.1 340 06:18 19.04.2020
4658 Clouds -1 1017 80 10000 3.6 330 04:56 19.04.2020
4659 Clouds -1 1017 80 10000 3.1 330 03:21 19.04.2020
4660 Clouds 0 1017 96 10000 3.6 340 02:22 19.04.2020
4661 Clouds 0 1016 96 10000 2.6 330 01:39 19.04.2020
4662 Clouds 0 1016 96 10000 2.6 330 01:18 19.04.2020
4663 Clouds 1 1016 80 10000 3.1 330 00:38 19.04.2020
4664 Clouds 1 1016 80 10000 3.1 330 00:19 19.04.2020
4665 Clouds 1 1016 80 10000 3.6 340 23:39 18.04.2020
4666 Clouds 1 1016 80 10000 3.6 340 23:39 18.04.2020
4667 Clouds 1 1016 80 10000 3.6 340 23:19 18.04.2020
4668 Clouds 1 1016 80 10000 3.6 350 22:42 18.04.2020
4669 Clouds 1 1016 80 10000 3.6 350 22:22 18.04.2020
4670 Clouds 1 1015 80 10000 3.6 350 21:58 18.04.2020
4671 Clouds 1 1015 80 10000 3.1 360 21:38 18.04.2020
4672 Clouds 1 1015 80 10000 3.1 360 21:20 18.04.2020
4673 Clouds 2 1015 74 10000 4.6 350 20:42 18.04.2020
4674 Clouds 2 1015 74 10000 4.6 350 20:23 18.04.2020
4675 Clouds 2 1014 74 10000 4.1 350 19:59 18.04.2020
4676 Clouds 2 1014 74 10000 5.1 350 19:39 18.04.2020
4677 Clouds 2 1014 74 10000 5.1 350 19:21 18.04.2020
4678 Clouds 2 1013 80 10000 4.6 10 18:39 18.04.2020
4679 Clouds 2 1013 80 10000 4.6 10 18:20 18.04.2020
4680 Clouds 1 1013 86 10000 4.1 30 17:55 18.04.2020
4681 Clouds 1 1013 86 10000 4.6 30 17:36 18.04.2020
4682 Clouds 2 1012 74 10000 4.6 20 17:18 18.04.2020
4683 Clouds 3 1012 64 10000 5.7 360 16:42 18.04.2020
4684 Clouds 3 1012 64 10000 5.7 360 16:22 18.04.2020
4685 Clouds 2 1011 69 10000 6.7 350 15:40 18.04.2020
4686 Clouds 2 1011 69 10000 6.7 350 15:40 18.04.2020
4687 Clouds 2 1011 69 10000 6.7 350 15:22 18.04.2020
4688 Clouds 2 1010 69 10000 7.7 350 14:54 18.04.2020
4689 Clouds 2 1010 69 10000 6.2 350 14:36 18.04.2020
4690 Clouds 2 1010 69 10000 6.2 350 14:18 18.04.2020
4691 Clouds 2 1009 64 10000 7.7 340 13:42 18.04.2020
4692 Clouds 2 1009 64 10000 7.7 340 13:20 18.04.2020
4693 Clouds 2 1008 64 10000 8.7 340 12:43 18.04.2020
4694 Clouds 2 1008 64 10000 8.7 340 12:24 18.04.2020
4695 Clouds 2 1008 64 10000 8.2 340 11:57 18.04.2020
4696 Clouds 2 1007 64 10000 7.2 330 11:39 18.04.2020
4697 Clouds 2 1007 64 10000 7.2 330 11:20 18.04.2020
4698 Rain 1 1007 69 10000 8.7 330 10:42 18.04.2020
4699 Rain 1 1007 69 10000 8.7 330 10:22 18.04.2020
4700 Snow 1 1006 69 10000 8.7 330 09:59 18.04.2020
4701 Snow 0 1006 83 10000 7.7 330 09:39 18.04.2020
4702 Snow 0 1006 84 10000 7.7 330 09:20 18.04.2020
4703 Clouds 1 1006 69 10000 8.7 330 08:42 18.04.2020
4704 Clouds 1 1006 69 10000 8.7 330 08:21 18.04.2020
4705 Clouds 0 1006 84 10000 7.2 320 07:47 18.04.2020
4706 Clouds 0 1006 84 10000 7.2 320 07:28 18.04.2020
4707 Clouds 0 1005 84 10000 7.7 320 06:42 18.04.2020
4708 Snow 0 1005 89 10000 7.2 320 05:49 18.04.2020
4709 Clouds 0 1005 89 10000 6.7 320 04:55 18.04.2020
4710 Snow 1 1005 69 10000 7.2 320 04:31 18.04.2020
4711 Snow 1 1005 74 10000 7.7 330 03:33 18.04.2020
4712 Rain 1 1005 74 10000 8.7 330 02:40 18.04.2020
4713 Rain 1 1005 74 10000 8.7 330 02:21 18.04.2020
4714 Snow 1 1005 80 10000 8.7 330 01:40 18.04.2020
4715 Snow 1 1005 74 10000 7.2 330 00:59 18.04.2020
4716 Snow 1 1004 80 10000 6.7 330 00:24 18.04.2020
4717 Rain 1 1004 80 10000 6.2 330 23:58 17.04.2020
4718 Snow 1 1004 86 10000 5.7 330 23:40 17.04.2020
4719 Snow 1 1004 86 10000 5.7 330 23:19 17.04.2020
4720 Snow 1 1004 86 10000 6.2 330 22:58 17.04.2020
4721 Snow 1 1004 86 10000 6.2 330 22:58 17.04.2020
4722 Snow 0 1004 87 6000 6.2 330 22:40 17.04.2020
4723 Snow 0 1004 87 6000 6.2 330 22:19 17.04.2020
4724 Rain 1 1004 86 10000 6.2 330 21:56 17.04.2020
4725 Snow 1 1004 86 10000 7.2 330 21:37 17.04.2020
4726 Snow 1 1004 86 10000 7.2 330 21:18 17.04.2020
4727 Snow 0 1004 90 6000 7.2 330 20:54 17.04.2020
4728 Snow 1 1004 86 6000 6.7 330 20:36 17.04.2020
4729 Snow 1 1004 86 6000 6.7 330 20:36 17.04.2020
4730 Snow 1 1003 86 5000 7.2 330 20:18 17.04.2020
4731 Drizzle 1 1003 86 10000 8.2 330 19:42 17.04.2020
4732 Drizzle 1 1003 86 10000 8.2 330 19:23 17.04.2020
4733 Rain 1 1003 90 8000 7.7 330 18:45 17.04.2020
4734 Rain 1 1003 90 8000 7.7 330 18:24 17.04.2020
4735 Rain 1 1002 90 10000 7.7 330 17:57 17.04.2020
4736 Rain 1 1002 90 10000 7.7 330 17:37 17.04.2020
4737 Rain 1 1002 90 10000 7.7 330 17:18 17.04.2020
4738 Rain 1 1002 90 10000 7.7 330 17:18 17.04.2020
4739 Rain 1 1001 90 10000 7.7 330 16:43 17.04.2020
4740 Rain 1 1001 90 10000 7.7 330 16:23 17.04.2020
4741 Rain 1 1000 90 10000 7.7 330 15:44 17.04.2020
4742 Rain 1 1000 88 10000 7.7 330 15:24 17.04.2020
4743 Rain 1 1000 88 6000 7.2 330 14:58 17.04.2020
4744 Snow 1 999 88 8000 8.2 340 14:39 17.04.2020
4745 Snow 1 999 86 8000 8.2 340 14:21 17.04.2020
4746 Snow 1 999 86 5000 8.2 330 13:56 17.04.2020
4747 Snow 2 999 80 10000 7.7 330 13:36 17.04.2020
4748 Snow 2 999 80 10000 7.7 330 13:18 17.04.2020
4749 Snow 1 998 86 5000 7.2 330 12:44 17.04.2020
4750 Snow 1 998 86 5000 7.2 330 12:23 17.04.2020
4751 Snow 1 997 80 3000 9.3 330 11:42 17.04.2020
4752 Snow 1 997 80 4000 8.2 330 11:19 17.04.2020
4753 Snow 1 997 80 4000 8.2 330 10:56 17.04.2020
4754 Snow 1 997 80 4000 8.2 330 10:56 17.04.2020
4755 Snow 1 996 80 5000 7.7 330 10:38 17.04.2020
4756 Snow 1 996 74 7000 8.7 330 10:18 17.04.2020
4757 Snow 1 996 74 10000 8.2 330 09:41 17.04.2020
4758 Snow 1 996 74 10000 8.2 330 09:20 17.04.2020
4759 Clouds 0 996 88 10000 7.2 330 08:57 17.04.2020
4760 Clouds 0 996 88 10000 7.2 330 08:39 17.04.2020
4761 Clouds 0 995 88 10000 6.7 330 08:19 17.04.2020
4762 Snow 0 995 88 10000 6.7 330 07:44 17.04.2020
4763 Snow -1 995 86 10000 6.7 330 07:22 17.04.2020
4764 Snow -1 995 86 10000 6.2 330 06:45 17.04.2020
4765 Snow -1 995 86 10000 6.2 330 06:22 17.04.2020
4766 Snow -2 995 86 9000 6.2 330 04:46 17.04.2020
4767 Snow -2 994 86 7000 6.2 330 03:19 17.04.2020
4768 Clouds -1 994 74 10000 5.1 330 01:58 17.04.2020
4769 Clouds -1 994 74 10000 5.1 330 01:27 17.04.2020
4770 Clouds -1 994 74 10000 4.1 330 00:45 17.04.2020
4771 Clouds 0 994 95 10000 4.6 340 00:18 17.04.2020
4772 Clouds 0 994 95 10000 4.6 340 23:40 16.04.2020
4773 Clouds 0 994 95 10000 4.1 0 23:22 16.04.2020
4774 Clouds 1 995 64 10000 4.1 340 22:56 16.04.2020
4775 Clouds 1 995 64 10000 4.1 340 22:37 16.04.2020
4776 Clouds 1 995 64 10000 4.1 340 22:37 16.04.2020
4777 Clouds 1 995 64 10000 4.6 340 22:19 16.04.2020
4778 Clouds 1 995 64 10000 4.6 340 21:41 16.04.2020
4779 Clouds 2 995 59 10000 4.1 330 21:20 16.04.2020
4780 Clouds 2 995 59 10000 4.6 330 20:57 16.04.2020
4781 Clouds 2 995 59 10000 4.6 330 20:38 16.04.2020
4782 Clouds 2 995 59 10000 4.1 330 20:19 16.04.2020
4783 Clouds 2 995 55 10000 4.6 330 19:40 16.04.2020
4784 Clouds 3 995 51 10000 5.1 330 19:20 16.04.2020
4785 Clouds 3 995 55 10000 5.7 330 18:58 16.04.2020
4786 Clouds 3 995 55 10000 5.7 330 18:39 16.04.2020
4787 Snow 3 995 51 10000 4.6 340 18:21 16.04.2020
4788 Snow 4 995 48 10000 5.1 330 17:55 16.04.2020
4789 Snow 4 995 48 10000 5.1 330 17:37 16.04.2020
4790 Snow 4 994 44 10000 5.1 320 17:18 16.04.2020
4791 Clouds 4 994 48 10000 5.1 330 16:41 16.04.2020
4792 Snow 5 994 41 10000 6.2 340 16:20 16.04.2020
4793 Clouds 4 994 51 10000 4.6 340 15:45 16.04.2020
4794 Clouds 4 994 48 10000 4.6 330 15:20 16.04.2020
4795 Clouds 4 994 51 10000 3.6 350 14:58 16.04.2020
4796 Clouds 4 994 51 10000 3.6 350 14:39 16.04.2020
4797 Snow 3 994 59 10000 3.6 10 14:19 16.04.2020
4798 Clouds 3 994 55 10000 3.6 60 13:57 16.04.2020
4799 Clouds 3 994 55 10000 3.6 60 13:37 16.04.2020
4800 Clouds 2 994 69 10000 6.2 40 13:37 16.04.2020
4801 Clouds 2 994 69 10000 6.2 40 13:19 16.04.2020
4802 Clouds 3 994 59 10000 3.6 320 12:56 16.04.2020
4803 Clouds 3 994 59 10000 3.6 320 12:37 16.04.2020
4804 Clouds 3 994 59 10000 3.6 320 12:37 16.04.2020
4805 Clouds 3 994 59 10000 2.1 10 12:18 16.04.2020
4806 Clouds 2 994 64 10000 3.1 60 11:54 16.04.2020
4807 Clouds 2 994 64 10000 2.6 30 11:36 16.04.2020
4808 Clouds 2 994 64 10000 2.6 30 11:18 16.04.2020
4809 Clouds 2 994 64 10000 1.5 50 10:39 16.04.2020
4810 Clouds 1 994 74 10000 2.1 70 10:19 16.04.2020
4811 Clear 0 993 83 10000 3.1 50 09:58 16.04.2020
4812 Clear 0 993 83 10000 3.1 50 09:38 16.04.2020
4813 Clouds 0 993 95 10000 3.1 40 09:19 16.04.2020
4814 Clouds -2 993 86 10000 3.6 40 08:42 16.04.2020
4815 Clouds -2 993 86 10000 3.6 40 08:22 16.04.2020
4816 Clouds -3 993 92 10000 3.6 50 07:46 16.04.2020
4817 Clouds -3 993 92 10000 3.6 50 07:46 16.04.2020
4818 Clouds -3 993 92 10000 3.6 60 07:26 16.04.2020
4819 Clouds -3 993 92 10000 2.6 50 06:44 16.04.2020
4820 Clouds -3 993 92 10000 3.6 70 06:25 16.04.2020
4821 Clouds -3 993 92 10000 4.1 70 05:37 16.04.2020
4822 Clouds -3 992 92 10000 3.6 70 03:59 16.04.2020
4823 Snow -2 992 86 10000 3.6 60 03:23 16.04.2020
4824 Clouds -2 992 92 10000 3.1 70 02:47 16.04.2020
4825 Clouds -3 992 100 10000 2.6 80 02:28 16.04.2020
4826 Clouds -3 992 100 10000 3.1 80 01:19 16.04.2020
4827 Snow -2 992 92 10000 2.6 80 00:32 16.04.2020
4828 Snow -2 992 92 10000 2.6 90 23:59 15.04.2020
4829 Snow -2 992 92 10000 2.6 90 23:59 15.04.2020
4830 Snow -2 992 92 10000 2.6 90 23:41 15.04.2020
4831 Snow -2 993 92 10000 3.1 80 23:21 15.04.2020
4832 Snow -1 993 86 10000 2.6 100 22:41 15.04.2020
4833 Clouds -1 993 86 10000 2.6 120 22:22 15.04.2020
4834 Snow -1 993 86 10000 2.1 120 21:59 15.04.2020
4835 Snow -1 993 86 10000 2.1 120 21:41 15.04.2020
4836 Clouds -1 993 86 10000 2.1 130 21:22 15.04.2020
4837 Snow 0 993 97 10000 2.1 170 20:58 15.04.2020
4838 Clouds 0 993 97 10000 3.1 190 20:40 15.04.2020
4839 Clouds 0 993 97 10000 3.1 190 20:21 15.04.2020
4840 Snow 0 993 97 10000 4.1 200 19:45 15.04.2020
4841 Snow 0 993 97 10000 4.1 200 19:21 15.04.2020
4842 Snow 1 993 74 10000 3.6 190 18:56 15.04.2020
4843 Snow 1 993 74 10000 3.6 190 18:56 15.04.2020
4844 Clouds 1 993 74 10000 3.6 190 18:37 15.04.2020
4845 Clouds 1 993 74 10000 3.6 190 18:19 15.04.2020
4846 Clouds 1 993 74 10000 4.1 170 17:40 15.04.2020
4847 Clouds 1 993 74 10000 4.1 170 17:40 15.04.2020
4848 Rain 1 993 69 10000 4.1 160 17:21 15.04.2020
4849 Clouds 1 993 69 10000 5.1 170 16:58 15.04.2020
4850 Clouds 1 993 69 10000 5.1 170 16:39 15.04.2020
4851 Rain 1 993 74 10000 4.6 180 16:20 15.04.2020
4852 Snow 0 993 92 10000 4.6 190 15:59 15.04.2020
4853 Snow 0 993 92 10000 4.6 190 15:40 15.04.2020
4854 Rain 0 993 88 10000 4.1 190 15:20 15.04.2020
4855 Rain 0 993 88 10000 4.1 190 15:20 15.04.2020
4856 Rain 0 993 88 10000 5.1 190 14:58 15.04.2020
4857 Rain 0 993 84 10000 5.1 190 14:40 15.04.2020
4858 Clouds 0 993 84 10000 5.1 180 14:21 15.04.2020
4859 Clouds 0 993 84 10000 5.1 180 13:58 15.04.2020
4860 Clouds 0 993 84 10000 5.1 180 13:39 15.04.2020
4861 Clouds -1 993 80 10000 5.1 170 13:20 15.04.2020
4862 Clouds -1 993 74 10000 5.1 160 12:56 15.04.2020
4863 Clouds -1 993 74 10000 5.1 160 12:38 15.04.2020
4864 Clouds -2 993 79 10000 5.1 170 12:19 15.04.2020
4865 Clouds -2 992 79 10000 6.2 170 11:42 15.04.2020
4866 Clouds -1 992 74 10000 7.2 160 11:24 15.04.2020
4867 Clouds 0 992 89 10000 5.1 160 10:58 15.04.2020
4868 Clouds 0 992 89 10000 5.1 160 10:37 15.04.2020
4869 Clouds 0 992 89 10000 4.6 160 10:18 15.04.2020
4870 Clouds -1 992 80 10000 5.1 120 09:55 15.04.2020
4871 Clouds -1 992 80 10000 5.1 120 09:37 15.04.2020
4872 Clouds -1 992 80 10000 3.6 150 09:18 15.04.2020
4873 Snow -1 992 80 10000 3.6 160 08:41 15.04.2020
4874 Snow -2 992 92 8000 4.1 170 08:21 15.04.2020
4875 Snow -2 992 92 10000 4.1 170 07:55 15.04.2020
4876 Snow -2 992 92 10000 3.6 160 07:34 15.04.2020
4877 Snow -2 991 92 10000 3.6 170 06:37 15.04.2020
4878 Clouds -2 991 100 10000 3.1 180 05:57 15.04.2020
4879 Clouds -1 991 92 10000 3.1 190 05:21 15.04.2020
4880 Snow -1 991 92 10000 4.1 200 04:45 15.04.2020
4881 Clouds -1 991 92 10000 3.6 210 03:51 15.04.2020
4882 Clouds -1 991 92 10000 3.6 210 03:18 15.04.2020
4883 Clouds -1 991 92 10000 3.6 210 02:33 15.04.2020
4884 Clouds -1 991 92 10000 2.6 220 01:44 15.04.2020
4885 Clouds -1 991 92 10000 3.1 230 01:20 15.04.2020
4886 Clouds -1 992 100 10000 2.6 230 00:37 15.04.2020
4887 Clouds -1 992 100 10000 2.6 230 00:19 15.04.2020
4888 Clouds 0 993 97 10000 2.6 230 23:55 14.04.2020
4889 Clouds 0 993 97 10000 2.6 230 23:36 14.04.2020
4890 Clouds 0 993 97 10000 2.1 230 23:18 14.04.2020
4891 Clouds 0 993 97 10000 2.1 230 23:18 14.04.2020
4892 Clouds 0 993 97 10000 1.5 240 22:55 14.04.2020
4893 Clouds 0 993 97 10000 1.5 240 22:36 14.04.2020
4894 Clouds 0 994 97 10000 1 0 22:18 14.04.2020
4895 Clouds 0 994 97 10000 1 0 21:55 14.04.2020
4896 Clouds 0 994 97 10000 1 0 21:37 14.04.2020
4897 Clouds 1 994 86 10000 1 0 21:18 14.04.2020
4898 Clouds 1 995 86 10000 2.1 310 20:40 14.04.2020
4899 Clouds 1 995 86 10000 1.5 310 20:22 14.04.2020
4900 Clouds 1 995 86 10000 2.1 310 19:58 14.04.2020
4901 Clouds 1 995 86 10000 2.1 310 19:39 14.04.2020
4902 Clouds 1 996 86 10000 3.1 340 19:20 14.04.2020
4903 Clouds 2 996 74 10000 2.6 340 18:56 14.04.2020
4904 Clouds 2 996 74 10000 2.1 340 18:37 14.04.2020
4905 Clouds 2 996 74 10000 2.1 340 18:18 14.04.2020
4906 Clouds 2 997 80 10000 2.6 350 17:56 14.04.2020
4907 Clouds 2 997 80 10000 2.6 350 17:37 14.04.2020
4908 Clouds 2 997 74 10000 2.6 360 17:18 14.04.2020
4909 Clouds 2 997 74 10000 3.1 350 16:41 14.04.2020
4910 Clouds 3 997 69 10000 3.1 340 16:23 14.04.2020
4911 Clouds 2 997 74 10000 2.1 330 15:58 14.04.2020
4912 Clouds 2 997 74 10000 2.1 330 15:39 14.04.2020
4913 Clouds 2 997 74 10000 1.5 330 15:20 14.04.2020
4914 Clouds 2 998 74 10000 1 0 14:57 14.04.2020
4915 Clouds 2 998 74 10000 1 0 14:39 14.04.2020
4916 Clouds 1 998 80 10000 1.5 350 14:21 14.04.2020
4917 Clouds 1 998 80 10000 2.1 50 13:55 14.04.2020
4918 Clouds 1 998 80 10000 2.6 30 13:37 14.04.2020
4919 Clouds 1 998 80 10000 2.6 30 13:19 14.04.2020
4920 Clouds 1 998 80 10000 3.6 30 12:40 14.04.2020
4921 Clouds 1 998 80 10000 3.6 30 12:20 14.04.2020
4922 Clouds 0 998 89 10000 3.6 40 11:54 14.04.2020
4923 Clouds 0 998 89 10000 3.6 40 11:36 14.04.2020
4924 Clouds 0 998 89 10000 4.1 40 11:18 14.04.2020
4925 Clouds 0 998 89 10000 4.6 30 10:41 14.04.2020
4926 Snow 0 998 89 10000 5.1 30 10:23 14.04.2020
4927 Snow 0 997 89 10000 5.1 30 09:42 14.04.2020
4928 Snow -1 997 92 6000 4.6 20 09:24 14.04.2020
4929 Snow -1 997 92 3000 5.1 20 08:57 14.04.2020
4930 Snow -1 997 92 3000 5.1 20 08:39 14.04.2020
4931 Snow 0 999 95 0 3.98 15 08:21 14.04.2020
4932 Snow 0 999 95 0 3.98 15 07:52 14.04.2020
4933 Snow -1 996 92 6000 4.6 360 07:28 14.04.2020
4934 Snow -1 996 86 3000 5.7 10 06:46 14.04.2020
4935 Snow -1 996 86 10000 4.1 360 05:54 14.04.2020
4936 Snow -2 995 92 2600 5.1 360 03:50 14.04.2020
4937 Snow -2 995 92 2500 5.1 10 02:40 14.04.2020
4938 Snow -2 994 92 2800 6.7 360 01:29 14.04.2020
4939 Snow -2 994 92 2800 6.2 360 00:59 14.04.2020
4940 Snow -2 994 92 2800 6.2 360 00:32 14.04.2020
4941 Snow -2 993 92 2400 6.7 10 23:59 13.04.2020
4942 Snow -2 993 92 2400 6.7 10 23:39 13.04.2020
4943 Snow -2 993 92 2600 6.2 10 23:20 13.04.2020
4944 Snow -1 992 86 2900 7.2 10 22:55 13.04.2020
4945 Snow -1 992 86 2900 7.2 10 22:55 13.04.2020
4946 Snow -1 992 86 2900 7.2 10 22:37 13.04.2020
4947 Snow -1 992 86 3300 7.2 360 22:18 13.04.2020
4948 Snow -1 992 86 2600 7.7 360 21:42 13.04.2020
4949 Snow 0 991 92 6000 8.2 10 21:21 13.04.2020
4950 Snow 0 991 92 10000 7.7 10 20:59 13.04.2020
4951 Snow 0 991 92 10000 7.7 10 20:40 13.04.2020
4952 Snow 0 991 92 10000 8.2 10 20:20 13.04.2020
4953 Snow 0 991 92 10000 7.7 10 19:58 13.04.2020
4954 Snow 0 991 92 10000 7.7 10 19:37 13.04.2020
4955 Snow 0 990 92 10000 8.2 10 19:19 13.04.2020
4956 Snow 0 990 92 10000 8.2 10 19:19 13.04.2020
4957 Clouds 0 990 92 10000 9.3 10 18:57 13.04.2020
4958 Clouds 0 990 92 10000 9.3 10 18:37 13.04.2020
4959 Clouds 0 989 91 10000 8.7 10 18:19 13.04.2020
4960 Rain 1 989 80 10000 8.7 10 17:56 13.04.2020
4961 Rain 1 989 80 10000 8.7 10 17:37 13.04.2020
4962 Clouds 1 988 80 10000 7.7 10 17:19 13.04.2020
4963 Clouds 1 988 80 10000 7.7 10 17:19 13.04.2020
4964 Clouds 1 988 80 10000 7.7 10 17:19 13.04.2020
4965 Clouds 1 988 80 10000 9.3 10 16:57 13.04.2020
4966 Clouds 1 988 80 10000 9.3 10 16:37 13.04.2020
4967 Clouds 1 987 86 10000 9.3 10 16:19 13.04.2020
4968 Clouds 1 987 86 10000 8.7 10 15:46 13.04.2020
4969 Clouds 1 986 86 10000 7.7 10 15:28 13.04.2020
4970 Clouds 1 986 91 10000 7.2 10 14:59 13.04.2020
4971 Clouds 1 986 91 10000 7.2 10 14:40 13.04.2020
4972 Drizzle 1 986 93 10000 7.7 10 14:22 13.04.2020
4973 Clouds 1 986 93 10000 6.2 20 13:56 13.04.2020
4974 Clouds 1 985 93 10000 5.7 10 13:38 13.04.2020
4975 Clouds 1 985 93 10000 5.7 10 13:20 13.04.2020
4976 Rain 1 985 93 5000 5.7 20 12:58 13.04.2020
4977 Rain 1 985 95 5000 5.7 20 12:40 13.04.2020
4978 Clouds 1 985 90 10000 4.1 10 12:20 13.04.2020
4979 Clouds 1 984 90 10000 3.6 30 11:58 13.04.2020
4980 Clouds 1 984 90 10000 3.6 30 11:39 13.04.2020
4981 Rain 1 984 86 10000 3.6 20 11:18 13.04.2020
4982 Clouds 0 984 90 10000 3.6 40 10:55 13.04.2020
4983 Clouds 0 984 90 10000 3.6 40 10:36 13.04.2020
4984 Clouds 0 983 90 10000 3.6 40 10:18 13.04.2020
4985 Clouds 0 983 93 10000 2.6 30 09:44 13.04.2020
4986 Rain 0 982 96 10000 2.6 90 09:25 13.04.2020
4987 Snow 0 982 96 10000 3.1 100 08:45 13.04.2020
4988 Clouds 0 982 96 10000 2.1 130 08:27 13.04.2020
4989 Clouds 0 982 96 10000 2.1 130 08:27 13.04.2020
4990 Snow 0 981 96 7000 3.1 130 07:57 13.04.2020
4991 Snow 0 981 96 7000 3.1 130 07:38 13.04.2020
4992 Rain 0 981 96 10000 3.6 110 07:18 13.04.2020
4993 Snow 0 980 96 5000 3.6 130 06:44 13.04.2020
4994 Clouds 0 980 96 10000 3.6 130 05:52 13.04.2020
4995 Mist 0 979 96 2600 4.1 140 05:20 13.04.2020
4996 Snow 0 979 96 1100 4.1 110 04:32 13.04.2020
4997 Snow 0 979 96 4200 4.1 110 03:56 13.04.2020
4998 Snow 0 979 96 5000 4.6 110 03:34 13.04.2020
4999 Snow -1 979 100 4300 5.1 110 02:41 13.04.2020
5000 Snow -1 979 100 3400 5.1 110 01:47 13.04.2020
5001 Snow -1 980 100 6000 5.1 110 01:28 13.04.2020
5002 Snow -1 980 100 3800 5.1 110 00:50 13.04.2020
5003 Snow -1 980 100 3300 4.6 110 00:25 13.04.2020
5004 Snow -1 981 100 3800 5.1 110 23:57 12.04.2020
5005 Snow -1 981 100 3800 5.1 110 23:38 12.04.2020
5006 Snow -1 981 100 3800 5.1 110 23:38 12.04.2020
5007 Snow -1 981 100 3700 5.1 120 23:20 12.04.2020
5008 Snow -1 981 100 4600 5.7 120 22:54 12.04.2020
5009 Snow -1 981 100 4600 5.7 120 22:36 12.04.2020
5010 Snow -1 982 100 3700 5.1 120 22:18 12.04.2020
5011 Snow -1 982 100 3400 6.2 120 21:38 12.04.2020
5012 Snow -1 982 100 3400 6.2 120 21:38 12.04.2020
5013 Snow -1 983 100 3100 6.2 120 21:19 12.04.2020
5014 Snow -1 983 100 2300 6.2 120 20:43 12.04.2020
5015 Snow -1 984 100 1600 6.2 120 20:23 12.04.2020
5016 Snow -1 984 100 1500 7.2 120 19:59 12.04.2020
5017 Snow -1 984 100 1500 7.2 120 19:40 12.04.2020
5018 Snow -1 985 100 1500 7.2 120 19:19 12.04.2020
5019 Snow -1 986 100 1400 7.7 120 18:57 12.04.2020
5020 Snow -1 986 92 1200 7.2 120 18:38 12.04.2020
5021 Snow -1 986 92 1200 7.2 120 18:19 12.04.2020
5022 Snow -1 987 92 1300 7.2 120 17:42 12.04.2020
5023 Snow -1 988 92 800 7.7 120 17:24 12.04.2020
5024 Snow -1 989 92 800 8.2 120 16:59 12.04.2020
5025 Snow -1 989 92 800 8.2 120 16:40 12.04.2020
5026 Snow -1 990 92 700 7.7 120 16:20 12.04.2020
5027 Snow -1 991 92 1200 7.7 120 15:50 12.04.2020
5028 Snow -1 992 92 800 8.2 120 15:31 12.04.2020
5029 Snow -2 993 92 700 8.7 120 14:57 12.04.2020
5030 Snow -2 993 92 700 8.7 120 14:38 12.04.2020
5031 Snow -2 994 92 800 7.7 120 14:19 12.04.2020
5032 Snow -2 994 92 800 7.2 120 13:43 12.04.2020
5033 Snow -2 995 92 650 7.2 120 13:25 12.04.2020
5034 Snow -2 995 92 650 7.2 120 13:25 12.04.2020
5035 Snow -2 996 86 1300 6.2 130 12:56 12.04.2020
5036 Snow -2 996 86 1300 6.2 130 12:37 12.04.2020
5037 Snow -2 997 79 2600 7.2 150 12:19 12.04.2020
5038 Clouds 0 998 93 10000 7.7 150 11:56 12.04.2020
5039 Clouds 0 998 93 10000 7.7 150 11:36 12.04.2020
5040 Clouds 0 998 93 10000 7.7 150 11:36 12.04.2020
5041 Clouds -1 999 54 10000 5.7 140 11:18 12.04.2020
5042 Clouds -1 1000 50 10000 5.1 130 10:54 12.04.2020
5043 Clouds -1 1000 50 10000 5.1 130 10:36 12.04.2020
5044 Clouds -2 1001 54 10000 6.2 120 10:18 12.04.2020
5045 Clouds -2 1002 54 10000 6.2 110 09:40 12.04.2020
5046 Clouds -3 1003 58 10000 5.7 120 09:21 12.04.2020
5047 Clouds -4 1004 62 10000 5.1 130 08:56 12.04.2020
5048 Clouds -4 1004 62 10000 5.1 130 08:38 12.04.2020
5049 Clouds -4 1005 62 10000 4.6 130 08:19 12.04.2020
5050 Clouds -5 1005 67 10000 4.6 120 07:42 12.04.2020
5051 Clouds -6 1006 79 10000 4.1 130 07:18 12.04.2020
5052 Clouds -7 1007 85 10000 3.6 130 06:35 12.04.2020
5053 Clouds -8 1008 92 10000 4.6 120 05:51 12.04.2020
5054 Clouds -7 1009 92 10000 3.6 130 05:29 12.04.2020
5055 Clouds -6 1010 92 10000 3.6 140 03:44 12.04.2020
5056 Clouds -6 1011 85 10000 2.6 140 03:22 12.04.2020
5057 Clouds -5 1011 85 10000 3.6 180 02:34 12.04.2020
5058 Clouds -5 1012 85 10000 4.1 200 01:48 12.04.2020
5059 Clouds -4 1012 73 10000 4.1 200 00:57 12.04.2020
5060 Clouds -4 1012 73 10000 4.1 200 00:57 12.04.2020
5061 Clouds -4 1012 73 10000 4.1 200 00:57 12.04.2020
5062 Clouds -4 1012 73 10000 4.1 200 00:39 12.04.2020
5063 Clear -4 1013 73 10000 4.1 210 00:19 12.04.2020
5064 Clear -4 1013 73 10000 4.6 210 23:46 11.04.2020
5065 Clear -3 1013 68 10000 4.6 210 23:25 11.04.2020
5066 Clear -3 1013 68 10000 4.1 210 22:42 11.04.2020
5067 Clear -3 1013 68 10000 3.6 220 22:23 11.04.2020
5068 Clear -3 1013 68 10000 3.6 220 22:23 11.04.2020
5069 Clear -2 1013 63 10000 3.6 220 21:57 11.04.2020
5070 Clear -2 1013 63 10000 3.6 220 21:37 11.04.2020
5071 Clear -2 1013 63 10000 3.6 220 21:37 11.04.2020
5072 Clouds -2 1013 63 10000 4.1 220 21:19 11.04.2020
5073 Clouds -2 1014 58 10000 4.6 220 20:58 11.04.2020
5074 Clouds -2 1014 58 10000 4.6 220 20:39 11.04.2020
5075 Clouds 0 1014 95 10000 3.1 230 20:20 11.04.2020
5076 Clouds 0 1014 95 10000 3.1 230 20:20 11.04.2020
5077 Clouds 1 1014 40 10000 2.6 240 19:58 11.04.2020
5078 Clouds 1 1014 40 10000 2.6 240 19:39 11.04.2020
5079 Clouds 1 1014 40 10000 2.6 240 19:19 11.04.2020
5080 Clouds 2 1014 37 10000 4.1 250 18:56 11.04.2020
5081 Clouds 2 1014 37 10000 4.1 250 18:38 11.04.2020
5082 Clouds 2 1014 37 10000 4.6 270 18:20 11.04.2020
5083 Clouds 2 1014 37 10000 3.6 270 17:58 11.04.2020
5084 Clouds 2 1014 37 10000 3.6 270 17:40 11.04.2020
5085 Clouds 2 1015 40 10000 5.7 250 17:20 11.04.2020
5086 Clouds 2 1015 37 10000 5.1 280 16:55 11.04.2020
5087 Clouds 2 1015 40 10000 4.6 260 16:37 11.04.2020
5088 Clouds 2 1015 40 10000 4.6 260 16:18 11.04.2020
5089 Clouds 2 1015 37 10000 3.1 290 15:37 11.04.2020
5090 Clear 2 1015 37 10000 4.1 270 15:18 11.04.2020
5091 Clear 1 1015 43 10000 4.6 260 14:42 11.04.2020
5092 Clouds 1 1015 43 10000 4.6 280 14:23 11.04.2020
5093 Clouds 1 1015 43 10000 5.1 260 13:59 11.04.2020
5094 Clouds 1 1015 43 10000 5.1 260 13:38 11.04.2020
5095 Clear 1 1016 47 10000 5.1 270 13:19 11.04.2020
5096 Clear 0 1015 93 10000 4.1 270 12:41 11.04.2020
5097 Clear 0 1015 93 10000 4.1 270 12:41 11.04.2020
5098 Clouds 0 1015 94 10000 4.1 270 12:19 11.04.2020
5099 Clear -1 1016 54 10000 3.1 280 11:56 11.04.2020
5100 Clear -1 1016 54 10000 3.1 280 11:38 11.04.2020
5101 Clear -1 1015 54 10000 3.1 260 11:19 11.04.2020
5102 Clear -1 1015 50 10000 3.1 300 10:43 11.04.2020
5103 Clear -1 1015 50 10000 3.1 300 10:43 11.04.2020
5104 Clear -2 1015 54 10000 2.6 270 10:22 11.04.2020
5105 Clear -3 1015 58 10000 3.1 260 09:59 11.04.2020
5106 Clear -3 1015 58 10000 3.1 260 09:39 11.04.2020
5107 Clear -3 1015 58 10000 3.1 260 09:39 11.04.2020
5108 Clear -3 1015 58 10000 3.1 290 09:21 11.04.2020
5109 Clear -4 1015 62 10000 2.6 290 08:47 11.04.2020
5110 Clear -5 1015 67 10000 3.1 280 08:28 11.04.2020
5111 Clear -5 1014 67 10000 3.6 300 07:52 11.04.2020
5112 Clear -6 1014 67 10000 2.1 300 07:34 11.04.2020
5113 Clear -6 1014 73 10000 3.1 330 06:49 11.04.2020
5114 Clear -7 1014 79 10000 3.6 330 06:19 11.04.2020
5115 Clear -7 1013 79 10000 4.1 330 05:52 11.04.2020
5116 Clear -6 1013 73 10000 4.1 330 03:40 11.04.2020
5117 Clouds -5 1011 67 10000 3.1 320 01:59 11.04.2020
5118 Clouds -4 1011 62 10000 2.6 320 01:24 11.04.2020
5119 Clouds -4 1011 58 10000 3.1 320 00:44 11.04.2020
5120 Clouds -4 1011 53 10000 2.1 320 00:20 11.04.2020
5121 Clouds -4 1010 53 10000 1.5 310 23:57 10.04.2020
5122 Clouds -3 1010 49 10000 1 0 23:38 10.04.2020
5123 Clouds -3 1010 49 10000 1 0 23:19 10.04.2020
5124 Clouds -3 1010 49 10000 1 0 22:43 10.04.2020
5125 Clouds -3 1010 49 10000 1.5 290 22:22 10.04.2020
5126 Clouds -3 1010 49 10000 2.6 300 21:58 10.04.2020
5127 Clouds -3 1010 49 10000 2.6 300 21:40 10.04.2020
5128 Snow -2 1010 46 10000 2.1 300 21:20 10.04.2020
5129 Snow -2 1010 46 10000 2.1 290 20:44 10.04.2020
5130 Snow -1 1010 42 10000 2.6 280 20:24 10.04.2020
5131 Snow 0 1009 93 10000 3.1 280 19:59 10.04.2020
5132 Snow 0 1009 93 10000 3.1 280 19:41 10.04.2020
5133 Snow 1 1009 37 10000 4.1 270 19:21 10.04.2020
5134 Snow 1 1009 37 10000 4.1 270 19:21 10.04.2020
5135 Snow 1 1009 40 10000 4.6 280 18:58 10.04.2020
5136 Snow 1 1009 40 10000 4.6 280 18:58 10.04.2020
5137 Snow 1 1009 40 10000 4.6 280 18:58 10.04.2020
5138 Snow 1 1009 40 10000 4.6 280 18:40 10.04.2020
5139 Snow 1 1009 37 10000 5.7 270 18:21 10.04.2020
5140 Clouds 1 1009 37 10000 3.1 0 17:58 10.04.2020
5141 Clouds 1 1009 37 10000 3.1 0 17:58 10.04.2020
5142 Snow 1 1009 37 10000 4.1 280 17:40 10.04.2020
5143 Snow 1 1009 37 10000 4.1 280 17:21 10.04.2020
5144 Snow 1 1009 37 10000 4.1 270 16:57 10.04.2020
5145 Snow 1 1009 37 10000 4.1 270 16:38 10.04.2020
5146 Clouds 1 1009 37 10000 5.7 290 16:20 10.04.2020
5147 Snow 1 1009 37 10000 5.1 280 15:56 10.04.2020
5148 Snow 1 1009 37 10000 5.1 280 15:37 10.04.2020
5149 Snow 1 1009 37 10000 4.1 290 15:19 10.04.2020
5150 Snow 1 1009 37 10000 4.6 290 14:56 10.04.2020
5151 Clouds 1 1009 37 10000 4.6 290 14:38 10.04.2020
5152 Clouds 1 1009 37 10000 4.6 310 14:18 10.04.2020
5153 Clouds 0 1009 90 10000 4.6 290 13:43 10.04.2020
5154 Clouds 1 1009 37 10000 4.6 280 13:21 10.04.2020
5155 Clouds 0 1009 90 10000 4.6 270 12:44 10.04.2020
5156 Clouds 0 1010 94 10000 4.1 270 12:24 10.04.2020
5157 Clouds -1 1010 46 10000 5.1 280 11:57 10.04.2020
5158 Clouds -1 1010 46 10000 5.1 280 11:38 10.04.2020
5159 Clouds -1 1010 50 10000 3.1 310 11:20 10.04.2020
5160 Clouds -1 1010 50 10000 3.6 280 10:46 10.04.2020
5161 Clouds -2 1010 54 10000 3.6 280 10:23 10.04.2020
5162 Clouds -3 1010 58 10000 3.1 250 09:57 10.04.2020
5163 Clouds -3 1010 58 10000 3.1 250 09:38 10.04.2020
5164 Clouds -4 1009 58 10000 2.1 230 09:20 10.04.2020
5165 Clouds -5 1010 62 10000 2.6 240 08:43 10.04.2020
5166 Clouds -6 1010 67 10000 2.6 240 08:24 10.04.2020
5167 Clouds -6 1010 62 10000 2.6 250 07:45 10.04.2020
5168 Clouds -8 1010 72 10000 2.1 240 07:24 10.04.2020
5169 Clouds -9 1010 72 10000 2.1 230 06:49 10.04.2020
5170 Clouds -9 1010 78 10000 1.5 240 06:28 10.04.2020
5171 Clouds -8 1010 72 10000 1.5 230 05:42 10.04.2020
5172 Clouds -7 1010 67 10000 2.1 270 04:58 10.04.2020
5173 Clouds -7 1010 67 10000 2.1 310 03:50 10.04.2020
5174 Clouds -6 1010 62 10000 2.6 300 03:31 10.04.2020
5175 Clouds -6 1010 67 10000 1.5 270 02:49 10.04.2020
5176 Clear -5 1010 62 10000 1.5 280 02:30 10.04.2020
5177 Clouds -5 1010 73 10000 1 0 01:30 10.04.2020
5178 Clear -4 1010 62 10000 2.6 320 00:50 10.04.2020
5179 Clear -5 1010 73 10000 2.1 320 00:24 10.04.2020
5180 Clear -5 1010 73 10000 1 340 23:56 09.04.2020
5181 Clear -5 1010 73 10000 1 340 23:38 09.04.2020
5182 Clear -4 1010 68 10000 2.1 320 23:19 09.04.2020
5183 Clear -4 1010 62 10000 1.5 300 22:41 09.04.2020
5184 Clear -3 1010 58 10000 2.1 350 22:23 09.04.2020
5185 Clear -3 1010 58 10000 2.1 330 21:54 09.04.2020
5186 Clear -3 1010 58 10000 2.1 330 21:36 09.04.2020
5187 Clouds -3 1010 53 10000 1.5 330 21:18 09.04.2020
5188 Clouds -3 1009 53 10000 1.5 330 20:41 09.04.2020
5189 Clouds -3 1009 53 10000 2.1 310 20:20 09.04.2020
5190 Clouds -2 1009 50 10000 3.1 330 19:56 09.04.2020
5191 Clouds -2 1008 46 10000 4.1 340 19:36 09.04.2020
5192 Clouds -2 1008 46 10000 4.1 340 19:18 09.04.2020
5193 Clouds -1 1008 46 10000 3.1 330 18:41 09.04.2020
5194 Clouds -1 1008 42 10000 4.1 350 18:18 09.04.2020
5195 Clouds 0 1007 88 10000 4.6 360 17:40 09.04.2020
5196 Clouds -1 1007 46 10000 4.1 360 17:22 09.04.2020
5197 Clouds 0 1006 88 10000 6.7 330 16:56 09.04.2020
5198 Clouds 0 1006 88 10000 6.7 330 16:56 09.04.2020
5199 Clouds 0 1006 88 10000 6.7 330 16:37 09.04.2020
5200 Clouds 0 1006 88 10000 6.7 330 16:37 09.04.2020
5201 Clouds 0 1006 88 10000 5.7 340 16:18 09.04.2020
5202 Clouds 0 1006 88 10000 6.2 340 15:54 09.04.2020
5203 Clouds 0 1006 88 10000 6.2 340 15:36 09.04.2020
5204 Clouds 0 1005 86 10000 6.2 330 15:18 09.04.2020
5205 Clouds 0 1005 87 10000 6.7 330 14:39 09.04.2020
5206 Clouds 0 1004 87 10000 6.2 330 14:20 09.04.2020
5207 Snow 0 1003 87 10000 6.2 350 13:42 09.04.2020
5208 Clouds 1 1002 43 10000 6.7 350 13:24 09.04.2020
5209 Clouds 1 1002 43 10000 5.7 340 12:59 09.04.2020
5210 Clouds 1 1001 50 10000 5.7 340 12:39 09.04.2020
5211 Clouds 1 1001 50 10000 5.7 340 12:21 09.04.2020
5212 Clouds 1 1000 55 10000 6.7 350 11:55 09.04.2020
5213 Clouds 1 1000 55 10000 6.7 350 11:36 09.04.2020
5214 Clouds 2 1000 51 10000 6.7 360 11:18 09.04.2020
5215 Clouds 1 999 59 10000 7.2 350 10:41 09.04.2020
5216 Clouds 2 998 55 10000 7.2 340 10:22 09.04.2020
5217 Clouds 2 997 59 10000 7.7 350 09:58 09.04.2020
5218 Clouds 2 997 59 10000 7.7 350 09:40 09.04.2020
5219 Clouds 1 996 64 10000 7.2 330 09:21 09.04.2020
5220 Clouds 1 996 64 10000 7.2 330 09:21 09.04.2020
5221 Clouds 1 995 69 10000 6.2 340 08:56 09.04.2020
5222 Clouds 1 995 69 10000 6.2 340 08:37 09.04.2020
5223 Clouds 1 995 74 10000 5.7 330 08:18 09.04.2020
5224 Clouds 0 993 87 10000 6.2 330 07:37 09.04.2020
5225 Clouds 0 993 87 10000 6.2 330 07:18 09.04.2020
5226 Clouds 0 992 93 10000 4.1 310 06:28 09.04.2020
5227 Clouds 0 992 93 7000 4.1 300 05:49 09.04.2020
5228 Clouds 1 991 59 10000 4.6 270 05:20 09.04.2020
5229 Clouds -2 992 74 10000 4.6 230 02:35 09.04.2020
5230 Clouds -1 992 74 10000 5.1 230 01:46 09.04.2020
5231 Clouds -1 993 74 10000 5.1 230 01:27 09.04.2020
5232 Clouds -1 993 80 10000 5.7 220 00:45 09.04.2020
5233 Clouds 0 993 93 10000 4.1 230 00:21 09.04.2020
5234 Clouds 0 994 93 10000 4.1 230 23:59 08.04.2020
5235 Clouds 0 994 93 10000 4.1 230 23:41 08.04.2020
5236 Clouds 0 994 93 10000 4.1 230 23:41 08.04.2020
5237 Clouds 0 994 93 10000 4.6 230 23:22 08.04.2020
5238 Clouds 0 995 93 10000 4.6 220 22:44 08.04.2020
5239 Clouds 0 995 93 10000 4.6 230 22:24 08.04.2020
5240 Clouds 1 995 80 10000 5.1 220 21:57 08.04.2020
5241 Clouds 1 996 80 10000 4.6 220 21:39 08.04.2020
5242 Snow 1 996 80 10000 4.6 220 21:21 08.04.2020
5243 Snow 1 996 80 10000 4.6 220 20:59 08.04.2020
5244 Snow 3 996 69 10000 5.7 220 20:40 08.04.2020
5245 Snow 3 996 69 10000 5.7 220 20:20 08.04.2020
5246 Snow 3 996 69 10000 4.1 230 19:58 08.04.2020
5247 Snow 3 996 69 10000 4.1 230 19:37 08.04.2020
5248 Snow 3 997 69 10000 4.6 230 19:19 08.04.2020
5249 Snow 4 997 60 10000 6.7 240 18:44 08.04.2020
5250 Clouds 4 997 60 10000 6.7 240 18:24 08.04.2020
5251 Clouds 4 998 60 10000 6.7 220 17:56 08.04.2020
5252 Clouds 4 998 60 10000 6.7 220 17:38 08.04.2020
5253 Clouds 4 998 60 10000 6.7 220 17:38 08.04.2020
5254 Clouds 4 999 60 10000 8.2 220 17:18 08.04.2020
5255 Clouds 4 999 60 10000 8.2 220 16:42 08.04.2020
5256 Clouds 4 999 60 10000 8.2 210 16:23 08.04.2020
5257 Clouds 4 999 64 10000 9.8 220 15:56 08.04.2020
5258 Clouds 4 999 64 10000 9.8 220 15:37 08.04.2020
5259 Clouds 4 1000 60 10000 9.3 210 15:19 08.04.2020
5260 Clouds 4 1000 60 10000 9.3 210 14:43 08.04.2020
5261 Clouds 5 1001 56 10000 8.7 210 14:25 08.04.2020
5262 Clouds 5 1001 56 10000 8.7 210 14:25 08.04.2020
5263 Clouds 6 1001 48 10000 9.8 200 13:55 08.04.2020
5264 Clouds 7 1002 42 10000 9.3 200 13:37 08.04.2020
5265 Clouds 7 1002 42 10000 9.3 200 13:18 08.04.2020
5266 Clouds 5 1003 52 10000 9.3 210 12:41 08.04.2020
5267 Clouds 5 1004 56 10000 8.2 210 12:18 08.04.2020
5268 Clouds 4 1005 64 10000 7.7 210 11:56 08.04.2020
5269 Clouds 4 1005 64 10000 7.7 210 11:38 08.04.2020
5270 Clouds 4 1005 64 10000 7.2 210 11:19 08.04.2020
5271 Clouds 4 1006 64 10000 7.2 210 10:55 08.04.2020
5272 Clouds 4 1006 64 10000 7.2 220 10:37 08.04.2020
5273 Clouds 4 1006 64 10000 7.2 220 10:18 08.04.2020
5274 Clouds 3 1006 69 10000 6.7 220 09:42 08.04.2020
5275 Clouds 3 1007 69 10000 6.7 230 09:20 08.04.2020
5276 Clouds 2 1007 74 10000 6.2 230 08:59 08.04.2020
5277 Clouds 2 1007 74 10000 6.2 230 08:41 08.04.2020
5278 Clouds 1 1008 80 10000 5.7 220 08:21 08.04.2020
5279 Clouds 1 1008 80 10000 6.7 230 07:43 08.04.2020
5280 Clouds 1 1008 80 10000 6.2 220 07:22 08.04.2020
5281 Clouds 0 1009 86 10000 7.2 220 06:43 08.04.2020
5282 Clouds 0 1009 93 10000 6.7 240 05:49 08.04.2020
5283 Clear 0 1010 93 10000 7.2 220 03:22 08.04.2020
5284 Clear -1 1010 80 10000 5.1 240 02:38 08.04.2020
5285 Clouds -2 1010 86 10000 3.6 230 02:18 08.04.2020
5286 Clouds -1 1010 80 10000 4.6 210 01:30 08.04.2020
5287 Clouds -1 1011 80 10000 4.1 230 00:52 08.04.2020
5288 Clouds -1 1011 80 10000 2.6 240 00:33 08.04.2020
5289 Clouds -2 1010 92 10000 3.1 220 23:58 07.04.2020
5290 Clouds -2 1010 92 10000 3.1 220 23:38 07.04.2020
5291 Clouds 0 1011 95 10000 1.5 230 23:19 07.04.2020
5292 Clouds 1 1011 80 10000 1 0 22:56 07.04.2020
5293 Clouds 1 1011 80 10000 1 0 22:38 07.04.2020
5294 Clouds -1 1011 100 10000 2.6 230 22:19 07.04.2020
5295 Clouds 0 1011 95 10000 2.6 240 21:54 07.04.2020
5296 Clouds 0 1011 96 10000 2.6 240 21:36 07.04.2020
5297 Clouds 0 1010 89 9000 3.1 230 21:18 07.04.2020
5298 Clouds 0 1010 89 10000 2.6 230 20:41 07.04.2020
5299 Clouds 0 1010 89 10000 2.6 230 20:21 07.04.2020
5300 Clouds 1 1010 89 10000 2.6 250 19:58 07.04.2020
5301 Clouds 1 1009 89 10000 2.6 260 19:38 07.04.2020
5302 Clouds 1 1009 89 10000 2.6 260 19:38 07.04.2020
5303 Clouds 1 1009 89 10000 2.6 260 19:20 07.04.2020
5304 Clouds 1 1009 89 10000 3.1 260 18:59 07.04.2020
5305 Clouds 1 1009 89 10000 3.1 260 18:40 07.04.2020
5306 Clouds 1 1009 95 10000 3.1 270 18:21 07.04.2020
5307 Clouds 1 1009 95 10000 3.1 270 17:47 07.04.2020
5308 Rain 1 1008 95 9000 3.6 270 17:25 07.04.2020
5309 Rain 1 1008 95 9000 3.6 270 16:59 07.04.2020
5310 Snow 1 1008 95 5000 3.1 270 16:41 07.04.2020
5311 Rain 2 1008 80 10000 3.1 260 16:22 07.04.2020
5312 Rain 2 1008 80 10000 3.1 260 16:22 07.04.2020
5313 Clouds 2 1008 80 10000 3.6 260 15:44 07.04.2020
5314 Clouds 2 1008 80 10000 3.6 260 15:26 07.04.2020
5315 Clouds 2 1007 80 10000 2.6 250 14:55 07.04.2020
5316 Clouds 2 1007 80 10000 2.6 250 14:36 07.04.2020
5317 Clouds 2 1007 80 10000 3.6 240 14:18 07.04.2020
5318 Clouds 2 1007 80 10000 3.1 210 13:41 07.04.2020
5319 Clouds 2 1007 80 10000 2.6 220 13:19 07.04.2020
5320 Clouds 2 1007 80 10000 4.1 210 12:56 07.04.2020
5321 Clouds 2 1007 80 10000 4.1 210 12:37 07.04.2020
5322 Clouds 2 1007 80 10000 3.6 210 12:19 07.04.2020
5323 Clouds 2 1007 80 10000 4.1 190 11:46 07.04.2020
5324 Clouds 1 1007 86 10000 4.6 190 11:27 07.04.2020
5325 Clouds 1 1008 80 10000 4.6 210 10:59 07.04.2020
5326 Clouds 1 1008 80 10000 4.6 210 10:39 07.04.2020
5327 Clouds 1 1008 80 10000 4.6 210 10:39 07.04.2020
5328 Clouds 1 1008 80 10000 4.1 180 10:20 07.04.2020
5329 Clouds 0 1008 93 10000 5.7 170 09:46 07.04.2020
5330 Clouds 0 1008 91 10000 4.1 160 09:20 07.04.2020
5331 Clouds 0 1008 91 10000 5.7 170 08:59 07.04.2020
5332 Clouds -1 1009 92 10000 4.6 170 08:39 07.04.2020
5333 Clouds -1 1009 92 10000 4.6 170 08:20 07.04.2020
5334 Clouds -1 1009 86 10000 5.1 170 07:44 07.04.2020
5335 Clouds -1 1010 86 10000 4.6 170 07:26 07.04.2020
5336 Clouds -2 1010 92 10000 5.7 170 06:52 07.04.2020
5337 Clouds -2 1011 92 10000 5.7 170 06:25 07.04.2020
5338 Clouds -2 1011 92 10000 5.1 170 05:50 07.04.2020
5339 Clouds -2 1011 92 10000 4.1 170 05:24 07.04.2020
5340 Clouds -1 1013 80 10000 4.6 160 03:34 07.04.2020
5341 Clouds -1 1014 80 10000 4.6 160 02:59 07.04.2020
5342 Clouds -1 1014 80 10000 4.6 160 02:35 07.04.2020
5343 Clouds -1 1016 74 10000 4.1 160 01:34 07.04.2020
5344 Clouds -1 1016 74 10000 4.1 160 00:52 07.04.2020
5345 Clouds -1 1017 68 10000 5.1 160 00:25 07.04.2020
5346 Clouds -1 1017 68 10000 5.1 170 23:40 06.04.2020
5347 Clouds -1 1018 63 10000 4.6 170 23:21 06.04.2020
5348 Clouds -1 1018 63 10000 4.6 170 22:42 06.04.2020
5349 Clouds -1 1018 58 10000 4.1 160 22:23 06.04.2020
5350 Clouds 0 1019 95 10000 4.6 170 21:59 06.04.2020
5351 Clouds 0 1019 93 10000 4.6 170 21:41 06.04.2020
5352 Clouds 0 1019 97 10000 4.1 170 21:20 06.04.2020
5353 Clouds 0 1020 97 10000 4.6 170 20:56 06.04.2020
5354 Clouds 0 1020 97 10000 4.6 170 20:38 06.04.2020
5355 Clouds 0 1020 97 10000 4.6 170 20:20 06.04.2020
5356 Clouds 0 1020 97 10000 4.6 170 19:56 06.04.2020
5357 Clouds 0 1020 97 10000 4.6 170 19:38 06.04.2020
5358 Clouds 0 1021 97 10000 4.6 170 19:19 06.04.2020
5359 Clouds 0 1021 97 10000 4.6 170 18:42 06.04.2020
5360 Clouds 1 1022 40 10000 4.1 180 18:23 06.04.2020
5361 Clouds 1 1022 40 10000 5.7 180 17:57 06.04.2020
5362 Clouds 1 1022 40 10000 5.7 180 17:38 06.04.2020
5363 Clouds 1 1022 40 10000 6.2 180 17:18 06.04.2020
5364 Clouds 1 1022 40 10000 6.7 180 16:47 06.04.2020
5365 Clouds 1 1023 40 10000 6.7 190 16:29 06.04.2020
5366 Clouds 1 1024 40 10000 6.7 190 14:46 06.04.2020
5367 Clouds 1 1024 40 10000 6.7 190 14:46 06.04.2020
5368 Clouds 1 1024 40 10000 6.7 190 14:46 06.04.2020
5369 Clouds 1 1024 40 10000 6.7 190 14:46 06.04.2020
5370 Clouds 0 1024 91 10000 5.1 180 13:44 06.04.2020
5371 Clouds 0 1025 91 10000 5.7 190 13:21 06.04.2020
5372 Clouds 0 1025 91 10000 4.1 200 12:41 06.04.2020
5373 Clouds 0 1025 96 10000 4.1 200 12:19 06.04.2020
5374 Clouds 0 1025 96 10000 4.1 200 12:19 06.04.2020
5375 Clouds 0 1025 96 10000 4.1 200 12:18 06.04.2020
5376 Clouds -1 1025 58 10000 3.6 180 11:40 06.04.2020
5377 Clouds -1 1025 58 10000 3.6 180 11:40 06.04.2020
5378 Clouds -3 1025 58 10000 2.6 180 10:53 06.04.2020
5379 Clouds -3 1025 58 10000 2.6 180 10:53 06.04.2020
5380 Clouds -3 1025 58 10000 2.6 180 10:53 06.04.2020
5381 Clouds -3 1025 53 10000 2.1 160 10:23 06.04.2020
5382 Clouds -3 1025 53 10000 2.1 160 10:03 06.04.2020
5383 Clouds -3 1025 53 10000 2.1 160 10:03 06.04.2020
5384 Clouds -4 1025 49 10000 2.1 110 09:37 06.04.2020
5385 Clouds -3 1025 42 10000 1 0 09:18 06.04.2020
5386 Clouds -6 1025 48 10000 1.5 80 08:41 06.04.2020
5387 Clouds -6 1025 48 10000 1.5 80 08:41 06.04.2020
5388 Clouds -7 1025 52 10000 3.1 150 07:56 06.04.2020
5389 Clouds -7 1025 52 10000 3.1 150 07:56 06.04.2020
5390 Clouds -7 1025 52 10000 3.1 150 07:56 06.04.2020
5391 Clouds -9 1025 56 10000 3.1 110 07:19 06.04.2020
5392 Clouds -10 1025 56 10000 3.1 100 06:26 06.04.2020
5393 Clouds -13 1025 65 10000 1 0 05:42 06.04.2020
5394 Clouds -9 1024 52 10000 1.5 240 03:29 06.04.2020
5395 Clear -11 1024 61 10000 1.5 210 02:49 06.04.2020
5396 Clear -9 1024 52 10000 2.1 230 01:52 06.04.2020
5397 Clear -8 1024 44 10000 2.1 240 00:51 06.04.2020
5398 Clear -8 1024 44 10000 2.1 240 00:27 06.04.2020
5399 Clear -8 1024 44 10000 2.1 240 00:27 06.04.2020
5400 Clear -6 1023 41 10000 1 0 23:50 05.04.2020
5401 Clear -6 1023 41 10000 1 0 23:32 05.04.2020
5402 Clear -6 1023 41 10000 1 0 23:32 05.04.2020
5403 Clear -5 1023 38 10000 2.1 270 22:56 05.04.2020
5404 Clear -6 1023 41 10000 1.5 240 22:38 05.04.2020
5405 Clear -6 1023 41 10000 1.5 240 22:38 05.04.2020
5406 Clear -5 1023 38 10000 1.5 260 22:19 05.04.2020
5407 Clear -5 1023 38 10000 1.5 260 21:58 05.04.2020
5408 Clear -4 1023 35 10000 1.5 250 21:39 05.04.2020
5409 Clear -5 1023 38 10000 1 0 21:21 05.04.2020
5410 Clouds -4 1022 35 10000 1.5 250 20:20 05.04.2020
5411 Clouds -3 1022 32 10000 1.5 250 19:41 05.04.2020
5412 Clouds -2 1022 30 10000 3.1 280 19:22 05.04.2020
5413 Clouds -2 1022 30 10000 3.1 280 19:22 05.04.2020
5414 Clouds -2 1022 30 10000 3.1 280 18:45 05.04.2020
5415 Clouds -2 1022 30 10000 3.1 280 18:45 05.04.2020
5416 Snow -1 1022 28 10000 4.6 280 17:58 05.04.2020
5417 Snow -1 1022 28 10000 4.6 280 17:58 05.04.2020
5418 Snow -1 1022 28 10000 4.6 280 17:39 05.04.2020
5419 Snow -1 1021 26 10000 4.6 280 17:20 05.04.2020
5420 Snow -1 1021 28 10000 5.7 280 16:44 05.04.2020
5421 Snow -1 1021 28 10000 5.7 280 16:44 05.04.2020
5422 Snow -1 1021 28 10000 5.7 280 16:44 05.04.2020
5423 Snow -1 1021 28 10000 5.7 280 16:44 05.04.2020
5424 Snow -1 1021 28 10000 5.7 280 16:43 05.04.2020
5425 Snow -1 1021 30 10000 5.1 270 16:18 05.04.2020
5426 Snow -1 1021 33 10000 5.7 290 15:43 05.04.2020
5427 Clear -1 1021 33 10000 5.7 270 15:24 05.04.2020
5428 Clear -2 1020 36 10000 5.1 260 14:47 05.04.2020
5429 Clear -2 1020 36 10000 5.1 260 14:47 05.04.2020
5430 Clear -2 1020 36 10000 5.1 260 14:47 05.04.2020
5431 Snow -2 1020 39 10000 5.7 280 13:44 05.04.2020
5432 Snow -3 1019 42 10000 5.7 280 12:55 05.04.2020
5433 Snow -3 1019 42 10000 5.7 280 12:55 05.04.2020
5434 Snow -3 1019 42 10000 5.7 280 12:55 05.04.2020
5435 Snow -3 1019 42 10000 5.7 280 12:55 05.04.2020
5436 Snow -3 1019 42 10000 5.7 280 12:55 05.04.2020
5437 Clear -3 1018 45 10000 5.1 280 11:44 05.04.2020
5438 Clear -4 1018 45 10000 5.1 270 11:21 05.04.2020
5439 Clear -4 1018 45 10000 5.1 270 10:59 05.04.2020
5440 Clear -4 1018 45 10000 4.6 270 10:41 05.04.2020
5441 Clear -5 1017 49 10000 3.6 270 10:18 05.04.2020
5442 Clear -6 1017 53 10000 3.6 280 09:43 05.04.2020
5443 Clouds -7 1016 62 10000 1.5 220 09:24 05.04.2020
5444 Clouds -7 1016 62 10000 1.5 220 09:24 05.04.2020
5445 Clear -6 1017 53 10000 3.6 280 09:24 05.04.2020
5446 Clouds -9 1015 66 10000 2.6 310 07:42 05.04.2020
5447 Clouds -9 1013 66 10000 3.6 330 04:40 05.04.2020
5448 Clouds -8 1012 61 10000 5.1 340 03:33 05.04.2020
5449 Clouds -8 1011 61 10000 4.1 340 02:52 05.04.2020
5450 Clouds -7 1010 62 10000 5.1 340 01:48 05.04.2020
5451 Clouds -7 1010 62 10000 5.1 340 01:28 05.04.2020
5452 Clouds -6 1009 53 10000 3.6 330 00:44 05.04.2020
5453 Clouds -6 1009 53 10000 3.6 330 00:21 05.04.2020
5454 Clouds -7 1008 52 10000 3.1 330 23:55 04.04.2020
5455 Clouds -6 1009 53 10000 3.6 330 23:55 04.04.2020
5456 Clouds -7 1008 52 10000 3.1 330 23:37 04.04.2020
5457 Clouds -8 1008 57 10000 3.1 330 23:19 04.04.2020
5458 Clouds -9 1007 56 10000 2.1 320 22:41 04.04.2020
5459 Clouds -8 1007 57 10000 2.1 310 22:22 04.04.2020
5460 Clouds -8 1007 57 10000 2.1 310 21:59 04.04.2020
5461 Clouds -8 1007 57 10000 2.1 310 21:59 04.04.2020
5462 Clouds -8 1007 67 10000 1 0 21:40 04.04.2020
5463 Clouds -6 1006 57 10000 1 190 21:20 04.04.2020
5464 Clouds -6 1006 57 10000 1 190 20:59 04.04.2020
5465 Clouds -4 1006 58 10000 1 30 20:40 04.04.2020
5466 Clouds -3 1006 45 10000 2.6 360 20:21 04.04.2020
5467 Clouds -3 1006 45 10000 2.6 360 19:57 04.04.2020
5468 Snow -2 1005 50 10000 2.1 290 19:37 04.04.2020
5469 Snow -2 1005 50 10000 3.6 310 19:19 04.04.2020
5470 Clouds -1 1004 42 10000 4.1 260 18:56 04.04.2020
5471 Clouds -1 1004 42 10000 4.1 260 18:37 04.04.2020
5472 Snow -1 1004 36 10000 2.6 260 18:19 04.04.2020
5473 Snow 0 1003 93 10000 3.6 260 17:41 04.04.2020
5474 Snow 0 1003 93 10000 3.6 260 17:41 04.04.2020
5475 Snow -2 1003 39 10000 3.6 230 17:20 04.04.2020
5476 Snow -1 1003 36 10000 3.6 240 16:56 04.04.2020
5477 Snow -1 1003 36 10000 3.6 240 16:38 04.04.2020
5478 Snow 0 1002 93 10000 3.6 250 16:19 04.04.2020
5479 Snow -1 1002 36 10000 3.6 220 15:42 04.04.2020
5480 Snow -1 1002 36 10000 4.1 210 15:24 04.04.2020
5481 Clouds -1 1002 36 10000 4.1 210 14:59 04.04.2020
5482 Clouds -1 1001 36 10000 2.6 0 14:40 04.04.2020
5483 Clouds -1 1001 33 10000 3.1 220 14:22 04.04.2020
5484 Clouds -1 1001 33 10000 3.1 220 13:55 04.04.2020
5485 Clouds -1 1000 36 10000 3.1 270 13:37 04.04.2020
5486 Clouds -2 1000 36 10000 2.6 230 13:19 04.04.2020
5487 Clouds -2 1000 39 10000 2.1 240 12:44 04.04.2020
5488 Clouds -2 1000 39 10000 2.1 240 12:44 04.04.2020
5489 Clouds -3 999 42 10000 2.1 240 12:23 04.04.2020
5490 Clouds -3 999 42 10000 2.1 240 11:58 04.04.2020
5491 Clouds -3 999 45 10000 2.1 230 11:38 04.04.2020
5492 Clouds -4 999 49 10000 3.1 200 11:19 04.04.2020
5493 Clouds -5 998 53 10000 2.1 250 10:55 04.04.2020
5494 Clouds -5 998 53 10000 2.1 250 10:37 04.04.2020
5495 Clouds -6 998 53 10000 1.5 240 10:18 04.04.2020
5496 Clouds -6 998 53 10000 1.5 240 09:54 04.04.2020
5497 Clouds -7 997 57 10000 1.5 200 09:36 04.04.2020
5498 Clear -8 997 57 10000 1 0 09:18 04.04.2020
5499 Clear -10 996 66 10000 1 0 08:38 04.04.2020
5500 Clear -11 996 66 10000 2.1 250 08:20 04.04.2020
5501 Clear -12 995 72 10000 2.1 240 07:44 04.04.2020
5502 Clear -12 995 72 10000 2.1 240 07:26 04.04.2020
5503 Clear -13 995 71 10000 2.1 250 06:47 04.04.2020
5504 Clear -13 994 71 10000 2.1 250 06:18 04.04.2020
5505 Clear -13 994 78 10000 2.1 250 05:41 04.04.2020
5506 Clear -13 994 78 10000 2.1 250 05:23 04.04.2020
5507 Clear -12 993 72 10000 2.1 260 04:27 04.04.2020
5508 Clear -10 992 66 10000 2.1 270 03:49 04.04.2020
5509 Clouds -13 991 78 10000 2.1 280 02:50 04.04.2020
5510 Clouds -13 991 78 10000 2.1 280 02:32 04.04.2020
5511 Clouds -9 990 66 10000 2.1 320 01:53 04.04.2020
5512 Clouds -9 990 66 10000 3.1 320 01:24 04.04.2020
5513 Clouds -8 989 61 10000 3.1 320 00:48 04.04.2020
5514 Clouds -8 989 61 10000 3.1 320 00:28 04.04.2020
5515 Clouds -8 989 67 10000 3.6 320 23:39 03.04.2020
5516 Clouds -7 988 67 10000 2.6 320 23:21 03.04.2020
5517 Clouds -7 988 67 10000 2.6 320 22:57 03.04.2020
5518 Clouds -6 987 67 10000 2.1 320 22:39 03.04.2020
5519 Clouds -6 987 67 10000 2.6 320 22:18 03.04.2020
5520 Clouds -5 986 62 10000 2.6 320 21:43 03.04.2020
5521 Clouds -5 986 62 10000 2.6 320 21:24 03.04.2020
5522 Clouds -5 986 57 10000 3.1 310 20:57 03.04.2020
5523 Clouds -5 986 57 10000 3.1 310 20:57 03.04.2020
5524 Clouds -5 986 53 10000 2.1 310 20:37 03.04.2020
5525 Clouds -4 985 49 10000 2.1 310 20:19 03.04.2020
5526 Clouds -4 985 49 10000 2.1 310 19:56 03.04.2020
5527 Clouds -3 985 45 10000 1.5 320 19:38 03.04.2020
5528 Clouds -3 984 45 10000 2.6 330 19:20 03.04.2020
5529 Clouds -3 984 45 10000 2.6 330 18:58 03.04.2020
5530 Clouds -2 984 50 10000 3.1 330 18:40 03.04.2020
5531 Clouds -2 983 50 10000 2.6 330 18:22 03.04.2020
5532 Snow -2 983 54 10000 3.1 340 17:43 03.04.2020
5533 Snow -2 982 54 10000 3.1 330 17:21 03.04.2020
5534 Snow -2 982 54 10000 3.1 330 16:58 03.04.2020
5535 Clouds -2 981 54 10000 3.6 350 16:40 03.04.2020
5536 Snow -3 981 63 10000 4.1 360 16:21 03.04.2020
5537 Snow -3 981 63 10000 4.1 360 15:58 03.04.2020
5538 Snow -2 980 58 10000 4.6 340 15:38 03.04.2020
5539 Snow -3 980 68 10000 4.6 350 15:19 03.04.2020
5540 Clouds -3 978 63 10000 3.1 360 14:41 03.04.2020
5541 Clouds -3 978 63 10000 3.1 360 14:41 03.04.2020
5542 Clouds -3 978 63 10000 3.1 360 14:22 03.04.2020
5543 Clouds -3 978 63 10000 3.1 360 13:57 03.04.2020
5544 Clouds -3 978 63 10000 3.1 360 13:38 03.04.2020
5545 Clouds -4 978 73 10000 3.1 10 13:20 03.04.2020
5546 Clouds -4 978 68 10000 3.1 360 12:43 03.04.2020
5547 Clouds -4 977 73 10000 3.6 20 12:20 03.04.2020
5548 Clouds -4 977 73 10000 3.6 20 11:57 03.04.2020
5549 Snow -4 977 73 10000 4.1 30 11:38 03.04.2020
5550 Snow -4 977 73 10000 4.1 30 11:38 03.04.2020
5551 Snow -5 976 73 10000 4.6 30 11:20 03.04.2020
5552 Clouds -5 976 73 10000 5.1 20 10:58 03.04.2020
5553 Clouds -5 976 73 10000 5.1 20 10:38 03.04.2020
5554 Clouds -5 976 73 10000 5.1 30 10:20 03.04.2020
5555 Clouds -5 976 73 10000 5.1 30 09:57 03.04.2020
5556 Clouds -6 975 79 10000 5.7 40 09:39 03.04.2020
5557 Clouds -6 975 79 10000 5.7 40 09:21 03.04.2020
5558 Clouds -6 975 79 10000 5.7 40 08:55 03.04.2020
5559 Clouds -8 975 85 10000 5.7 30 08:36 03.04.2020
5560 Clouds -8 975 85 10000 5.1 30 08:18 03.04.2020
5561 Clouds -8 975 85 10000 5.1 40 07:41 03.04.2020
5562 Clouds -8 975 85 10000 5.1 40 07:41 03.04.2020
5563 Clouds -9 975 85 10000 5.7 30 07:23 03.04.2020
5564 Clouds -8 975 85 10000 4.1 30 06:34 03.04.2020
5565 Clouds -7 975 85 10000 4.1 50 05:43 03.04.2020
5566 Clouds -7 975 85 10000 5.1 50 05:21 03.04.2020
5567 Clouds -7 975 85 10000 5.1 50 03:37 03.04.2020
5568 Clouds -8 976 85 10000 5.7 50 02:47 03.04.2020
5569 Clouds -9 976 92 10000 4.1 50 01:30 03.04.2020
5570 Clouds -8 976 85 10000 4.6 50 00:56 03.04.2020
5571 Clouds -8 976 85 10000 4.6 60 00:33 03.04.2020
5572 Snow -7 976 85 10000 5.1 70 23:57 02.04.2020
5573 Snow -6 976 79 10000 5.1 70 23:38 02.04.2020
5574 Snow -6 977 79 10000 4.6 70 23:19 02.04.2020
5575 Snow -6 977 73 10000 4.1 60 22:42 02.04.2020
5576 Snow -6 977 73 10000 4.1 60 22:42 02.04.2020
5577 Snow -6 977 73 10000 4.1 60 22:23 02.04.2020
5578 Clouds -6 978 73 10000 2.6 70 21:59 02.04.2020
5579 Clouds -5 978 67 10000 3.1 100 21:37 02.04.2020
5580 Clouds -5 978 67 10000 3.1 120 21:19 02.04.2020
5581 Clouds -4 979 62 10000 3.1 130 20:45 02.04.2020
5582 Clouds -4 979 58 10000 3.1 120 20:25 02.04.2020
5583 Clouds -4 979 58 10000 3.1 120 19:59 02.04.2020
5584 Clouds -4 979 58 10000 3.1 120 19:59 02.04.2020
5585 Clouds -4 979 58 10000 3.1 130 19:40 02.04.2020
5586 Clouds -4 979 58 10000 2.6 110 19:20 02.04.2020
5587 Clouds -4 980 58 10000 3.6 110 18:56 02.04.2020
5588 Clouds -4 980 58 10000 3.6 110 18:37 02.04.2020
5589 Clouds -3 980 53 10000 3.1 110 18:18 02.04.2020
5590 Clouds -3 981 53 10000 3.1 120 17:43 02.04.2020
5591 Clouds -3 981 53 10000 3.1 130 17:24 02.04.2020
5592 Clouds -3 981 53 10000 3.1 130 16:58 02.04.2020
5593 Clouds -3 981 53 10000 3.6 110 16:40 02.04.2020
5594 Clouds -3 981 53 10000 2.6 110 16:22 02.04.2020
5595 Clouds -3 981 53 10000 2.6 110 15:57 02.04.2020
5596 Clouds -3 982 53 10000 2.1 90 15:39 02.04.2020
5597 Clouds -4 982 58 10000 1 0 15:18 02.04.2020
5598 Clouds -4 982 58 10000 1 0 14:57 02.04.2020
5599 Clouds -4 983 62 10000 2.6 130 14:38 02.04.2020
5600 Clouds -4 983 58 10000 2.6 130 14:18 02.04.2020
5601 Clouds -4 983 58 10000 2.1 120 13:54 02.04.2020
5602 Clouds -4 983 58 10000 2.1 120 13:36 02.04.2020
5603 Clouds -5 983 62 10000 2.1 140 13:18 02.04.2020
5604 Clouds -5 984 62 10000 2.6 100 12:41 02.04.2020
5605 Clouds -5 984 62 10000 2.1 150 12:19 02.04.2020
5606 Clouds -5 984 62 10000 2.1 150 11:57 02.04.2020
5607 Clouds -5 984 62 10000 2.1 150 11:57 02.04.2020
5608 Clouds -5 984 62 10000 2.6 140 11:39 02.04.2020
5609 Clouds -6 985 73 10000 2.1 100 11:20 02.04.2020
5610 Clouds -6 985 73 10000 2.1 100 10:56 02.04.2020
5611 Clouds -7 985 73 10000 2.1 80 10:37 02.04.2020
5612 Clouds -8 985 78 10000 2.1 70 10:19 02.04.2020
5613 Clouds -8 985 78 10000 2.1 70 10:19 02.04.2020
5614 Clouds -8 985 78 10000 2.1 70 09:58 02.04.2020
5615 Clouds -8 986 78 10000 2.6 80 09:39 02.04.2020
5616 Clouds -8 986 78 10000 2.6 70 09:19 02.04.2020
5617 Clouds -9 986 85 10000 2.6 70 08:47 02.04.2020
5618 Clouds -9 986 85 10000 2.6 70 08:27 02.04.2020
5619 Rain -12 987 92 10000 2.1 40 07:45 02.04.2020
5620 Clouds -11 987 92 10000 3.6 30 07:21 02.04.2020
5621 Fog -12 987 85 10000 3.6 360 06:59 02.04.2020
5622 Clear -12 987 92 10000 3.1 350 06:22 02.04.2020
5623 Clouds -11 988 92 10000 3.1 340 05:45 02.04.2020
5624 Clouds -9 988 85 10000 3.6 350 04:46 02.04.2020
5625 Clouds -8 990 85 10000 3.6 320 01:54 02.04.2020
5626 Clear -8 990 85 10000 3.1 320 00:51 02.04.2020
5627 Clear -8 990 85 10000 3.1 320 00:29 02.04.2020
5628 Clear -8 990 85 10000 3.1 320 23:57 01.04.2020
5629 Clear -7 990 79 10000 3.6 330 23:37 01.04.2020
5630 Clear -7 990 79 10000 3.1 330 23:18 01.04.2020
5631 Clouds -7 990 79 10000 3.1 330 22:41 01.04.2020
5632 Clouds -6 990 73 10000 2.6 320 22:22 01.04.2020
5633 Clouds -6 990 73 10000 2.6 320 21:57 01.04.2020
5634 Clear -6 991 73 10000 2.6 320 21:39 01.04.2020
5635 Clouds -5 991 73 10000 2.6 320 21:18 01.04.2020
5636 Clouds -5 991 73 10000 2.6 320 20:55 01.04.2020
5637 Clouds -6 991 79 10000 2.6 320 20:37 01.04.2020
5638 Clouds -6 991 79 10000 2.1 300 20:18 01.04.2020
5639 Clouds -6 991 79 10000 2.1 300 20:18 01.04.2020
5640 Clouds -4 991 68 10000 2.6 340 19:43 01.04.2020
5641 Clouds -4 991 68 10000 3.1 320 19:22 01.04.2020
5642 Clouds -4 991 68 10000 3.1 320 18:59 01.04.2020
5643 Clouds -4 991 68 10000 3.1 330 18:40 01.04.2020
5644 Snow -4 991 73 10000 4.1 340 18:21 01.04.2020
5645 Clouds -4 991 79 10000 3.1 320 17:55 01.04.2020
5646 Clouds -4 991 79 10000 3.1 320 17:36 01.04.2020
5647 Snow -4 992 79 3600 3.1 330 17:18 01.04.2020
5648 Snow -4 992 79 3600 3.1 330 17:18 01.04.2020
5649 Snow -4 991 79 1500 3.6 350 16:42 01.04.2020
5650 Snow -3 991 63 10000 4.1 340 16:24 01.04.2020
5651 Snow -3 991 63 10000 4.1 340 15:59 01.04.2020
5652 Snow -3 991 63 10000 6.2 340 15:41 01.04.2020
5653 Clouds -4 991 68 10000 5.7 10 15:21 01.04.2020
5654 Snow -4 992 68 8000 5.7 360 14:57 01.04.2020
5655 Snow -4 992 68 8000 5.7 360 14:38 01.04.2020
5656 Snow -4 991 73 10000 5.7 350 14:19 01.04.2020
5657 Snow -4 991 73 10000 5.7 350 13:58 01.04.2020
5658 Snow -4 991 68 2500 5.7 360 13:37 01.04.2020
5659 Snow -5 991 73 7000 5.7 350 13:19 01.04.2020
5660 Snow -5 991 67 10000 5.1 350 12:54 01.04.2020
5661 Snow -5 991 67 10000 5.1 350 12:36 01.04.2020
5662 Clouds -5 991 62 10000 6.2 350 12:18 01.04.2020
5663 Rain -6 991 67 10000 6.2 350 11:42 01.04.2020
5664 Snow -6 991 67 10000 6.2 350 11:23 01.04.2020
5665 Snow -6 991 67 10000 6.2 350 10:58 01.04.2020
5666 Clouds -6 991 73 10000 6.2 330 10:37 01.04.2020
5667 Clouds -7 991 79 10000 4.6 340 10:18 01.04.2020
5668 Clouds -7 991 79 10000 4.6 340 09:57 01.04.2020
5669 Clouds -7 990 73 10000 5.1 350 09:38 01.04.2020
5670 Clouds -7 990 79 10000 5.1 360 09:18 01.04.2020
5671 Clouds -6 990 73 10000 5.1 350 08:40 01.04.2020
5672 Clouds -6 989 79 10000 5.7 340 08:18 01.04.2020
5673 Snow -6 989 79 10000 5.7 340 07:43 01.04.2020
5674 Clouds -6 989 79 10000 5.7 350 07:21 01.04.2020
5675 Clouds -6 989 85 10000 5.1 340 06:48 01.04.2020
5676 Snow -5 988 85 10000 5.1 340 06:24 01.04.2020
5677 Snow -5 988 85 10000 5.1 340 05:56 01.04.2020
5678 Snow -3 987 92 10000 5.1 350 04:30 01.04.2020
5679 Clouds -2 986 79 10000 3.6 340 03:28 01.04.2020
5680 Clouds -2 986 74 10000 3.6 330 02:49 01.04.2020
5681 Clouds -2 986 74 10000 2.6 310 01:56 01.04.2020
5682 Snow -2 986 74 10000 3.1 290 01:37 01.04.2020
5683 Clouds -2 986 74 10000 1.5 270 01:18 01.04.2020
5684 Clouds -3 986 86 10000 1.5 230 00:43 01.04.2020
5685 Clouds -2 986 79 10000 1.5 250 00:18 01.04.2020
5686 Clouds -2 986 79 10000 1 0 23:41 31.03.2020
5687 Clouds -2 986 79 10000 1 0 23:41 31.03.2020
5688 Clouds -2 985 86 10000 2.1 240 23:23 31.03.2020
5689 Clouds -2 985 86 10000 2.1 240 23:23 31.03.2020
5690 Clouds -3 986 92 10000 3.1 230 22:43 31.03.2020
5691 Clouds -1 986 92 10000 3.1 230 22:23 31.03.2020
5692 Clouds -1 986 92 10000 3.1 230 22:23 31.03.2020
5693 Clouds -1 986 92 10000 2.1 200 21:59 31.03.2020
5694 Clouds -1 986 92 10000 2.1 200 21:59 31.03.2020
5695 Clouds -1 986 92 10000 2.1 200 21:59 31.03.2020
5696 Clouds -1 986 92 10000 2.1 200 21:41 31.03.2020
5697 Snow 0 986 95 10000 2.6 340 21:22 31.03.2020
5698 Snow 0 986 95 10000 2.6 340 20:58 31.03.2020
5699 Clouds 0 986 95 10000 4.1 340 20:38 31.03.2020
5700 Clouds 0 986 95 10000 4.1 340 20:20 31.03.2020
5701 Clouds 0 986 95 10000 4.1 340 19:59 31.03.2020
5702 Snow 1 986 80 10000 3.6 340 19:40 31.03.2020
5703 Clouds 1 986 86 10000 4.1 280 19:21 31.03.2020
5704 Clouds 2 986 80 10000 2.1 250 18:54 31.03.2020
5705 Clouds 2 986 80 10000 2.1 250 18:36 31.03.2020
5706 Snow 1 986 84 10000 2.6 230 18:18 31.03.2020
5707 Clouds 1 986 84 10000 2.6 230 17:54 31.03.2020
5708 Clouds 1 986 84 10000 2.6 230 17:36 31.03.2020
5709 Clouds 0 986 84 10000 3.1 230 17:18 31.03.2020
5710 Clouds 0 986 84 10000 4.6 220 16:37 31.03.2020
5711 Clouds 0 986 84 10000 4.6 220 16:18 31.03.2020
5712 Clouds 0 986 84 10000 4.6 220 15:57 31.03.2020
5713 Clouds -1 987 100 10000 4.6 220 15:37 31.03.2020
5714 Snow -1 987 92 2800 5.7 210 15:19 31.03.2020
5715 Snow -1 987 92 2800 5.7 210 14:56 31.03.2020
5716 Snow -2 987 92 1000 6.2 190 14:38 31.03.2020
5717 Snow -3 988 92 800 6.7 190 14:18 31.03.2020
5718 Snow -3 988 92 800 6.7 190 13:41 31.03.2020
5719 Snow -3 989 92 700 7.2 190 13:19 31.03.2020
5720 Snow -4 990 92 600 7.7 180 12:54 31.03.2020
5721 Snow -4 990 92 600 7.7 180 12:36 31.03.2020
5722 Snow -4 991 92 500 7.2 190 12:18 31.03.2020
5723 Snow -4 992 92 600 8.2 190 11:38 31.03.2020
5724 Snow -4 993 92 600 7.7 190 11:19 31.03.2020
5725 Snow -4 993 92 600 7.7 190 10:57 31.03.2020
5726 Snow -4 993 92 1500 10.3 190 10:39 31.03.2020
5727 Snow -4 994 92 1500 10.3 190 10:20 31.03.2020
5728 Snow -4 996 85 1200 9.3 190 09:55 31.03.2020
5729 Snow -4 996 85 1200 9.3 190 09:37 31.03.2020
5730 Snow -5 998 92 1200 7.7 180 09:19 31.03.2020
5731 Snow -5 998 92 1200 7.7 180 08:54 31.03.2020
5732 Snow -6 999 92 1400 7.2 170 08:36 31.03.2020
5733 Snow -6 1001 85 1400 7.7 180 08:18 31.03.2020
5734 Snow -6 1002 79 5000 6.7 180 07:43 31.03.2020
5735 Snow -7 1003 79 10000 6.7 170 07:23 31.03.2020
5736 Snow -7 1005 73 10000 7.7 180 06:55 31.03.2020
5737 Snow -7 1005 73 10000 7.7 180 06:36 31.03.2020
5738 Clouds -7 1007 67 10000 4.1 180 05:42 31.03.2020
5739 Clouds -8 1008 67 10000 3.6 180 05:20 31.03.2020
5740 Clouds -9 1013 56 10000 3.1 210 02:40 31.03.2020
5741 Clouds -8 1015 52 10000 3.6 200 01:47 31.03.2020
5742 Clouds -8 1016 57 10000 2.1 230 00:53 31.03.2020
5743 Clouds -8 1016 57 10000 2.1 230 00:25 31.03.2020
5744 Clear -8 1017 57 10000 2.6 230 23:59 30.03.2020
5745 Clear -8 1017 57 10000 2.1 230 23:38 30.03.2020
5746 Clear -7 1017 52 10000 2.1 260 23:19 30.03.2020
5747 Clear -7 1017 52 10000 2.1 260 22:57 30.03.2020
5748 Clear -6 1018 48 10000 2.1 240 22:38 30.03.2020
5749 Clear -6 1018 48 10000 2.1 240 22:18 30.03.2020
5750 Clear -6 1018 48 10000 2.1 240 21:57 30.03.2020
5751 Clear -6 1018 48 10000 2.1 270 21:37 30.03.2020
5752 Clouds -5 1019 45 10000 1.5 260 21:19 30.03.2020
5753 Clouds -5 1019 45 10000 2.1 270 20:55 30.03.2020
5754 Clouds -5 1019 45 10000 2.1 270 20:36 30.03.2020
5755 Clouds -5 1019 45 10000 2.1 270 20:36 30.03.2020
5756 Clouds -5 1019 45 10000 2.1 280 20:18 30.03.2020
5757 Clouds -4 1019 41 10000 2.1 260 19:40 30.03.2020
5758 Clouds -4 1019 41 10000 1.5 260 19:22 30.03.2020
5759 Clouds -4 1019 41 10000 1.5 260 18:57 30.03.2020
5760 Clouds -3 1019 38 10000 2.6 300 18:39 30.03.2020
5761 Snow -3 1019 38 10000 2.6 300 18:20 30.03.2020
5762 Snow -3 1019 38 10000 2.6 300 17:57 30.03.2020
5763 Snow -3 1019 38 10000 3.1 280 17:38 30.03.2020
5764 Snow -2 1019 36 10000 3.6 290 17:19 30.03.2020
5765 Snow -2 1019 36 10000 3.6 290 16:55 30.03.2020
5766 Snow -2 1019 39 10000 4.1 290 16:37 30.03.2020
5767 Snow -3 1019 42 10000 3.6 310 16:18 30.03.2020
5768 Snow -3 1019 42 10000 3.6 310 15:54 30.03.2020
5769 Snow -3 1019 38 10000 5.7 320 15:36 30.03.2020
5770 Snow -2 1019 36 10000 5.7 310 15:18 30.03.2020
5771 Snow -2 1019 39 10000 4.1 320 14:39 30.03.2020
5772 Snow -3 1019 42 10000 5.1 300 14:19 30.03.2020
5773 Snow -3 1019 42 10000 5.1 300 13:59 30.03.2020
5774 Snow -3 1019 42 10000 4.1 290 13:40 30.03.2020
5775 Clouds -3 1019 42 10000 5.1 310 13:20 30.03.2020
5776 Clouds -3 1019 45 10000 4.1 300 12:54 30.03.2020
5777 Clouds -3 1019 45 10000 4.1 300 12:54 30.03.2020
5778 Clouds -3 1019 45 10000 4.1 300 12:36 30.03.2020
5779 Clear -4 1019 49 10000 3.6 300 12:18 30.03.2020
5780 Clear -4 1019 49 10000 5.1 310 11:42 30.03.2020
5781 Clear -4 1019 49 10000 5.1 310 11:23 30.03.2020
5782 Clear -5 1019 53 10000 4.6 310 10:57 30.03.2020
5783 Clear -6 1019 57 10000 4.1 310 10:38 30.03.2020
5784 Clear -6 1018 57 10000 4.6 310 10:20 30.03.2020
5785 Clear -7 1018 57 10000 4.1 310 09:41 30.03.2020
5786 Clear -8 1018 61 10000 4.1 300 09:20 30.03.2020
5787 Clear -8 1018 61 10000 4.1 300 08:58 30.03.2020
5788 Clear -9 1018 66 10000 3.6 310 08:38 30.03.2020
5789 Clear -9 1018 61 10000 3.6 310 08:20 30.03.2020
5790 Clear -10 1018 66 10000 3.1 320 07:44 30.03.2020
5791 Clear -11 1018 72 10000 3.1 320 07:23 30.03.2020
5792 Clear -11 1017 72 10000 3.1 320 06:47 30.03.2020
5793 Clear -12 1017 78 10000 2.1 280 06:27 30.03.2020
5794 Clear -12 1017 78 10000 2.1 310 05:44 30.03.2020
5795 Clear -11 1016 72 10000 3.1 320 04:37 30.03.2020
5796 Clear -11 1016 72 10000 4.1 330 04:18 30.03.2020
5797 Clear -11 1016 66 10000 2.6 310 02:45 30.03.2020
5798 Clear -10 1016 61 10000 2.1 310 01:58 30.03.2020
5799 Clear -9 1016 61 10000 3.6 310 01:18 30.03.2020
5800 Clear -9 1016 56 10000 3.1 320 00:29 30.03.2020
5801 Clear -8 1016 52 10000 2.6 310 23:56 29.03.2020
5802 Clear -8 1015 52 10000 3.1 310 23:37 29.03.2020
5803 Clear -8 1015 52 10000 3.1 310 23:37 29.03.2020
5804 Clear -8 1015 52 10000 3.6 320 23:19 29.03.2020
5805 Clear -8 1015 48 10000 2.6 320 22:55 29.03.2020
5806 Clear -8 1015 48 10000 2.6 320 22:37 29.03.2020
5807 Clear -7 1015 41 10000 2.6 310 22:18 29.03.2020
5808 Clear -7 1015 44 10000 3.1 320 21:38 29.03.2020
5809 Clouds -6 1015 41 10000 3.6 320 21:20 29.03.2020
5810 Clouds -6 1015 41 10000 3.6 320 20:55 29.03.2020
5811 Clouds -6 1014 44 10000 2.6 310 20:37 29.03.2020
5812 Clouds -6 1014 44 10000 2.6 310 20:37 29.03.2020
5813 Clouds -6 1014 44 10000 2.6 310 20:37 29.03.2020
5814 Clouds -6 1014 44 10000 2.6 290 20:19 29.03.2020
5815 Clouds -6 1014 44 10000 2.6 290 20:19 29.03.2020
5816 Clouds -5 1014 45 10000 2.1 310 19:57 29.03.2020
5817 Clouds -5 1014 45 10000 2.1 310 19:57 29.03.2020
5818 Clouds -5 1014 45 10000 2.1 310 19:39 29.03.2020
5819 Clouds -5 1014 45 10000 2.1 310 19:39 29.03.2020
5820 Clouds -4 1014 41 10000 2.1 290 19:21 29.03.2020
5821 Clouds -4 1014 45 10000 2.6 300 18:57 29.03.2020
5822 Clouds -4 1014 45 10000 2.6 300 18:38 29.03.2020
5823 Snow -3 1014 45 10000 2.6 280 18:19 29.03.2020
5824 Snow -3 1014 45 10000 3.1 280 17:55 29.03.2020
5825 Snow -3 1014 45 10000 3.1 280 17:37 29.03.2020
5826 Snow -3 1014 38 10000 3.1 300 17:18 29.03.2020
5827 Snow -3 1014 42 10000 3.6 300 16:56 29.03.2020
5828 Snow -3 1014 42 10000 3.6 300 16:38 29.03.2020
5829 Snow -3 1014 45 10000 2.1 290 16:18 29.03.2020
5830 Snow -2 1013 39 10000 3.1 310 15:41 29.03.2020
5831 Snow -2 1014 42 10000 3.1 300 15:23 29.03.2020
5832 Snow -2 1014 42 10000 3.1 300 15:23 29.03.2020
5833 Snow -2 1014 42 10000 3.1 300 14:57 29.03.2020
5834 Snow -2 1014 39 10000 5.7 310 14:39 29.03.2020
5835 Clouds -3 1014 45 10000 3.6 260 14:20 29.03.2020
5836 Snow -3 1014 38 10000 3.6 290 13:56 29.03.2020
5837 Snow -3 1014 38 10000 3.6 290 13:38 29.03.2020
5838 Clouds -3 1014 42 10000 3.6 300 13:19 29.03.2020
5839 Snow -3 1014 42 10000 4.6 290 12:55 29.03.2020
5840 Snow -3 1014 42 10000 4.6 290 12:37 29.03.2020
5841 Clouds -3 1014 42 10000 4.6 320 12:18 29.03.2020
5842 Clouds -3 1014 45 10000 5.1 300 11:40 29.03.2020
5843 Clouds -4 1014 49 10000 4.6 320 11:21 29.03.2020
5844 Clouds -4 1014 49 10000 4.6 320 10:59 29.03.2020
5845 Clouds -4 1014 53 10000 4.1 300 10:37 29.03.2020
5846 Clouds -5 1013 57 10000 3.6 290 10:18 29.03.2020
5847 Clouds -5 1013 57 10000 3.6 290 10:18 29.03.2020
5848 Clouds -5 1013 53 10000 3.1 300 09:40 29.03.2020
5849 Clouds -6 1013 62 10000 3.6 300 09:19 29.03.2020
5850 Clouds -7 1013 62 10000 3.6 300 08:53 29.03.2020
5851 Clouds -7 1013 62 10000 3.6 300 08:28 29.03.2020
5852 Clouds -8 1013 61 10000 3.1 280 07:58 29.03.2020
5853 Clouds -8 1013 67 10000 3.1 310 07:58 29.03.2020
5854 Clouds -8 1013 61 10000 3.1 280 07:58 29.03.2020
5855 Clouds -8 1013 61 10000 3.1 280 07:39 29.03.2020
5856 Clouds -8 1013 61 10000 3.1 280 07:39 29.03.2020
5857 Clouds -9 1013 66 10000 2.6 280 07:20 29.03.2020
5858 Clear -9 1012 66 10000 3.6 300 04:59 29.03.2020
5859 Clear -9 1012 66 10000 3.6 300 04:59 29.03.2020
5860 Clear -8 1012 61 10000 4.1 290 03:48 29.03.2020
5861 Clear -8 1012 61 10000 4.1 290 03:26 29.03.2020
5862 Clouds -8 1012 61 10000 5.1 290 01:50 29.03.2020
5863 Clouds -8 1012 61 10000 5.1 290 01:23 29.03.2020
5864 Clouds -7 1012 57 10000 4.1 290 00:53 29.03.2020
5865 Clouds -7 1012 57 10000 4.1 290 00:30 29.03.2020
5866 Clouds -7 1012 57 10000 4.1 280 23:42 28.03.2020
5867 Clouds -6 1012 53 10000 5.1 290 23:23 28.03.2020
5868 Clouds -6 1011 53 10000 4.1 280 22:57 28.03.2020
5869 Clouds -6 1011 53 10000 4.1 280 22:37 28.03.2020
5870 Clouds -6 1011 53 10000 5.7 290 22:19 28.03.2020
5871 Clouds -6 1011 57 10000 6.2 290 21:42 28.03.2020
5872 Clouds -5 1011 53 10000 4.1 290 21:24 28.03.2020
5873 Clouds -5 1011 53 10000 4.1 290 20:58 28.03.2020
5874 Clouds -5 1011 49 10000 4.6 290 20:39 28.03.2020
5875 Clouds -5 1011 49 10000 4.6 300 20:21 28.03.2020
5876 Clouds -5 1011 49 10000 4.6 300 19:57 28.03.2020
5877 Clouds -5 1011 49 10000 4.6 290 19:37 28.03.2020
5878 Clouds -5 1011 49 10000 4.6 290 19:37 28.03.2020
5879 Clouds -4 1011 45 10000 4.6 290 19:19 28.03.2020
5880 Clouds -4 1010 45 10000 3.6 290 18:55 28.03.2020
5881 Clouds -4 1010 45 10000 3.6 290 18:36 28.03.2020
5882 Clouds -3 1010 38 10000 6.2 300 18:18 28.03.2020
5883 Clouds -3 1010 38 10000 5.1 300 17:38 28.03.2020
5884 Snow -3 1010 38 10000 6.7 290 17:19 28.03.2020
5885 Snow -2 1009 39 10000 7.7 300 16:42 28.03.2020
5886 Snow -2 1009 39 10000 7.2 300 16:20 28.03.2020
5887 Snow -2 1009 39 10000 7.2 300 15:56 28.03.2020
5888 Snow -2 1009 39 10000 8.2 300 15:37 28.03.2020
5889 Snow -2 1008 39 10000 7.2 300 15:18 28.03.2020
5890 Snow -1 1008 39 10000 8.7 290 14:42 28.03.2020
5891 Snow -2 1008 42 10000 7.7 300 14:22 28.03.2020
5892 Snow -2 1008 42 10000 7.7 300 13:56 28.03.2020
5893 Clouds -2 1007 42 10000 7.7 300 13:37 28.03.2020
5894 Clouds -2 1007 46 10000 7.2 300 13:18 28.03.2020
5895 Clouds -2 1007 46 10000 7.2 300 13:18 28.03.2020
5896 Clouds -2 1007 50 10000 7.2 300 12:38 28.03.2020
5897 Clouds -2 1006 50 10000 8.2 300 12:19 28.03.2020
5898 Snow -2 1005 54 10000 8.2 290 11:42 28.03.2020
5899 Snow -3 1004 68 3100 8.7 290 11:21 28.03.2020
5900 Snow -3 1004 86 1300 7.7 280 10:43 28.03.2020
5901 Snow -3 1003 79 3900 10.3 280 10:24 28.03.2020
5902 Snow -3 1003 79 3900 10.3 280 09:59 28.03.2020
5903 Snow -1 1002 58 10000 9.3 290 09:39 28.03.2020
5904 Clouds 0 1001 83 10000 9.3 300 09:21 28.03.2020
5905 Clouds 1 1000 50 10000 8.7 280 08:42 28.03.2020
5906 Clouds 1 1000 50 10000 8.7 280 08:42 28.03.2020
5907 Clouds 1 1000 55 10000 8.7 270 08:24 28.03.2020
5908 Clouds 1 1000 59 10000 7.7 260 07:53 28.03.2020
5909 Clouds 1 1000 59 10000 7.7 260 07:35 28.03.2020
5910 Clouds -1 999 80 10000 7.2 230 06:52 28.03.2020
5911 Clouds -1 1000 86 10000 6.7 230 06:23 28.03.2020
5912 Clouds -1 1000 86 10000 6.2 220 05:26 28.03.2020
5913 Clouds 0 1001 96 10000 6.7 220 04:53 28.03.2020
5914 Clouds 0 1001 96 10000 6.7 220 04:35 28.03.2020
5915 Clouds -1 1003 86 10000 4.6 200 02:50 28.03.2020
5916 Clouds -2 1005 92 10000 4.6 200 01:47 28.03.2020
5917 Clouds -2 1005 92 10000 4.6 200 01:23 28.03.2020
5918 Clouds -1 1006 86 10000 5.7 190 00:47 28.03.2020
5919 Clouds -1 1007 86 10000 4.6 200 00:21 28.03.2020
5920 Clouds -1 1008 86 10000 5.1 200 23:43 27.03.2020
5921 Clouds -1 1008 92 10000 5.1 200 23:24 27.03.2020
5922 Clouds 0 1009 89 10000 5.1 210 22:57 27.03.2020
5923 Clouds 0 1009 89 10000 5.1 210 22:39 27.03.2020
5924 Clouds 0 1009 89 10000 5.7 210 22:20 27.03.2020
5925 Clouds 0 1009 89 10000 5.7 210 21:56 27.03.2020
5926 Clouds 0 1010 89 10000 5.1 210 21:38 27.03.2020
5927 Clouds 0 1010 89 10000 4.1 0 21:20 27.03.2020
5928 Clouds 0 1011 88 10000 4.6 210 20:43 27.03.2020
5929 Clouds 1 1011 80 10000 3.6 220 20:21 27.03.2020
5930 Clouds 1 1011 80 10000 3.6 220 19:59 27.03.2020
5931 Clouds 1 1012 80 10000 4.1 220 19:40 27.03.2020
5932 Clouds 2 1012 74 10000 5.7 220 19:22 27.03.2020
5933 Clouds 2 1012 74 10000 5.7 220 18:56 27.03.2020
5934 Clouds 2 1012 74 10000 5.7 220 18:38 27.03.2020
5935 Clouds 2 1013 74 10000 5.1 220 18:19 27.03.2020
5936 Clouds 2 1013 74 10000 5.1 220 17:40 27.03.2020
5937 Clouds 2 1013 80 10000 5.7 220 17:20 27.03.2020
5938 Clouds 2 1014 74 10000 6.7 220 16:45 27.03.2020
5939 Clouds 2 1014 74 10000 6.7 220 16:27 27.03.2020
5940 Clouds 2 1014 74 10000 6.2 220 15:59 27.03.2020
5941 Clouds 3 1014 69 10000 7.7 220 15:40 27.03.2020
5942 Clouds 3 1015 69 10000 7.7 210 15:22 27.03.2020
5943 Clouds 3 1015 69 10000 7.2 210 14:46 27.03.2020
5944 Clouds 3 1016 69 10000 6.7 220 14:25 27.03.2020
5945 Clouds 3 1016 69 10000 6.7 220 13:56 27.03.2020
5946 Clouds 3 1016 69 10000 6.7 210 13:37 27.03.2020
5947 Clouds 4 1016 64 10000 6.7 210 13:18 27.03.2020
5948 Clouds 5 1017 60 10000 6.2 210 12:49 27.03.2020
5949 Clouds 5 1017 56 10000 6.7 230 12:21 27.03.2020
5950 Clouds 4 1017 64 10000 6.2 210 11:59 27.03.2020
5951 Clouds 4 1017 64 10000 6.2 210 11:59 27.03.2020
5952 Clouds 4 1017 64 10000 6.2 210 11:59 27.03.2020
5953 Clouds 4 1017 64 10000 6.2 210 11:59 27.03.2020
5954 Clouds 4 1017 64 10000 6.2 210 11:40 27.03.2020
5955 Clouds 4 1017 64 10000 5.7 210 11:22 27.03.2020
5956 Clouds 3 1018 69 10000 5.7 240 10:54 27.03.2020
5957 Clouds 3 1018 69 10000 5.7 240 10:36 27.03.2020
5958 Clouds 3 1018 69 10000 5.7 240 10:36 27.03.2020
5959 Clouds 2 1018 74 10000 5.7 230 10:18 27.03.2020
5960 Clouds 2 1018 74 10000 5.7 230 09:54 27.03.2020
5961 Clouds 2 1018 69 10000 6.7 230 09:36 27.03.2020
5962 Clouds 1 1018 74 10000 6.2 230 09:18 27.03.2020
5963 Clouds 1 1018 74 10000 6.7 230 08:54 27.03.2020
5964 Clouds 1 1018 74 10000 6.7 230 08:36 27.03.2020
5965 Clouds 0 1018 89 10000 5.7 230 08:18 27.03.2020
5966 Clouds -1 1017 80 10000 5.1 220 07:41 27.03.2020
5967 Clouds -1 1017 80 10000 4.6 240 07:21 27.03.2020
5968 Clouds -1 1017 80 10000 5.7 230 06:41 27.03.2020
5969 Clouds -1 1017 80 10000 5.7 240 05:57 27.03.2020
5970 Clouds -1 1017 80 10000 6.2 230 03:34 27.03.2020
5971 Clouds -2 1017 79 10000 5.1 230 02:19 27.03.2020
5972 Clouds -2 1017 79 10000 6.2 220 01:19 27.03.2020
5973 Clouds -1 1017 80 10000 5.7 220 00:43 27.03.2020
5974 Clouds -1 1017 80 10000 5.7 210 00:19 27.03.2020
5975 Clouds -1 1017 80 10000 5.7 220 23:40 26.03.2020
5976 Clouds -1 1017 80 10000 5.1 220 23:18 26.03.2020
5977 Clouds 0 1017 92 10000 6.2 210 22:57 26.03.2020
5978 Clouds 0 1017 92 10000 6.2 210 22:36 26.03.2020
5979 Clouds 0 1018 92 10000 5.1 210 22:18 26.03.2020
5980 Clouds 0 1018 92 10000 6.2 220 21:40 26.03.2020
5981 Clouds 0 1018 92 10000 5.7 220 21:21 26.03.2020
5982 Clouds 0 1018 92 10000 5.7 220 20:59 26.03.2020
5983 Clouds 0 1018 92 10000 5.7 230 20:39 26.03.2020
5984 Clouds 0 1018 97 10000 6.2 220 20:21 26.03.2020
5985 Clouds 0 1018 96 10000 6.2 220 19:58 26.03.2020
5986 Clouds 1 1018 74 10000 6.7 210 19:40 26.03.2020
5987 Clouds 1 1018 74 10000 6.7 220 19:21 26.03.2020
5988 Clouds 1 1018 74 10000 6.7 220 18:58 26.03.2020
5989 Clouds 1 1019 69 10000 5.7 210 18:40 26.03.2020
5990 Clouds 2 1018 64 10000 5.1 200 18:21 26.03.2020
5991 Clouds 3 1019 59 10000 6.2 210 17:44 26.03.2020
5992 Clear 3 1019 59 10000 6.7 210 17:19 26.03.2020
5993 Clear 3 1019 59 10000 7.7 210 16:55 26.03.2020
5994 Clear 3 1019 59 10000 7.7 210 16:55 26.03.2020
5995 Clear 3 1019 59 10000 7.7 210 16:37 26.03.2020
5996 Clear 4 1019 55 10000 6.7 220 16:18 26.03.2020
5997 Clear 4 1019 51 10000 7.7 220 15:41 26.03.2020
5998 Clear 4 1019 55 10000 7.7 210 15:22 26.03.2020
5999 Clear 4 1019 55 10000 7.7 210 14:59 26.03.2020
6000 Clear 4 1019 55 10000 6.7 220 14:41 26.03.2020
6001 Clear 4 1019 51 10000 7.7 210 14:23 26.03.2020
6002 Clear 4 1019 51 10000 7.2 210 13:45 26.03.2020
6003 Clear 3 1019 55 10000 8.2 210 13:24 26.03.2020
6004 Clear 3 1019 55 10000 8.2 210 13:24 26.03.2020
6005 Clear 3 1019 55 10000 8.2 210 12:59 26.03.2020
6006 Clear 3 1019 59 10000 6.7 230 12:38 26.03.2020
6007 Clear 3 1019 59 10000 6.2 210 12:20 26.03.2020
6008 Clear 3 1019 59 10000 5.1 220 11:46 26.03.2020
6009 Clear 3 1019 59 10000 5.7 210 11:22 26.03.2020
6010 Clear 3 1019 59 10000 5.7 210 11:22 26.03.2020
6011 Clear 2 1019 64 10000 4.1 210 10:56 26.03.2020
6012 Clear 2 1019 64 10000 4.1 210 10:37 26.03.2020
6013 Clear 2 1019 59 10000 3.1 230 10:19 26.03.2020
6014 Clear 2 1019 59 10000 3.1 270 09:44 26.03.2020
6015 Clear 1 1019 64 10000 3.1 250 09:20 26.03.2020
6016 Clear 0 1018 84 10000 3.1 250 08:55 26.03.2020
6017 Clear 0 1018 84 10000 3.1 250 08:37 26.03.2020
6018 Clear -1 1018 74 10000 4.6 240 08:18 26.03.2020
6019 Clear -2 1018 79 10000 3.1 240 07:41 26.03.2020
6020 Clear -3 1017 79 10000 2.6 230 07:20 26.03.2020
6021 Clear -3 1017 79 10000 2.6 230 06:48 26.03.2020
6022 Clear -3 1016 79 10000 3.1 210 05:54 26.03.2020
6023 Clear -2 1015 79 10000 2.6 200 03:59 26.03.2020
6024 Clear -1 1014 74 10000 2.1 270 03:36 26.03.2020
6025 Clear -1 1013 68 10000 3.1 280 02:54 26.03.2020
6026 Clouds 0 1012 92 10000 3.6 260 01:50 26.03.2020
6027 Clouds 1 1011 59 10000 3.1 270 00:45 26.03.2020
6028 Clouds 2 1010 55 10000 4.1 280 23:47 25.03.2020
6029 Clouds 2 1009 55 10000 4.6 290 23:28 25.03.2020
6030 Clouds 3 1008 51 10000 4.6 290 22:58 25.03.2020
6031 Clouds 3 1008 51 10000 4.6 290 22:38 25.03.2020
6032 Clouds 3 1008 55 10000 5.1 300 22:19 25.03.2020
6033 Clouds 3 1007 55 10000 5.1 300 21:55 25.03.2020
6034 Clouds 3 1007 55 10000 5.1 300 21:37 25.03.2020
6035 Clouds 4 1006 60 10000 4.1 290 21:18 25.03.2020
6036 Clouds 4 1006 60 10000 4.1 290 21:18 25.03.2020
6037 Clouds 4 1006 64 10000 4.6 280 20:40 25.03.2020
6038 Clouds 3 1005 74 10000 3.6 240 20:20 25.03.2020
6039 Clouds 3 1005 74 10000 3.6 240 19:58 25.03.2020
6040 Clouds 3 1004 74 10000 4.1 240 19:39 25.03.2020
6041 Clouds 4 1004 64 10000 4.1 260 19:21 25.03.2020
6042 Clouds 6 1003 45 10000 4.1 270 18:54 25.03.2020
6043 Clouds 5 1003 60 10000 3.6 260 18:36 25.03.2020
6044 Clouds 5 1003 60 10000 3.6 260 18:18 25.03.2020
6045 Snow 6 1002 60 10000 3.1 260 17:41 25.03.2020
6046 Clouds 5 1002 65 10000 3.1 240 17:23 25.03.2020
6047 Clouds 4 1001 69 10000 2.6 240 16:59 25.03.2020
6048 Clouds 4 1001 69 10000 2.6 240 16:41 25.03.2020
6049 Clouds 4 1001 69 10000 4.1 230 16:21 25.03.2020
6050 Clouds 4 1000 69 10000 4.6 220 15:44 25.03.2020
6051 Clouds 4 1000 69 10000 4.6 220 15:21 25.03.2020
6052 Clouds 4 1000 69 10000 4.6 220 14:59 25.03.2020
6053 Clouds 4 999 69 10000 5.1 220 14:40 25.03.2020
6054 -273 0 0 0 0 0 14:20 25.03.2020
6055 Clouds 4 998 69 10000 5.7 220 13:46 25.03.2020
6056 Clouds 4 998 69 10000 5.7 220 13:25 25.03.2020
6057 Clouds 5 998 65 10000 6.7 220 12:54 25.03.2020
6058 Clouds 5 998 65 10000 6.7 220 12:36 25.03.2020
6059 Clouds 4 997 69 10000 7.2 220 12:18 25.03.2020
6060 Clouds 4 997 69 10000 6.2 220 11:41 25.03.2020
6061 Clouds 3 997 69 10000 7.2 210 11:21 25.03.2020
6062 Clouds 3 997 69 10000 7.7 220 10:59 25.03.2020
6063 Clouds 3 997 69 10000 7.7 220 10:59 25.03.2020
6064 Clouds 3 997 69 10000 7.7 220 10:40 25.03.2020
6065 Clouds 2 997 74 10000 9.8 220 10:19 25.03.2020
6066 Clouds 2 997 74 10000 9.8 220 09:58 25.03.2020
6067 Clouds 2 997 74 10000 9.8 220 09:39 25.03.2020
6068 Clouds 2 997 74 10000 8.2 220 09:21 25.03.2020
6069 Clouds 1 997 80 10000 8.2 220 08:43 25.03.2020
6070 Clouds 1 997 80 10000 8.2 220 08:25 25.03.2020
6071 Clouds 2 997 74 10000 7.7 220 07:57 25.03.2020
6072 Clouds 1 997 80 10000 8.2 210 07:38 25.03.2020
6073 Clouds 1 998 80 10000 7.2 210 07:18 25.03.2020
6074 Clouds 1 998 80 10000 8.2 210 06:42 25.03.2020
6075 Clouds 1 999 80 10000 8.7 220 06:24 25.03.2020
6076 Clouds 1 999 80 10000 7.7 220 05:47 25.03.2020
6077 Clouds 1 999 80 10000 7.7 210 04:46 25.03.2020
6078 Clouds 1 1000 80 10000 7.2 200 03:58 25.03.2020
6079 Clouds 1 1000 80 10000 6.2 200 03:33 25.03.2020
6080 Clouds 1 1002 80 10000 5.7 200 01:41 25.03.2020
6081 Clouds 1 1003 80 10000 5.7 210 00:51 25.03.2020
6082 Clouds 1 1003 80 10000 5.7 210 00:30 25.03.2020
6083 Clouds 1 1004 80 10000 6.7 210 23:58 24.03.2020
6084 Clouds 1 1004 80 10000 6.7 210 23:39 24.03.2020
6085 Clouds 1 1004 80 10000 6.7 220 23:19 24.03.2020
6086 Clouds 1 1005 80 10000 6.7 210 22:54 24.03.2020
6087 Clouds 1 1005 80 10000 6.7 210 22:36 24.03.2020
6088 Clouds 1 1005 80 10000 6.7 220 22:18 24.03.2020
6089 Clouds 1 1005 80 10000 6.7 220 21:42 24.03.2020
6090 Clouds 1 1005 80 10000 6.7 220 21:19 24.03.2020
6091 Clouds 1 1005 80 10000 6.7 220 20:59 24.03.2020
6092 Clouds 1 1006 80 10000 6.7 220 20:40 24.03.2020
6093 Clouds 1 1006 80 10000 7.2 220 20:22 24.03.2020
6094 Clouds 1 1006 80 10000 6.7 210 19:48 24.03.2020
6095 Clouds 1 1006 80 10000 7.7 210 19:22 24.03.2020
6096 Clouds 1 1007 74 10000 8.2 210 18:58 24.03.2020
6097 Clouds 1 1007 74 10000 8.2 210 18:38 24.03.2020
6098 Clouds 2 1007 69 10000 7.7 210 18:20 24.03.2020
6099 Clouds 2 1007 69 10000 6.7 220 17:56 24.03.2020
6100 Clouds 2 1007 69 10000 6.7 220 17:56 24.03.2020
6101 Clouds 2 1007 69 10000 7.2 210 17:38 24.03.2020
6102 Clouds 2 1007 69 10000 7.2 210 17:20 24.03.2020
6103 Clouds 2 1007 69 10000 8.7 210 16:56 24.03.2020
6104 Clouds 2 1007 69 10000 8.7 210 16:37 24.03.2020
6105 Clouds 2 1007 69 10000 7.7 220 16:19 24.03.2020
6106 Clouds 2 1007 69 10000 9.3 210 15:42 24.03.2020
6107 Clouds 2 1007 69 10000 9.3 210 15:23 24.03.2020
6108 Clouds 3 1007 64 10000 9.3 220 14:44 24.03.2020
6109 Clouds 3 1007 59 10000 8.7 230 14:22 24.03.2020
6110 Clouds 3 1007 59 10000 8.7 230 13:59 24.03.2020
6111 Clouds 3 1006 59 10000 9.8 210 13:40 24.03.2020
6112 Clouds 3 1007 64 10000 9.3 210 13:22 24.03.2020
6113 Clouds 3 1007 69 10000 7.7 200 12:42 24.03.2020
6114 Clouds 3 1007 69 10000 8.2 200 12:24 24.03.2020
6115 Clouds 3 1007 64 10000 8.7 200 11:42 24.03.2020
6116 Clouds 3 1008 64 10000 8.7 200 11:22 24.03.2020
6117 Clouds 2 1008 69 10000 9.3 210 10:59 24.03.2020
6118 Clouds 2 1008 69 10000 9.3 210 10:41 24.03.2020
6119 Clouds 2 1008 74 10000 9.8 200 10:18 24.03.2020
6120 Clouds 1 1008 74 10000 8.2 180 09:46 24.03.2020
6121 Clouds 1 1008 74 10000 8.2 180 09:46 24.03.2020
6122 Clouds 1 1008 74 10000 8.2 180 09:26 24.03.2020
6123 Clouds 0 1009 86 10000 7.7 190 08:57 24.03.2020
6124 Clouds 0 1009 86 10000 7.2 200 08:37 24.03.2020
6125 Clouds 0 1009 90 10000 9.8 210 08:18 24.03.2020
6126 Clouds 0 1009 90 10000 8.7 200 07:44 24.03.2020
6127 Clouds 0 1009 90 10000 8.7 200 07:22 24.03.2020
6128 Clouds 0 1009 90 10000 8.7 200 07:22 24.03.2020
6129 Clouds 0 1009 90 10000 7.7 200 06:38 24.03.2020
6130 Clouds 0 1010 90 10000 9.3 200 05:42 24.03.2020
6131 Clouds -1 1011 86 10000 9.8 200 04:51 24.03.2020
6132 Clouds -1 1012 86 10000 11.3 210 03:21 24.03.2020
6133 Clouds -1 1013 86 10000 9.8 210 02:37 24.03.2020
6134 Clouds 0 1014 91 10000 10.8 210 00:54 24.03.2020
6135 Clouds 0 1014 91 10000 10.8 210 00:27 24.03.2020
6136 Clouds -1 1015 86 10000 9.3 210 23:55 23.03.2020
6137 Clouds -1 1015 86 10000 9.3 210 23:37 23.03.2020
6138 Clouds -1 1015 86 10000 11.3 210 23:19 23.03.2020
6139 Clouds 0 1016 90 10000 11.3 210 22:43 23.03.2020
6140 Clouds 0 1016 90 10000 10.8 200 22:22 23.03.2020
6141 Clouds 0 1017 90 10000 11.3 200 21:55 23.03.2020
6142 Clouds 0 1017 90 10000 11.3 200 21:37 23.03.2020
6143 Clouds 0 1017 90 10000 10.3 200 21:18 23.03.2020
6144 Clouds 0 1018 90 10000 11.3 200 20:42 23.03.2020
6145 Clouds 0 1018 90 10000 10.3 200 20:24 23.03.2020
6146 Clouds 0 1018 89 10000 10.3 200 19:55 23.03.2020
6147 Clouds 0 1019 89 10000 11.8 210 19:37 23.03.2020
6148 Clouds 0 1019 89 10000 10.3 210 19:19 23.03.2020
6149 Clouds 0 1020 89 10000 9.8 210 18:43 23.03.2020
6150 Clouds 0 1020 89 10000 9.8 210 18:24 23.03.2020
6151 Clouds 0 1021 89 10000 9.3 210 17:59 23.03.2020
6152 Clouds 0 1021 89 10000 9.3 210 17:40 23.03.2020
6153 Clouds 0 1021 86 10000 9.8 210 17:19 23.03.2020
6154 Clouds 0 1021 86 10000 8.7 200 16:43 23.03.2020
6155 Clouds 0 1021 86 10000 8.7 200 16:25 23.03.2020
6156 Clouds 1 1022 64 10000 10.8 210 15:54 23.03.2020
6157 Clouds 1 1022 64 10000 10.8 210 15:36 23.03.2020
6158 Clouds 1 1022 69 10000 9.3 210 15:18 23.03.2020
6159 Clouds 2 1022 69 10000 7.7 220 14:37 23.03.2020
6160 Clouds 3 1022 64 10000 7.2 220 14:18 23.03.2020
6161 Clouds 3 1022 64 10000 7.2 220 13:55 23.03.2020
6162 Clouds 3 1022 64 10000 7.2 210 13:37 23.03.2020
6163 Clouds 2 1022 64 10000 9.3 220 13:19 23.03.2020
6164 Clouds 2 1022 64 10000 9.3 210 12:42 23.03.2020
6165 Clouds 2 1022 64 10000 7.7 200 12:22 23.03.2020
6166 Clouds 2 1022 64 10000 7.7 200 12:22 23.03.2020
6167 Clouds 2 1022 64 10000 8.2 210 11:55 23.03.2020
6168 Clouds 2 1022 64 10000 8.2 210 11:37 23.03.2020
6169 Clouds 2 1023 64 10000 7.7 220 11:18 23.03.2020
6170 Clouds 1 1023 69 10000 6.7 220 10:40 23.03.2020
6171 Clouds 1 1023 69 10000 6.7 220 10:40 23.03.2020
6172 Clouds 1 1023 64 10000 8.7 220 10:22 23.03.2020
6173 Clouds 1 1023 64 10000 8.7 220 09:58 23.03.2020
6174 Clouds 0 1023 86 10000 8.2 220 09:40 23.03.2020
6175 Clouds -1 1023 68 10000 7.7 220 09:19 23.03.2020
6176 Clouds -2 1023 74 10000 7.2 220 08:38 23.03.2020
6177 Clouds -2 1023 74 10000 7.7 220 08:19 23.03.2020
6178 Clouds -3 1023 79 10000 6.2 220 07:50 23.03.2020
6179 Clouds -3 1023 79 10000 6.2 220 07:32 23.03.2020
6180 Clouds -3 1023 79 10000 6.7 210 06:54 23.03.2020
6181 Clouds -3 1023 79 10000 6.7 210 06:32 23.03.2020
6182 Clouds -3 1023 79 10000 5.7 220 05:42 23.03.2020
6183 Clouds -3 1022 79 10000 6.7 220 03:45 23.03.2020
6184 Clouds -3 1022 79 10000 7.7 220 02:43 23.03.2020
6185 Clouds -3 1022 79 10000 7.2 220 01:39 23.03.2020
6186 Clouds -3 1022 86 10000 7.7 220 00:44 23.03.2020
6187 Snow -2 1021 79 10000 8.2 220 23:54 22.03.2020
6188 Snow -2 1021 79 10000 8.2 220 23:36 22.03.2020
6189 Snow -3 1022 86 10000 6.7 220 23:18 22.03.2020
6190 Snow -3 1022 86 10000 7.7 220 22:40 22.03.2020
6191 Snow -2 1022 79 10000 9.3 220 22:19 22.03.2020
6192 Snow -2 1022 79 10000 9.3 220 21:40 22.03.2020
6193 Snow -2 1022 79 10000 8.2 210 21:21 22.03.2020
6194 Snow -2 1022 79 10000 8.2 210 20:58 22.03.2020
6195 Clouds -2 1022 79 10000 8.7 210 20:39 22.03.2020
6196 Clouds -2 1023 86 10000 9.8 210 20:21 22.03.2020
6197 Clouds -2 1023 86 10000 9.8 210 19:55 22.03.2020
6198 Snow -2 1023 79 10000 8.7 220 19:37 22.03.2020
6199 Snow -2 1023 79 10000 9.3 210 19:19 22.03.2020
6200 Clouds -2 1023 79 10000 10.3 210 18:56 22.03.2020
6201 Clouds -2 1023 79 10000 10.3 210 18:37 22.03.2020
6202 Snow -2 1023 79 10000 11.3 210 18:18 22.03.2020
6203 Snow -2 1024 79 10000 10.8 210 17:55 22.03.2020
6204 Snow -2 1024 79 10000 10.8 210 17:36 22.03.2020
6205 Snow -2 1024 79 10000 10.8 220 17:18 22.03.2020
6206 Clouds -2 1024 74 10000 10.8 210 16:41 22.03.2020
6207 Snow -2 1024 74 10000 11.8 210 16:22 22.03.2020
6208 Snow -2 1024 74 10000 11.8 210 15:59 22.03.2020
6209 Clouds -1 1025 58 10000 9.8 210 15:39 22.03.2020
6210 Clouds -1 1026 54 10000 9.8 200 14:47 22.03.2020
6211 Clouds -1 1026 58 10000 9.8 210 14:20 22.03.2020
6212 Clouds -1 1026 58 10000 9.8 210 13:58 22.03.2020
6213 Clouds -1 1027 63 10000 10.8 210 13:40 22.03.2020
6214 Clouds -1 1027 63 10000 8.2 210 13:19 22.03.2020
6215 Clouds -1 1027 63 10000 7.2 210 12:44 22.03.2020
6216 Clouds -2 1028 74 10000 5.7 220 12:21 22.03.2020
6217 Clouds -3 1028 79 10000 6.7 220 11:57 22.03.2020
6218 Clouds -3 1028 79 10000 6.7 220 11:39 22.03.2020
6219 Clear -3 1028 73 10000 6.7 210 11:20 22.03.2020
6220 Clear -3 1028 73 10000 6.7 220 10:43 22.03.2020
6221 Clear -4 1029 79 10000 5.7 210 10:24 22.03.2020
6222 Clear -5 1029 85 10000 5.1 210 09:49 22.03.2020
6223 Clear -5 1029 85 10000 5.1 210 09:30 22.03.2020
6224 Clear -6 1029 92 10000 5.1 210 08:55 22.03.2020
6225 Clear -6 1029 92 10000 5.7 210 08:37 22.03.2020
6226 Clouds -7 1029 92 10000 5.1 210 08:18 22.03.2020
6227 Clouds -8 1029 100 10000 4.1 200 07:49 22.03.2020
6228 Clouds -8 1030 92 10000 5.1 220 07:18 22.03.2020
6229 Mist -9 1030 100 2700 6.2 210 05:55 22.03.2020
6230 Clouds -10 1030 92 10000 3.6 230 04:58 22.03.2020
6231 Clouds -9 1030 66 10000 4.1 220 02:50 22.03.2020
6232 Clouds -9 1030 61 10000 3.6 230 01:21 22.03.2020
6233 Clouds -9 1031 61 10000 4.1 230 00:36 22.03.2020
6234 Clouds -9 1031 61 10000 2.6 240 23:58 21.03.2020
6235 Clouds -9 1031 61 10000 2.6 240 23:40 21.03.2020
6236 Clouds -9 1031 61 10000 2.6 240 23:18 21.03.2020
6237 Clouds -8 1031 57 10000 2.6 240 22:38 21.03.2020
6238 Clouds -7 1031 52 10000 2.6 250 22:20 21.03.2020
6239 Clouds -7 1031 52 10000 2.6 250 21:59 21.03.2020
6240 Clouds -8 1031 57 10000 3.1 240 21:39 21.03.2020
6241 Clouds -7 1031 52 10000 2.6 240 21:21 21.03.2020
6242 Clouds -6 1031 53 10000 3.1 240 20:46 21.03.2020
6243 Clouds -5 1031 49 10000 3.1 240 20:23 21.03.2020
6244 Clear -5 1031 49 10000 3.1 240 19:57 21.03.2020
6245 Clear -7 1031 52 10000 2.1 240 19:39 21.03.2020
6246 Clear -5 1031 49 10000 2.6 240 19:20 21.03.2020
6247 Clear -5 1031 49 10000 2.6 240 18:54 21.03.2020
6248 Clear -5 1031 49 10000 2.6 240 18:36 21.03.2020
6249 Clear -5 1031 49 10000 3.1 240 18:18 21.03.2020
6250 Clear -3 1030 45 10000 2.6 240 17:42 21.03.2020
6251 Clear -2 1031 42 10000 2.6 250 17:23 21.03.2020
6252 Clear -2 1031 42 10000 3.1 250 16:56 21.03.2020
6253 Clear -2 1031 42 10000 3.1 250 16:38 21.03.2020
6254 Clear -2 1031 42 10000 3.6 270 16:18 21.03.2020
6255 Clear -2 1031 39 10000 3.6 280 15:41 21.03.2020
6256 Clear -2 1030 39 10000 4.1 270 15:23 21.03.2020
6257 Clear -2 1030 39 10000 4.1 270 14:58 21.03.2020
6258 Clear -2 1030 39 10000 4.1 270 14:58 21.03.2020
6259 Clear -2 1030 39 10000 3.6 260 14:40 21.03.2020
6260 Clear -3 1030 42 10000 4.1 270 14:20 21.03.2020
6261 Clear -3 1030 42 10000 4.1 270 13:58 21.03.2020
6262 Clear -3 1030 42 10000 4.1 280 13:39 21.03.2020
6263 Clear -3 1030 42 10000 4.1 280 13:21 21.03.2020
6264 Clear -3 1030 42 10000 4.1 280 12:58 21.03.2020
6265 Clear -3 1030 42 10000 3.1 260 12:37 21.03.2020
6266 Clear -3 1030 45 10000 3.6 300 12:19 21.03.2020
6267 Clear -4 1030 45 10000 3.1 310 11:55 21.03.2020
6268 Clear -4 1030 45 10000 3.1 310 11:37 21.03.2020
6269 Clear -5 1030 53 10000 3.1 280 11:18 21.03.2020
6270 Clear -5 1029 49 10000 3.1 260 10:56 21.03.2020
6271 Clear -5 1029 49 10000 3.1 260 10:38 21.03.2020
6272 Clear -6 1029 53 10000 3.6 290 10:19 21.03.2020
6273 Clear -6 1029 53 10000 3.6 290 10:19 21.03.2020
6274 Clear -7 1029 62 10000 2.6 280 09:41 21.03.2020
6275 Clear -7 1029 62 10000 1.5 280 09:23 21.03.2020
6276 Clear -7 1029 62 10000 1.5 280 08:59 21.03.2020
6277 Clear -9 1028 72 10000 3.6 330 08:41 21.03.2020
6278 Clear -10 1028 72 10000 2.1 320 08:22 21.03.2020
6279 Clear -11 1028 78 10000 3.6 340 07:42 21.03.2020
6280 Clear -12 1027 85 10000 4.1 340 07:23 21.03.2020
6281 Clear -13 1027 84 10000 4.6 340 06:46 21.03.2020
6282 Snow -13 1026 84 700 5.1 340 06:26 21.03.2020
6283 Clear -13 1026 84 10000 5.1 340 05:41 21.03.2020
6284 Clear -12 1025 78 10000 5.7 340 04:37 21.03.2020
6285 Clear -11 1023 78 10000 4.1 340 02:39 21.03.2020
6286 Clouds -10 1022 72 10000 3.6 360 01:57 21.03.2020
6287 Clouds -12 1022 72 10000 3.1 360 01:29 21.03.2020
6288 Clouds -12 1021 72 10000 3.1 10 00:47 21.03.2020
6289 Clouds -10 1020 66 10000 3.1 360 00:24 21.03.2020
6290 Clouds -8 1020 61 10000 3.1 360 23:46 20.03.2020
6291 Clouds -7 1019 57 10000 3.1 350 23:24 20.03.2020
6292 Clouds -6 1019 57 10000 3.1 340 22:44 20.03.2020
6293 Clouds -6 1019 57 10000 3.1 340 22:25 20.03.2020
6294 Clouds -12 1019 72 10000 1.5 310 21:59 20.03.2020
6295 Clouds -10 1019 61 10000 1.5 270 21:41 20.03.2020
6296 Clouds -7 1018 57 10000 1.5 260 21:20 20.03.2020
6297 Clouds -7 1018 57 10000 1.5 260 20:59 20.03.2020
6298 Clouds -7 1018 57 10000 1.5 300 20:41 20.03.2020
6299 Clouds -6 1018 53 10000 2.1 290 20:20 20.03.2020
6300 Clouds -6 1018 53 10000 2.1 290 19:49 20.03.2020
6301 Clouds -5 1018 53 10000 2.1 280 19:22 20.03.2020
6302 Clouds -5 1018 53 10000 2.1 280 18:59 20.03.2020
6303 Clouds -5 1018 53 10000 2.1 270 18:39 20.03.2020
6304 Clouds -5 1018 49 10000 2.1 240 18:20 20.03.2020
6305 Clouds -4 1018 49 10000 2.1 240 17:56 20.03.2020
6306 Clouds -4 1018 49 10000 2.1 240 17:38 20.03.2020
6307 Clouds -3 1018 45 10000 2.6 260 17:19 20.03.2020
6308 Clouds -2 1018 42 10000 3.1 260 16:42 20.03.2020
6309 Clouds -3 1018 45 10000 4.1 250 16:21 20.03.2020
6310 Clouds -3 1018 45 10000 4.1 250 15:56 20.03.2020
6311 Clouds -2 1018 42 10000 3.6 250 15:37 20.03.2020
6312 Clouds -2 1018 39 10000 3.6 240 15:19 20.03.2020
6313 Clouds -2 1018 42 10000 4.6 250 14:42 20.03.2020
6314 Clouds -3 1018 45 10000 4.1 210 14:21 20.03.2020
6315 Clouds -4 1018 49 10000 4.6 210 13:50 20.03.2020
6316 Clouds -4 1018 49 10000 4.6 210 13:26 20.03.2020
6317 Clouds -4 1018 49 10000 2.6 240 12:59 20.03.2020
6318 Clouds -4 1018 49 10000 2.6 240 12:38 20.03.2020
6319 Clouds -5 1018 53 10000 3.1 200 12:20 20.03.2020
6320 Clouds -6 1018 53 10000 2.6 230 11:40 20.03.2020
6321 Clouds -7 1018 57 10000 2.6 230 11:21 20.03.2020
6322 Clouds -8 1018 61 10000 3.1 250 10:57 20.03.2020
6323 Clouds -8 1018 61 10000 3.1 250 10:38 20.03.2020
6324 Clouds -9 1018 61 10000 3.1 250 10:18 20.03.2020
6325 Clouds -10 1018 66 10000 2.6 230 09:46 20.03.2020
6326 Clouds -11 1018 66 10000 3.1 240 09:21 20.03.2020
6327 Clouds -11 1018 66 10000 3.1 240 08:58 20.03.2020
6328 Clouds -12 1018 72 10000 3.1 230 08:39 20.03.2020
6329 Clouds -12 1018 72 10000 3.6 230 08:19 20.03.2020
6330 Clouds -13 1018 71 10000 3.6 240 07:43 20.03.2020
6331 Clouds -14 1018 77 10000 3.1 240 07:25 20.03.2020
6332 Clouds -14 1018 77 10000 2.6 240 06:42 20.03.2020
6333 Clouds -15 1018 84 10000 2.6 240 06:22 20.03.2020
6334 Clear -13 1018 78 10000 2.1 280 04:39 20.03.2020
6335 Clear -13 1017 78 10000 4.1 330 02:54 20.03.2020
6336 Clear -12 1017 72 10000 4.1 330 01:50 20.03.2020
6337 Clear -12 1017 72 10000 3.1 330 00:45 20.03.2020
6338 Clear -12 1016 78 10000 4.1 330 00:24 20.03.2020
6339 Clear -11 1016 72 10000 3.6 330 23:42 19.03.2020
6340 Clear -11 1016 72 10000 3.6 330 23:23 19.03.2020
6341 Clear -10 1015 66 10000 4.6 340 22:41 19.03.2020
6342 Clear -10 1015 66 10000 4.6 340 22:23 19.03.2020
6343 Clear -10 1015 66 10000 4.6 340 21:58 19.03.2020
6344 Clear -9 1014 61 10000 3.6 350 21:38 19.03.2020
6345 Clear -9 1014 66 10000 4.1 340 21:19 19.03.2020
6346 Clear -8 1013 61 10000 4.6 330 20:44 19.03.2020
6347 Clear -8 1013 57 10000 4.6 340 20:25 19.03.2020
6348 Clouds -8 1013 57 10000 4.6 340 19:59 19.03.2020
6349 Clouds -8 1012 61 10000 4.6 340 19:39 19.03.2020
6350 Clouds -7 1012 57 10000 5.7 340 19:21 19.03.2020
6351 Clouds -6 1011 53 10000 5.1 340 18:58 19.03.2020
6352 Clouds -6 1011 53 10000 5.1 340 18:40 19.03.2020
6353 Clouds -6 1011 57 10000 6.2 340 18:22 19.03.2020
6354 Clouds -6 1011 57 10000 6.2 340 18:22 19.03.2020
6355 Clouds -5 1010 57 10000 5.7 330 17:44 19.03.2020
6356 Clouds -4 1009 53 10000 5.7 330 17:20 19.03.2020
6357 Clouds -4 1009 58 10000 6.2 330 16:58 19.03.2020
6358 Clouds -4 1009 58 10000 6.2 330 16:39 19.03.2020
6359 Clouds -3 1008 53 10000 7.2 330 16:21 19.03.2020
6360 Clouds -3 1008 53 10000 6.7 330 15:42 19.03.2020
6361 Clouds -2 1007 54 10000 5.7 330 15:23 19.03.2020
6362 Clouds -2 1007 54 10000 5.7 330 15:23 19.03.2020
6363 Clouds -2 1006 54 10000 6.2 330 14:43 19.03.2020
6364 Clouds -1 1006 46 10000 6.2 330 14:22 19.03.2020
6365 Clouds -1 1006 46 10000 6.2 330 13:56 19.03.2020
6366 Clouds -1 1005 46 10000 4.6 330 13:37 19.03.2020
6367 Clouds -2 1005 58 10000 4.6 360 13:18 19.03.2020
6368 Clouds -2 1004 58 10000 4.6 350 12:40 19.03.2020
6369 Clouds -2 1004 63 10000 5.7 330 12:22 19.03.2020
6370 Clouds -1 1003 63 10000 5.7 340 11:57 19.03.2020
6371 Clouds -1 1003 63 10000 5.7 340 11:38 19.03.2020
6372 Clouds -2 1003 68 10000 3.6 340 11:19 19.03.2020
6373 Clouds -3 1002 79 10000 5.1 340 10:41 19.03.2020
6374 Clouds -3 1001 79 10000 5.1 360 10:20 19.03.2020
6375 Clouds -3 1001 79 10000 5.1 360 09:57 19.03.2020
6376 Clouds -4 1001 85 10000 4.1 350 09:37 19.03.2020
6377 Clouds -4 1000 79 10000 4.6 360 09:18 19.03.2020
6378 Clouds -6 999 85 10000 5.1 340 08:42 19.03.2020
6379 Clouds -6 999 85 10000 5.1 340 08:42 19.03.2020
6380 Clouds -7 999 92 10000 4.1 350 08:21 19.03.2020
6381 Clouds -7 998 85 10000 4.6 10 07:46 19.03.2020
6382 Clouds -7 998 85 10000 4.6 10 07:28 19.03.2020
6383 Clouds -7 997 92 10000 5.1 350 06:43 19.03.2020
6384 Fog -10 996 92 350 1 0 05:48 19.03.2020
6385 Fog -9 996 92 900 0.5 270 04:57 19.03.2020
6386 Fog -9 996 92 900 0.5 270 04:39 19.03.2020
6387 Clouds -7 995 100 10000 2.1 260 02:49 19.03.2020
6388 Clouds -7 994 100 10000 2.1 250 01:21 19.03.2020
6389 Clouds -7 994 85 10000 1.5 240 00:28 19.03.2020
6390 Clouds -5 994 92 10000 2.6 240 23:48 18.03.2020
6391 Clouds -5 994 100 10000 2.1 250 23:30 18.03.2020
6392 Clouds -5 994 92 10000 2.1 240 22:56 18.03.2020
6393 Clouds -5 994 92 10000 2.1 240 22:38 18.03.2020
6394 Clouds -5 994 92 10000 2.6 240 22:20 18.03.2020
6395 Clouds -3 994 86 10000 2.1 250 21:42 18.03.2020
6396 Clouds -4 994 85 10000 2.1 260 21:21 18.03.2020
6397 Clouds -4 994 85 10000 2.1 260 20:57 18.03.2020
6398 Clouds -4 993 85 10000 1.5 240 20:39 18.03.2020
6399 Clouds -2 993 79 10000 3.1 220 20:20 18.03.2020
6400 Clouds -2 993 79 10000 3.1 220 20:20 18.03.2020
6401 Clouds -2 993 79 10000 3.1 220 19:56 18.03.2020
6402 Clouds -2 993 86 10000 2.6 230 19:37 18.03.2020
6403 Clouds -1 993 80 10000 3.1 230 19:19 18.03.2020
6404 Clouds -1 993 80 10000 3.1 230 19:19 18.03.2020
6405 Clouds -2 993 79 10000 2.1 240 18:41 18.03.2020
6406 Clouds -1 993 80 10000 3.1 230 18:20 18.03.2020
6407 Clouds 0 993 96 10000 3.6 0 17:58 18.03.2020
6408 Clouds 0 993 96 10000 3.6 0 17:39 18.03.2020
6409 Clouds 1 993 69 10000 4.1 220 17:21 18.03.2020
6410 Clouds 2 993 69 10000 5.1 220 16:55 18.03.2020
6411 Clouds 2 993 69 10000 5.1 220 16:37 18.03.2020
6412 Clouds 3 993 64 10000 4.1 210 16:19 18.03.2020
6413 Clouds 3 993 59 10000 5.1 230 15:45 18.03.2020
6414 Clouds 3 993 64 10000 5.1 230 15:20 18.03.2020
6415 Clouds 3 993 64 10000 5.1 230 14:45 18.03.2020
6416 Clouds 3 993 64 10000 5.7 220 14:22 18.03.2020
6417 Clouds 2 992 69 10000 6.2 210 13:58 18.03.2020
6418 Clouds 2 992 69 10000 6.2 210 13:36 18.03.2020
6419 Clouds 2 992 69 10000 6.2 230 13:18 18.03.2020
6420 Clouds 2 992 69 10000 4.6 240 12:41 18.03.2020
6421 Clouds 2 992 69 10000 6.2 220 12:19 18.03.2020
6422 Clouds 1 992 74 10000 5.7 230 11:40 18.03.2020
6423 Clouds 1 992 74 10000 4.6 230 11:21 18.03.2020
6424 Clouds 0 992 91 10000 3.1 240 10:58 18.03.2020
6425 Clouds 0 992 91 10000 3.1 240 10:39 18.03.2020
6426 Clouds 0 992 91 10000 5.7 230 10:20 18.03.2020
6427 Clouds -1 992 86 10000 5.1 240 09:44 18.03.2020
6428 Clouds -1 992 86 10000 5.7 230 09:26 18.03.2020
6429 Clouds -1 992 86 10000 5.7 230 08:58 18.03.2020
6430 Clouds -2 991 86 10000 5.1 230 08:39 18.03.2020
6431 Clouds -2 991 86 10000 2.6 240 08:21 18.03.2020
6432 Clouds -3 991 92 10000 4.1 230 07:49 18.03.2020
6433 Clouds -3 991 92 10000 4.1 230 07:30 18.03.2020
6434 Clouds -3 991 92 10000 5.7 230 06:45 18.03.2020
6435 Clouds -3 991 92 10000 4.1 230 06:23 18.03.2020
6436 Clouds -3 991 92 10000 5.1 230 05:35 18.03.2020
6437 Clouds -3 991 92 10000 5.1 230 04:27 18.03.2020
6438 Clouds -2 991 92 10000 6.2 230 02:48 18.03.2020
6439 Clouds -2 991 100 10000 5.1 220 01:48 18.03.2020
6440 Clouds -2 991 100 10000 4.6 230 01:27 18.03.2020
6441 Clouds -1 991 100 10000 4.1 230 00:25 18.03.2020
6442 Clouds -1 991 100 10000 5.7 230 23:50 17.03.2020
6443 Clouds -1 991 100 10000 5.1 0 23:28 17.03.2020
6444 Clouds -1 992 100 10000 4.6 220 22:59 17.03.2020
6445 Clouds -1 992 100 10000 4.6 220 22:40 17.03.2020
6446 Clouds -1 992 100 10000 4.6 220 22:22 17.03.2020
6447 Clouds -1 992 100 10000 5.7 220 21:40 17.03.2020
6448 Clouds -1 992 100 10000 5.1 220 21:21 17.03.2020
6449 Clouds -1 992 100 10000 5.1 230 20:40 17.03.2020
6450 Clouds -1 992 100 10000 5.1 230 20:40 17.03.2020
6451 Clouds -1 992 100 10000 5.1 220 20:21 17.03.2020
6452 Clouds -1 992 100 10000 5.1 220 19:58 17.03.2020
6453 Snow -1 992 100 10000 5.1 210 19:39 17.03.2020
6454 Snow -1 992 100 3700 5.7 220 19:18 17.03.2020
6455 Snow -1 992 92 7000 7.2 220 18:56 17.03.2020
6456 Snow -1 992 92 7000 7.2 220 18:37 17.03.2020
6457 Snow -1 993 92 2600 6.7 210 18:19 17.03.2020
6458 Snow -2 993 100 1900 5.7 200 17:40 17.03.2020
6459 Snow -2 993 92 5000 5.7 190 17:21 17.03.2020
6460 Snow -1 994 86 10000 7.2 190 16:55 17.03.2020
6461 Snow -1 994 86 10000 7.2 190 16:36 17.03.2020
6462 Snow -2 994 92 10000 8.2 200 16:18 17.03.2020
6463 Snow -2 995 92 2500 8.7 200 15:41 17.03.2020
6464 Snow -2 995 86 10000 8.7 200 15:19 17.03.2020
6465 Snow -2 996 86 10000 7.2 200 14:41 17.03.2020
6466 Clouds -2 996 86 10000 7.2 190 14:21 17.03.2020
6467 Clouds -2 996 86 10000 7.2 190 14:21 17.03.2020
6468 Clouds -2 997 86 10000 8.7 200 13:43 17.03.2020
6469 Clouds -2 997 86 10000 8.7 210 13:25 17.03.2020
6470 Clouds -2 997 86 8000 8.7 200 12:54 17.03.2020
6471 Clouds -2 997 86 8000 8.7 200 12:36 17.03.2020
6472 Snow -2 998 86 2500 9.3 210 12:18 17.03.2020
6473 Snow -3 998 92 2000 7.7 200 11:42 17.03.2020
6474 Snow -3 999 92 1500 8.2 200 11:24 17.03.2020
6475 Snow -3 999 92 1500 9.3 200 10:57 17.03.2020
6476 Snow -3 999 92 1500 9.3 200 10:57 17.03.2020
6477 Snow -3 999 92 1500 9.3 200 10:37 17.03.2020
6478 Snow -3 1000 92 3000 9.3 210 10:18 17.03.2020
6479 Snow -3 1000 92 1500 9.8 210 09:46 17.03.2020
6480 Snow -3 1000 92 1400 11.3 200 09:20 17.03.2020
6481 Snow -3 1000 92 1400 11.3 200 08:58 17.03.2020
6482 Snow -2 1000 86 2500 9.3 200 08:40 17.03.2020
6483 Snow -3 1001 86 2000 8.7 200 08:18 17.03.2020
6484 Clouds -2 1001 74 10000 8.2 200 07:49 17.03.2020
6485 Snow -3 1002 73 10000 7.7 200 07:21 17.03.2020
6486 Snow -3 1003 73 10000 6.2 200 06:49 17.03.2020
6487 Snow -3 1004 73 10000 5.1 200 06:25 17.03.2020
6488 Clouds -4 1005 73 10000 5.1 210 05:20 17.03.2020
6489 Clouds -4 1006 73 10000 6.2 210 03:31 17.03.2020
6490 Clouds -4 1006 73 10000 5.1 210 01:50 17.03.2020
6491 Clouds -4 1006 73 10000 5.1 210 01:31 17.03.2020
6492 Clouds -4 1006 73 10000 4.1 230 00:52 17.03.2020
6493 Clouds -4 1006 73 10000 4.1 230 23:53 16.03.2020
6494 Clouds -4 1006 73 10000 4.1 230 23:34 16.03.2020
6495 Clouds -1 1006 63 10000 4.6 260 22:55 16.03.2020
6496 Clouds -1 1006 63 10000 4.6 260 22:37 16.03.2020
6497 Clouds -1 1006 63 10000 4.1 260 22:19 16.03.2020
6498 Clouds -1 1005 58 10000 4.6 260 21:44 16.03.2020
6499 Clouds -1 1005 58 10000 5.7 260 21:25 16.03.2020
6500 Clouds -1 1004 58 10000 5.7 250 20:58 16.03.2020
6501 Clouds -1 1004 58 10000 5.7 250 20:38 16.03.2020
6502 Clouds -1 1004 54 10000 5.7 250 20:20 16.03.2020
6503 Clouds -1 1003 54 10000 5.7 250 19:44 16.03.2020
6504 Snow -1 1003 54 10000 7.2 240 19:23 16.03.2020
6505 Snow -1 1003 54 10000 7.2 240 18:57 16.03.2020
6506 Clouds -1 1002 46 10000 7.7 240 18:38 16.03.2020
6507 Clouds -1 1002 46 10000 7.7 240 18:18 16.03.2020
6508 Clouds -1 1002 42 10000 6.7 240 17:45 16.03.2020
6509 Clouds -2 1002 42 10000 6.2 240 17:24 16.03.2020
6510 Snow -2 1002 42 10000 6.2 230 16:49 16.03.2020
6511 Snow -2 1002 42 10000 6.2 230 16:31 16.03.2020
6512 Snow -2 1001 46 10000 6.7 230 15:58 16.03.2020
6513 Clouds -1 1001 39 10000 6.7 230 15:40 16.03.2020
6514 Clouds -1 1001 36 10000 6.2 240 15:20 16.03.2020
6515 Clouds -1 1001 39 10000 5.1 240 14:44 16.03.2020
6516 Clouds -1 1001 42 10000 5.1 250 14:20 16.03.2020
6517 Clouds -2 1001 42 10000 4.6 290 13:43 16.03.2020
6518 Clouds -2 1001 46 10000 5.1 310 13:25 16.03.2020
6519 Clouds -2 1001 46 10000 5.1 310 12:55 16.03.2020
6520 Clouds -2 1000 46 10000 6.2 300 12:36 16.03.2020
6521 Clouds -3 1000 53 10000 5.7 320 12:18 16.03.2020
6522 Clouds -3 999 58 10000 7.7 310 11:41 16.03.2020
6523 Clouds -3 998 58 10000 5.7 310 11:19 16.03.2020
6524 Clouds -4 998 62 10000 7.2 310 10:43 16.03.2020
6525 Clouds -4 997 73 10000 6.7 310 10:24 16.03.2020
6526 Clouds -4 996 73 10000 6.2 310 09:46 16.03.2020
6527 Clouds -4 996 73 10000 6.2 310 09:28 16.03.2020
6528 Clouds -5 994 79 10000 7.2 320 08:58 16.03.2020
6529 Clouds -5 992 79 10000 6.7 310 08:26 16.03.2020
6530 Snow -5 992 79 10000 6.7 310 07:54 16.03.2020
6531 Clouds -5 991 85 10000 5.7 310 07:28 16.03.2020
6532 Clouds -5 989 92 10000 4.1 310 06:54 16.03.2020
6533 Clouds -5 988 92 10000 4.1 310 06:27 16.03.2020
6534 Clouds -4 988 85 10000 4.1 310 05:54 16.03.2020
6535 Snow -1 984 100 4100 3.1 250 02:46 16.03.2020
6536 Snow -1 984 100 6000 3.6 240 01:20 16.03.2020
6537 Snow -1 983 100 6000 3.6 230 00:42 16.03.2020
6538 Snow -1 983 100 5000 5.1 220 23:49 15.03.2020
6539 Snow -1 983 100 5000 5.1 220 23:21 15.03.2020
6540 Snow -1 984 100 4200 5.7 220 22:43 15.03.2020
6541 Snow -1 984 100 4200 5.7 220 22:24 15.03.2020
6542 Clouds -1 984 100 3800 5.7 210 21:59 15.03.2020
6543 Clouds -1 984 100 3800 5.7 210 21:38 15.03.2020
6544 Clouds -1 985 100 2300 5.1 200 21:19 15.03.2020
6545 Clouds -1 985 100 2700 5.1 200 20:43 15.03.2020
6546 Snow -1 986 92 3300 5.1 190 20:22 15.03.2020
6547 Snow -1 986 92 3300 5.1 190 19:58 15.03.2020
6548 Snow -1 987 92 4000 5.1 190 19:40 15.03.2020
6549 Snow -1 987 92 3600 4.6 190 19:21 15.03.2020
6550 Snow -1 987 92 3600 4.6 190 18:56 15.03.2020
6551 Snow -1 988 92 3300 5.1 190 18:37 15.03.2020
6552 Snow -1 988 92 3300 5.1 190 18:37 15.03.2020
6553 Clouds -1 988 92 4900 5.1 190 18:19 15.03.2020
6554 Snow -1 989 92 3100 6.2 180 17:41 15.03.2020
6555 Snow -1 989 92 3700 4.6 170 17:21 15.03.2020
6556 Snow -2 990 100 1400 5.7 190 16:58 15.03.2020
6557 Snow -2 990 100 1400 5.7 190 16:40 15.03.2020
6558 Snow -1 991 86 4100 7.2 200 16:21 15.03.2020
6559 Clouds -1 991 80 10000 7.2 200 15:48 15.03.2020
6560 Clouds -1 992 74 10000 7.7 200 15:30 15.03.2020
6561 Clouds -1 992 74 10000 7.7 200 14:58 15.03.2020
6562 Clouds -1 993 74 10000 8.7 200 14:38 15.03.2020
6563 Clouds -1 993 68 10000 8.2 200 14:19 15.03.2020
6564 Clouds -1 993 68 10000 8.2 200 13:55 15.03.2020
6565 Clouds -1 993 68 10000 7.7 210 13:37 15.03.2020
6566 Clouds -1 993 63 10000 8.2 220 13:18 15.03.2020
6567 Clouds -1 993 63 10000 8.2 220 13:18 15.03.2020
6568 Clouds -1 994 68 10000 8.2 220 12:40 15.03.2020
6569 Clouds -1 994 63 10000 8.7 210 12:21 15.03.2020
6570 Snow -1 994 63 10000 9.3 220 11:44 15.03.2020
6571 Snow -2 994 63 10000 10.3 220 11:25 15.03.2020
6572 Snow -2 994 63 10000 9.8 220 10:59 15.03.2020
6573 Snow -2 994 63 10000 9.8 220 10:39 15.03.2020
6574 Snow -2 994 63 10000 9.3 220 10:21 15.03.2020
6575 Snow -2 994 63 10000 9.3 220 09:57 15.03.2020
6576 Clouds -3 994 68 10000 9.8 220 09:36 15.03.2020
6577 Snow -3 994 68 10000 11.8 210 09:18 15.03.2020
6578 Clouds -3 994 73 10000 10.3 220 08:40 15.03.2020
6579 Snow -4 994 85 10000 11.3 210 08:19 15.03.2020
6580 Snow -4 994 85 10000 11.3 210 07:44 15.03.2020
6581 Snow -4 994 85 4000 11.3 210 07:18 15.03.2020
6582 Snow -4 994 85 10000 10.8 210 06:36 15.03.2020
6583 Snow -4 996 79 4700 10.8 210 05:46 15.03.2020
6584 Clouds -5 996 85 10000 10.3 200 04:50 15.03.2020
6585 Clouds -5 996 85 10000 10.3 200 04:32 15.03.2020
6586 Clouds -6 997 85 10000 10.3 200 03:59 15.03.2020
6587 Clouds -6 1000 79 10000 8.7 200 02:49 15.03.2020
6588 Clouds -6 1000 79 10000 8.7 200 02:18 15.03.2020
6589 Clouds -8 1003 78 10000 6.7 190 00:57 15.03.2020
6590 Clouds -8 1003 78 10000 6.7 190 00:38 15.03.2020
6591 Clouds -8 1003 72 10000 6.7 180 00:18 15.03.2020
6592 Clouds -8 1004 72 10000 8.2 200 23:38 14.03.2020
6593 Clouds -8 1005 67 10000 7.2 200 23:19 14.03.2020
6594 Clouds -10 1005 66 10000 5.1 180 22:46 14.03.2020
6595 Clouds -10 1005 66 10000 5.1 180 22:27 14.03.2020
6596 Clouds -10 1006 61 10000 4.6 180 21:57 14.03.2020
6597 Clouds -10 1007 56 10000 4.1 180 21:37 14.03.2020
6598 Clouds -11 1007 56 10000 4.1 170 21:19 14.03.2020
6599 Clouds -11 1007 56 10000 4.1 170 21:19 14.03.2020
6600 Clouds -11 1007 56 10000 4.1 170 20:59 14.03.2020
6601 Clouds -11 1008 56 10000 4.1 170 20:41 14.03.2020
6602 Clouds -10 1008 51 10000 4.6 160 20:20 14.03.2020
6603 Clouds -10 1008 51 10000 4.6 160 20:20 14.03.2020
6604 Clouds -9 1008 47 10000 4.1 160 19:58 14.03.2020
6605 Clouds -9 1008 47 10000 4.1 160 19:39 14.03.2020
6606 Clouds -9 1008 47 10000 3.1 170 19:19 14.03.2020
6607 Clouds -9 1009 47 10000 2.1 160 18:37 14.03.2020
6608 Clouds -10 1009 51 10000 1 0 18:19 14.03.2020
6609 Clouds -9 1009 47 10000 1.99 201 17:39 14.03.2020
6610 Clear -7 1009 41 10000 1 290 17:21 14.03.2020
6611 Clear -6 1009 41 10000 1.5 300 16:41 14.03.2020
6612 Clear -6 1009 41 10000 2.6 310 16:23 14.03.2020
6613 Clear -6 1009 41 10000 2.6 310 15:59 14.03.2020
6614 Clear -7 1009 41 10000 3.1 330 15:27 14.03.2020
6615 Clear -7 1008 41 10000 4.1 330 14:59 14.03.2020
6616 Clear -7 1008 41 10000 4.1 330 14:37 14.03.2020
6617 Clear -7 1008 41 10000 5.1 320 14:19 14.03.2020
6618 Clear -7 1008 44 10000 4.6 330 13:44 14.03.2020
6619 Clear -7 1008 44 10000 4.6 330 13:44 14.03.2020
6620 Clear -7 1007 44 10000 5.7 330 13:24 14.03.2020
6621 Snow -7 1007 48 10000 5.7 330 12:58 14.03.2020
6622 Snow -7 1007 48 10000 5.7 330 12:38 14.03.2020
6623 Clear -7 1006 48 10000 5.1 330 12:20 14.03.2020
6624 Snow -8 1006 57 10000 4.6 330 11:42 14.03.2020
6625 Snow -8 1005 57 10000 6.2 330 11:24 14.03.2020
6626 Snow -9 1005 61 10000 5.7 330 10:47 14.03.2020
6627 Snow -9 1004 61 10000 5.7 330 10:27 14.03.2020
6628 Snow -10 1004 66 10000 5.7 330 09:58 14.03.2020
6629 Snow -10 1004 66 10000 5.7 330 09:40 14.03.2020
6630 Clear -10 1003 66 10000 4.6 330 09:20 14.03.2020
6631 Clear -11 1003 72 10000 6.2 330 08:46 14.03.2020
6632 Clouds -12 1002 78 10000 4.6 320 08:24 14.03.2020
6633 Clouds -12 1001 78 10000 5.1 330 07:40 14.03.2020
6634 Clouds -13 1001 78 10000 4.6 320 07:21 14.03.2020
6635 Clouds -14 1000 84 10000 4.1 320 06:41 14.03.2020
6636 Clouds -13 999 78 10000 5.1 330 05:58 14.03.2020
6637 Clouds -13 998 78 10000 5.1 330 04:52 14.03.2020
6638 Clouds -12 996 72 10000 4.6 320 03:25 14.03.2020
6639 Clouds -13 996 78 10000 4.6 330 02:35 14.03.2020
6640 Clear -13 995 78 10000 4.1 320 01:39 14.03.2020
6641 Clear -12 994 72 10000 3.6 310 00:22 14.03.2020
6642 Clear -12 994 72 10000 4.1 320 23:38 13.03.2020
6643 Clear -12 994 72 10000 4.1 320 23:38 13.03.2020
6644 Clear -12 993 72 10000 3.6 310 23:18 13.03.2020
6645 Clear -12 993 72 10000 3.6 320 22:41 13.03.2020
6646 Clear -12 993 72 10000 3.1 320 22:20 13.03.2020
6647 Clear -11 993 66 10000 3.6 320 21:40 13.03.2020
6648 Clear -11 993 66 10000 4.1 320 21:18 13.03.2020
6649 Clear -11 993 66 10000 2.6 310 20:41 13.03.2020
6650 Clouds -11 993 61 10000 3.1 310 20:22 13.03.2020
6651 Clouds -10 992 61 10000 3.1 310 19:51 13.03.2020
6652 Clouds -10 992 61 10000 3.1 310 19:31 13.03.2020
6653 Clouds -9 992 52 10000 4.6 310 18:59 13.03.2020
6654 Clouds -9 992 52 10000 4.6 310 18:39 13.03.2020
6655 Clouds -9 991 52 10000 5.7 310 18:21 13.03.2020
6656 Clouds -8 991 52 10000 5.1 320 17:42 13.03.2020
6657 Clouds -8 991 52 10000 5.1 320 17:21 13.03.2020
6658 Snow -7 990 52 10000 6.2 330 16:56 13.03.2020
6659 Snow -7 990 52 10000 6.2 330 16:37 13.03.2020
6660 Snow -7 989 57 10000 6.2 330 16:19 13.03.2020
6661 Snow -7 989 52 10000 7.2 330 15:41 13.03.2020
6662 Snow -7 988 52 10000 6.7 330 15:21 13.03.2020
6663 Snow -6 987 53 10000 6.7 340 14:44 13.03.2020
6664 Snow -6 986 53 10000 8.2 350 14:23 13.03.2020
6665 Snow -6 986 53 10000 8.2 350 13:59 13.03.2020
6666 Snow -6 986 57 10000 7.2 340 13:40 13.03.2020
6667 Clouds -6 985 62 10000 7.2 350 13:21 13.03.2020
6668 Snow -7 984 79 10000 9.8 360 12:56 13.03.2020
6669 Snow -7 984 79 10000 9.8 360 12:38 13.03.2020
6670 Snow -7 983 79 4000 9.8 350 12:19 13.03.2020
6671 Snow -7 982 79 2500 9.8 350 11:45 13.03.2020
6672 Snow -7 981 85 1000 9.8 350 11:26 13.03.2020
6673 Snow -7 980 85 900 9.3 350 10:58 13.03.2020
6674 Snow -7 980 85 900 9.3 350 10:39 13.03.2020
6675 Snow -7 979 85 2100 9.3 350 10:21 13.03.2020
6676 Snow -6 978 79 2900 7.7 350 09:44 13.03.2020
6677 Snow -6 977 79 2800 8.2 350 09:25 13.03.2020
6678 Snow -6 977 85 4000 6.7 340 08:48 13.03.2020
6679 Snow -6 976 85 10000 6.7 350 08:24 13.03.2020
6680 Snow -6 976 85 10000 6.7 350 07:58 13.03.2020
6681 Snow -6 975 85 9000 6.7 340 07:38 13.03.2020
6682 Snow -6 975 92 9000 6.2 340 07:19 13.03.2020
6683 Snow -6 974 92 10000 5.7 330 06:44 13.03.2020
6684 Snow -6 974 92 10000 5.7 330 06:44 13.03.2020
6685 Snow -5 974 85 10000 6.2 330 05:56 13.03.2020
6686 Snow -5 974 85 10000 6.2 330 05:37 13.03.2020
6687 Snow -5 973 92 6000 6.7 330 04:38 13.03.2020
6688 Snow -5 972 92 10000 6.7 330 03:46 13.03.2020
6689 Snow -2 972 100 5000 4.1 300 01:48 13.03.2020
6690 Snow -1 972 100 3800 1.5 260 01:19 13.03.2020
6691 Snow -1 972 100 6000 2.1 260 00:56 13.03.2020
6692 Snow -1 972 100 4200 2.1 250 00:29 13.03.2020
6693 Snow -1 972 100 4200 2.1 220 23:59 12.03.2020
6694 Snow -1 972 100 4200 2.1 220 23:59 12.03.2020
6695 Snow 0 972 96 3300 2.1 180 23:28 12.03.2020
6696 Snow 0 972 99 5000 2.6 160 22:57 12.03.2020
6697 Snow 0 972 99 5000 2.6 160 22:39 12.03.2020
6698 Snow 0 972 99